<?xml version='1.0' encoding='UTF-8'?><gpx version="1.1" creator="JPX - https://github.com/jenetics/jpx" xmlns="http://www.topografix.com/GPX/1/1"><trk><trkseg><trkpt lat="43.7897006" lon="12.5781201"><ele>183.0</ele><time>2026-04-06T15:56:10.65Z</time></trkpt><trkpt lat="43.7897625" lon="12.5780922"><ele>183.0</ele><time>2026-04-06T15:56:18.665Z</time></trkpt><trkpt lat="43.789695" lon="12.5781083"><ele>183.0</ele><time>2026-04-06T16:01:44.609Z</time></trkpt><trkpt lat="43.7895883" lon="12.5781333"><ele>183.0</ele><time>2026-04-06T16:01:46.605Z</time></trkpt><trkpt lat="43.7895367" lon="12.5782017"><ele>183.0</ele><time>2026-04-06T16:01:47.606Z</time></trkpt><trkpt lat="43.7894817" lon="12.578295"><ele>183.0</ele><time>2026-04-06T16:01:48.607Z</time></trkpt><trkpt lat="43.78938" lon="12.5783583"><ele>185.0</ele><time>2026-04-06T16:01:50.605Z</time></trkpt><trkpt lat="43.789245" lon="12.5784483"><ele>187.0</ele><time>2026-04-06T16:01:52.604Z</time></trkpt><trkpt lat="43.7891683" lon="12.5785183"><ele>189.0</ele><time>2026-04-06T16:01:53.604Z</time></trkpt><trkpt lat="43.7891" lon="12.578625"><ele>191.0</ele><time>2026-04-06T16:01:54.606Z</time></trkpt><trkpt lat="43.789045" lon="12.57874"><ele>193.0</ele><time>2026-04-06T16:01:55.608Z</time></trkpt><trkpt lat="43.789" lon="12.57882"><ele>193.0</ele><time>2026-04-06T16:01:56.604Z</time></trkpt><trkpt lat="43.7888917" lon="12.5789167"><ele>193.0</ele><time>2026-04-06T16:01:58.606Z</time></trkpt><trkpt lat="43.7888233" lon="12.5789633"><ele>193.0</ele><time>2026-04-06T16:01:59.605Z</time></trkpt><trkpt lat="43.7887583" lon="12.5790067"><ele>193.0</ele><time>2026-04-06T16:02:00.606Z</time></trkpt><trkpt lat="43.78865" lon="12.5790617"><ele>193.0</ele><time>2026-04-06T16:02:02.605Z</time></trkpt><trkpt lat="43.7885533" lon="12.5791283"><ele>195.8</ele><time>2026-04-06T16:02:04.606Z</time></trkpt><trkpt lat="43.7884483" lon="12.5792117"><ele>198.60000000000002</ele><time>2026-04-06T16:02:06.606Z</time></trkpt><trkpt lat="43.78835" lon="12.5792983"><ele>201.39999999999998</ele><time>2026-04-06T16:02:08.604Z</time></trkpt><trkpt lat="43.7882967" lon="12.5794067"><ele>204.2</ele><time>2026-04-06T16:02:10.605Z</time></trkpt><trkpt lat="43.7882917" lon="12.5795367"><ele>207.0</ele><time>2026-04-06T16:02:12.605Z</time></trkpt><trkpt lat="43.78834" lon="12.5796967"><ele>207.8</ele><time>2026-04-06T16:02:14.604Z</time></trkpt><trkpt lat="43.7883633" lon="12.57979"><ele>208.6</ele><time>2026-04-06T16:02:15.604Z</time></trkpt><trkpt lat="43.7883917" lon="12.5799367"><ele>209.4</ele><time>2026-04-06T16:02:17.605Z</time></trkpt><trkpt lat="43.7883933" lon="12.58006"><ele>210.20000000000002</ele><time>2026-04-06T16:02:19.605Z</time></trkpt><trkpt lat="43.7883483" lon="12.5801717"><ele>211.0</ele><time>2026-04-06T16:02:21.604Z</time></trkpt><trkpt lat="43.788275" lon="12.5802483"><ele>211.0</ele><time>2026-04-06T16:02:23.605Z</time></trkpt><trkpt lat="43.788185" lon="12.5802483"><ele>211.0</ele><time>2026-04-06T16:02:25.61Z</time></trkpt><trkpt lat="43.788105" lon="12.5801383"><ele>211.0</ele><time>2026-04-06T16:02:27.606Z</time></trkpt><trkpt lat="43.78802" lon="12.5800283"><ele>211.0</ele><time>2026-04-06T16:02:29.605Z</time></trkpt><trkpt lat="43.7879683" lon="12.57997"><ele>211.0</ele><time>2026-04-06T16:02:30.604Z</time></trkpt><trkpt lat="43.78791" lon="12.5799233"><ele>211.0</ele><time>2026-04-06T16:02:31.605Z</time></trkpt><trkpt lat="43.7878333" lon="12.57987"><ele>211.0</ele><time>2026-04-06T16:02:32.604Z</time></trkpt><trkpt lat="43.7877467" lon="12.5798067"><ele>211.0</ele><time>2026-04-06T16:02:33.605Z</time></trkpt><trkpt lat="43.7876333" lon="12.57974"><ele>211.0</ele><time>2026-04-06T16:02:34.606Z</time></trkpt><trkpt lat="43.7875267" lon="12.5796783"><ele>211.0</ele><time>2026-04-06T16:02:35.604Z</time></trkpt><trkpt lat="43.7874483" lon="12.5796233"><ele>214.20000000000002</ele><time>2026-04-06T16:02:36.604Z</time></trkpt><trkpt lat="43.78737" lon="12.57957"><ele>217.4</ele><time>2026-04-06T16:02:37.606Z</time></trkpt><trkpt lat="43.78729" lon="12.5795233"><ele>220.6</ele><time>2026-04-06T16:02:38.604Z</time></trkpt><trkpt lat="43.78721" lon="12.5794817"><ele>223.8</ele><time>2026-04-06T16:02:39.604Z</time></trkpt><trkpt lat="43.7871133" lon="12.5794233"><ele>227.0</ele><time>2026-04-06T16:02:40.604Z</time></trkpt><trkpt lat="43.787005" lon="12.5793533"><ele>227.00000000000003</ele><time>2026-04-06T16:02:41.605Z</time></trkpt><trkpt lat="43.78692" lon="12.5792983"><ele>227.0</ele><time>2026-04-06T16:02:42.604Z</time></trkpt><trkpt lat="43.786845" lon="12.5792433"><ele>227.0</ele><time>2026-04-06T16:02:43.606Z</time></trkpt><trkpt lat="43.7867717" lon="12.579185"><ele>227.0</ele><time>2026-04-06T16:02:44.605Z</time></trkpt><trkpt lat="43.7866967" lon="12.5791317"><ele>227.00000000000003</ele><time>2026-04-06T16:02:45.604Z</time></trkpt><trkpt lat="43.786625" lon="12.5790867"><ele>227.0</ele><time>2026-04-06T16:02:46.606Z</time></trkpt><trkpt lat="43.7865533" lon="12.5790467"><ele>229.66666666666669</ele><time>2026-04-06T16:02:47.605Z</time></trkpt><trkpt lat="43.7864833" lon="12.57898"><ele>232.33333333333334</ele><time>2026-04-06T16:02:48.605Z</time></trkpt><trkpt lat="43.786415" lon="12.5789067"><ele>235.0</ele><time>2026-04-06T16:02:49.605Z</time></trkpt><trkpt lat="43.7863517" lon="12.5788383"><ele>237.66666666666669</ele><time>2026-04-06T16:02:50.604Z</time></trkpt><trkpt lat="43.7863017" lon="12.5787483"><ele>240.33333333333334</ele><time>2026-04-06T16:02:51.604Z</time></trkpt><trkpt lat="43.7862417" lon="12.5786717"><ele>243.0</ele><time>2026-04-06T16:02:52.606Z</time></trkpt><trkpt lat="43.7861767" lon="12.578585"><ele>243.0</ele><time>2026-04-06T16:02:53.605Z</time></trkpt><trkpt lat="43.786105" lon="12.5785"><ele>243.0</ele><time>2026-04-06T16:02:54.605Z</time></trkpt><trkpt lat="43.7860317" lon="12.5784283"><ele>243.0</ele><time>2026-04-06T16:02:55.606Z</time></trkpt><trkpt lat="43.78595" lon="12.5783533"><ele>243.0</ele><time>2026-04-06T16:02:56.605Z</time></trkpt><trkpt lat="43.785865" lon="12.57826"><ele>243.0</ele><time>2026-04-06T16:02:57.605Z</time></trkpt><trkpt lat="43.7857933" lon="12.578165"><ele>246.0</ele><time>2026-04-06T16:02:58.604Z</time></trkpt><trkpt lat="43.7857217" lon="12.578055"><ele>249.0</ele><time>2026-04-06T16:02:59.605Z</time></trkpt><trkpt lat="43.78566" lon="12.577935"><ele>252.0</ele><time>2026-04-06T16:03:00.605Z</time></trkpt><trkpt lat="43.7856133" lon="12.577815"><ele>255.0</ele><time>2026-04-06T16:03:01.608Z</time></trkpt><trkpt lat="43.7855767" lon="12.5777133"><ele>258.0</ele><time>2026-04-06T16:03:02.604Z</time></trkpt><trkpt lat="43.7855367" lon="12.5776183"><ele>258.0</ele><time>2026-04-06T16:03:03.604Z</time></trkpt><trkpt lat="43.7855033" lon="12.5775283"><ele>258.0</ele><time>2026-04-06T16:03:04.604Z</time></trkpt><trkpt lat="43.7854583" lon="12.5774517"><ele>258.0</ele><time>2026-04-06T16:03:05.604Z</time></trkpt><trkpt lat="43.7854083" lon="12.57739"><ele>258.0</ele><time>2026-04-06T16:03:06.605Z</time></trkpt><trkpt lat="43.785305" lon="12.5773233"><ele>258.0</ele><time>2026-04-06T16:03:08.604Z</time></trkpt><trkpt lat="43.7851767" lon="12.5772967"><ele>260.5</ele><time>2026-04-06T16:03:10.607Z</time></trkpt><trkpt lat="43.7851044" lon="12.5772988"><ele>263.0</ele><time>2026-04-06T16:03:11.605Z</time></trkpt><trkpt lat="43.7850161" lon="12.5772999"><ele>265.5</ele><time>2026-04-06T16:03:12.605Z</time></trkpt><trkpt lat="43.7849326" lon="12.577304"><ele>268.0</ele><time>2026-04-06T16:03:13.605Z</time></trkpt><trkpt lat="43.7848501" lon="12.5773098"><ele>270.5</ele><time>2026-04-06T16:03:14.604Z</time></trkpt><trkpt lat="43.7847569" lon="12.5773129"><ele>273.0</ele><time>2026-04-06T16:03:15.605Z</time></trkpt><trkpt lat="43.784671" lon="12.5773171"><ele>273.0</ele><time>2026-04-06T16:03:16.605Z</time></trkpt><trkpt lat="43.7845922" lon="12.5773107"><ele>273.0</ele><time>2026-04-06T16:03:17.604Z</time></trkpt><trkpt lat="43.7845219" lon="12.5773062"><ele>273.0</ele><time>2026-04-06T16:03:18.604Z</time></trkpt><trkpt lat="43.7844534" lon="12.5773028"><ele>273.0</ele><time>2026-04-06T16:03:19.606Z</time></trkpt><trkpt lat="43.7843827" lon="12.5772875"><ele>273.0</ele><time>2026-04-06T16:03:20.604Z</time></trkpt><trkpt lat="43.78431" lon="12.5772554"><ele>273.0</ele><time>2026-04-06T16:03:21.605Z</time></trkpt><trkpt lat="43.7842426" lon="12.5772148"><ele>273.0</ele><time>2026-04-06T16:03:22.605Z</time></trkpt><trkpt lat="43.7841845" lon="12.5771523"><ele>273.8333333333333</ele><time>2026-04-06T16:03:23.605Z</time></trkpt><trkpt lat="43.7841295" lon="12.5770761"><ele>274.6666666666667</ele><time>2026-04-06T16:03:24.605Z</time></trkpt><trkpt lat="43.7840724" lon="12.5770001"><ele>275.5</ele><time>2026-04-06T16:03:25.605Z</time></trkpt><trkpt lat="43.7840096" lon="12.5769263"><ele>276.33333333333337</ele><time>2026-04-06T16:03:26.607Z</time></trkpt><trkpt lat="43.7839434" lon="12.5768634"><ele>277.1666666666667</ele><time>2026-04-06T16:03:27.604Z</time></trkpt><trkpt lat="43.7838815" lon="12.5768122"><ele>278.0</ele><time>2026-04-06T16:03:28.605Z</time></trkpt><trkpt lat="43.7838069" lon="12.5767829"><ele>278.0</ele><time>2026-04-06T16:03:29.606Z</time></trkpt><trkpt lat="43.7837161" lon="12.5767739"><ele>278.0</ele><time>2026-04-06T16:03:30.604Z</time></trkpt><trkpt lat="43.783617" lon="12.5767667"><ele>278.0</ele><time>2026-04-06T16:03:31.604Z</time></trkpt><trkpt lat="43.7835253" lon="12.5767526"><ele>278.0</ele><time>2026-04-06T16:03:32.605Z</time></trkpt><trkpt lat="43.7834471" lon="12.5767399"><ele>278.0</ele><time>2026-04-06T16:03:33.605Z</time></trkpt><trkpt lat="43.7833765" lon="12.5767342"><ele>278.0</ele><time>2026-04-06T16:03:34.604Z</time></trkpt><trkpt lat="43.783311" lon="12.5767328"><ele>280.4</ele><time>2026-04-06T16:03:35.604Z</time></trkpt><trkpt lat="43.7832468" lon="12.5767477"><ele>282.8</ele><time>2026-04-06T16:03:36.605Z</time></trkpt><trkpt lat="43.7831836" lon="12.5767968"><ele>285.2</ele><time>2026-04-06T16:03:37.607Z</time></trkpt><trkpt lat="43.7831087" lon="12.5768694"><ele>287.6</ele><time>2026-04-06T16:03:38.607Z</time></trkpt><trkpt lat="43.7830135" lon="12.5769651"><ele>290.0</ele><time>2026-04-06T16:03:39.607Z</time></trkpt><trkpt lat="43.7829086" lon="12.5770707"><ele>291.33333333333337</ele><time>2026-04-06T16:03:40.604Z</time></trkpt><trkpt lat="43.7828194" lon="12.5771586"><ele>292.6666666666667</ele><time>2026-04-06T16:03:41.612Z</time></trkpt><trkpt lat="43.7827509" lon="12.577228"><ele>294.0</ele><time>2026-04-06T16:03:42.604Z</time></trkpt><trkpt lat="43.7826866" lon="12.5772951"><ele>295.3333333333333</ele><time>2026-04-06T16:03:43.605Z</time></trkpt><trkpt lat="43.7826261" lon="12.577363"><ele>296.66666666666663</ele><time>2026-04-06T16:03:44.605Z</time></trkpt><trkpt lat="43.7825749" lon="12.5774449"><ele>298.0</ele><time>2026-04-06T16:03:45.604Z</time></trkpt><trkpt lat="43.7825303" lon="12.5775381"><ele>298.0</ele><time>2026-04-06T16:03:46.604Z</time></trkpt><trkpt lat="43.7824843" lon="12.5776583"><ele>298.0</ele><time>2026-04-06T16:03:47.604Z</time></trkpt><trkpt lat="43.7824276" lon="12.5778087"><ele>298.0</ele><time>2026-04-06T16:03:48.604Z</time></trkpt><trkpt lat="43.7823723" lon="12.5779462"><ele>298.0</ele><time>2026-04-06T16:03:49.605Z</time></trkpt><trkpt lat="43.7823182" lon="12.5780527"><ele>298.0</ele><time>2026-04-06T16:03:50.606Z</time></trkpt><trkpt lat="43.78227" lon="12.5781398"><ele>300.4</ele><time>2026-04-06T16:03:51.606Z</time></trkpt><trkpt lat="43.7822306" lon="12.5782095"><ele>302.8</ele><time>2026-04-06T16:03:52.608Z</time></trkpt><trkpt lat="43.7821611" lon="12.5783248"><ele>305.2</ele><time>2026-04-06T16:03:54.606Z</time></trkpt><trkpt lat="43.7820976" lon="12.5784321"><ele>307.6</ele><time>2026-04-06T16:03:56.606Z</time></trkpt><trkpt lat="43.7820406" lon="12.578533"><ele>310.0</ele><time>2026-04-06T16:03:58.607Z</time></trkpt><trkpt lat="43.7819851" lon="12.5786273"><ele>311.0</ele><time>2026-04-06T16:04:00.605Z</time></trkpt><trkpt lat="43.7819559" lon="12.5787083"><ele>312.0</ele><time>2026-04-06T16:04:01.604Z</time></trkpt><trkpt lat="43.7819068" lon="12.5788413"><ele>313.0</ele><time>2026-04-06T16:04:03.605Z</time></trkpt><trkpt lat="43.7818669" lon="12.5789276"><ele>314.0</ele><time>2026-04-06T16:04:05.604Z</time></trkpt><trkpt lat="43.7818186" lon="12.57901"><ele>315.0</ele><time>2026-04-06T16:04:07.604Z</time></trkpt><trkpt lat="43.7817567" lon="12.5790869"><ele>316.0</ele><time>2026-04-06T16:04:09.605Z</time></trkpt><trkpt lat="43.7817071" lon="12.5791478"><ele>313.5714285714286</ele><time>2026-04-06T16:04:11.605Z</time></trkpt><trkpt lat="43.7816377" lon="12.5791732"><ele>311.14285714285717</ele><time>2026-04-06T16:04:14.603Z</time></trkpt><trkpt lat="43.7815633" lon="12.57917"><ele>308.7142857142857</ele><time>2026-04-06T16:04:33.604Z</time></trkpt><trkpt lat="43.7814867" lon="12.57918"><ele>306.28571428571433</ele><time>2026-04-06T16:04:35.603Z</time></trkpt><trkpt lat="43.7814233" lon="12.5791817"><ele>303.8571428571429</ele><time>2026-04-06T16:04:36.602Z</time></trkpt><trkpt lat="43.78136" lon="12.5791717"><ele>301.42857142857144</ele><time>2026-04-06T16:04:37.607Z</time></trkpt><trkpt lat="43.7812967" lon="12.57916"><ele>299.0</ele><time>2026-04-06T16:04:38.603Z</time></trkpt><trkpt lat="43.7811783" lon="12.579135"><ele>299.0</ele><time>2026-04-06T16:04:40.604Z</time></trkpt><trkpt lat="43.78111" lon="12.579125"><ele>299.0</ele><time>2026-04-06T16:04:41.605Z</time></trkpt><trkpt lat="43.7810333" lon="12.579115"><ele>299.0</ele><time>2026-04-06T16:04:42.603Z</time></trkpt><trkpt lat="43.780955" lon="12.579105"><ele>299.0</ele><time>2026-04-06T16:04:43.604Z</time></trkpt><trkpt lat="43.7808747" lon="12.5790968"><ele>299.0</ele><time>2026-04-06T16:04:44.603Z</time></trkpt><trkpt lat="43.7807967" lon="12.5790877"><ele>299.0</ele><time>2026-04-06T16:04:45.603Z</time></trkpt><trkpt lat="43.7807177" lon="12.5790801"><ele>297.4</ele><time>2026-04-06T16:04:46.603Z</time></trkpt><trkpt lat="43.7806346" lon="12.5790739"><ele>295.79999999999995</ele><time>2026-04-06T16:04:47.603Z</time></trkpt><trkpt lat="43.7805485" lon="12.5790654"><ele>294.20000000000005</ele><time>2026-04-06T16:04:48.605Z</time></trkpt><trkpt lat="43.7804562" lon="12.5790585"><ele>292.6</ele><time>2026-04-06T16:04:49.604Z</time></trkpt><trkpt lat="43.7803549" lon="12.5790505"><ele>291.0</ele><time>2026-04-06T16:04:50.607Z</time></trkpt><trkpt lat="43.7802496" lon="12.5790426"><ele>291.2</ele><time>2026-04-06T16:04:51.603Z</time></trkpt><trkpt lat="43.7801421" lon="12.5790296"><ele>291.40000000000003</ele><time>2026-04-06T16:04:52.604Z</time></trkpt><trkpt lat="43.7800356" lon="12.5790077"><ele>291.6</ele><time>2026-04-06T16:04:53.605Z</time></trkpt><trkpt lat="43.7799312" lon="12.578981"><ele>291.8</ele><time>2026-04-06T16:04:54.606Z</time></trkpt><trkpt lat="43.7798264" lon="12.5789693"><ele>292.0</ele><time>2026-04-06T16:04:55.613Z</time></trkpt><trkpt lat="43.7797183" lon="12.5789676"><ele>292.0</ele><time>2026-04-06T16:04:56.606Z</time></trkpt><trkpt lat="43.7796026" lon="12.5789735"><ele>292.0</ele><time>2026-04-06T16:04:57.61Z</time></trkpt><trkpt lat="43.7794848" lon="12.5789783"><ele>292.0</ele><time>2026-04-06T16:04:58.606Z</time></trkpt><trkpt lat="43.7793673" lon="12.5789546"><ele>292.0</ele><time>2026-04-06T16:04:59.606Z</time></trkpt><trkpt lat="43.7792442" lon="12.5789044"><ele>292.25</ele><time>2026-04-06T16:05:00.605Z</time></trkpt><trkpt lat="43.779112" lon="12.5788272"><ele>292.5</ele><time>2026-04-06T16:05:01.606Z</time></trkpt><trkpt lat="43.7789863" lon="12.5787318"><ele>292.75</ele><time>2026-04-06T16:05:02.604Z</time></trkpt><trkpt lat="43.7788787" lon="12.5786247"><ele>293.0</ele><time>2026-04-06T16:05:03.602Z</time></trkpt><trkpt lat="43.778788" lon="12.5785204"><ele>293.0</ele><time>2026-04-06T16:05:04.603Z</time></trkpt><trkpt lat="43.7787113" lon="12.578429"><ele>293.0</ele><time>2026-04-06T16:05:05.603Z</time></trkpt><trkpt lat="43.7786259" lon="12.5783597"><ele>293.0</ele><time>2026-04-06T16:05:06.604Z</time></trkpt><trkpt lat="43.7784994" lon="12.5783286"><ele>293.0</ele><time>2026-04-06T16:05:07.603Z</time></trkpt><trkpt lat="43.7783478" lon="12.5783215"><ele>297.6666666666667</ele><time>2026-04-06T16:05:08.602Z</time></trkpt><trkpt lat="43.7781752" lon="12.5783092"><ele>302.3333333333333</ele><time>2026-04-06T16:05:09.602Z</time></trkpt><trkpt lat="43.7779764" lon="12.5782454"><ele>307.0</ele><time>2026-04-06T16:05:10.603Z</time></trkpt><trkpt lat="43.7777622" lon="12.5781436"><ele>306.66666666666663</ele><time>2026-04-06T16:05:11.603Z</time></trkpt><trkpt lat="43.77755" lon="12.5780287"><ele>306.3333333333333</ele><time>2026-04-06T16:05:12.603Z</time></trkpt><trkpt lat="43.7773657" lon="12.5779315"><ele>306.0</ele><time>2026-04-06T16:05:13.603Z</time></trkpt><trkpt lat="43.7772073" lon="12.5778389"><ele>306.0</ele><time>2026-04-06T16:05:14.602Z</time></trkpt><trkpt lat="43.7770631" lon="12.5777036"><ele>306.0</ele><time>2026-04-06T16:05:15.603Z</time></trkpt><trkpt lat="43.7769185" lon="12.5775288"><ele>306.0</ele><time>2026-04-06T16:05:16.604Z</time></trkpt><trkpt lat="43.7767634" lon="12.5773345"><ele>308.6666666666667</ele><time>2026-04-06T16:05:17.603Z</time></trkpt><trkpt lat="43.7765958" lon="12.5771439"><ele>311.33333333333337</ele><time>2026-04-06T16:05:18.603Z</time></trkpt><trkpt lat="43.7764149" lon="12.5769574"><ele>314.0</ele><time>2026-04-06T16:05:19.605Z</time></trkpt><trkpt lat="43.7762238" lon="12.5767704"><ele>314.0</ele><time>2026-04-06T16:05:20.603Z</time></trkpt><trkpt lat="43.7760386" lon="12.5765795"><ele>314.0</ele><time>2026-04-06T16:05:21.604Z</time></trkpt><trkpt lat="43.775872" lon="12.5763913"><ele>314.0</ele><time>2026-04-06T16:05:22.604Z</time></trkpt><trkpt lat="43.775726" lon="12.5762048"><ele>318.0</ele><time>2026-04-06T16:05:23.604Z</time></trkpt><trkpt lat="43.7755927" lon="12.5760428"><ele>322.0</ele><time>2026-04-06T16:05:24.603Z</time></trkpt><trkpt lat="43.7754586" lon="12.5759216"><ele>326.0</ele><time>2026-04-06T16:05:25.603Z</time></trkpt><trkpt lat="43.775324" lon="12.5758472"><ele>326.0</ele><time>2026-04-06T16:05:26.605Z</time></trkpt><trkpt lat="43.7751929" lon="12.5757974"><ele>326.0</ele><time>2026-04-06T16:05:27.602Z</time></trkpt><trkpt lat="43.7750669" lon="12.5757431"><ele>326.0</ele><time>2026-04-06T16:05:28.603Z</time></trkpt><trkpt lat="43.7749498" lon="12.5756588"><ele>326.0</ele><time>2026-04-06T16:05:29.602Z</time></trkpt><trkpt lat="43.7748577" lon="12.5755233"><ele>327.0</ele><time>2026-04-06T16:05:30.603Z</time></trkpt><trkpt lat="43.7747807" lon="12.5753505"><ele>328.0</ele><time>2026-04-06T16:05:31.604Z</time></trkpt><trkpt lat="43.7747063" lon="12.5751461"><ele>329.0</ele><time>2026-04-06T16:05:32.603Z</time></trkpt><trkpt lat="43.7746208" lon="12.5749172"><ele>329.0</ele><time>2026-04-06T16:05:33.602Z</time></trkpt><trkpt lat="43.7745234" lon="12.5746824"><ele>329.0</ele><time>2026-04-06T16:05:34.604Z</time></trkpt><trkpt lat="43.7744263" lon="12.5744521"><ele>329.0</ele><time>2026-04-06T16:05:35.603Z</time></trkpt><trkpt lat="43.7743402" lon="12.5742246"><ele>332.6666666666667</ele><time>2026-04-06T16:05:36.603Z</time></trkpt><trkpt lat="43.7742645" lon="12.5739939"><ele>336.3333333333333</ele><time>2026-04-06T16:05:37.604Z</time></trkpt><trkpt lat="43.7742124" lon="12.57376"><ele>340.0</ele><time>2026-04-06T16:05:38.603Z</time></trkpt><trkpt lat="43.7741797" lon="12.5735425"><ele>340.0</ele><time>2026-04-06T16:05:39.603Z</time></trkpt><trkpt lat="43.7741531" lon="12.5733317"><ele>340.0</ele><time>2026-04-06T16:05:40.603Z</time></trkpt><trkpt lat="43.7741333" lon="12.5731588"><ele>340.0</ele><time>2026-04-06T16:05:41.604Z</time></trkpt><trkpt lat="43.7741192" lon="12.5730094"><ele>340.0</ele><time>2026-04-06T16:05:42.606Z</time></trkpt><trkpt lat="43.7741033" lon="12.5728716"><ele>340.4</ele><time>2026-04-06T16:05:43.603Z</time></trkpt><trkpt lat="43.7740878" lon="12.5727367"><ele>340.8</ele><time>2026-04-06T16:05:44.603Z</time></trkpt><trkpt lat="43.7740708" lon="12.5726047"><ele>341.20000000000005</ele><time>2026-04-06T16:05:45.603Z</time></trkpt><trkpt lat="43.774052" lon="12.5724755"><ele>341.6</ele><time>2026-04-06T16:05:46.604Z</time></trkpt><trkpt lat="43.774021" lon="12.572353"><ele>342.0</ele><time>2026-04-06T16:05:47.604Z</time></trkpt><trkpt lat="43.7739725" lon="12.5722408"><ele>342.0</ele><time>2026-04-06T16:05:48.604Z</time></trkpt><trkpt lat="43.7739075" lon="12.572138"><ele>342.0</ele><time>2026-04-06T16:05:49.604Z</time></trkpt><trkpt lat="43.7738329" lon="12.5720435"><ele>342.0</ele><time>2026-04-06T16:05:50.603Z</time></trkpt><trkpt lat="43.77374" lon="12.5719583"><ele>342.0</ele><time>2026-04-06T16:05:51.604Z</time></trkpt><trkpt lat="43.7736333" lon="12.5718733"><ele>342.0</ele><time>2026-04-06T16:05:52.604Z</time></trkpt><trkpt lat="43.7735233" lon="12.5718017"><ele>343.20000000000005</ele><time>2026-04-06T16:05:53.602Z</time></trkpt><trkpt lat="43.773415" lon="12.5717617"><ele>344.4</ele><time>2026-04-06T16:05:54.602Z</time></trkpt><trkpt lat="43.7733133" lon="12.5717133"><ele>345.6</ele><time>2026-04-06T16:05:55.602Z</time></trkpt><trkpt lat="43.7732233" lon="12.571645"><ele>346.79999999999995</ele><time>2026-04-06T16:05:56.603Z</time></trkpt><trkpt lat="43.7731383" lon="12.57156"><ele>348.0</ele><time>2026-04-06T16:05:57.603Z</time></trkpt><trkpt lat="43.7730583" lon="12.5714683"><ele>348.0</ele><time>2026-04-06T16:05:58.603Z</time></trkpt><trkpt lat="43.7729867" lon="12.5713767"><ele>348.0</ele><time>2026-04-06T16:05:59.605Z</time></trkpt><trkpt lat="43.7729283" lon="12.5712717"><ele>348.0</ele><time>2026-04-06T16:06:00.603Z</time></trkpt><trkpt lat="43.7728533" lon="12.5711783"><ele>348.0</ele><time>2026-04-06T16:06:01.605Z</time></trkpt><trkpt lat="43.7727633" lon="12.5710933"><ele>348.0</ele><time>2026-04-06T16:06:02.604Z</time></trkpt><trkpt lat="43.7726517" lon="12.57103"><ele>349.5</ele><time>2026-04-06T16:06:03.603Z</time></trkpt><trkpt lat="43.7725267" lon="12.570975"><ele>351.0</ele><time>2026-04-06T16:06:04.603Z</time></trkpt><trkpt lat="43.7723983" lon="12.5709267"><ele>352.5</ele><time>2026-04-06T16:06:05.604Z</time></trkpt><trkpt lat="43.77227" lon="12.5708733"><ele>354.0</ele><time>2026-04-06T16:06:06.603Z</time></trkpt><trkpt lat="43.7721367" lon="12.57084"><ele>354.0</ele><time>2026-04-06T16:06:07.603Z</time></trkpt><trkpt lat="43.772005" lon="12.5708267"><ele>354.0</ele><time>2026-04-06T16:06:08.612Z</time></trkpt><trkpt lat="43.7718767" lon="12.5708417"><ele>354.0</ele><time>2026-04-06T16:06:09.607Z</time></trkpt><trkpt lat="43.7717583" lon="12.57087"><ele>354.0</ele><time>2026-04-06T16:06:10.603Z</time></trkpt><trkpt lat="43.7716533" lon="12.5708983"><ele>356.0</ele><time>2026-04-06T16:06:11.605Z</time></trkpt><trkpt lat="43.77156" lon="12.570915"><ele>358.0</ele><time>2026-04-06T16:06:12.605Z</time></trkpt><trkpt lat="43.77148" lon="12.5709333"><ele>360.0</ele><time>2026-04-06T16:06:13.604Z</time></trkpt><trkpt lat="43.771405" lon="12.5709667"><ele>362.0</ele><time>2026-04-06T16:06:14.603Z</time></trkpt><trkpt lat="43.77133" lon="12.5709717"><ele>364.0</ele><time>2026-04-06T16:06:15.605Z</time></trkpt><trkpt lat="43.7712517" lon="12.5709033"><ele>366.0</ele><time>2026-04-06T16:06:16.602Z</time></trkpt><trkpt lat="43.7711883" lon="12.5707717"><ele>366.0</ele><time>2026-04-06T16:06:17.602Z</time></trkpt><trkpt lat="43.7711183" lon="12.5706283"><ele>366.0</ele><time>2026-04-06T16:06:18.603Z</time></trkpt><trkpt lat="43.7710367" lon="12.5704783"><ele>366.0</ele><time>2026-04-06T16:06:19.604Z</time></trkpt><trkpt lat="43.7709583" lon="12.5703267"><ele>366.0</ele><time>2026-04-06T16:06:20.603Z</time></trkpt><trkpt lat="43.7708817" lon="12.5701983"><ele>369.0</ele><time>2026-04-06T16:06:21.603Z</time></trkpt><trkpt lat="43.7708017" lon="12.5700933"><ele>372.0</ele><time>2026-04-06T16:06:22.604Z</time></trkpt><trkpt lat="43.7707133" lon="12.5700217"><ele>375.0</ele><time>2026-04-06T16:06:23.603Z</time></trkpt><trkpt lat="43.7706133" lon="12.56996"><ele>378.0</ele><time>2026-04-06T16:06:24.61Z</time></trkpt><trkpt lat="43.7705079" lon="12.5699264"><ele>381.0</ele><time>2026-04-06T16:06:25.602Z</time></trkpt><trkpt lat="43.770401" lon="12.569904"><ele>381.0</ele><time>2026-04-06T16:06:26.604Z</time></trkpt><trkpt lat="43.7702941" lon="12.5698884"><ele>381.0</ele><time>2026-04-06T16:06:27.603Z</time></trkpt><trkpt lat="43.7701945" lon="12.5698304"><ele>381.0</ele><time>2026-04-06T16:06:28.603Z</time></trkpt><trkpt lat="43.7701024" lon="12.5697414"><ele>381.0</ele><time>2026-04-06T16:06:29.603Z</time></trkpt><trkpt lat="43.7700167" lon="12.5696376"><ele>381.0</ele><time>2026-04-06T16:06:30.606Z</time></trkpt><trkpt lat="43.7699331" lon="12.5695368"><ele>381.4</ele><time>2026-04-06T16:06:31.607Z</time></trkpt><trkpt lat="43.7698388" lon="12.5694535"><ele>381.8</ele><time>2026-04-06T16:06:32.603Z</time></trkpt><trkpt lat="43.7697321" lon="12.5694053"><ele>382.2</ele><time>2026-04-06T16:06:33.604Z</time></trkpt><trkpt lat="43.7696234" lon="12.5693796"><ele>382.59999999999997</ele><time>2026-04-06T16:06:34.603Z</time></trkpt><trkpt lat="43.7695205" lon="12.5693737"><ele>383.0</ele><time>2026-04-06T16:06:35.605Z</time></trkpt><trkpt lat="43.7694283" lon="12.5693797"><ele>381.83333333333337</ele><time>2026-04-06T16:06:36.603Z</time></trkpt><trkpt lat="43.7693452" lon="12.5693871"><ele>380.6666666666667</ele><time>2026-04-06T16:06:37.604Z</time></trkpt><trkpt lat="43.769268" lon="12.5693826"><ele>379.5</ele><time>2026-04-06T16:06:38.602Z</time></trkpt><trkpt lat="43.7692035" lon="12.5693413"><ele>378.3333333333333</ele><time>2026-04-06T16:06:39.602Z</time></trkpt><trkpt lat="43.7691512" lon="12.569269"><ele>377.16666666666663</ele><time>2026-04-06T16:06:40.604Z</time></trkpt><trkpt lat="43.7691119" lon="12.5691623"><ele>376.0</ele><time>2026-04-06T16:06:41.603Z</time></trkpt><trkpt lat="43.7690804" lon="12.5690294"><ele>376.0</ele><time>2026-04-06T16:06:42.603Z</time></trkpt><trkpt lat="43.7690409" lon="12.5688927"><ele>376.0</ele><time>2026-04-06T16:06:43.602Z</time></trkpt><trkpt lat="43.7690055" lon="12.5687575"><ele>376.0</ele><time>2026-04-06T16:06:44.602Z</time></trkpt><trkpt lat="43.76897" lon="12.56863"><ele>376.0</ele><time>2026-04-06T16:06:45.603Z</time></trkpt><trkpt lat="43.7689392" lon="12.568511"><ele>376.0</ele><time>2026-04-06T16:06:46.601Z</time></trkpt><trkpt lat="43.768918" lon="12.5683873"><ele>375.0</ele><time>2026-04-06T16:06:47.603Z</time></trkpt><trkpt lat="43.7689116" lon="12.5682496"><ele>374.0</ele><time>2026-04-06T16:06:48.601Z</time></trkpt><trkpt lat="43.7689013" lon="12.568107"><ele>373.0</ele><time>2026-04-06T16:06:49.604Z</time></trkpt><trkpt lat="43.7688873" lon="12.5679735"><ele>372.0</ele><time>2026-04-06T16:06:50.602Z</time></trkpt><trkpt lat="43.7688702" lon="12.5678483"><ele>371.0</ele><time>2026-04-06T16:06:51.603Z</time></trkpt><trkpt lat="43.7688557" lon="12.5677247"><ele>369.8</ele><time>2026-04-06T16:06:52.604Z</time></trkpt><trkpt lat="43.7688413" lon="12.5676033"><ele>368.6</ele><time>2026-04-06T16:06:53.602Z</time></trkpt><trkpt lat="43.7688258" lon="12.5674878"><ele>367.4</ele><time>2026-04-06T16:06:54.602Z</time></trkpt><trkpt lat="43.7688027" lon="12.5673764"><ele>366.2</ele><time>2026-04-06T16:06:55.604Z</time></trkpt><trkpt lat="43.7687564" lon="12.5672531"><ele>365.0</ele><time>2026-04-06T16:06:56.602Z</time></trkpt><trkpt lat="43.7686968" lon="12.5671251"><ele>364.75</ele><time>2026-04-06T16:06:57.602Z</time></trkpt><trkpt lat="43.7686278" lon="12.5669977"><ele>364.5</ele><time>2026-04-06T16:06:58.602Z</time></trkpt><trkpt lat="43.768557" lon="12.5668598"><ele>364.25</ele><time>2026-04-06T16:06:59.606Z</time></trkpt><trkpt lat="43.7684962" lon="12.5667167"><ele>364.0</ele><time>2026-04-06T16:07:00.604Z</time></trkpt><trkpt lat="43.7684434" lon="12.5665635"><ele>364.0</ele><time>2026-04-06T16:07:01.602Z</time></trkpt><trkpt lat="43.7684042" lon="12.5664038"><ele>364.0</ele><time>2026-04-06T16:07:02.601Z</time></trkpt><trkpt lat="43.7683707" lon="12.5662453"><ele>364.0</ele><time>2026-04-06T16:07:03.603Z</time></trkpt><trkpt lat="43.7683386" lon="12.5660938"><ele>364.0</ele><time>2026-04-06T16:07:04.602Z</time></trkpt><trkpt lat="43.7683102" lon="12.5659395"><ele>365.79999999999995</ele><time>2026-04-06T16:07:05.602Z</time></trkpt><trkpt lat="43.7682821" lon="12.5657889"><ele>367.59999999999997</ele><time>2026-04-06T16:07:06.601Z</time></trkpt><trkpt lat="43.7682513" lon="12.5656422"><ele>369.4</ele><time>2026-04-06T16:07:07.602Z</time></trkpt><trkpt lat="43.7682105" lon="12.5655057"><ele>371.2</ele><time>2026-04-06T16:07:08.601Z</time></trkpt><trkpt lat="43.7681536" lon="12.5653778"><ele>373.0</ele><time>2026-04-06T16:07:09.603Z</time></trkpt><trkpt lat="43.7680907" lon="12.5652454"><ele>375.0</ele><time>2026-04-06T16:07:10.602Z</time></trkpt><trkpt lat="43.7680219" lon="12.5651134"><ele>377.0</ele><time>2026-04-06T16:07:11.602Z</time></trkpt><trkpt lat="43.7679563" lon="12.5649797"><ele>379.0</ele><time>2026-04-06T16:07:12.602Z</time></trkpt><trkpt lat="43.7678884" lon="12.5648462"><ele>381.0</ele><time>2026-04-06T16:07:13.603Z</time></trkpt><trkpt lat="43.7678166" lon="12.5647178"><ele>381.0</ele><time>2026-04-06T16:07:14.692Z</time></trkpt><trkpt lat="43.7677595" lon="12.5646008"><ele>381.0</ele><time>2026-04-06T16:07:15.604Z</time></trkpt><trkpt lat="43.7677011" lon="12.5644913"><ele>381.0</ele><time>2026-04-06T16:07:16.606Z</time></trkpt><trkpt lat="43.7676286" lon="12.5643786"><ele>381.0</ele><time>2026-04-06T16:07:17.605Z</time></trkpt><trkpt lat="43.7675486" lon="12.5642573"><ele>381.0</ele><time>2026-04-06T16:07:18.603Z</time></trkpt><trkpt lat="43.7674703" lon="12.564137"><ele>379.0</ele><time>2026-04-06T16:07:19.601Z</time></trkpt><trkpt lat="43.7673916" lon="12.5640293"><ele>377.0</ele><time>2026-04-06T16:07:20.605Z</time></trkpt><trkpt lat="43.7673108" lon="12.5639394"><ele>375.0</ele><time>2026-04-06T16:07:21.602Z</time></trkpt><trkpt lat="43.7672286" lon="12.5638788"><ele>373.0</ele><time>2026-04-06T16:07:22.601Z</time></trkpt><trkpt lat="43.767141" lon="12.563848"><ele>371.0</ele><time>2026-04-06T16:07:23.603Z</time></trkpt><trkpt lat="43.7670464" lon="12.5638468"><ele>371.0</ele><time>2026-04-06T16:07:24.601Z</time></trkpt><trkpt lat="43.7669431" lon="12.5638699"><ele>371.0</ele><time>2026-04-06T16:07:25.604Z</time></trkpt><trkpt lat="43.7668413" lon="12.5639122"><ele>371.0</ele><time>2026-04-06T16:07:26.603Z</time></trkpt><trkpt lat="43.7667384" lon="12.5639618"><ele>371.0</ele><time>2026-04-06T16:07:27.611Z</time></trkpt><trkpt lat="43.7666338" lon="12.5639961"><ele>371.0</ele><time>2026-04-06T16:07:28.602Z</time></trkpt><trkpt lat="43.7665245" lon="12.5639971"><ele>370.4</ele><time>2026-04-06T16:07:29.601Z</time></trkpt><trkpt lat="43.766413" lon="12.5639892"><ele>369.8</ele><time>2026-04-06T16:07:30.602Z</time></trkpt><trkpt lat="43.7663077" lon="12.5639762"><ele>369.2</ele><time>2026-04-06T16:07:31.603Z</time></trkpt><trkpt lat="43.7662059" lon="12.5639617"><ele>368.59999999999997</ele><time>2026-04-06T16:07:32.603Z</time></trkpt><trkpt lat="43.7661047" lon="12.5639411"><ele>368.0</ele><time>2026-04-06T16:07:33.603Z</time></trkpt><trkpt lat="43.7660023" lon="12.5639112"><ele>366.59999999999997</ele><time>2026-04-06T16:07:34.602Z</time></trkpt><trkpt lat="43.7659022" lon="12.5638629"><ele>365.2</ele><time>2026-04-06T16:07:35.602Z</time></trkpt><trkpt lat="43.7658077" lon="12.5637976"><ele>363.8</ele><time>2026-04-06T16:07:36.602Z</time></trkpt><trkpt lat="43.7657173" lon="12.5637255"><ele>362.4</ele><time>2026-04-06T16:07:37.604Z</time></trkpt><trkpt lat="43.765626" lon="12.5636571"><ele>361.0</ele><time>2026-04-06T16:07:38.603Z</time></trkpt><trkpt lat="43.7655329" lon="12.5635901"><ele>362.8</ele><time>2026-04-06T16:07:39.603Z</time></trkpt><trkpt lat="43.7654382" lon="12.5635258"><ele>364.6</ele><time>2026-04-06T16:07:40.603Z</time></trkpt><trkpt lat="43.7653424" lon="12.5634685"><ele>366.4</ele><time>2026-04-06T16:07:41.603Z</time></trkpt><trkpt lat="43.7652541" lon="12.5634119"><ele>368.2</ele><time>2026-04-06T16:07:42.602Z</time></trkpt><trkpt lat="43.7651663" lon="12.5633646"><ele>370.0</ele><time>2026-04-06T16:07:43.603Z</time></trkpt><trkpt lat="43.7650835" lon="12.5633191"><ele>370.0</ele><time>2026-04-06T16:07:44.602Z</time></trkpt><trkpt lat="43.7650067" lon="12.5632858"><ele>370.0</ele><time>2026-04-06T16:07:45.605Z</time></trkpt><trkpt lat="43.7649312" lon="12.5632548"><ele>370.0</ele><time>2026-04-06T16:07:46.602Z</time></trkpt><trkpt lat="43.7648501" lon="12.5632356"><ele>370.0</ele><time>2026-04-06T16:07:47.602Z</time></trkpt><trkpt lat="43.7647573" lon="12.5632172"><ele>370.0</ele><time>2026-04-06T16:07:48.601Z</time></trkpt><trkpt lat="43.7646637" lon="12.563198"><ele>370.0</ele><time>2026-04-06T16:07:49.601Z</time></trkpt><trkpt lat="43.7645743" lon="12.5631881"><ele>370.0</ele><time>2026-04-06T16:07:50.602Z</time></trkpt><trkpt lat="43.7644877" lon="12.5631975"><ele>370.0</ele><time>2026-04-06T16:07:51.602Z</time></trkpt><trkpt lat="43.7644087" lon="12.5632207"><ele>370.0</ele><time>2026-04-06T16:07:52.602Z</time></trkpt><trkpt lat="43.7643291" lon="12.5632436"><ele>370.0</ele><time>2026-04-06T16:07:53.602Z</time></trkpt><trkpt lat="43.7642505" lon="12.5632563"><ele>370.0</ele><time>2026-04-06T16:07:54.601Z</time></trkpt><trkpt lat="43.764171" lon="12.5632711"><ele>370.0</ele><time>2026-04-06T16:07:55.601Z</time></trkpt><trkpt lat="43.7640966" lon="12.5632575"><ele>368.5</ele><time>2026-04-06T16:07:56.604Z</time></trkpt><trkpt lat="43.7640197" lon="12.5632158"><ele>367.0</ele><time>2026-04-06T16:07:57.602Z</time></trkpt><trkpt lat="43.7639456" lon="12.5631602"><ele>365.5</ele><time>2026-04-06T16:07:58.602Z</time></trkpt><trkpt lat="43.7638708" lon="12.5631072"><ele>364.0</ele><time>2026-04-06T16:07:59.601Z</time></trkpt><trkpt lat="43.7637958" lon="12.5630584"><ele>362.5</ele><time>2026-04-06T16:08:00.601Z</time></trkpt><trkpt lat="43.7637136" lon="12.5630295"><ele>361.0</ele><time>2026-04-06T16:08:01.602Z</time></trkpt><trkpt lat="43.7636303" lon="12.56301"><ele>361.0</ele><time>2026-04-06T16:08:02.601Z</time></trkpt><trkpt lat="43.7635444" lon="12.5629957"><ele>361.0</ele><time>2026-04-06T16:08:03.602Z</time></trkpt><trkpt lat="43.7634488" lon="12.5629901"><ele>361.0</ele><time>2026-04-06T16:08:04.601Z</time></trkpt><trkpt lat="43.7633543" lon="12.562999"><ele>361.0</ele><time>2026-04-06T16:08:05.602Z</time></trkpt><trkpt lat="43.763264" lon="12.5630242"><ele>361.0</ele><time>2026-04-06T16:08:06.601Z</time></trkpt><trkpt lat="43.7631722" lon="12.5630449"><ele>360.20000000000005</ele><time>2026-04-06T16:08:07.602Z</time></trkpt><trkpt lat="43.7630828" lon="12.5630486"><ele>359.40000000000003</ele><time>2026-04-06T16:08:08.602Z</time></trkpt><trkpt lat="43.7629891" lon="12.5630407"><ele>358.6</ele><time>2026-04-06T16:08:09.601Z</time></trkpt><trkpt lat="43.7628947" lon="12.5630294"><ele>357.8</ele><time>2026-04-06T16:08:10.602Z</time></trkpt><trkpt lat="43.762807" lon="12.563019"><ele>357.0</ele><time>2026-04-06T16:08:11.603Z</time></trkpt><trkpt lat="43.7627227" lon="12.563015"><ele>357.7142857142857</ele><time>2026-04-06T16:08:12.605Z</time></trkpt><trkpt lat="43.7626451" lon="12.5630049"><ele>358.42857142857144</ele><time>2026-04-06T16:08:13.605Z</time></trkpt><trkpt lat="43.7625711" lon="12.5629954"><ele>359.1428571428571</ele><time>2026-04-06T16:08:14.601Z</time></trkpt><trkpt lat="43.7624997" lon="12.5629766"><ele>359.8571428571429</ele><time>2026-04-06T16:08:15.602Z</time></trkpt><trkpt lat="43.7624335" lon="12.5629599"><ele>360.57142857142856</ele><time>2026-04-06T16:08:16.604Z</time></trkpt><trkpt lat="43.7623675" lon="12.5629432"><ele>361.2857142857143</ele><time>2026-04-06T16:08:17.603Z</time></trkpt><trkpt lat="43.7622978" lon="12.5629251"><ele>362.0</ele><time>2026-04-06T16:08:18.603Z</time></trkpt><trkpt lat="43.7622293" lon="12.5629039"><ele>362.0</ele><time>2026-04-06T16:08:19.602Z</time></trkpt><trkpt lat="43.7621626" lon="12.5628707"><ele>362.0</ele><time>2026-04-06T16:08:20.602Z</time></trkpt><trkpt lat="43.7620949" lon="12.5628267"><ele>362.0</ele><time>2026-04-06T16:08:21.601Z</time></trkpt><trkpt lat="43.7620328" lon="12.5627742"><ele>362.0</ele><time>2026-04-06T16:08:22.601Z</time></trkpt><trkpt lat="43.7619752" lon="12.5627182"><ele>362.0</ele><time>2026-04-06T16:08:23.601Z</time></trkpt><trkpt lat="43.7619151" lon="12.5626655"><ele>362.0</ele><time>2026-04-06T16:08:24.602Z</time></trkpt><trkpt lat="43.7618516" lon="12.5626106"><ele>362.0</ele><time>2026-04-06T16:08:25.602Z</time></trkpt><trkpt lat="43.7617856" lon="12.5625572"><ele>361.1666666666667</ele><time>2026-04-06T16:08:26.601Z</time></trkpt><trkpt lat="43.7617122" lon="12.5625221"><ele>360.33333333333337</ele><time>2026-04-06T16:08:27.601Z</time></trkpt><trkpt lat="43.7616398" lon="12.5624945"><ele>359.5</ele><time>2026-04-06T16:08:28.601Z</time></trkpt><trkpt lat="43.7615714" lon="12.5624995"><ele>358.6666666666667</ele><time>2026-04-06T16:08:29.601Z</time></trkpt><trkpt lat="43.7615003" lon="12.5625347"><ele>357.8333333333333</ele><time>2026-04-06T16:08:30.601Z</time></trkpt><trkpt lat="43.7614204" lon="12.5625786"><ele>357.0</ele><time>2026-04-06T16:08:31.602Z</time></trkpt><trkpt lat="43.7613398" lon="12.5626206"><ele>357.0</ele><time>2026-04-06T16:08:32.601Z</time></trkpt><trkpt lat="43.761258" lon="12.562646"><ele>357.0</ele><time>2026-04-06T16:08:33.601Z</time></trkpt><trkpt lat="43.7611761" lon="12.5626553"><ele>357.0</ele><time>2026-04-06T16:08:34.601Z</time></trkpt><trkpt lat="43.7610965" lon="12.5626483"><ele>357.0</ele><time>2026-04-06T16:08:35.602Z</time></trkpt><trkpt lat="43.7610112" lon="12.5626349"><ele>357.0</ele><time>2026-04-06T16:08:36.601Z</time></trkpt><trkpt lat="43.7609235" lon="12.5626212"><ele>357.0</ele><time>2026-04-06T16:08:37.602Z</time></trkpt><trkpt lat="43.7608416" lon="12.5626125"><ele>355.8333333333333</ele><time>2026-04-06T16:08:38.601Z</time></trkpt><trkpt lat="43.7607636" lon="12.5626038"><ele>354.6666666666667</ele><time>2026-04-06T16:08:39.603Z</time></trkpt><trkpt lat="43.7606778" lon="12.5625988"><ele>353.5</ele><time>2026-04-06T16:08:40.601Z</time></trkpt><trkpt lat="43.7605974" lon="12.5625927"><ele>352.33333333333337</ele><time>2026-04-06T16:08:41.602Z</time></trkpt><trkpt lat="43.7605234" lon="12.5625871"><ele>351.1666666666667</ele><time>2026-04-06T16:08:42.602Z</time></trkpt><trkpt lat="43.7604561" lon="12.562582"><ele>350.0</ele><time>2026-04-06T16:08:43.601Z</time></trkpt><trkpt lat="43.7603428" lon="12.5625755"><ele>350.0</ele><time>2026-04-06T16:08:45.602Z</time></trkpt><trkpt lat="43.7602646" lon="12.5626247"><ele>350.0</ele><time>2026-04-06T16:08:47.602Z</time></trkpt><trkpt lat="43.760235" lon="12.5627441"><ele>350.0</ele><time>2026-04-06T16:08:49.601Z</time></trkpt><trkpt lat="43.7602285" lon="12.5628371"><ele>350.0</ele><time>2026-04-06T16:08:50.602Z</time></trkpt><trkpt lat="43.7602219" lon="12.5629242"><ele>350.0</ele><time>2026-04-06T16:08:51.601Z</time></trkpt><trkpt lat="43.7602251" lon="12.5630178"><ele>350.0</ele><time>2026-04-06T16:08:52.602Z</time></trkpt><trkpt lat="43.7602367" lon="12.5631127"><ele>350.0</ele><time>2026-04-06T16:08:53.602Z</time></trkpt><trkpt lat="43.7602494" lon="12.5632115"><ele>348.83333333333337</ele><time>2026-04-06T16:08:54.602Z</time></trkpt><trkpt lat="43.7602539" lon="12.5633144"><ele>347.6666666666667</ele><time>2026-04-06T16:08:55.602Z</time></trkpt><trkpt lat="43.7602533" lon="12.5634197"><ele>346.5</ele><time>2026-04-06T16:08:56.602Z</time></trkpt><trkpt lat="43.7602428" lon="12.5635274"><ele>345.3333333333333</ele><time>2026-04-06T16:08:57.601Z</time></trkpt><trkpt lat="43.7602236" lon="12.5636252"><ele>344.16666666666663</ele><time>2026-04-06T16:08:58.606Z</time></trkpt><trkpt lat="43.7601996" lon="12.5637183"><ele>343.0</ele><time>2026-04-06T16:08:59.601Z</time></trkpt><trkpt lat="43.7601687" lon="12.5638206"><ele>343.0</ele><time>2026-04-06T16:09:00.603Z</time></trkpt><trkpt lat="43.7601437" lon="12.5639223"><ele>343.0</ele><time>2026-04-06T16:09:01.602Z</time></trkpt><trkpt lat="43.7601197" lon="12.5640288"><ele>343.0</ele><time>2026-04-06T16:09:02.601Z</time></trkpt><trkpt lat="43.7600941" lon="12.564137"><ele>343.0</ele><time>2026-04-06T16:09:03.602Z</time></trkpt><trkpt lat="43.7600789" lon="12.5642379"><ele>343.0</ele><time>2026-04-06T16:09:04.602Z</time></trkpt><trkpt lat="43.7600775" lon="12.5643437"><ele>343.0</ele><time>2026-04-06T16:09:05.601Z</time></trkpt><trkpt lat="43.7600806" lon="12.5644463"><ele>344.0</ele><time>2026-04-06T16:09:06.603Z</time></trkpt><trkpt lat="43.7600781" lon="12.5645459"><ele>345.0</ele><time>2026-04-06T16:09:07.603Z</time></trkpt><trkpt lat="43.7600711" lon="12.5646374"><ele>346.0</ele><time>2026-04-06T16:09:08.602Z</time></trkpt><trkpt lat="43.760059" lon="12.5647242"><ele>347.0</ele><time>2026-04-06T16:09:09.6Z</time></trkpt><trkpt lat="43.7600386" lon="12.5648074"><ele>348.0</ele><time>2026-04-06T16:09:10.601Z</time></trkpt><trkpt lat="43.7600051" lon="12.5648859"><ele>349.0</ele><time>2026-04-06T16:09:11.602Z</time></trkpt><trkpt lat="43.7599642" lon="12.5649595"><ele>350.0</ele><time>2026-04-06T16:09:12.601Z</time></trkpt><trkpt lat="43.7599175" lon="12.5650225"><ele>350.0</ele><time>2026-04-06T16:09:13.604Z</time></trkpt><trkpt lat="43.759865" lon="12.5650735"><ele>350.0</ele><time>2026-04-06T16:09:14.601Z</time></trkpt><trkpt lat="43.7598" lon="12.5651132"><ele>350.0</ele><time>2026-04-06T16:09:15.601Z</time></trkpt><trkpt lat="43.7597293" lon="12.5651525"><ele>350.0</ele><time>2026-04-06T16:09:16.601Z</time></trkpt><trkpt lat="43.7596517" lon="12.565184"><ele>350.0</ele><time>2026-04-06T16:09:17.601Z</time></trkpt><trkpt lat="43.7595643" lon="12.5652022"><ele>350.0</ele><time>2026-04-06T16:09:18.601Z</time></trkpt><trkpt lat="43.7594729" lon="12.5652192"><ele>350.0</ele><time>2026-04-06T16:09:19.603Z</time></trkpt><trkpt lat="43.7593828" lon="12.5652359"><ele>350.0</ele><time>2026-04-06T16:09:20.604Z</time></trkpt><trkpt lat="43.7592936" lon="12.5652404"><ele>350.0</ele><time>2026-04-06T16:09:21.602Z</time></trkpt><trkpt lat="43.7592077" lon="12.5652351"><ele>350.0</ele><time>2026-04-06T16:09:22.602Z</time></trkpt><trkpt lat="43.7591259" lon="12.5652488"><ele>350.0</ele><time>2026-04-06T16:09:23.601Z</time></trkpt><trkpt lat="43.7590463" lon="12.5652643"><ele>350.0</ele><time>2026-04-06T16:09:24.602Z</time></trkpt><trkpt lat="43.7589663" lon="12.5652734"><ele>346.2</ele><time>2026-04-06T16:09:25.601Z</time></trkpt><trkpt lat="43.7588785" lon="12.5652682"><ele>342.4</ele><time>2026-04-06T16:09:26.601Z</time></trkpt><trkpt lat="43.7587921" lon="12.565244"><ele>338.6</ele><time>2026-04-06T16:09:27.603Z</time></trkpt><trkpt lat="43.7587045" lon="12.5651883"><ele>334.8</ele><time>2026-04-06T16:09:28.601Z</time></trkpt><trkpt lat="43.7586152" lon="12.5651233"><ele>331.0</ele><time>2026-04-06T16:09:29.601Z</time></trkpt><trkpt lat="43.7585263" lon="12.5650672"><ele>330.20000000000005</ele><time>2026-04-06T16:09:30.6Z</time></trkpt><trkpt lat="43.7584366" lon="12.5650177"><ele>329.40000000000003</ele><time>2026-04-06T16:09:31.602Z</time></trkpt><trkpt lat="43.7583475" lon="12.5649719"><ele>328.6</ele><time>2026-04-06T16:09:32.601Z</time></trkpt><trkpt lat="43.7582559" lon="12.5649351"><ele>327.8</ele><time>2026-04-06T16:09:33.6Z</time></trkpt><trkpt lat="43.7581631" lon="12.564933"><ele>327.0</ele><time>2026-04-06T16:09:34.601Z</time></trkpt><trkpt lat="43.7580769" lon="12.5649576"><ele>327.0</ele><time>2026-04-06T16:09:35.601Z</time></trkpt><trkpt lat="43.7579986" lon="12.5650034"><ele>327.0</ele><time>2026-04-06T16:09:36.601Z</time></trkpt><trkpt lat="43.7579258" lon="12.5650776"><ele>327.0</ele><time>2026-04-06T16:09:37.602Z</time></trkpt><trkpt lat="43.7578725" lon="12.5651785"><ele>327.0</ele><time>2026-04-06T16:09:38.6Z</time></trkpt><trkpt lat="43.757833" lon="12.5652926"><ele>327.0</ele><time>2026-04-06T16:09:39.601Z</time></trkpt><trkpt lat="43.7578053" lon="12.5654102"><ele>327.0</ele><time>2026-04-06T16:09:40.6Z</time></trkpt><trkpt lat="43.7577976" lon="12.5655357"><ele>327.40000000000003</ele><time>2026-04-06T16:09:41.6Z</time></trkpt><trkpt lat="43.757821" lon="12.5656566"><ele>327.8</ele><time>2026-04-06T16:09:42.602Z</time></trkpt><trkpt lat="43.7578662" lon="12.5657685"><ele>328.2</ele><time>2026-04-06T16:09:43.601Z</time></trkpt><trkpt lat="43.7579244" lon="12.565862"><ele>328.6</ele><time>2026-04-06T16:09:44.601Z</time></trkpt><trkpt lat="43.7580018" lon="12.5659309"><ele>329.0</ele><time>2026-04-06T16:09:45.606Z</time></trkpt><trkpt lat="43.7580914" lon="12.5659632"><ele>329.0</ele><time>2026-04-06T16:09:46.601Z</time></trkpt><trkpt lat="43.7581803" lon="12.5659891"><ele>329.0</ele><time>2026-04-06T16:09:47.6Z</time></trkpt><trkpt lat="43.7582697" lon="12.5660114"><ele>329.0</ele><time>2026-04-06T16:09:48.601Z</time></trkpt><trkpt lat="43.7583669" lon="12.5660303"><ele>329.0</ele><time>2026-04-06T16:09:49.601Z</time></trkpt><trkpt lat="43.7584553" lon="12.5660717"><ele>329.0</ele><time>2026-04-06T16:09:50.601Z</time></trkpt><trkpt lat="43.7585324" lon="12.5661408"><ele>329.6</ele><time>2026-04-06T16:09:51.6Z</time></trkpt><trkpt lat="43.7586027" lon="12.5662306"><ele>330.2</ele><time>2026-04-06T16:09:52.601Z</time></trkpt><trkpt lat="43.7586626" lon="12.5663318"><ele>330.8</ele><time>2026-04-06T16:09:53.6Z</time></trkpt><trkpt lat="43.7587063" lon="12.5664505"><ele>331.40000000000003</ele><time>2026-04-06T16:09:54.601Z</time></trkpt><trkpt lat="43.758737" lon="12.5665801"><ele>332.0</ele><time>2026-04-06T16:09:55.601Z</time></trkpt><trkpt lat="43.7587552" lon="12.5667173"><ele>332.0</ele><time>2026-04-06T16:09:56.6Z</time></trkpt><trkpt lat="43.7587665" lon="12.5668508"><ele>332.0</ele><time>2026-04-06T16:09:57.599Z</time></trkpt><trkpt lat="43.7587771" lon="12.5669812"><ele>332.0</ele><time>2026-04-06T16:09:58.6Z</time></trkpt><trkpt lat="43.7587868" lon="12.567113"><ele>332.0</ele><time>2026-04-06T16:09:59.599Z</time></trkpt><trkpt lat="43.7587988" lon="12.5672444"><ele>332.0</ele><time>2026-04-06T16:10:00.6Z</time></trkpt><trkpt lat="43.758811" lon="12.5673711"><ele>327.6</ele><time>2026-04-06T16:10:01.601Z</time></trkpt><trkpt lat="43.7588184" lon="12.5674967"><ele>323.20000000000005</ele><time>2026-04-06T16:10:02.601Z</time></trkpt><trkpt lat="43.758815" lon="12.5676232"><ele>318.8</ele><time>2026-04-06T16:10:03.601Z</time></trkpt><trkpt lat="43.7588021" lon="12.567749"><ele>314.4</ele><time>2026-04-06T16:10:04.601Z</time></trkpt><trkpt lat="43.7587771" lon="12.5678718"><ele>310.0</ele><time>2026-04-06T16:10:05.601Z</time></trkpt><trkpt lat="43.7587414" lon="12.5679932"><ele>306.8</ele><time>2026-04-06T16:10:06.6Z</time></trkpt><trkpt lat="43.7586911" lon="12.5681054"><ele>303.6</ele><time>2026-04-06T16:10:07.601Z</time></trkpt><trkpt lat="43.7586315" lon="12.5682111"><ele>300.4</ele><time>2026-04-06T16:10:08.6Z</time></trkpt><trkpt lat="43.7585739" lon="12.5683152"><ele>297.2</ele><time>2026-04-06T16:10:09.6Z</time></trkpt><trkpt lat="43.7585102" lon="12.5684129"><ele>294.0</ele><time>2026-04-06T16:10:10.682Z</time></trkpt><trkpt lat="43.7584563" lon="12.5685037"><ele>294.0</ele><time>2026-04-06T16:10:11.6Z</time></trkpt><trkpt lat="43.7584027" lon="12.5686012"><ele>294.0</ele><time>2026-04-06T16:10:12.601Z</time></trkpt><trkpt lat="43.7583529" lon="12.5686991"><ele>294.0</ele><time>2026-04-06T16:10:13.601Z</time></trkpt><trkpt lat="43.7583078" lon="12.5687933"><ele>294.0</ele><time>2026-04-06T16:10:14.601Z</time></trkpt><trkpt lat="43.7582552" lon="12.5688787"><ele>294.0</ele><time>2026-04-06T16:10:15.6Z</time></trkpt><trkpt lat="43.7582025" lon="12.5689672"><ele>294.0</ele><time>2026-04-06T16:10:16.6Z</time></trkpt><trkpt lat="43.7581496" lon="12.5690567"><ele>293.3333333333333</ele><time>2026-04-06T16:10:17.6Z</time></trkpt><trkpt lat="43.7581001" lon="12.5691466"><ele>292.6666666666667</ele><time>2026-04-06T16:10:18.599Z</time></trkpt><trkpt lat="43.7580465" lon="12.5692288"><ele>292.0</ele><time>2026-04-06T16:10:19.601Z</time></trkpt><trkpt lat="43.757999" lon="12.5693154"><ele>291.33333333333337</ele><time>2026-04-06T16:10:20.6Z</time></trkpt><trkpt lat="43.7579492" lon="12.5693996"><ele>290.6666666666667</ele><time>2026-04-06T16:10:21.601Z</time></trkpt><trkpt lat="43.7579115" lon="12.5695021"><ele>290.0</ele><time>2026-04-06T16:10:22.599Z</time></trkpt><trkpt lat="43.7578799" lon="12.5696155"><ele>290.0</ele><time>2026-04-06T16:10:23.602Z</time></trkpt><trkpt lat="43.7578515" lon="12.5697464"><ele>290.0</ele><time>2026-04-06T16:10:24.6Z</time></trkpt><trkpt lat="43.7578317" lon="12.5698825"><ele>290.0</ele><time>2026-04-06T16:10:25.6Z</time></trkpt><trkpt lat="43.7578139" lon="12.5700201"><ele>290.0</ele><time>2026-04-06T16:10:26.6Z</time></trkpt><trkpt lat="43.75779" lon="12.5701505"><ele>290.0</ele><time>2026-04-06T16:10:27.6Z</time></trkpt><trkpt lat="43.7577542" lon="12.5702669"><ele>288.0</ele><time>2026-04-06T16:10:28.6Z</time></trkpt><trkpt lat="43.7577051" lon="12.5703716"><ele>286.0</ele><time>2026-04-06T16:10:29.6Z</time></trkpt><trkpt lat="43.7576551" lon="12.5704712"><ele>284.0</ele><time>2026-04-06T16:10:30.601Z</time></trkpt><trkpt lat="43.757598" lon="12.5705569"><ele>282.0</ele><time>2026-04-06T16:10:31.6Z</time></trkpt><trkpt lat="43.757535" lon="12.570633"><ele>280.0</ele><time>2026-04-06T16:10:32.601Z</time></trkpt><trkpt lat="43.757461" lon="12.5706929"><ele>278.0</ele><time>2026-04-06T16:10:33.6Z</time></trkpt><trkpt lat="43.7573839" lon="12.5707401"><ele>278.0</ele><time>2026-04-06T16:10:34.6Z</time></trkpt><trkpt lat="43.7573058" lon="12.5707825"><ele>278.0</ele><time>2026-04-06T16:10:35.599Z</time></trkpt><trkpt lat="43.7572242" lon="12.5708267"><ele>278.0</ele><time>2026-04-06T16:10:36.6Z</time></trkpt><trkpt lat="43.7571372" lon="12.57087"><ele>278.0</ele><time>2026-04-06T16:10:37.6Z</time></trkpt><trkpt lat="43.75705" lon="12.5709131"><ele>278.0</ele><time>2026-04-06T16:10:38.6Z</time></trkpt><trkpt lat="43.7569607" lon="12.5709607"><ele>278.0</ele><time>2026-04-06T16:10:39.601Z</time></trkpt><trkpt lat="43.7568887" lon="12.5710385"><ele>278.0</ele><time>2026-04-06T16:10:40.601Z</time></trkpt><trkpt lat="43.7568232" lon="12.5711307"><ele>278.0</ele><time>2026-04-06T16:10:41.6Z</time></trkpt><trkpt lat="43.756769" lon="12.5712346"><ele>278.0</ele><time>2026-04-06T16:10:42.602Z</time></trkpt><trkpt lat="43.7567275" lon="12.5713521"><ele>278.0</ele><time>2026-04-06T16:10:43.601Z</time></trkpt><trkpt lat="43.756708" lon="12.5714822"><ele>275.8</ele><time>2026-04-06T16:10:44.6Z</time></trkpt><trkpt lat="43.7566969" lon="12.5716195"><ele>273.6</ele><time>2026-04-06T16:10:45.603Z</time></trkpt><trkpt lat="43.7566747" lon="12.571751"><ele>271.4</ele><time>2026-04-06T16:10:46.601Z</time></trkpt><trkpt lat="43.7566257" lon="12.5718684"><ele>269.2</ele><time>2026-04-06T16:10:47.6Z</time></trkpt><trkpt lat="43.7565539" lon="12.5719587"><ele>267.0</ele><time>2026-04-06T16:10:48.602Z</time></trkpt><trkpt lat="43.7564669" lon="12.5720176"><ele>266.4</ele><time>2026-04-06T16:10:49.601Z</time></trkpt><trkpt lat="43.7563687" lon="12.5720588"><ele>265.79999999999995</ele><time>2026-04-06T16:10:50.601Z</time></trkpt><trkpt lat="43.7562725" lon="12.5720783"><ele>265.2</ele><time>2026-04-06T16:10:51.601Z</time></trkpt><trkpt lat="43.7561778" lon="12.5720973"><ele>264.59999999999997</ele><time>2026-04-06T16:10:52.6Z</time></trkpt><trkpt lat="43.7560863" lon="12.5721217"><ele>264.0</ele><time>2026-04-06T16:10:53.6Z</time></trkpt><trkpt lat="43.755996" lon="12.5721539"><ele>261.59999999999997</ele><time>2026-04-06T16:10:54.602Z</time></trkpt><trkpt lat="43.7559078" lon="12.5722"><ele>259.2</ele><time>2026-04-06T16:10:55.6Z</time></trkpt><trkpt lat="43.7558356" lon="12.5722705"><ele>256.79999999999995</ele><time>2026-04-06T16:10:56.601Z</time></trkpt><trkpt lat="43.7557779" lon="12.5723642"><ele>254.39999999999998</ele><time>2026-04-06T16:10:57.6Z</time></trkpt><trkpt lat="43.7557382" lon="12.5724779"><ele>252.0</ele><time>2026-04-06T16:10:58.599Z</time></trkpt><trkpt lat="43.7557129" lon="12.5726047"><ele>252.0</ele><time>2026-04-06T16:10:59.6Z</time></trkpt><trkpt lat="43.7556944" lon="12.5727344"><ele>252.0</ele><time>2026-04-06T16:11:00.601Z</time></trkpt><trkpt lat="43.7556735" lon="12.5728534"><ele>252.0</ele><time>2026-04-06T16:11:01.608Z</time></trkpt><trkpt lat="43.7556526" lon="12.5729689"><ele>252.0</ele><time>2026-04-06T16:11:02.6Z</time></trkpt><trkpt lat="43.7556214" lon="12.5730691"><ele>252.0</ele><time>2026-04-06T16:11:03.6Z</time></trkpt><trkpt lat="43.7555812" lon="12.5731496"><ele>252.0</ele><time>2026-04-06T16:11:04.604Z</time></trkpt><trkpt lat="43.755523" lon="12.5732007"><ele>252.0</ele><time>2026-04-06T16:11:05.601Z</time></trkpt><trkpt lat="43.7554589" lon="12.5732122"><ele>252.0</ele><time>2026-04-06T16:11:06.6Z</time></trkpt><trkpt lat="43.7553919" lon="12.5731672"><ele>252.0</ele><time>2026-04-06T16:11:07.601Z</time></trkpt><trkpt lat="43.7553458" lon="12.5730743"><ele>252.0</ele><time>2026-04-06T16:11:08.6Z</time></trkpt><trkpt lat="43.7553213" lon="12.5729597"><ele>252.0</ele><time>2026-04-06T16:11:09.601Z</time></trkpt><trkpt lat="43.7553156" lon="12.5728458"><ele>252.0</ele><time>2026-04-06T16:11:10.6Z</time></trkpt><trkpt lat="43.7553242" lon="12.5727394"><ele>252.0</ele><time>2026-04-06T16:11:11.6Z</time></trkpt><trkpt lat="43.7553406" lon="12.5726346"><ele>252.0</ele><time>2026-04-06T16:11:12.601Z</time></trkpt><trkpt lat="43.7553552" lon="12.572524"><ele>252.0</ele><time>2026-04-06T16:11:13.601Z</time></trkpt><trkpt lat="43.7553676" lon="12.572416"><ele>252.0</ele><time>2026-04-06T16:11:14.6Z</time></trkpt><trkpt lat="43.7553847" lon="12.5723"><ele>252.0</ele><time>2026-04-06T16:11:15.601Z</time></trkpt><trkpt lat="43.7554083" lon="12.572185"><ele>252.0</ele><time>2026-04-06T16:11:16.601Z</time></trkpt><trkpt lat="43.7554288" lon="12.572072"><ele>250.66666666666666</ele><time>2026-04-06T16:11:17.601Z</time></trkpt><trkpt lat="43.7554528" lon="12.5719611"><ele>249.33333333333331</ele><time>2026-04-06T16:11:18.6Z</time></trkpt><trkpt lat="43.7554748" lon="12.5718515"><ele>248.0</ele><time>2026-04-06T16:11:19.6Z</time></trkpt><trkpt lat="43.7555067" lon="12.571739"><ele>246.66666666666666</ele><time>2026-04-06T16:11:20.6Z</time></trkpt><trkpt lat="43.7555565" lon="12.5716315"><ele>245.33333333333331</ele><time>2026-04-06T16:11:21.599Z</time></trkpt><trkpt lat="43.7556062" lon="12.5715255"><ele>244.0</ele><time>2026-04-06T16:11:22.601Z</time></trkpt><trkpt lat="43.7556559" lon="12.5714211"><ele>243.99999999999997</ele><time>2026-04-06T16:11:23.601Z</time></trkpt><trkpt lat="43.7556993" lon="12.571316"><ele>244.0</ele><time>2026-04-06T16:11:24.601Z</time></trkpt><trkpt lat="43.7557439" lon="12.5712157"><ele>244.0</ele><time>2026-04-06T16:11:25.602Z</time></trkpt><trkpt lat="43.7557882" lon="12.5711227"><ele>244.0</ele><time>2026-04-06T16:11:26.6Z</time></trkpt><trkpt lat="43.755836" lon="12.5710336"><ele>243.99999999999997</ele><time>2026-04-06T16:11:27.6Z</time></trkpt><trkpt lat="43.7558795" lon="12.5709437"><ele>244.0</ele><time>2026-04-06T16:11:28.6Z</time></trkpt><trkpt lat="43.7559219" lon="12.5708586"><ele>242.16666666666666</ele><time>2026-04-06T16:11:29.601Z</time></trkpt><trkpt lat="43.7559632" lon="12.5707769"><ele>240.33333333333331</ele><time>2026-04-06T16:11:30.599Z</time></trkpt><trkpt lat="43.7559966" lon="12.570694"><ele>238.5</ele><time>2026-04-06T16:11:31.601Z</time></trkpt><trkpt lat="43.756018" lon="12.5706081"><ele>236.66666666666669</ele><time>2026-04-06T16:11:32.6Z</time></trkpt><trkpt lat="43.7560183" lon="12.5705202"><ele>234.83333333333334</ele><time>2026-04-06T16:11:33.6Z</time></trkpt><trkpt lat="43.7559666" lon="12.5703752"><ele>233.0</ele><time>2026-04-06T16:11:35.6Z</time></trkpt><trkpt lat="43.7559065" lon="12.570319"><ele>233.0</ele><time>2026-04-06T16:11:36.6Z</time></trkpt><trkpt lat="43.755827" lon="12.5702814"><ele>233.0</ele><time>2026-04-06T16:11:37.601Z</time></trkpt><trkpt lat="43.7557394" lon="12.5703084"><ele>233.0</ele><time>2026-04-06T16:11:38.601Z</time></trkpt><trkpt lat="43.7556576" lon="12.5704113"><ele>233.0</ele><time>2026-04-06T16:11:39.599Z</time></trkpt><trkpt lat="43.7555922" lon="12.5705365"><ele>233.0</ele><time>2026-04-06T16:11:40.6Z</time></trkpt><trkpt lat="43.7555359" lon="12.5706587"><ele>233.0</ele><time>2026-04-06T16:11:41.6Z</time></trkpt><trkpt lat="43.7554812" lon="12.5707728"><ele>233.0</ele><time>2026-04-06T16:11:42.601Z</time></trkpt><trkpt lat="43.7554317" lon="12.570881"><ele>233.0</ele><time>2026-04-06T16:11:43.601Z</time></trkpt><trkpt lat="43.7553817" lon="12.57098"><ele>233.0</ele><time>2026-04-06T16:11:44.599Z</time></trkpt><trkpt lat="43.7553275" lon="12.5710741"><ele>233.0</ele><time>2026-04-06T16:11:45.599Z</time></trkpt><trkpt lat="43.7552709" lon="12.5711674"><ele>235.2</ele><time>2026-04-06T16:11:46.6Z</time></trkpt><trkpt lat="43.7552098" lon="12.5712633"><ele>237.4</ele><time>2026-04-06T16:11:47.6Z</time></trkpt><trkpt lat="43.7551474" lon="12.5713637"><ele>239.59999999999997</ele><time>2026-04-06T16:11:48.6Z</time></trkpt><trkpt lat="43.7550815" lon="12.5714615"><ele>241.79999999999998</ele><time>2026-04-06T16:11:49.6Z</time></trkpt><trkpt lat="43.7550183" lon="12.571557"><ele>244.0</ele><time>2026-04-06T16:11:50.6Z</time></trkpt><trkpt lat="43.7549459" lon="12.5716478"><ele>240.6</ele><time>2026-04-06T16:11:51.601Z</time></trkpt><trkpt lat="43.7548748" lon="12.5717361"><ele>237.2</ele><time>2026-04-06T16:11:52.601Z</time></trkpt><trkpt lat="43.7548045" lon="12.5718241"><ele>233.79999999999998</ele><time>2026-04-06T16:11:53.6Z</time></trkpt><trkpt lat="43.7547366" lon="12.5719107"><ele>230.39999999999998</ele><time>2026-04-06T16:11:54.6Z</time></trkpt><trkpt lat="43.7546672" lon="12.5719959"><ele>227.0</ele><time>2026-04-06T16:11:55.602Z</time></trkpt><trkpt lat="43.7545986" lon="12.572081"><ele>227.00000000000003</ele><time>2026-04-06T16:11:56.601Z</time></trkpt><trkpt lat="43.7545298" lon="12.5721662"><ele>227.0</ele><time>2026-04-06T16:11:57.6Z</time></trkpt><trkpt lat="43.754463" lon="12.5722519"><ele>227.0</ele><time>2026-04-06T16:11:58.602Z</time></trkpt><trkpt lat="43.7544006" lon="12.5723328"><ele>227.0</ele><time>2026-04-06T16:11:59.6Z</time></trkpt><trkpt lat="43.7543388" lon="12.572413"><ele>227.00000000000003</ele><time>2026-04-06T16:12:00.601Z</time></trkpt><trkpt lat="43.7542669" lon="12.572494"><ele>227.0</ele><time>2026-04-06T16:12:01.6Z</time></trkpt><trkpt lat="43.7541917" lon="12.5725747"><ele>223.66666666666669</ele><time>2026-04-06T16:12:02.601Z</time></trkpt><trkpt lat="43.7541162" lon="12.5726587"><ele>220.33333333333334</ele><time>2026-04-06T16:12:03.601Z</time></trkpt><trkpt lat="43.754045" lon="12.5727431"><ele>217.0</ele><time>2026-04-06T16:12:04.6Z</time></trkpt><trkpt lat="43.7539804" lon="12.5728261"><ele>213.66666666666669</ele><time>2026-04-06T16:12:05.687Z</time></trkpt><trkpt lat="43.7539209" lon="12.5729018"><ele>210.33333333333334</ele><time>2026-04-06T16:12:06.601Z</time></trkpt><trkpt lat="43.7538587" lon="12.5729813"><ele>207.0</ele><time>2026-04-06T16:12:07.604Z</time></trkpt><trkpt lat="43.7537972" lon="12.5730597"><ele>207.0</ele><time>2026-04-06T16:12:08.601Z</time></trkpt><trkpt lat="43.7537364" lon="12.5731271"><ele>207.0</ele><time>2026-04-06T16:12:09.601Z</time></trkpt><trkpt lat="43.7536662" lon="12.5731854"><ele>207.0</ele><time>2026-04-06T16:12:10.6Z</time></trkpt><trkpt lat="43.7536008" lon="12.5732561"><ele>207.0</ele><time>2026-04-06T16:12:11.601Z</time></trkpt><trkpt lat="43.7535362" lon="12.5733298"><ele>207.0</ele><time>2026-04-06T16:12:12.6Z</time></trkpt><trkpt lat="43.7534793" lon="12.5734133"><ele>207.0</ele><time>2026-04-06T16:12:13.6Z</time></trkpt><trkpt lat="43.7534392" lon="12.573505"><ele>204.5</ele><time>2026-04-06T16:12:14.6Z</time></trkpt><trkpt lat="43.7534016" lon="12.5735972"><ele>202.0</ele><time>2026-04-06T16:12:15.6Z</time></trkpt><trkpt lat="43.7533895" lon="12.5737004"><ele>199.5</ele><time>2026-04-06T16:12:16.602Z</time></trkpt><trkpt lat="43.753397" lon="12.5738081"><ele>197.0</ele><time>2026-04-06T16:12:17.601Z</time></trkpt><trkpt lat="43.753425" lon="12.5739166"><ele>194.5</ele><time>2026-04-06T16:12:18.601Z</time></trkpt><trkpt lat="43.753454" lon="12.5740248"><ele>192.0</ele><time>2026-04-06T16:12:19.601Z</time></trkpt><trkpt lat="43.7534852" lon="12.5741402"><ele>191.6</ele><time>2026-04-06T16:12:20.6Z</time></trkpt><trkpt lat="43.7535189" lon="12.5742667"><ele>191.2</ele><time>2026-04-06T16:12:21.6Z</time></trkpt><trkpt lat="43.753556" lon="12.5743928"><ele>190.8</ele><time>2026-04-06T16:12:22.601Z</time></trkpt><trkpt lat="43.7535987" lon="12.574514"><ele>190.4</ele><time>2026-04-06T16:12:23.601Z</time></trkpt><trkpt lat="43.7536456" lon="12.5746285"><ele>190.0</ele><time>2026-04-06T16:12:24.6Z</time></trkpt><trkpt lat="43.7536974" lon="12.5747382"><ele>190.0</ele><time>2026-04-06T16:12:25.602Z</time></trkpt><trkpt lat="43.7537547" lon="12.5748436"><ele>190.0</ele><time>2026-04-06T16:12:26.6Z</time></trkpt><trkpt lat="43.753815" lon="12.5749445"><ele>190.0</ele><time>2026-04-06T16:12:27.599Z</time></trkpt><trkpt lat="43.7538761" lon="12.5750401"><ele>190.0</ele><time>2026-04-06T16:12:28.6Z</time></trkpt><trkpt lat="43.7539384" lon="12.5751346"><ele>190.0</ele><time>2026-04-06T16:12:29.601Z</time></trkpt><trkpt lat="43.7540016" lon="12.5752273"><ele>190.0</ele><time>2026-04-06T16:12:30.599Z</time></trkpt><trkpt lat="43.7540584" lon="12.5753259"><ele>190.0</ele><time>2026-04-06T16:12:31.599Z</time></trkpt><trkpt lat="43.7541127" lon="12.5754202"><ele>190.0</ele><time>2026-04-06T16:12:32.599Z</time></trkpt><trkpt lat="43.7541604" lon="12.5755208"><ele>190.0</ele><time>2026-04-06T16:12:33.598Z</time></trkpt><trkpt lat="43.7542018" lon="12.575614"><ele>190.0</ele><time>2026-04-06T16:12:34.6Z</time></trkpt><trkpt lat="43.7542356" lon="12.5757009"><ele>190.0</ele><time>2026-04-06T16:12:35.598Z</time></trkpt><trkpt lat="43.754264" lon="12.5757854"><ele>188.66666666666669</ele><time>2026-04-06T16:12:36.599Z</time></trkpt><trkpt lat="43.7542856" lon="12.5758774"><ele>187.33333333333334</ele><time>2026-04-06T16:12:37.6Z</time></trkpt><trkpt lat="43.7542827" lon="12.5759887"><ele>186.0</ele><time>2026-04-06T16:12:38.598Z</time></trkpt><trkpt lat="43.7542647" lon="12.5761102"><ele>184.66666666666666</ele><time>2026-04-06T16:12:39.598Z</time></trkpt><trkpt lat="43.7542447" lon="12.576231"><ele>183.33333333333331</ele><time>2026-04-06T16:12:40.599Z</time></trkpt><trkpt lat="43.7542265" lon="12.5763483"><ele>182.0</ele><time>2026-04-06T16:12:41.6Z</time></trkpt><trkpt lat="43.7542067" lon="12.5764681"><ele>181.16666666666666</ele><time>2026-04-06T16:12:42.599Z</time></trkpt><trkpt lat="43.7541852" lon="12.5765906"><ele>180.33333333333331</ele><time>2026-04-06T16:12:43.601Z</time></trkpt><trkpt lat="43.7541679" lon="12.5767025"><ele>179.5</ele><time>2026-04-06T16:12:44.6Z</time></trkpt><trkpt lat="43.7541613" lon="12.5768139"><ele>178.66666666666666</ele><time>2026-04-06T16:12:45.598Z</time></trkpt><trkpt lat="43.7541637" lon="12.5769285"><ele>177.83333333333334</ele><time>2026-04-06T16:12:46.601Z</time></trkpt><trkpt lat="43.7541739" lon="12.577046"><ele>177.0</ele><time>2026-04-06T16:12:47.6Z</time></trkpt><trkpt lat="43.7541834" lon="12.5771648"><ele>176.0</ele><time>2026-04-06T16:12:48.6Z</time></trkpt><trkpt lat="43.7542026" lon="12.5772863"><ele>175.0</ele><time>2026-04-06T16:12:49.601Z</time></trkpt><trkpt lat="43.7542274" lon="12.5774119"><ele>174.0</ele><time>2026-04-06T16:12:50.601Z</time></trkpt><trkpt lat="43.7542523" lon="12.57754"><ele>173.0</ele><time>2026-04-06T16:12:51.602Z</time></trkpt><trkpt lat="43.754278" lon="12.5776645"><ele>172.0</ele><time>2026-04-06T16:12:52.601Z</time></trkpt><trkpt lat="43.7543061" lon="12.5777919"><ele>171.8</ele><time>2026-04-06T16:12:53.601Z</time></trkpt><trkpt lat="43.7543343" lon="12.5779195"><ele>171.6</ele><time>2026-04-06T16:12:54.6Z</time></trkpt><trkpt lat="43.7543626" lon="12.5780527"><ele>171.4</ele><time>2026-04-06T16:12:55.602Z</time></trkpt><trkpt lat="43.754386" lon="12.578185"><ele>171.20000000000002</ele><time>2026-04-06T16:12:56.601Z</time></trkpt><trkpt lat="43.7544131" lon="12.5783226"><ele>171.0</ele><time>2026-04-06T16:12:57.599Z</time></trkpt><trkpt lat="43.7544415" lon="12.5784555"><ele>171.0</ele><time>2026-04-06T16:12:58.6Z</time></trkpt><trkpt lat="43.7544699" lon="12.5785938"><ele>171.0</ele><time>2026-04-06T16:12:59.602Z</time></trkpt><trkpt lat="43.7544959" lon="12.5787372"><ele>171.0</ele><time>2026-04-06T16:13:00.599Z</time></trkpt><trkpt lat="43.7545223" lon="12.5788694"><ele>171.0</ele><time>2026-04-06T16:13:01.601Z</time></trkpt><trkpt lat="43.7545487" lon="12.5789946"><ele>171.0</ele><time>2026-04-06T16:13:02.601Z</time></trkpt><trkpt lat="43.7545729" lon="12.5791223"><ele>172.20000000000002</ele><time>2026-04-06T16:13:03.599Z</time></trkpt><trkpt lat="43.7545987" lon="12.579249"><ele>173.4</ele><time>2026-04-06T16:13:04.6Z</time></trkpt><trkpt lat="43.7546252" lon="12.579374"><ele>174.6</ele><time>2026-04-06T16:13:05.601Z</time></trkpt><trkpt lat="43.754652" lon="12.5794944"><ele>175.8</ele><time>2026-04-06T16:13:06.599Z</time></trkpt><trkpt lat="43.75468" lon="12.5796128"><ele>177.0</ele><time>2026-04-06T16:13:07.6Z</time></trkpt><trkpt lat="43.7547069" lon="12.5797349"><ele>177.6</ele><time>2026-04-06T16:13:08.6Z</time></trkpt><trkpt lat="43.7547292" lon="12.579861"><ele>178.2</ele><time>2026-04-06T16:13:09.602Z</time></trkpt><trkpt lat="43.7547517" lon="12.5799904"><ele>178.8</ele><time>2026-04-06T16:13:10.6Z</time></trkpt><trkpt lat="43.7547706" lon="12.580118"><ele>179.4</ele><time>2026-04-06T16:13:11.598Z</time></trkpt><trkpt lat="43.7547905" lon="12.5802471"><ele>180.0</ele><time>2026-04-06T16:13:12.598Z</time></trkpt><trkpt lat="43.7548101" lon="12.58038"><ele>181.4</ele><time>2026-04-06T16:13:13.6Z</time></trkpt><trkpt lat="43.7548213" lon="12.5805154"><ele>182.8</ele><time>2026-04-06T16:13:14.598Z</time></trkpt><trkpt lat="43.7548279" lon="12.5806557"><ele>184.2</ele><time>2026-04-06T16:13:15.599Z</time></trkpt><trkpt lat="43.7548267" lon="12.5807967"><ele>185.6</ele><time>2026-04-06T16:13:16.601Z</time></trkpt><trkpt lat="43.7548283" lon="12.5809386"><ele>187.0</ele><time>2026-04-06T16:13:17.6Z</time></trkpt><trkpt lat="43.7548265" lon="12.5810809"><ele>187.66666666666669</ele><time>2026-04-06T16:13:18.6Z</time></trkpt><trkpt lat="43.754817" lon="12.5812117"><ele>188.33333333333334</ele><time>2026-04-06T16:13:19.601Z</time></trkpt><trkpt lat="43.7548038" lon="12.581337"><ele>189.0</ele><time>2026-04-06T16:13:20.6Z</time></trkpt><trkpt lat="43.7547906" lon="12.5814599"><ele>189.66666666666666</ele><time>2026-04-06T16:13:21.601Z</time></trkpt><trkpt lat="43.7547803" lon="12.5815745"><ele>190.33333333333331</ele><time>2026-04-06T16:13:22.6Z</time></trkpt><trkpt lat="43.7547672" lon="12.5816871"><ele>191.0</ele><time>2026-04-06T16:13:23.6Z</time></trkpt><trkpt lat="43.7547552" lon="12.5817986"><ele>191.0</ele><time>2026-04-06T16:13:24.601Z</time></trkpt><trkpt lat="43.7547396" lon="12.5819138"><ele>191.0</ele><time>2026-04-06T16:13:25.601Z</time></trkpt><trkpt lat="43.7547236" lon="12.5820237"><ele>191.0</ele><time>2026-04-06T16:13:26.599Z</time></trkpt><trkpt lat="43.754718" lon="12.5821289"><ele>191.0</ele><time>2026-04-06T16:13:27.6Z</time></trkpt><trkpt lat="43.754713" lon="12.5822467"><ele>191.0</ele><time>2026-04-06T16:13:28.6Z</time></trkpt><trkpt lat="43.7547071" lon="12.5823696"><ele>191.0</ele><time>2026-04-06T16:13:29.599Z</time></trkpt><trkpt lat="43.7547015" lon="12.5824975"><ele>191.4</ele><time>2026-04-06T16:13:30.598Z</time></trkpt><trkpt lat="43.7546934" lon="12.5826265"><ele>191.8</ele><time>2026-04-06T16:13:31.599Z</time></trkpt><trkpt lat="43.7546862" lon="12.5827578"><ele>192.20000000000002</ele><time>2026-04-06T16:13:32.599Z</time></trkpt><trkpt lat="43.7546819" lon="12.5828872"><ele>192.60000000000002</ele><time>2026-04-06T16:13:33.598Z</time></trkpt><trkpt lat="43.7546837" lon="12.5830157"><ele>193.0</ele><time>2026-04-06T16:13:34.599Z</time></trkpt><trkpt lat="43.7546872" lon="12.5831371"><ele>193.14285714285717</ele><time>2026-04-06T16:13:35.601Z</time></trkpt><trkpt lat="43.7546927" lon="12.5832462"><ele>193.28571428571428</ele><time>2026-04-06T16:13:36.598Z</time></trkpt><trkpt lat="43.754699" lon="12.5833492"><ele>193.42857142857144</ele><time>2026-04-06T16:13:37.599Z</time></trkpt><trkpt lat="43.7547103" lon="12.5834515"><ele>193.57142857142858</ele><time>2026-04-06T16:13:38.598Z</time></trkpt><trkpt lat="43.7547165" lon="12.5835533"><ele>193.71428571428572</ele><time>2026-04-06T16:13:39.598Z</time></trkpt><trkpt lat="43.7547236" lon="12.5836474"><ele>193.85714285714286</ele><time>2026-04-06T16:13:40.598Z</time></trkpt><trkpt lat="43.7547344" lon="12.5837388"><ele>194.0</ele><time>2026-04-06T16:13:41.599Z</time></trkpt><trkpt lat="43.7547384" lon="12.5838307"><ele>193.42857142857142</ele><time>2026-04-06T16:13:42.6Z</time></trkpt><trkpt lat="43.7547332" lon="12.5839247"><ele>192.85714285714286</ele><time>2026-04-06T16:13:43.599Z</time></trkpt><trkpt lat="43.7547186" lon="12.5840171"><ele>192.28571428571428</ele><time>2026-04-06T16:13:44.598Z</time></trkpt><trkpt lat="43.7546892" lon="12.5841104"><ele>191.71428571428572</ele><time>2026-04-06T16:13:45.599Z</time></trkpt><trkpt lat="43.7546487" lon="12.5842033"><ele>191.14285714285717</ele><time>2026-04-06T16:13:46.6Z</time></trkpt><trkpt lat="43.7545967" lon="12.5842706"><ele>190.57142857142858</ele><time>2026-04-06T16:13:47.599Z</time></trkpt><trkpt lat="43.7545337" lon="12.584318"><ele>190.0</ele><time>2026-04-06T16:13:48.598Z</time></trkpt><trkpt lat="43.7544637" lon="12.584348"><ele>190.0</ele><time>2026-04-06T16:13:49.598Z</time></trkpt><trkpt lat="43.754392" lon="12.5843627"><ele>190.0</ele><time>2026-04-06T16:13:50.598Z</time></trkpt><trkpt lat="43.7543172" lon="12.5843734"><ele>190.0</ele><time>2026-04-06T16:13:51.599Z</time></trkpt><trkpt lat="43.7542366" lon="12.5843871"><ele>190.0</ele><time>2026-04-06T16:13:52.598Z</time></trkpt><trkpt lat="43.754148" lon="12.5844038"><ele>190.0</ele><time>2026-04-06T16:13:53.598Z</time></trkpt><trkpt lat="43.7540603" lon="12.5844239"><ele>190.0</ele><time>2026-04-06T16:13:54.599Z</time></trkpt><trkpt lat="43.7539781" lon="12.5844451"><ele>190.0</ele><time>2026-04-06T16:13:55.599Z</time></trkpt><trkpt lat="43.7538999" lon="12.584462"><ele>190.0</ele><time>2026-04-06T16:13:56.599Z</time></trkpt><trkpt lat="43.7538205" lon="12.5844699"><ele>190.0</ele><time>2026-04-06T16:13:57.598Z</time></trkpt><trkpt lat="43.7537419" lon="12.5844846"><ele>190.0</ele><time>2026-04-06T16:13:58.599Z</time></trkpt><trkpt lat="43.7536633" lon="12.5844986"><ele>190.0</ele><time>2026-04-06T16:13:59.599Z</time></trkpt><trkpt lat="43.7535812" lon="12.5845173"><ele>190.0</ele><time>2026-04-06T16:14:00.599Z</time></trkpt><trkpt lat="43.7535019" lon="12.5845347"><ele>190.0</ele><time>2026-04-06T16:14:01.6Z</time></trkpt><trkpt lat="43.7534199" lon="12.5845505"><ele>190.0</ele><time>2026-04-06T16:14:02.599Z</time></trkpt><trkpt lat="43.7533421" lon="12.5845627"><ele>190.0</ele><time>2026-04-06T16:14:03.599Z</time></trkpt><trkpt lat="43.7532606" lon="12.5845824"><ele>190.0</ele><time>2026-04-06T16:14:04.599Z</time></trkpt><trkpt lat="43.7531777" lon="12.5846069"><ele>190.0</ele><time>2026-04-06T16:14:05.599Z</time></trkpt><trkpt lat="43.7530928" lon="12.5846396"><ele>190.0</ele><time>2026-04-06T16:14:06.599Z</time></trkpt><trkpt lat="43.7530006" lon="12.5846868"><ele>190.0</ele><time>2026-04-06T16:14:07.599Z</time></trkpt><trkpt lat="43.7529061" lon="12.584734"><ele>190.0</ele><time>2026-04-06T16:14:08.599Z</time></trkpt><trkpt lat="43.75282" lon="12.5847735"><ele>190.0</ele><time>2026-04-06T16:14:09.599Z</time></trkpt><trkpt lat="43.7527352" lon="12.5848088"><ele>190.0</ele><time>2026-04-06T16:14:10.599Z</time></trkpt><trkpt lat="43.752658" lon="12.5848549"><ele>190.0</ele><time>2026-04-06T16:14:11.6Z</time></trkpt><trkpt lat="43.752579" lon="12.5848894"><ele>190.0</ele><time>2026-04-06T16:14:12.599Z</time></trkpt><trkpt lat="43.7524942" lon="12.5849294"><ele>193.4</ele><time>2026-04-06T16:14:13.6Z</time></trkpt><trkpt lat="43.7524056" lon="12.5849697"><ele>196.8</ele><time>2026-04-06T16:14:14.598Z</time></trkpt><trkpt lat="43.7523195" lon="12.5850116"><ele>200.2</ele><time>2026-04-06T16:14:15.598Z</time></trkpt><trkpt lat="43.7522303" lon="12.5850527"><ele>203.6</ele><time>2026-04-06T16:14:16.599Z</time></trkpt><trkpt lat="43.752143" lon="12.5850921"><ele>207.0</ele><time>2026-04-06T16:14:17.599Z</time></trkpt><trkpt lat="43.7520549" lon="12.5851497"><ele>207.0</ele><time>2026-04-06T16:14:18.6Z</time></trkpt><trkpt lat="43.7519712" lon="12.5852276"><ele>207.0</ele><time>2026-04-06T16:14:19.598Z</time></trkpt><trkpt lat="43.7518932" lon="12.5853122"><ele>207.0</ele><time>2026-04-06T16:14:20.598Z</time></trkpt><trkpt lat="43.7518199" lon="12.5853973"><ele>207.0</ele><time>2026-04-06T16:14:21.598Z</time></trkpt><trkpt lat="43.7517537" lon="12.5854884"><ele>207.0</ele><time>2026-04-06T16:14:22.599Z</time></trkpt><trkpt lat="43.7516886" lon="12.5855705"><ele>205.0</ele><time>2026-04-06T16:14:23.598Z</time></trkpt><trkpt lat="43.75162" lon="12.5856497"><ele>203.0</ele><time>2026-04-06T16:14:24.599Z</time></trkpt><trkpt lat="43.7515465" lon="12.5857289"><ele>201.0</ele><time>2026-04-06T16:14:25.598Z</time></trkpt><trkpt lat="43.7514694" lon="12.5858102"><ele>199.0</ele><time>2026-04-06T16:14:26.598Z</time></trkpt><trkpt lat="43.7513962" lon="12.5858951"><ele>197.0</ele><time>2026-04-06T16:14:27.599Z</time></trkpt><trkpt lat="43.7513238" lon="12.5859836"><ele>197.0</ele><time>2026-04-06T16:14:28.599Z</time></trkpt><trkpt lat="43.751245" lon="12.5860683"><ele>197.0</ele><time>2026-04-06T16:14:29.6Z</time></trkpt><trkpt lat="43.7511594" lon="12.5861553"><ele>197.0</ele><time>2026-04-06T16:14:30.598Z</time></trkpt><trkpt lat="43.7510705" lon="12.5862363"><ele>197.0</ele><time>2026-04-06T16:14:31.599Z</time></trkpt><trkpt lat="43.7509747" lon="12.5863159"><ele>197.0</ele><time>2026-04-06T16:14:32.598Z</time></trkpt><trkpt lat="43.750876" lon="12.5863828"><ele>195.8</ele><time>2026-04-06T16:14:33.599Z</time></trkpt><trkpt lat="43.7507744" lon="12.5864385"><ele>194.6</ele><time>2026-04-06T16:14:34.599Z</time></trkpt><trkpt lat="43.7506694" lon="12.5864847"><ele>193.4</ele><time>2026-04-06T16:14:35.598Z</time></trkpt><trkpt lat="43.7505614" lon="12.5865238"><ele>192.20000000000002</ele><time>2026-04-06T16:14:36.599Z</time></trkpt><trkpt lat="43.75045" lon="12.5865564"><ele>191.0</ele><time>2026-04-06T16:14:37.6Z</time></trkpt><trkpt lat="43.7503381" lon="12.5865807"><ele>191.0</ele><time>2026-04-06T16:14:38.6Z</time></trkpt><trkpt lat="43.7502338" lon="12.5866014"><ele>191.0</ele><time>2026-04-06T16:14:39.598Z</time></trkpt><trkpt lat="43.7501341" lon="12.5866182"><ele>191.0</ele><time>2026-04-06T16:14:40.599Z</time></trkpt><trkpt lat="43.7500371" lon="12.5866348"><ele>191.0</ele><time>2026-04-06T16:14:41.599Z</time></trkpt><trkpt lat="43.7499407" lon="12.586649"><ele>191.0</ele><time>2026-04-06T16:14:42.598Z</time></trkpt><trkpt lat="43.7498482" lon="12.5866569"><ele>191.20000000000002</ele><time>2026-04-06T16:14:43.6Z</time></trkpt><trkpt lat="43.7497556" lon="12.5866639"><ele>191.4</ele><time>2026-04-06T16:14:44.598Z</time></trkpt><trkpt lat="43.7496647" lon="12.5866747"><ele>191.6</ele><time>2026-04-06T16:14:45.599Z</time></trkpt><trkpt lat="43.7495704" lon="12.5866905"><ele>191.8</ele><time>2026-04-06T16:14:46.599Z</time></trkpt><trkpt lat="43.7494718" lon="12.5867084"><ele>192.0</ele><time>2026-04-06T16:14:47.599Z</time></trkpt><trkpt lat="43.7493682" lon="12.5867241"><ele>193.0</ele><time>2026-04-06T16:14:48.598Z</time></trkpt><trkpt lat="43.7492646" lon="12.586733"><ele>194.0</ele><time>2026-04-06T16:14:49.599Z</time></trkpt><trkpt lat="43.7491599" lon="12.5867496"><ele>195.0</ele><time>2026-04-06T16:14:50.598Z</time></trkpt><trkpt lat="43.7490624" lon="12.5867774"><ele>196.0</ele><time>2026-04-06T16:14:51.599Z</time></trkpt><trkpt lat="43.7489725" lon="12.5868241"><ele>197.0</ele><time>2026-04-06T16:14:52.598Z</time></trkpt><trkpt lat="43.7488911" lon="12.5868869"><ele>197.0</ele><time>2026-04-06T16:14:53.599Z</time></trkpt><trkpt lat="43.7488191" lon="12.5869649"><ele>197.0</ele><time>2026-04-06T16:14:54.602Z</time></trkpt><trkpt lat="43.7487553" lon="12.5870518"><ele>197.0</ele><time>2026-04-06T16:14:55.598Z</time></trkpt><trkpt lat="43.7486991" lon="12.5871503"><ele>197.0</ele><time>2026-04-06T16:14:56.598Z</time></trkpt><trkpt lat="43.7486506" lon="12.5872681"><ele>197.0</ele><time>2026-04-06T16:14:57.598Z</time></trkpt><trkpt lat="43.7486217" lon="12.5874075"><ele>195.2</ele><time>2026-04-06T16:14:58.598Z</time></trkpt><trkpt lat="43.7485968" lon="12.587551"><ele>193.39999999999998</ele><time>2026-04-06T16:14:59.598Z</time></trkpt><trkpt lat="43.748571" lon="12.5876921"><ele>191.60000000000002</ele><time>2026-04-06T16:15:00.598Z</time></trkpt><trkpt lat="43.7485403" lon="12.5878308"><ele>189.8</ele><time>2026-04-06T16:15:01.598Z</time></trkpt><trkpt lat="43.7485076" lon="12.5879647"><ele>188.0</ele><time>2026-04-06T16:15:02.598Z</time></trkpt><trkpt lat="43.7484782" lon="12.5880935"><ele>188.0</ele><time>2026-04-06T16:15:03.599Z</time></trkpt><trkpt lat="43.7484474" lon="12.588217"><ele>188.0</ele><time>2026-04-06T16:15:04.6Z</time></trkpt><trkpt lat="43.7484179" lon="12.5883369"><ele>188.0</ele><time>2026-04-06T16:15:05.603Z</time></trkpt><trkpt lat="43.7483902" lon="12.5884504"><ele>188.0</ele><time>2026-04-06T16:15:06.599Z</time></trkpt><trkpt lat="43.7483718" lon="12.5885633"><ele>188.0</ele><time>2026-04-06T16:15:07.603Z</time></trkpt><trkpt lat="43.7483614" lon="12.588671"><ele>188.0</ele><time>2026-04-06T16:15:08.598Z</time></trkpt><trkpt lat="43.7483632" lon="12.588784"><ele>190.66666666666666</ele><time>2026-04-06T16:15:09.598Z</time></trkpt><trkpt lat="43.7483906" lon="12.5889016"><ele>193.33333333333331</ele><time>2026-04-06T16:15:10.599Z</time></trkpt><trkpt lat="43.7484283" lon="12.5890099"><ele>196.0</ele><time>2026-04-06T16:15:11.599Z</time></trkpt><trkpt lat="43.7484794" lon="12.5891062"><ele>198.66666666666666</ele><time>2026-04-06T16:15:12.599Z</time></trkpt><trkpt lat="43.7485415" lon="12.5891848"><ele>201.33333333333334</ele><time>2026-04-06T16:15:13.6Z</time></trkpt><trkpt lat="43.7486119" lon="12.5892537"><ele>204.0</ele><time>2026-04-06T16:15:14.599Z</time></trkpt><trkpt lat="43.7486929" lon="12.5893102"><ele>204.2</ele><time>2026-04-06T16:15:15.598Z</time></trkpt><trkpt lat="43.7487772" lon="12.589343"><ele>204.39999999999998</ele><time>2026-04-06T16:15:16.599Z</time></trkpt><trkpt lat="43.7488673" lon="12.5893645"><ele>204.6</ele><time>2026-04-06T16:15:17.599Z</time></trkpt><trkpt lat="43.7489599" lon="12.589386"><ele>204.8</ele><time>2026-04-06T16:15:18.599Z</time></trkpt><trkpt lat="43.7490519" lon="12.5894098"><ele>205.0</ele><time>2026-04-06T16:15:19.599Z</time></trkpt><trkpt lat="43.7491442" lon="12.5894272"><ele>205.0</ele><time>2026-04-06T16:15:20.599Z</time></trkpt><trkpt lat="43.7492362" lon="12.5894403"><ele>205.0</ele><time>2026-04-06T16:15:21.598Z</time></trkpt><trkpt lat="43.7493286" lon="12.5894351"><ele>205.0</ele><time>2026-04-06T16:15:22.599Z</time></trkpt><trkpt lat="43.7494218" lon="12.5894102"><ele>205.0</ele><time>2026-04-06T16:15:23.6Z</time></trkpt><trkpt lat="43.7495071" lon="12.589363"><ele>205.0</ele><time>2026-04-06T16:15:24.599Z</time></trkpt><trkpt lat="43.7495834" lon="12.5892879"><ele>205.33333333333331</ele><time>2026-04-06T16:15:25.599Z</time></trkpt><trkpt lat="43.7496534" lon="12.5892022"><ele>205.66666666666666</ele><time>2026-04-06T16:15:26.598Z</time></trkpt><trkpt lat="43.7497215" lon="12.5891191"><ele>206.0</ele><time>2026-04-06T16:15:27.599Z</time></trkpt><trkpt lat="43.7497919" lon="12.5890469"><ele>206.33333333333331</ele><time>2026-04-06T16:15:28.599Z</time></trkpt><trkpt lat="43.7498569" lon="12.5889815"><ele>206.66666666666666</ele><time>2026-04-06T16:15:29.6Z</time></trkpt><trkpt lat="43.749928" lon="12.588943"><ele>207.0</ele><time>2026-04-06T16:15:30.6Z</time></trkpt><trkpt lat="43.7499991" lon="12.5889737"><ele>207.0</ele><time>2026-04-06T16:15:31.6Z</time></trkpt><trkpt lat="43.7500492" lon="12.5890545"><ele>207.0</ele><time>2026-04-06T16:15:32.599Z</time></trkpt><trkpt lat="43.7500609" lon="12.5891711"><ele>207.0</ele><time>2026-04-06T16:15:33.599Z</time></trkpt><trkpt lat="43.7500265" lon="12.5892904"><ele>207.0</ele><time>2026-04-06T16:15:34.598Z</time></trkpt><trkpt lat="43.7499521" lon="12.5894011"><ele>207.0</ele><time>2026-04-06T16:15:35.599Z</time></trkpt><trkpt lat="43.7498509" lon="12.589521"><ele>213.33333333333331</ele><time>2026-04-06T16:15:36.599Z</time></trkpt><trkpt lat="43.749729" lon="12.5896626"><ele>219.66666666666666</ele><time>2026-04-06T16:15:37.599Z</time></trkpt><trkpt lat="43.74957" lon="12.5897988"><ele>226.0</ele><time>2026-04-06T16:15:38.597Z</time></trkpt><trkpt lat="43.7494296" lon="12.5899136"><ele>226.25</ele><time>2026-04-06T16:15:39.598Z</time></trkpt><trkpt lat="43.7493008" lon="12.5899974"><ele>226.5</ele><time>2026-04-06T16:15:40.598Z</time></trkpt><trkpt lat="43.7491683" lon="12.5900481"><ele>226.75</ele><time>2026-04-06T16:15:41.599Z</time></trkpt><trkpt lat="43.749042" lon="12.5900715"><ele>227.0</ele><time>2026-04-06T16:15:42.599Z</time></trkpt><trkpt lat="43.7489144" lon="12.5900782"><ele>227.0</ele><time>2026-04-06T16:15:43.598Z</time></trkpt><trkpt lat="43.7487854" lon="12.5900778"><ele>227.0</ele><time>2026-04-06T16:15:44.599Z</time></trkpt><trkpt lat="43.7486548" lon="12.5900862"><ele>227.0</ele><time>2026-04-06T16:15:45.597Z</time></trkpt><trkpt lat="43.7485259" lon="12.5901051"><ele>227.0</ele><time>2026-04-06T16:15:46.597Z</time></trkpt><trkpt lat="43.7483982" lon="12.5901091"><ele>227.5</ele><time>2026-04-06T16:15:47.597Z</time></trkpt><trkpt lat="43.748264" lon="12.5901209"><ele>228.0</ele><time>2026-04-06T16:15:48.597Z</time></trkpt><trkpt lat="43.7481299" lon="12.5901456"><ele>228.5</ele><time>2026-04-06T16:15:49.598Z</time></trkpt><trkpt lat="43.7479981" lon="12.5901889"><ele>229.0</ele><time>2026-04-06T16:15:50.597Z</time></trkpt><trkpt lat="43.7478808" lon="12.5902609"><ele>234.0</ele><time>2026-04-06T16:15:51.597Z</time></trkpt><trkpt lat="43.7477758" lon="12.5903504"><ele>239.0</ele><time>2026-04-06T16:15:52.598Z</time></trkpt><trkpt lat="43.7476728" lon="12.5904467"><ele>244.0</ele><time>2026-04-06T16:15:53.598Z</time></trkpt><trkpt lat="43.747564" lon="12.5905383"><ele>249.0</ele><time>2026-04-06T16:15:54.598Z</time></trkpt><trkpt lat="43.7474524" lon="12.5906194"><ele>250.25</ele><time>2026-04-06T16:15:55.598Z</time></trkpt><trkpt lat="43.7473352" lon="12.5906891"><ele>251.5</ele><time>2026-04-06T16:15:56.599Z</time></trkpt><trkpt lat="43.7472205" lon="12.5907447"><ele>252.75</ele><time>2026-04-06T16:15:57.598Z</time></trkpt><trkpt lat="43.7471173" lon="12.5907961"><ele>254.0</ele><time>2026-04-06T16:15:58.597Z</time></trkpt><trkpt lat="43.7470168" lon="12.5908455"><ele>254.0</ele><time>2026-04-06T16:15:59.597Z</time></trkpt><trkpt lat="43.7469139" lon="12.5908829"><ele>253.99999999999997</ele><time>2026-04-06T16:16:00.598Z</time></trkpt><trkpt lat="43.7468104" lon="12.5908776"><ele>253.99999999999997</ele><time>2026-04-06T16:16:01.597Z</time></trkpt><trkpt lat="43.7467057" lon="12.5908346"><ele>254.0</ele><time>2026-04-06T16:16:02.597Z</time></trkpt><trkpt lat="43.7466024" lon="12.5907702"><ele>254.0</ele><time>2026-04-06T16:16:03.597Z</time></trkpt><trkpt lat="43.7465054" lon="12.590696"><ele>253.39999999999998</ele><time>2026-04-06T16:16:04.597Z</time></trkpt><trkpt lat="43.7464101" lon="12.5906155"><ele>252.79999999999998</ele><time>2026-04-06T16:16:05.597Z</time></trkpt><trkpt lat="43.7463273" lon="12.5905514"><ele>252.20000000000002</ele><time>2026-04-06T16:16:06.598Z</time></trkpt><trkpt lat="43.7462474" lon="12.5905039"><ele>251.60000000000002</ele><time>2026-04-06T16:16:07.598Z</time></trkpt><trkpt lat="43.7461628" lon="12.5904934"><ele>251.0</ele><time>2026-04-06T16:16:08.597Z</time></trkpt><trkpt lat="43.7460781" lon="12.5905139"><ele>249.8</ele><time>2026-04-06T16:16:09.598Z</time></trkpt><trkpt lat="43.7460019" lon="12.590572"><ele>248.60000000000002</ele><time>2026-04-06T16:16:10.598Z</time></trkpt><trkpt lat="43.7459484" lon="12.5906908"><ele>247.4</ele><time>2026-04-06T16:16:11.599Z</time></trkpt><trkpt lat="43.7459125" lon="12.5908407"><ele>246.2</ele><time>2026-04-06T16:16:12.597Z</time></trkpt><trkpt lat="43.7458879" lon="12.5910075"><ele>245.0</ele><time>2026-04-06T16:16:13.599Z</time></trkpt><trkpt lat="43.7458668" lon="12.5911693"><ele>246.8</ele><time>2026-04-06T16:16:14.599Z</time></trkpt><trkpt lat="43.7458568" lon="12.5913228"><ele>248.6</ele><time>2026-04-06T16:16:15.596Z</time></trkpt><trkpt lat="43.7458661" lon="12.5914662"><ele>250.39999999999998</ele><time>2026-04-06T16:16:16.596Z</time></trkpt><trkpt lat="43.7459013" lon="12.5915945"><ele>252.2</ele><time>2026-04-06T16:16:17.598Z</time></trkpt><trkpt lat="43.7459601" lon="12.5917057"><ele>254.0</ele><time>2026-04-06T16:16:18.598Z</time></trkpt><trkpt lat="43.7460527" lon="12.591783"><ele>257.0</ele><time>2026-04-06T16:16:19.599Z</time></trkpt><trkpt lat="43.746176" lon="12.5918176"><ele>260.0</ele><time>2026-04-06T16:16:20.597Z</time></trkpt><trkpt lat="43.746323" lon="12.5918332"><ele>263.0</ele><time>2026-04-06T16:16:21.597Z</time></trkpt><trkpt lat="43.7465047" lon="12.5918367"><ele>263.0</ele><time>2026-04-06T16:16:22.598Z</time></trkpt><trkpt lat="43.7467168" lon="12.59184"><ele>263.0</ele><time>2026-04-06T16:16:23.597Z</time></trkpt><trkpt lat="43.7469122" lon="12.5918638"><ele>263.0</ele><time>2026-04-06T16:16:24.598Z</time></trkpt><trkpt lat="43.7470832" lon="12.5918984"><ele>263.6666666666667</ele><time>2026-04-06T16:16:25.597Z</time></trkpt><trkpt lat="43.7472401" lon="12.5919571"><ele>264.3333333333333</ele><time>2026-04-06T16:16:26.598Z</time></trkpt><trkpt lat="43.7473896" lon="12.5920399"><ele>265.0</ele><time>2026-04-06T16:16:27.597Z</time></trkpt><trkpt lat="43.7475292" lon="12.5921596"><ele>265.0</ele><time>2026-04-06T16:16:28.597Z</time></trkpt><trkpt lat="43.7476538" lon="12.5922982"><ele>265.0</ele><time>2026-04-06T16:16:29.598Z</time></trkpt><trkpt lat="43.7477636" lon="12.5924366"><ele>265.0</ele><time>2026-04-06T16:16:30.596Z</time></trkpt><trkpt lat="43.7478675" lon="12.5925549"><ele>265.0</ele><time>2026-04-06T16:16:31.599Z</time></trkpt><trkpt lat="43.7479771" lon="12.5926495"><ele>267.0</ele><time>2026-04-06T16:16:32.598Z</time></trkpt><trkpt lat="43.7481057" lon="12.5927293"><ele>269.0</ele><time>2026-04-06T16:16:33.597Z</time></trkpt><trkpt lat="43.7482481" lon="12.5928056"><ele>271.0</ele><time>2026-04-06T16:16:34.598Z</time></trkpt><trkpt lat="43.7483927" lon="12.5928884"><ele>271.0</ele><time>2026-04-06T16:16:35.598Z</time></trkpt><trkpt lat="43.7485324" lon="12.5929807"><ele>271.0</ele><time>2026-04-06T16:16:36.597Z</time></trkpt><trkpt lat="43.7486693" lon="12.5931048"><ele>271.0</ele><time>2026-04-06T16:16:37.598Z</time></trkpt><trkpt lat="43.7487905" lon="12.5932611"><ele>273.3333333333333</ele><time>2026-04-06T16:16:38.598Z</time></trkpt><trkpt lat="43.7488984" lon="12.5934286"><ele>275.6666666666667</ele><time>2026-04-06T16:16:39.597Z</time></trkpt><trkpt lat="43.7489756" lon="12.5936082"><ele>278.0</ele><time>2026-04-06T16:16:40.597Z</time></trkpt><trkpt lat="43.7490206" lon="12.5937989"><ele>278.0</ele><time>2026-04-06T16:16:41.598Z</time></trkpt><trkpt lat="43.7490469" lon="12.594"><ele>278.0</ele><time>2026-04-06T16:16:42.602Z</time></trkpt><trkpt lat="43.7490447" lon="12.5942188"><ele>278.0</ele><time>2026-04-06T16:16:43.599Z</time></trkpt><trkpt lat="43.7490096" lon="12.5944507"><ele>280.33333333333337</ele><time>2026-04-06T16:16:44.598Z</time></trkpt><trkpt lat="43.7489622" lon="12.5946891"><ele>282.6666666666667</ele><time>2026-04-06T16:16:45.598Z</time></trkpt><trkpt lat="43.7489149" lon="12.5949283"><ele>285.0</ele><time>2026-04-06T16:16:46.599Z</time></trkpt><trkpt lat="43.7488727" lon="12.5951712"><ele>285.6666666666667</ele><time>2026-04-06T16:16:47.599Z</time></trkpt><trkpt lat="43.7488338" lon="12.595419"><ele>286.33333333333337</ele><time>2026-04-06T16:16:48.601Z</time></trkpt><trkpt lat="43.7487974" lon="12.5956559"><ele>287.0</ele><time>2026-04-06T16:16:49.6Z</time></trkpt><trkpt lat="43.7487612" lon="12.5958708"><ele>287.0</ele><time>2026-04-06T16:16:50.599Z</time></trkpt><trkpt lat="43.7487288" lon="12.5960582"><ele>287.0</ele><time>2026-04-06T16:16:51.599Z</time></trkpt><trkpt lat="43.7486987" lon="12.5962228"><ele>287.0</ele><time>2026-04-06T16:16:52.599Z</time></trkpt><trkpt lat="43.7486725" lon="12.5963745"><ele>287.0</ele><time>2026-04-06T16:16:53.598Z</time></trkpt><trkpt lat="43.7486379" lon="12.5965155"><ele>287.25</ele><time>2026-04-06T16:16:54.6Z</time></trkpt><trkpt lat="43.7485875" lon="12.5966469"><ele>287.5</ele><time>2026-04-06T16:16:55.599Z</time></trkpt><trkpt lat="43.7485224" lon="12.5967695"><ele>287.75</ele><time>2026-04-06T16:16:56.599Z</time></trkpt><trkpt lat="43.7484449" lon="12.5968892"><ele>288.0</ele><time>2026-04-06T16:16:57.598Z</time></trkpt><trkpt lat="43.7483602" lon="12.597009"><ele>292.0</ele><time>2026-04-06T16:16:58.598Z</time></trkpt><trkpt lat="43.7482751" lon="12.5971344"><ele>296.0</ele><time>2026-04-06T16:16:59.597Z</time></trkpt><trkpt lat="43.7481957" lon="12.5972725"><ele>300.0</ele><time>2026-04-06T16:17:00.596Z</time></trkpt><trkpt lat="43.7481237" lon="12.5974203"><ele>304.0</ele><time>2026-04-06T16:17:01.598Z</time></trkpt><trkpt lat="43.7480563" lon="12.5975714"><ele>304.0</ele><time>2026-04-06T16:17:02.598Z</time></trkpt><trkpt lat="43.7479912" lon="12.5977253"><ele>304.0</ele><time>2026-04-06T16:17:03.597Z</time></trkpt><trkpt lat="43.7479314" lon="12.5978637"><ele>304.0</ele><time>2026-04-06T16:17:04.598Z</time></trkpt><trkpt lat="43.7478701" lon="12.5979782"><ele>304.0</ele><time>2026-04-06T16:17:05.596Z</time></trkpt><trkpt lat="43.7477963" lon="12.598075"><ele>305.0</ele><time>2026-04-06T16:17:06.597Z</time></trkpt><trkpt lat="43.7477048" lon="12.5981515"><ele>306.0</ele><time>2026-04-06T16:17:07.597Z</time></trkpt><trkpt lat="43.7476" lon="12.5981954"><ele>307.0</ele><time>2026-04-06T16:17:08.596Z</time></trkpt><trkpt lat="43.7474886" lon="12.5982096"><ele>308.0</ele><time>2026-04-06T16:17:09.597Z</time></trkpt><trkpt lat="43.7473652" lon="12.5981897"><ele>308.0</ele><time>2026-04-06T16:17:10.596Z</time></trkpt><trkpt lat="43.747236" lon="12.5981535"><ele>308.0</ele><time>2026-04-06T16:17:11.597Z</time></trkpt><trkpt lat="43.7471021" lon="12.5981227"><ele>308.0</ele><time>2026-04-06T16:17:12.596Z</time></trkpt><trkpt lat="43.7469808" lon="12.5981026"><ele>308.0</ele><time>2026-04-06T16:17:13.597Z</time></trkpt><trkpt lat="43.7468711" lon="12.5980898"><ele>309.8</ele><time>2026-04-06T16:17:14.598Z</time></trkpt><trkpt lat="43.7467691" lon="12.5980934"><ele>311.6</ele><time>2026-04-06T16:17:15.598Z</time></trkpt><trkpt lat="43.7466724" lon="12.598126"><ele>313.4</ele><time>2026-04-06T16:17:16.6Z</time></trkpt><trkpt lat="43.7465896" lon="12.5981917"><ele>315.2</ele><time>2026-04-06T16:17:17.599Z</time></trkpt><trkpt lat="43.7465206" lon="12.5982833"><ele>317.0</ele><time>2026-04-06T16:17:18.599Z</time></trkpt><trkpt lat="43.7464794" lon="12.5984382"><ele>317.0</ele><time>2026-04-06T16:17:19.599Z</time></trkpt><trkpt lat="43.7464422" lon="12.5986034"><ele>317.0</ele><time>2026-04-06T16:17:20.599Z</time></trkpt><trkpt lat="43.7464034" lon="12.5987696"><ele>317.0</ele><time>2026-04-06T16:17:21.601Z</time></trkpt><trkpt lat="43.7463631" lon="12.5989349"><ele>317.0</ele><time>2026-04-06T16:17:22.599Z</time></trkpt><trkpt lat="43.7463219" lon="12.5991081"><ele>318.5</ele><time>2026-04-06T16:17:23.598Z</time></trkpt><trkpt lat="43.7462751" lon="12.5992835"><ele>320.0</ele><time>2026-04-06T16:17:24.598Z</time></trkpt><trkpt lat="43.7462249" lon="12.5994585"><ele>321.5</ele><time>2026-04-06T16:17:25.598Z</time></trkpt><trkpt lat="43.7461879" lon="12.5996266"><ele>323.0</ele><time>2026-04-06T16:17:26.596Z</time></trkpt><trkpt lat="43.7461559" lon="12.5997977"><ele>325.5</ele><time>2026-04-06T16:17:27.598Z</time></trkpt><trkpt lat="43.7461408" lon="12.599974"><ele>328.0</ele><time>2026-04-06T16:17:28.597Z</time></trkpt><trkpt lat="43.7461399" lon="12.6001511"><ele>330.5</ele><time>2026-04-06T16:17:29.596Z</time></trkpt><trkpt lat="43.7461469" lon="12.6003244"><ele>333.0</ele><time>2026-04-06T16:17:30.596Z</time></trkpt><trkpt lat="43.7461583" lon="12.6004993"><ele>335.5</ele><time>2026-04-06T16:17:31.596Z</time></trkpt><trkpt lat="43.7461698" lon="12.6006772"><ele>338.0</ele><time>2026-04-06T16:17:32.599Z</time></trkpt><trkpt lat="43.7461787" lon="12.6008548"><ele>340.5</ele><time>2026-04-06T16:17:33.596Z</time></trkpt><trkpt lat="43.7461762" lon="12.6010207"><ele>343.0</ele><time>2026-04-06T16:17:34.597Z</time></trkpt><trkpt lat="43.7461685" lon="12.6011805"><ele>343.5</ele><time>2026-04-06T16:17:35.598Z</time></trkpt><trkpt lat="43.7461514" lon="12.6013427"><ele>344.0</ele><time>2026-04-06T16:17:36.598Z</time></trkpt><trkpt lat="43.7461265" lon="12.6015013"><ele>344.5</ele><time>2026-04-06T16:17:37.598Z</time></trkpt><trkpt lat="43.7460908" lon="12.6016506"><ele>345.0</ele><time>2026-04-06T16:17:38.598Z</time></trkpt><trkpt lat="43.7460488" lon="12.6017998"><ele>341.75</ele><time>2026-04-06T16:17:39.598Z</time></trkpt><trkpt lat="43.7460022" lon="12.6019551"><ele>338.5</ele><time>2026-04-06T16:17:40.597Z</time></trkpt><trkpt lat="43.7459485" lon="12.6021007"><ele>335.25</ele><time>2026-04-06T16:17:41.597Z</time></trkpt><trkpt lat="43.7458969" lon="12.6022339"><ele>332.0</ele><time>2026-04-06T16:17:42.596Z</time></trkpt><trkpt lat="43.7458488" lon="12.6023656"><ele>332.0</ele><time>2026-04-06T16:17:43.598Z</time></trkpt><trkpt lat="43.7458055" lon="12.6025058"><ele>332.0</ele><time>2026-04-06T16:17:44.598Z</time></trkpt><trkpt lat="43.7457637" lon="12.6026562"><ele>332.0</ele><time>2026-04-06T16:17:45.601Z</time></trkpt><trkpt lat="43.7457393" lon="12.6028037"><ele>332.0</ele><time>2026-04-06T16:17:46.599Z</time></trkpt><trkpt lat="43.7457286" lon="12.6029438"><ele>332.0</ele><time>2026-04-06T16:17:47.599Z</time></trkpt><trkpt lat="43.7457415" lon="12.603075"><ele>333.6</ele><time>2026-04-06T16:17:48.597Z</time></trkpt><trkpt lat="43.7457703" lon="12.6031975"><ele>335.20000000000005</ele><time>2026-04-06T16:17:49.598Z</time></trkpt><trkpt lat="43.7458109" lon="12.6033213"><ele>336.8</ele><time>2026-04-06T16:17:50.597Z</time></trkpt><trkpt lat="43.7458484" lon="12.6034593"><ele>338.4</ele><time>2026-04-06T16:17:51.597Z</time></trkpt><trkpt lat="43.745874" lon="12.6036073"><ele>340.0</ele><time>2026-04-06T16:17:52.597Z</time></trkpt><trkpt lat="43.7458906" lon="12.6037562"><ele>340.6</ele><time>2026-04-06T16:17:53.598Z</time></trkpt><trkpt lat="43.7458871" lon="12.6039029"><ele>341.2</ele><time>2026-04-06T16:17:54.598Z</time></trkpt><trkpt lat="43.7458614" lon="12.6040457"><ele>341.79999999999995</ele><time>2026-04-06T16:17:55.596Z</time></trkpt><trkpt lat="43.7458292" lon="12.6041911"><ele>342.4</ele><time>2026-04-06T16:17:56.597Z</time></trkpt><trkpt lat="43.7458034" lon="12.604335"><ele>343.0</ele><time>2026-04-06T16:17:57.598Z</time></trkpt><trkpt lat="43.7458006" lon="12.6044833"><ele>344.59999999999997</ele><time>2026-04-06T16:17:58.598Z</time></trkpt><trkpt lat="43.7458058" lon="12.604634"><ele>346.2</ele><time>2026-04-06T16:17:59.597Z</time></trkpt><trkpt lat="43.7458358" lon="12.6047801"><ele>347.8</ele><time>2026-04-06T16:18:00.598Z</time></trkpt><trkpt lat="43.7458785" lon="12.6049158"><ele>349.4</ele><time>2026-04-06T16:18:01.599Z</time></trkpt><trkpt lat="43.7459229" lon="12.6050543"><ele>351.0</ele><time>2026-04-06T16:18:02.598Z</time></trkpt><trkpt lat="43.7459595" lon="12.6051904"><ele>352.4</ele><time>2026-04-06T16:18:03.597Z</time></trkpt><trkpt lat="43.7459867" lon="12.6053315"><ele>353.8</ele><time>2026-04-06T16:18:04.596Z</time></trkpt><trkpt lat="43.7460006" lon="12.6054741"><ele>355.2</ele><time>2026-04-06T16:18:05.598Z</time></trkpt><trkpt lat="43.746003" lon="12.6056181"><ele>356.59999999999997</ele><time>2026-04-06T16:18:06.597Z</time></trkpt><trkpt lat="43.7459901" lon="12.6057603"><ele>358.0</ele><time>2026-04-06T16:18:07.598Z</time></trkpt><trkpt lat="43.7459658" lon="12.6058985"><ele>358.0</ele><time>2026-04-06T16:18:08.597Z</time></trkpt><trkpt lat="43.7459413" lon="12.6060367"><ele>358.0</ele><time>2026-04-06T16:18:09.598Z</time></trkpt><trkpt lat="43.7459259" lon="12.6061735"><ele>358.0</ele><time>2026-04-06T16:18:10.597Z</time></trkpt><trkpt lat="43.7459147" lon="12.6063036"><ele>358.0</ele><time>2026-04-06T16:18:11.597Z</time></trkpt><trkpt lat="43.7458998" lon="12.606433"><ele>358.0</ele><time>2026-04-06T16:18:12.598Z</time></trkpt><trkpt lat="43.7458861" lon="12.6065687"><ele>358.79999999999995</ele><time>2026-04-06T16:18:13.598Z</time></trkpt><trkpt lat="43.7458698" lon="12.6067068"><ele>359.6</ele><time>2026-04-06T16:18:14.596Z</time></trkpt><trkpt lat="43.7458615" lon="12.6068431"><ele>360.4</ele><time>2026-04-06T16:18:15.597Z</time></trkpt><trkpt lat="43.7458551" lon="12.6069768"><ele>361.20000000000005</ele><time>2026-04-06T16:18:16.597Z</time></trkpt><trkpt lat="43.7458635" lon="12.6071111"><ele>362.0</ele><time>2026-04-06T16:18:17.597Z</time></trkpt><trkpt lat="43.7458805" lon="12.607242"><ele>363.8</ele><time>2026-04-06T16:18:18.596Z</time></trkpt><trkpt lat="43.7459206" lon="12.6073714"><ele>365.6</ele><time>2026-04-06T16:18:19.597Z</time></trkpt><trkpt lat="43.7459717" lon="12.6074913"><ele>367.40000000000003</ele><time>2026-04-06T16:18:20.597Z</time></trkpt><trkpt lat="43.7460343" lon="12.6076059"><ele>369.20000000000005</ele><time>2026-04-06T16:18:21.597Z</time></trkpt><trkpt lat="43.7461168" lon="12.6076949"><ele>371.0</ele><time>2026-04-06T16:18:22.598Z</time></trkpt><trkpt lat="43.7462119" lon="12.6077551"><ele>367.20000000000005</ele><time>2026-04-06T16:18:23.596Z</time></trkpt><trkpt lat="43.7463172" lon="12.6077884"><ele>363.40000000000003</ele><time>2026-04-06T16:18:24.598Z</time></trkpt><trkpt lat="43.7464205" lon="12.6077977"><ele>359.6</ele><time>2026-04-06T16:18:25.598Z</time></trkpt><trkpt lat="43.7465174" lon="12.6077791"><ele>355.8</ele><time>2026-04-06T16:18:26.597Z</time></trkpt><trkpt lat="43.7466092" lon="12.607753"><ele>352.0</ele><time>2026-04-06T16:18:27.596Z</time></trkpt><trkpt lat="43.7466969" lon="12.6077384"><ele>352.0</ele><time>2026-04-06T16:18:28.597Z</time></trkpt><trkpt lat="43.7467845" lon="12.6077398"><ele>352.0</ele><time>2026-04-06T16:18:29.597Z</time></trkpt><trkpt lat="43.7468713" lon="12.6077559"><ele>352.0</ele><time>2026-04-06T16:18:30.596Z</time></trkpt><trkpt lat="43.7469459" lon="12.6078097"><ele>352.0</ele><time>2026-04-06T16:18:31.597Z</time></trkpt><trkpt lat="43.7470091" lon="12.6079077"><ele>352.0</ele><time>2026-04-06T16:18:32.596Z</time></trkpt><trkpt lat="43.7470585" lon="12.6080396"><ele>352.0</ele><time>2026-04-06T16:18:33.597Z</time></trkpt><trkpt lat="43.7470951" lon="12.6081917"><ele>352.0</ele><time>2026-04-06T16:18:34.597Z</time></trkpt><trkpt lat="43.7471272" lon="12.6083484"><ele>352.0</ele><time>2026-04-06T16:18:35.598Z</time></trkpt><trkpt lat="43.7471582" lon="12.6085022"><ele>352.0</ele><time>2026-04-06T16:18:36.599Z</time></trkpt><trkpt lat="43.7471931" lon="12.608648"><ele>356.40000000000003</ele><time>2026-04-06T16:18:37.6Z</time></trkpt><trkpt lat="43.7472407" lon="12.6087772"><ele>360.8</ele><time>2026-04-06T16:18:38.6Z</time></trkpt><trkpt lat="43.7473061" lon="12.6088881"><ele>365.2</ele><time>2026-04-06T16:18:39.596Z</time></trkpt><trkpt lat="43.7473816" lon="12.6089845"><ele>369.6</ele><time>2026-04-06T16:18:40.598Z</time></trkpt><trkpt lat="43.7474679" lon="12.6090612"><ele>374.0</ele><time>2026-04-06T16:18:41.598Z</time></trkpt><trkpt lat="43.74756" lon="12.6091302"><ele>374.0</ele><time>2026-04-06T16:18:42.597Z</time></trkpt><trkpt lat="43.7476527" lon="12.6091974"><ele>374.0</ele><time>2026-04-06T16:18:43.597Z</time></trkpt><trkpt lat="43.7477407" lon="12.6092738"><ele>374.0</ele><time>2026-04-06T16:18:44.596Z</time></trkpt><trkpt lat="43.7478222" lon="12.6093631"><ele>374.0</ele><time>2026-04-06T16:18:45.599Z</time></trkpt><trkpt lat="43.7478851" lon="12.609472"><ele>374.0</ele><time>2026-04-06T16:18:46.597Z</time></trkpt><trkpt lat="43.7479311" lon="12.6095975"><ele>373.0</ele><time>2026-04-06T16:18:47.596Z</time></trkpt><trkpt lat="43.7479618" lon="12.6097379"><ele>372.0</ele><time>2026-04-06T16:18:48.598Z</time></trkpt><trkpt lat="43.7479845" lon="12.6098813"><ele>371.0</ele><time>2026-04-06T16:18:49.598Z</time></trkpt><trkpt lat="43.7479993" lon="12.6100278"><ele>370.0</ele><time>2026-04-06T16:18:50.597Z</time></trkpt><trkpt lat="43.748005" lon="12.610187"><ele>369.0</ele><time>2026-04-06T16:18:51.597Z</time></trkpt><trkpt lat="43.7480062" lon="12.6103444"><ele>369.0</ele><time>2026-04-06T16:18:52.597Z</time></trkpt><trkpt lat="43.7480056" lon="12.6105058"><ele>369.0</ele><time>2026-04-06T16:18:53.596Z</time></trkpt><trkpt lat="43.7480077" lon="12.6106641"><ele>369.0</ele><time>2026-04-06T16:18:54.596Z</time></trkpt><trkpt lat="43.7480082" lon="12.6108151"><ele>369.0</ele><time>2026-04-06T16:18:55.598Z</time></trkpt><trkpt lat="43.7480053" lon="12.6109589"><ele>369.0</ele><time>2026-04-06T16:18:56.598Z</time></trkpt><trkpt lat="43.7480014" lon="12.6111112"><ele>371.3333333333333</ele><time>2026-04-06T16:18:57.597Z</time></trkpt><trkpt lat="43.7479921" lon="12.6112422"><ele>373.6666666666667</ele><time>2026-04-06T16:18:58.598Z</time></trkpt><trkpt lat="43.7479818" lon="12.6113635"><ele>376.0</ele><time>2026-04-06T16:18:59.599Z</time></trkpt><trkpt lat="43.7479726" lon="12.611477"><ele>378.33333333333337</ele><time>2026-04-06T16:19:00.598Z</time></trkpt><trkpt lat="43.7479611" lon="12.6115768"><ele>380.6666666666667</ele><time>2026-04-06T16:19:01.597Z</time></trkpt><trkpt lat="43.747939" lon="12.6116619"><ele>383.0</ele><time>2026-04-06T16:19:02.595Z</time></trkpt><trkpt lat="43.7479066" lon="12.611748"><ele>383.0</ele><time>2026-04-06T16:19:03.597Z</time></trkpt><trkpt lat="43.7478675" lon="12.6118371"><ele>383.0</ele><time>2026-04-06T16:19:04.596Z</time></trkpt><trkpt lat="43.7478266" lon="12.6119257"><ele>383.0</ele><time>2026-04-06T16:19:05.595Z</time></trkpt><trkpt lat="43.7477817" lon="12.6120126"><ele>383.0</ele><time>2026-04-06T16:19:06.596Z</time></trkpt><trkpt lat="43.7477328" lon="12.6121043"><ele>383.0</ele><time>2026-04-06T16:19:07.597Z</time></trkpt><trkpt lat="43.7476848" lon="12.612196"><ele>383.0</ele><time>2026-04-06T16:19:08.598Z</time></trkpt><trkpt lat="43.7476348" lon="12.6122925"><ele>381.5</ele><time>2026-04-06T16:19:09.597Z</time></trkpt><trkpt lat="43.7475919" lon="12.6123927"><ele>380.0</ele><time>2026-04-06T16:19:10.596Z</time></trkpt><trkpt lat="43.7475559" lon="12.6124907"><ele>378.5</ele><time>2026-04-06T16:19:11.596Z</time></trkpt><trkpt lat="43.7475255" lon="12.6125927"><ele>377.0</ele><time>2026-04-06T16:19:12.596Z</time></trkpt><trkpt lat="43.7475031" lon="12.6127002"><ele>375.5</ele><time>2026-04-06T16:19:13.597Z</time></trkpt><trkpt lat="43.7474935" lon="12.6128104"><ele>374.0</ele><time>2026-04-06T16:19:14.596Z</time></trkpt><trkpt lat="43.7474958" lon="12.6129245"><ele>373.1666666666667</ele><time>2026-04-06T16:19:15.597Z</time></trkpt><trkpt lat="43.747499" lon="12.6130348"><ele>372.33333333333337</ele><time>2026-04-06T16:19:16.595Z</time></trkpt><trkpt lat="43.7475101" lon="12.6131508"><ele>371.5</ele><time>2026-04-06T16:19:17.596Z</time></trkpt><trkpt lat="43.7475306" lon="12.6132693"><ele>370.6666666666667</ele><time>2026-04-06T16:19:18.597Z</time></trkpt><trkpt lat="43.747552" lon="12.6133896"><ele>369.8333333333333</ele><time>2026-04-06T16:19:19.597Z</time></trkpt><trkpt lat="43.74757" lon="12.6135117"><ele>369.0</ele><time>2026-04-06T16:19:20.596Z</time></trkpt><trkpt lat="43.7475756" lon="12.6136314"><ele>368.5</ele><time>2026-04-06T16:19:21.596Z</time></trkpt><trkpt lat="43.7475628" lon="12.61375"><ele>368.0</ele><time>2026-04-06T16:19:22.596Z</time></trkpt><trkpt lat="43.747542" lon="12.6138646"><ele>367.5</ele><time>2026-04-06T16:19:23.596Z</time></trkpt><trkpt lat="43.7475137" lon="12.6139803"><ele>367.0</ele><time>2026-04-06T16:19:24.595Z</time></trkpt><trkpt lat="43.7474686" lon="12.6140883"><ele>366.5</ele><time>2026-04-06T16:19:25.596Z</time></trkpt><trkpt lat="43.7474121" lon="12.6141849"><ele>366.0</ele><time>2026-04-06T16:19:26.596Z</time></trkpt><trkpt lat="43.7473553" lon="12.6142832"><ele>366.0</ele><time>2026-04-06T16:19:27.598Z</time></trkpt><trkpt lat="43.747293" lon="12.6143797"><ele>366.0</ele><time>2026-04-06T16:19:28.597Z</time></trkpt><trkpt lat="43.747228" lon="12.614479"><ele>366.0</ele><time>2026-04-06T16:19:29.597Z</time></trkpt><trkpt lat="43.7471715" lon="12.6145881"><ele>366.0</ele><time>2026-04-06T16:19:30.596Z</time></trkpt><trkpt lat="43.7471271" lon="12.6147135"><ele>366.0</ele><time>2026-04-06T16:19:31.598Z</time></trkpt><trkpt lat="43.7470877" lon="12.614848"><ele>366.4</ele><time>2026-04-06T16:19:32.595Z</time></trkpt><trkpt lat="43.7470503" lon="12.6149878"><ele>366.8</ele><time>2026-04-06T16:19:33.595Z</time></trkpt><trkpt lat="43.7470088" lon="12.6151288"><ele>367.2</ele><time>2026-04-06T16:19:34.596Z</time></trkpt><trkpt lat="43.74697" lon="12.615268"><ele>367.59999999999997</ele><time>2026-04-06T16:19:35.595Z</time></trkpt><trkpt lat="43.746922" lon="12.6153983"><ele>368.0</ele><time>2026-04-06T16:19:36.595Z</time></trkpt><trkpt lat="43.746863" lon="12.6155152"><ele>365.4</ele><time>2026-04-06T16:19:37.596Z</time></trkpt><trkpt lat="43.7467952" lon="12.6156173"><ele>362.79999999999995</ele><time>2026-04-06T16:19:38.595Z</time></trkpt><trkpt lat="43.7467249" lon="12.6157117"><ele>360.2</ele><time>2026-04-06T16:19:39.597Z</time></trkpt><trkpt lat="43.7466465" lon="12.6157967"><ele>357.6</ele><time>2026-04-06T16:19:40.596Z</time></trkpt><trkpt lat="43.7465591" lon="12.6158766"><ele>355.0</ele><time>2026-04-06T16:19:41.596Z</time></trkpt><trkpt lat="43.7464724" lon="12.6159557"><ele>355.0</ele><time>2026-04-06T16:19:42.595Z</time></trkpt><trkpt lat="43.7463906" lon="12.616036"><ele>355.0</ele><time>2026-04-06T16:19:43.596Z</time></trkpt><trkpt lat="43.7463124" lon="12.6161153"><ele>355.0</ele><time>2026-04-06T16:19:44.596Z</time></trkpt><trkpt lat="43.7462427" lon="12.6162055"><ele>355.0</ele><time>2026-04-06T16:19:45.596Z</time></trkpt><trkpt lat="43.7461883" lon="12.6163103"><ele>355.0</ele><time>2026-04-06T16:19:46.595Z</time></trkpt><trkpt lat="43.7461602" lon="12.6164307"><ele>355.2</ele><time>2026-04-06T16:19:47.595Z</time></trkpt><trkpt lat="43.7461546" lon="12.6165579"><ele>355.4</ele><time>2026-04-06T16:19:48.596Z</time></trkpt><trkpt lat="43.7461617" lon="12.6166884"><ele>355.6</ele><time>2026-04-06T16:19:49.596Z</time></trkpt><trkpt lat="43.7461921" lon="12.6168179"><ele>355.8</ele><time>2026-04-06T16:19:50.598Z</time></trkpt><trkpt lat="43.7462356" lon="12.6169418"><ele>356.0</ele><time>2026-04-06T16:19:51.596Z</time></trkpt><trkpt lat="43.7462944" lon="12.617058"><ele>351.5</ele><time>2026-04-06T16:19:52.596Z</time></trkpt><trkpt lat="43.746375" lon="12.6171602"><ele>347.0</ele><time>2026-04-06T16:19:53.596Z</time></trkpt><trkpt lat="43.7464787" lon="12.6172446"><ele>342.5</ele><time>2026-04-06T16:19:54.603Z</time></trkpt><trkpt lat="43.7465875" lon="12.6173236"><ele>338.0</ele><time>2026-04-06T16:19:55.596Z</time></trkpt><trkpt lat="43.7466994" lon="12.6174035"><ele>338.0</ele><time>2026-04-06T16:19:56.595Z</time></trkpt><trkpt lat="43.7468118" lon="12.6174898"><ele>338.0</ele><time>2026-04-06T16:19:57.597Z</time></trkpt><trkpt lat="43.7469199" lon="12.6175855"><ele>338.0</ele><time>2026-04-06T16:19:58.596Z</time></trkpt><trkpt lat="43.7470292" lon="12.6176679"><ele>338.0</ele><time>2026-04-06T16:19:59.596Z</time></trkpt><trkpt lat="43.7471339" lon="12.617747"><ele>338.4</ele><time>2026-04-06T16:20:00.597Z</time></trkpt><trkpt lat="43.747234" lon="12.6178278"><ele>338.79999999999995</ele><time>2026-04-06T16:20:01.597Z</time></trkpt><trkpt lat="43.7473319" lon="12.6179107"><ele>339.2</ele><time>2026-04-06T16:20:02.595Z</time></trkpt><trkpt lat="43.7474189" lon="12.6180026"><ele>339.6</ele><time>2026-04-06T16:20:03.597Z</time></trkpt><trkpt lat="43.7474963" lon="12.6181042"><ele>340.0</ele><time>2026-04-06T16:20:04.597Z</time></trkpt><trkpt lat="43.7475564" lon="12.6182237"><ele>340.0</ele><time>2026-04-06T16:20:05.596Z</time></trkpt><trkpt lat="43.7476015" lon="12.6183484"><ele>340.0</ele><time>2026-04-06T16:20:06.597Z</time></trkpt><trkpt lat="43.7476388" lon="12.6184802"><ele>340.0</ele><time>2026-04-06T16:20:07.595Z</time></trkpt><trkpt lat="43.7476353" lon="12.6186394"><ele>340.0</ele><time>2026-04-06T16:20:08.595Z</time></trkpt><trkpt lat="43.7475871" lon="12.6188168"><ele>339.5</ele><time>2026-04-06T16:20:09.596Z</time></trkpt><trkpt lat="43.7475435" lon="12.6189907"><ele>339.0</ele><time>2026-04-06T16:20:10.597Z</time></trkpt><trkpt lat="43.7474876" lon="12.6191561"><ele>338.5</ele><time>2026-04-06T16:20:11.596Z</time></trkpt><trkpt lat="43.7474255" lon="12.6193056"><ele>338.0</ele><time>2026-04-06T16:20:12.596Z</time></trkpt><trkpt lat="43.7473655" lon="12.6194369"><ele>339.59999999999997</ele><time>2026-04-06T16:20:13.596Z</time></trkpt><trkpt lat="43.7473128" lon="12.6195597"><ele>341.2</ele><time>2026-04-06T16:20:14.598Z</time></trkpt><trkpt lat="43.7472641" lon="12.6196849"><ele>342.8</ele><time>2026-04-06T16:20:15.595Z</time></trkpt><trkpt lat="43.7472181" lon="12.6198161"><ele>344.4</ele><time>2026-04-06T16:20:16.596Z</time></trkpt><trkpt lat="43.7471836" lon="12.6199554"><ele>346.0</ele><time>2026-04-06T16:20:17.595Z</time></trkpt><trkpt lat="43.7471714" lon="12.6201021"><ele>346.0</ele><time>2026-04-06T16:20:18.596Z</time></trkpt><trkpt lat="43.7471826" lon="12.6202502"><ele>346.0</ele><time>2026-04-06T16:20:19.597Z</time></trkpt><trkpt lat="43.7472081" lon="12.6204015"><ele>346.0</ele><time>2026-04-06T16:20:20.595Z</time></trkpt><trkpt lat="43.7472573" lon="12.6205548"><ele>346.0</ele><time>2026-04-06T16:20:21.596Z</time></trkpt><trkpt lat="43.7473182" lon="12.6207072"><ele>344.75</ele><time>2026-04-06T16:20:22.595Z</time></trkpt><trkpt lat="43.7473791" lon="12.620852"><ele>343.5</ele><time>2026-04-06T16:20:23.595Z</time></trkpt><trkpt lat="43.7474383" lon="12.6209882"><ele>342.25</ele><time>2026-04-06T16:20:24.595Z</time></trkpt><trkpt lat="43.7474993" lon="12.621122"><ele>341.0</ele><time>2026-04-06T16:20:25.595Z</time></trkpt><trkpt lat="43.7475566" lon="12.6212685"><ele>338.75</ele><time>2026-04-06T16:20:26.596Z</time></trkpt><trkpt lat="43.747616" lon="12.6214106"><ele>336.5</ele><time>2026-04-06T16:20:27.596Z</time></trkpt><trkpt lat="43.7476717" lon="12.6215538"><ele>334.25</ele><time>2026-04-06T16:20:28.596Z</time></trkpt><trkpt lat="43.7477238" lon="12.6216979"><ele>332.0</ele><time>2026-04-06T16:20:29.596Z</time></trkpt><trkpt lat="43.7477857" lon="12.6218379"><ele>335.5</ele><time>2026-04-06T16:20:30.595Z</time></trkpt><trkpt lat="43.7478471" lon="12.6219804"><ele>339.0</ele><time>2026-04-06T16:20:31.595Z</time></trkpt><trkpt lat="43.747907" lon="12.6221188"><ele>342.5</ele><time>2026-04-06T16:20:32.596Z</time></trkpt><trkpt lat="43.7479596" lon="12.6222564"><ele>346.0</ele><time>2026-04-06T16:20:33.597Z</time></trkpt><trkpt lat="43.7480008" lon="12.6224037"><ele>346.0</ele><time>2026-04-06T16:20:34.598Z</time></trkpt><trkpt lat="43.7480216" lon="12.6225554"><ele>346.0</ele><time>2026-04-06T16:20:35.597Z</time></trkpt><trkpt lat="43.748021" lon="12.6227116"><ele>346.0</ele><time>2026-04-06T16:20:36.598Z</time></trkpt><trkpt lat="43.7480017" lon="12.6228669"><ele>346.0</ele><time>2026-04-06T16:20:37.597Z</time></trkpt><trkpt lat="43.7479701" lon="12.6230166"><ele>346.20000000000005</ele><time>2026-04-06T16:20:38.597Z</time></trkpt><trkpt lat="43.747936" lon="12.6231581"><ele>346.40000000000003</ele><time>2026-04-06T16:20:39.597Z</time></trkpt><trkpt lat="43.7479018" lon="12.6232894"><ele>346.6</ele><time>2026-04-06T16:20:40.597Z</time></trkpt><trkpt lat="43.747874" lon="12.623409"><ele>346.8</ele><time>2026-04-06T16:20:41.596Z</time></trkpt><trkpt lat="43.74786" lon="12.6235235"><ele>347.0</ele><time>2026-04-06T16:20:42.595Z</time></trkpt><trkpt lat="43.7478646" lon="12.6236283"><ele>347.40000000000003</ele><time>2026-04-06T16:20:43.596Z</time></trkpt><trkpt lat="43.7478851" lon="12.6237185"><ele>347.8</ele><time>2026-04-06T16:20:44.597Z</time></trkpt><trkpt lat="43.7479337" lon="12.623854"><ele>348.2</ele><time>2026-04-06T16:20:46.596Z</time></trkpt><trkpt lat="43.7479646" lon="12.6239763"><ele>348.6</ele><time>2026-04-06T16:20:48.595Z</time></trkpt><trkpt lat="43.7479255" lon="12.62415"><ele>349.0</ele><time>2026-04-06T16:20:50.596Z</time></trkpt><trkpt lat="43.7478565" lon="12.6242648"><ele>349.0</ele><time>2026-04-06T16:20:51.596Z</time></trkpt><trkpt lat="43.7477551" lon="12.6244234"><ele>349.0</ele><time>2026-04-06T16:20:52.595Z</time></trkpt><trkpt lat="43.7476361" lon="12.6246016"><ele>349.0</ele><time>2026-04-06T16:20:53.595Z</time></trkpt><trkpt lat="43.747497" lon="12.624768"><ele>349.3333333333333</ele><time>2026-04-06T16:20:54.597Z</time></trkpt><trkpt lat="43.7473469" lon="12.6249032"><ele>349.6666666666667</ele><time>2026-04-06T16:20:55.596Z</time></trkpt><trkpt lat="43.7471881" lon="12.6249832"><ele>350.0</ele><time>2026-04-06T16:20:56.596Z</time></trkpt><trkpt lat="43.7470282" lon="12.6250279"><ele>351.6666666666667</ele><time>2026-04-06T16:20:57.596Z</time></trkpt><trkpt lat="43.7468633" lon="12.6250794"><ele>353.3333333333333</ele><time>2026-04-06T16:20:58.596Z</time></trkpt><trkpt lat="43.7467054" lon="12.6251521"><ele>355.0</ele><time>2026-04-06T16:20:59.596Z</time></trkpt><trkpt lat="43.7465601" lon="12.6252459"><ele>356.66666666666663</ele><time>2026-04-06T16:21:00.597Z</time></trkpt><trkpt lat="43.7464292" lon="12.6253674"><ele>358.3333333333333</ele><time>2026-04-06T16:21:01.599Z</time></trkpt><trkpt lat="43.746304" lon="12.6254993"><ele>360.0</ele><time>2026-04-06T16:21:02.597Z</time></trkpt><trkpt lat="43.7461718" lon="12.625614"><ele>359.6666666666667</ele><time>2026-04-06T16:21:03.597Z</time></trkpt><trkpt lat="43.7460247" lon="12.6257057"><ele>359.33333333333337</ele><time>2026-04-06T16:21:04.597Z</time></trkpt><trkpt lat="43.7458741" lon="12.6257381"><ele>359.0</ele><time>2026-04-06T16:21:05.595Z</time></trkpt><trkpt lat="43.7457202" lon="12.6257142"><ele>359.0</ele><time>2026-04-06T16:21:06.595Z</time></trkpt><trkpt lat="43.7455699" lon="12.6256393"><ele>359.0</ele><time>2026-04-06T16:21:07.595Z</time></trkpt><trkpt lat="43.745428" lon="12.6255254"><ele>359.0</ele><time>2026-04-06T16:21:08.596Z</time></trkpt><trkpt lat="43.7452949" lon="12.6253972"><ele>361.0</ele><time>2026-04-06T16:21:09.595Z</time></trkpt><trkpt lat="43.7451663" lon="12.6252734"><ele>363.0</ele><time>2026-04-06T16:21:10.595Z</time></trkpt><trkpt lat="43.7450412" lon="12.6251526"><ele>365.0</ele><time>2026-04-06T16:21:11.595Z</time></trkpt><trkpt lat="43.7449166" lon="12.6250326"><ele>365.0</ele><time>2026-04-06T16:21:12.596Z</time></trkpt><trkpt lat="43.7447934" lon="12.624916"><ele>365.0</ele><time>2026-04-06T16:21:13.596Z</time></trkpt><trkpt lat="43.7446702" lon="12.6247989"><ele>365.0</ele><time>2026-04-06T16:21:14.596Z</time></trkpt><trkpt lat="43.7445387" lon="12.6247121"><ele>365.0</ele><time>2026-04-06T16:21:15.598Z</time></trkpt><trkpt lat="43.7444004" lon="12.6246672"><ele>368.25</ele><time>2026-04-06T16:21:16.596Z</time></trkpt><trkpt lat="43.744258" lon="12.6246671"><ele>371.5</ele><time>2026-04-06T16:21:17.599Z</time></trkpt><trkpt lat="43.744115" lon="12.6247122"><ele>374.75</ele><time>2026-04-06T16:21:18.602Z</time></trkpt><trkpt lat="43.7439754" lon="12.6247684"><ele>378.0</ele><time>2026-04-06T16:21:19.596Z</time></trkpt><trkpt lat="43.7438488" lon="12.6248169"><ele>378.0</ele><time>2026-04-06T16:21:20.596Z</time></trkpt><trkpt lat="43.7437351" lon="12.6248356"><ele>378.0</ele><time>2026-04-06T16:21:21.597Z</time></trkpt><trkpt lat="43.7436319" lon="12.6248205"><ele>378.0</ele><time>2026-04-06T16:21:22.597Z</time></trkpt><trkpt lat="43.7435342" lon="12.6247663"><ele>378.0</ele><time>2026-04-06T16:21:23.595Z</time></trkpt><trkpt lat="43.7434397" lon="12.6246714"><ele>378.0</ele><time>2026-04-06T16:21:24.596Z</time></trkpt><trkpt lat="43.7433565" lon="12.624548"><ele>377.0</ele><time>2026-04-06T16:21:25.596Z</time></trkpt><trkpt lat="43.7432796" lon="12.6244209"><ele>376.0</ele><time>2026-04-06T16:21:26.595Z</time></trkpt><trkpt lat="43.7432018" lon="12.6242978"><ele>375.0</ele><time>2026-04-06T16:21:27.595Z</time></trkpt><trkpt lat="43.7431179" lon="12.6241803"><ele>374.0</ele><time>2026-04-06T16:21:28.595Z</time></trkpt><trkpt lat="43.7430207" lon="12.624099"><ele>374.0</ele><time>2026-04-06T16:21:29.596Z</time></trkpt><trkpt lat="43.7429097" lon="12.6240677"><ele>374.0</ele><time>2026-04-06T16:21:30.596Z</time></trkpt><trkpt lat="43.7427823" lon="12.6241352"><ele>374.0</ele><time>2026-04-06T16:21:31.596Z</time></trkpt><trkpt lat="43.742644" lon="12.6242694"><ele>374.0</ele><time>2026-04-06T16:21:32.595Z</time></trkpt><trkpt lat="43.7424794" lon="12.6244355"><ele>380.0</ele><time>2026-04-06T16:21:33.595Z</time></trkpt><trkpt lat="43.7423057" lon="12.6245854"><ele>386.0</ele><time>2026-04-06T16:21:34.595Z</time></trkpt><trkpt lat="43.7421212" lon="12.6247146"><ele>392.0</ele><time>2026-04-06T16:21:35.597Z</time></trkpt><trkpt lat="43.7419351" lon="12.6248099"><ele>393.0</ele><time>2026-04-06T16:21:36.597Z</time></trkpt><trkpt lat="43.7417387" lon="12.6248717"><ele>394.0</ele><time>2026-04-06T16:21:37.596Z</time></trkpt><trkpt lat="43.7415215" lon="12.6248875"><ele>395.0</ele><time>2026-04-06T16:21:38.597Z</time></trkpt><trkpt lat="43.7412958" lon="12.6248525"><ele>395.0</ele><time>2026-04-06T16:21:39.596Z</time></trkpt><trkpt lat="43.7410771" lon="12.624772"><ele>395.0</ele><time>2026-04-06T16:21:40.598Z</time></trkpt><trkpt lat="43.7408675" lon="12.6246582"><ele>397.66666666666663</ele><time>2026-04-06T16:21:41.595Z</time></trkpt><trkpt lat="43.7406732" lon="12.6245171"><ele>400.33333333333337</ele><time>2026-04-06T16:21:42.597Z</time></trkpt><trkpt lat="43.7404894" lon="12.6243639"><ele>403.0</ele><time>2026-04-06T16:21:43.596Z</time></trkpt><trkpt lat="43.7403209" lon="12.6242183"><ele>402.0</ele><time>2026-04-06T16:21:44.596Z</time></trkpt><trkpt lat="43.740161" lon="12.6240821"><ele>401.0</ele><time>2026-04-06T16:21:45.596Z</time></trkpt><trkpt lat="43.740014" lon="12.6239593"><ele>400.0</ele><time>2026-04-06T16:21:46.596Z</time></trkpt><trkpt lat="43.7398761" lon="12.6238527"><ele>400.0</ele><time>2026-04-06T16:21:47.596Z</time></trkpt><trkpt lat="43.7397485" lon="12.623762"><ele>400.0</ele><time>2026-04-06T16:21:48.597Z</time></trkpt><trkpt lat="43.7396278" lon="12.6236943"><ele>400.0</ele><time>2026-04-06T16:21:49.597Z</time></trkpt><trkpt lat="43.7395087" lon="12.6236591"><ele>400.0</ele><time>2026-04-06T16:21:50.597Z</time></trkpt><trkpt lat="43.7393851" lon="12.623661"><ele>400.75</ele><time>2026-04-06T16:21:51.595Z</time></trkpt><trkpt lat="43.7392694" lon="12.6237112"><ele>401.5</ele><time>2026-04-06T16:21:52.595Z</time></trkpt><trkpt lat="43.7391674" lon="12.6238034"><ele>402.25</ele><time>2026-04-06T16:21:53.596Z</time></trkpt><trkpt lat="43.7390849" lon="12.6239422"><ele>403.0</ele><time>2026-04-06T16:21:54.595Z</time></trkpt><trkpt lat="43.7390307" lon="12.6241129"><ele>403.0</ele><time>2026-04-06T16:21:55.598Z</time></trkpt><trkpt lat="43.7390219" lon="12.624307"><ele>403.0</ele><time>2026-04-06T16:21:56.595Z</time></trkpt><trkpt lat="43.7390602" lon="12.6245081"><ele>403.0</ele><time>2026-04-06T16:21:57.596Z</time></trkpt><trkpt lat="43.7391546" lon="12.624697"><ele>403.33333333333337</ele><time>2026-04-06T16:21:58.596Z</time></trkpt><trkpt lat="43.7392963" lon="12.6248476"><ele>403.66666666666663</ele><time>2026-04-06T16:21:59.595Z</time></trkpt><trkpt lat="43.7394598" lon="12.6249671"><ele>404.0</ele><time>2026-04-06T16:22:00.595Z</time></trkpt><trkpt lat="43.7396224" lon="12.6250854"><ele>404.0</ele><time>2026-04-06T16:22:01.597Z</time></trkpt><trkpt lat="43.7397933" lon="12.6251904"><ele>404.0</ele><time>2026-04-06T16:22:02.596Z</time></trkpt><trkpt lat="43.7399644" lon="12.6252879"><ele>404.0</ele><time>2026-04-06T16:22:03.595Z</time></trkpt><trkpt lat="43.7401296" lon="12.6253703"><ele>403.5</ele><time>2026-04-06T16:22:04.596Z</time></trkpt><trkpt lat="43.7402831" lon="12.6254412"><ele>403.0</ele><time>2026-04-06T16:22:05.596Z</time></trkpt><trkpt lat="43.7404245" lon="12.6255053"><ele>402.5</ele><time>2026-04-06T16:22:06.597Z</time></trkpt><trkpt lat="43.740555" lon="12.6255582"><ele>402.0</ele><time>2026-04-06T16:22:07.596Z</time></trkpt><trkpt lat="43.7406793" lon="12.6256059"><ele>402.0</ele><time>2026-04-06T16:22:08.595Z</time></trkpt><trkpt lat="43.740795" lon="12.6256709"><ele>402.0</ele><time>2026-04-06T16:22:09.596Z</time></trkpt><trkpt lat="43.7408993" lon="12.6257677"><ele>402.0</ele><time>2026-04-06T16:22:10.595Z</time></trkpt><trkpt lat="43.7409917" lon="12.6258908"><ele>402.0</ele><time>2026-04-06T16:22:11.595Z</time></trkpt><trkpt lat="43.7410618" lon="12.6260472"><ele>404.75</ele><time>2026-04-06T16:22:12.595Z</time></trkpt><trkpt lat="43.7411125" lon="12.626227"><ele>407.5</ele><time>2026-04-06T16:22:13.597Z</time></trkpt><trkpt lat="43.741158" lon="12.6264134"><ele>410.25</ele><time>2026-04-06T16:22:14.595Z</time></trkpt><trkpt lat="43.7412115" lon="12.6266067"><ele>413.0</ele><time>2026-04-06T16:22:15.595Z</time></trkpt><trkpt lat="43.7412791" lon="12.6267882"><ele>413.0</ele><time>2026-04-06T16:22:16.596Z</time></trkpt><trkpt lat="43.7413603" lon="12.6269584"><ele>413.0</ele><time>2026-04-06T16:22:17.595Z</time></trkpt><trkpt lat="43.7414562" lon="12.6271137"><ele>413.0</ele><time>2026-04-06T16:22:18.596Z</time></trkpt><trkpt lat="43.7415585" lon="12.6272554"><ele>413.0</ele><time>2026-04-06T16:22:19.596Z</time></trkpt><trkpt lat="43.7416597" lon="12.6273905"><ele>411.5</ele><time>2026-04-06T16:22:20.595Z</time></trkpt><trkpt lat="43.7417524" lon="12.6275265"><ele>410.0</ele><time>2026-04-06T16:22:21.595Z</time></trkpt><trkpt lat="43.7418199" lon="12.6276828"><ele>408.5</ele><time>2026-04-06T16:22:22.596Z</time></trkpt><trkpt lat="43.7418564" lon="12.627866"><ele>407.0</ele><time>2026-04-06T16:22:23.594Z</time></trkpt><trkpt lat="43.7418652" lon="12.6280636"><ele>407.0</ele><time>2026-04-06T16:22:24.595Z</time></trkpt><trkpt lat="43.7418442" lon="12.6282623"><ele>407.0</ele><time>2026-04-06T16:22:25.596Z</time></trkpt><trkpt lat="43.741789" lon="12.6284535"><ele>407.0</ele><time>2026-04-06T16:22:26.595Z</time></trkpt><trkpt lat="43.7417017" lon="12.6286202"><ele>407.0</ele><time>2026-04-06T16:22:27.595Z</time></trkpt><trkpt lat="43.7415845" lon="12.628749"><ele>409.25</ele><time>2026-04-06T16:22:28.594Z</time></trkpt><trkpt lat="43.7414477" lon="12.6288411"><ele>411.5</ele><time>2026-04-06T16:22:29.596Z</time></trkpt><trkpt lat="43.7413066" lon="12.628908"><ele>413.75</ele><time>2026-04-06T16:22:30.595Z</time></trkpt><trkpt lat="43.7411646" lon="12.6289562"><ele>416.0</ele><time>2026-04-06T16:22:31.596Z</time></trkpt><trkpt lat="43.7410257" lon="12.6290073"><ele>416.0</ele><time>2026-04-06T16:22:32.594Z</time></trkpt><trkpt lat="43.7408871" lon="12.6290601"><ele>416.0</ele><time>2026-04-06T16:22:33.594Z</time></trkpt><trkpt lat="43.7407524" lon="12.6291216"><ele>416.0</ele><time>2026-04-06T16:22:34.595Z</time></trkpt><trkpt lat="43.7406253" lon="12.6292062"><ele>416.0</ele><time>2026-04-06T16:22:35.595Z</time></trkpt><trkpt lat="43.7405106" lon="12.6293198"><ele>416.0</ele><time>2026-04-06T16:22:36.595Z</time></trkpt><trkpt lat="43.7404036" lon="12.6294534"><ele>416.0</ele><time>2026-04-06T16:22:37.597Z</time></trkpt><trkpt lat="43.7402983" lon="12.6295927"><ele>416.0</ele><time>2026-04-06T16:22:38.596Z</time></trkpt><trkpt lat="43.7401869" lon="12.6297295"><ele>416.0</ele><time>2026-04-06T16:22:39.594Z</time></trkpt><trkpt lat="43.7400693" lon="12.6298599"><ele>416.25</ele><time>2026-04-06T16:22:40.596Z</time></trkpt><trkpt lat="43.7399398" lon="12.6299672"><ele>416.5</ele><time>2026-04-06T16:22:41.594Z</time></trkpt><trkpt lat="43.7398002" lon="12.6300408"><ele>416.75</ele><time>2026-04-06T16:22:42.595Z</time></trkpt><trkpt lat="43.7396549" lon="12.6300774"><ele>417.0</ele><time>2026-04-06T16:22:43.595Z</time></trkpt><trkpt lat="43.7395071" lon="12.6300754"><ele>417.75</ele><time>2026-04-06T16:22:44.598Z</time></trkpt><trkpt lat="43.739362" lon="12.6300575"><ele>418.5</ele><time>2026-04-06T16:22:45.595Z</time></trkpt><trkpt lat="43.739218" lon="12.6300199"><ele>419.25</ele><time>2026-04-06T16:22:46.597Z</time></trkpt><trkpt lat="43.7390738" lon="12.629959"><ele>420.0</ele><time>2026-04-06T16:22:47.596Z</time></trkpt><trkpt lat="43.7389274" lon="12.6298964"><ele>420.0</ele><time>2026-04-06T16:22:48.6Z</time></trkpt><trkpt lat="43.7387819" lon="12.6298387"><ele>420.0</ele><time>2026-04-06T16:22:49.601Z</time></trkpt><trkpt lat="43.7386389" lon="12.6297888"><ele>420.0</ele><time>2026-04-06T16:22:50.595Z</time></trkpt><trkpt lat="43.7385011" lon="12.6297423"><ele>420.0</ele><time>2026-04-06T16:22:51.595Z</time></trkpt><trkpt lat="43.7383687" lon="12.6296959"><ele>422.5</ele><time>2026-04-06T16:22:52.594Z</time></trkpt><trkpt lat="43.7382401" lon="12.6296491"><ele>425.0</ele><time>2026-04-06T16:22:53.596Z</time></trkpt><trkpt lat="43.7381135" lon="12.629606"><ele>427.5</ele><time>2026-04-06T16:22:54.6Z</time></trkpt><trkpt lat="43.7379894" lon="12.6295741"><ele>430.0</ele><time>2026-04-06T16:22:55.595Z</time></trkpt><trkpt lat="43.7378674" lon="12.6295516"><ele>430.0</ele><time>2026-04-06T16:22:56.595Z</time></trkpt><trkpt lat="43.7377471" lon="12.6295412"><ele>430.0</ele><time>2026-04-06T16:22:57.599Z</time></trkpt><trkpt lat="43.7376309" lon="12.6295433"><ele>430.0</ele><time>2026-04-06T16:22:58.607Z</time></trkpt><trkpt lat="43.7375169" lon="12.6295658"><ele>430.0</ele><time>2026-04-06T16:22:59.595Z</time></trkpt><trkpt lat="43.7374048" lon="12.6296246"><ele>430.25</ele><time>2026-04-06T16:23:00.599Z</time></trkpt><trkpt lat="43.7372921" lon="12.6297061"><ele>430.5</ele><time>2026-04-06T16:23:01.595Z</time></trkpt><trkpt lat="43.7371734" lon="12.6298145"><ele>430.75</ele><time>2026-04-06T16:23:02.594Z</time></trkpt><trkpt lat="43.7370401" lon="12.6299484"><ele>431.0</ele><time>2026-04-06T16:23:03.598Z</time></trkpt><trkpt lat="43.7368993" lon="12.630082"><ele>429.0</ele><time>2026-04-06T16:23:04.595Z</time></trkpt><trkpt lat="43.7367665" lon="12.6302045"><ele>427.0</ele><time>2026-04-06T16:23:05.594Z</time></trkpt><trkpt lat="43.7366375" lon="12.6303213"><ele>425.0</ele><time>2026-04-06T16:23:06.594Z</time></trkpt><trkpt lat="43.736516" lon="12.6304459"><ele>429.0</ele><time>2026-04-06T16:23:07.595Z</time></trkpt><trkpt lat="43.7363959" lon="12.6305786"><ele>433.0</ele><time>2026-04-06T16:23:08.595Z</time></trkpt><trkpt lat="43.7362905" lon="12.6307317"><ele>437.0</ele><time>2026-04-06T16:23:09.595Z</time></trkpt><trkpt lat="43.7362008" lon="12.6308997"><ele>437.0</ele><time>2026-04-06T16:23:10.594Z</time></trkpt><trkpt lat="43.7361149" lon="12.6310723"><ele>437.0</ele><time>2026-04-06T16:23:11.597Z</time></trkpt><trkpt lat="43.7360295" lon="12.631231"><ele>437.0</ele><time>2026-04-06T16:23:12.595Z</time></trkpt><trkpt lat="43.7359393" lon="12.631358"><ele>437.0</ele><time>2026-04-06T16:23:13.597Z</time></trkpt><trkpt lat="43.7358213" lon="12.6314403"><ele>437.25</ele><time>2026-04-06T16:23:14.595Z</time></trkpt><trkpt lat="43.7356755" lon="12.6314735"><ele>437.5</ele><time>2026-04-06T16:23:15.595Z</time></trkpt><trkpt lat="43.7355231" lon="12.631456"><ele>437.75</ele><time>2026-04-06T16:23:16.596Z</time></trkpt><trkpt lat="43.7353776" lon="12.6314258"><ele>438.0</ele><time>2026-04-06T16:23:17.594Z</time></trkpt><trkpt lat="43.7352414" lon="12.6314015"><ele>438.0</ele><time>2026-04-06T16:23:18.594Z</time></trkpt><trkpt lat="43.7351135" lon="12.6313973"><ele>438.0</ele><time>2026-04-06T16:23:19.607Z</time></trkpt><trkpt lat="43.7349933" lon="12.6314276"><ele>438.0</ele><time>2026-04-06T16:23:20.6Z</time></trkpt><trkpt lat="43.7348804" lon="12.6314682"><ele>438.0</ele><time>2026-04-06T16:23:21.595Z</time></trkpt><trkpt lat="43.7347894" lon="12.6315154"><ele>438.0</ele><time>2026-04-06T16:23:22.598Z</time></trkpt><trkpt lat="43.734713" lon="12.6315685"><ele>437.99999999999994</ele><time>2026-04-06T16:23:23.595Z</time></trkpt><trkpt lat="43.7346546" lon="12.6316185"><ele>437.99999999999994</ele><time>2026-04-06T16:23:24.598Z</time></trkpt><trkpt lat="43.7345599" lon="12.6317055"><ele>438.0</ele><time>2026-04-06T16:23:26.594Z</time></trkpt><trkpt lat="43.7344466" lon="12.6317822"><ele>438.0</ele><time>2026-04-06T16:23:28.593Z</time></trkpt><trkpt lat="43.734396" lon="12.6318345"><ele>438.0</ele><time>2026-04-06T16:23:29.595Z</time></trkpt><trkpt lat="43.7343536" lon="12.6319729"><ele>437.99999999999994</ele><time>2026-04-06T16:23:31.596Z</time></trkpt><trkpt lat="43.7344002" lon="12.6320368"><ele>437.99999999999994</ele><time>2026-04-06T16:23:32.594Z</time></trkpt><trkpt lat="43.7344948" lon="12.6320737"><ele>438.0</ele><time>2026-04-06T16:23:33.594Z</time></trkpt><trkpt lat="43.7346304" lon="12.6320954"><ele>438.0</ele><time>2026-04-06T16:23:34.595Z</time></trkpt><trkpt lat="43.7347921" lon="12.6320946"><ele>438.0</ele><time>2026-04-06T16:23:35.593Z</time></trkpt><trkpt lat="43.7349611" lon="12.6320846"><ele>438.0</ele><time>2026-04-06T16:23:36.594Z</time></trkpt><trkpt lat="43.7351243" lon="12.6320812"><ele>438.0</ele><time>2026-04-06T16:23:37.595Z</time></trkpt><trkpt lat="43.7352878" lon="12.6321033"><ele>439.0</ele><time>2026-04-06T16:23:38.594Z</time></trkpt><trkpt lat="43.7354609" lon="12.632163"><ele>440.0</ele><time>2026-04-06T16:23:39.595Z</time></trkpt><trkpt lat="43.7356381" lon="12.632263"><ele>441.0</ele><time>2026-04-06T16:23:40.594Z</time></trkpt><trkpt lat="43.7358028" lon="12.6323605"><ele>441.0</ele><time>2026-04-06T16:23:41.594Z</time></trkpt><trkpt lat="43.7359639" lon="12.6324535"><ele>441.0</ele><time>2026-04-06T16:23:42.594Z</time></trkpt><trkpt lat="43.7361248" lon="12.6325197"><ele>441.0</ele><time>2026-04-06T16:23:43.595Z</time></trkpt><trkpt lat="43.7362936" lon="12.6325631"><ele>441.66666666666663</ele><time>2026-04-06T16:23:44.594Z</time></trkpt><trkpt lat="43.7364541" lon="12.6325816"><ele>442.3333333333333</ele><time>2026-04-06T16:23:45.594Z</time></trkpt><trkpt lat="43.7366168" lon="12.6325865"><ele>443.0</ele><time>2026-04-06T16:23:46.595Z</time></trkpt><trkpt lat="43.7367798" lon="12.6325797"><ele>442.66666666666663</ele><time>2026-04-06T16:23:47.594Z</time></trkpt><trkpt lat="43.7369389" lon="12.6325504"><ele>442.33333333333337</ele><time>2026-04-06T16:23:48.594Z</time></trkpt><trkpt lat="43.7370928" lon="12.6325038"><ele>442.0</ele><time>2026-04-06T16:23:49.595Z</time></trkpt><trkpt lat="43.7372412" lon="12.6324433"><ele>442.0</ele><time>2026-04-06T16:23:50.594Z</time></trkpt><trkpt lat="43.7373821" lon="12.6323703"><ele>442.0</ele><time>2026-04-06T16:23:51.595Z</time></trkpt><trkpt lat="43.7375153" lon="12.6322926"><ele>442.0</ele><time>2026-04-06T16:23:52.595Z</time></trkpt><trkpt lat="43.7376462" lon="12.6322141"><ele>442.0</ele><time>2026-04-06T16:23:53.594Z</time></trkpt><trkpt lat="43.7377753" lon="12.6321347"><ele>440.5</ele><time>2026-04-06T16:23:54.595Z</time></trkpt><trkpt lat="43.7378951" lon="12.6320469"><ele>439.0</ele><time>2026-04-06T16:23:55.594Z</time></trkpt><trkpt lat="43.7380105" lon="12.6319535"><ele>437.5</ele><time>2026-04-06T16:23:56.594Z</time></trkpt><trkpt lat="43.7381236" lon="12.6318477"><ele>436.0</ele><time>2026-04-06T16:23:57.595Z</time></trkpt><trkpt lat="43.7382334" lon="12.6317397"><ele>438.75</ele><time>2026-04-06T16:23:58.593Z</time></trkpt><trkpt lat="43.7383481" lon="12.631629"><ele>441.5</ele><time>2026-04-06T16:23:59.594Z</time></trkpt><trkpt lat="43.7384666" lon="12.6315211"><ele>444.25</ele><time>2026-04-06T16:24:00.594Z</time></trkpt><trkpt lat="43.7385931" lon="12.6314259"><ele>447.0</ele><time>2026-04-06T16:24:01.594Z</time></trkpt><trkpt lat="43.7387351" lon="12.6313569"><ele>447.0</ele><time>2026-04-06T16:24:02.594Z</time></trkpt><trkpt lat="43.7388763" lon="12.6313254"><ele>447.0</ele><time>2026-04-06T16:24:03.595Z</time></trkpt><trkpt lat="43.7390219" lon="12.6313296"><ele>447.0</ele><time>2026-04-06T16:24:04.594Z</time></trkpt><trkpt lat="43.7391669" lon="12.6313594"><ele>447.0</ele><time>2026-04-06T16:24:05.594Z</time></trkpt><trkpt lat="43.7393125" lon="12.6314086"><ele>446.25</ele><time>2026-04-06T16:24:06.593Z</time></trkpt><trkpt lat="43.7394603" lon="12.6314713"><ele>445.5</ele><time>2026-04-06T16:24:07.596Z</time></trkpt><trkpt lat="43.7395983" lon="12.631542"><ele>444.75</ele><time>2026-04-06T16:24:08.593Z</time></trkpt><trkpt lat="43.7397279" lon="12.6316065"><ele>444.0</ele><time>2026-04-06T16:24:09.595Z</time></trkpt><trkpt lat="43.7398596" lon="12.6316603"><ele>444.0</ele><time>2026-04-06T16:24:10.593Z</time></trkpt><trkpt lat="43.7399935" lon="12.6317048"><ele>444.0</ele><time>2026-04-06T16:24:11.593Z</time></trkpt><trkpt lat="43.7401333" lon="12.6317467"><ele>444.0</ele><time>2026-04-06T16:24:12.593Z</time></trkpt><trkpt lat="43.7402758" lon="12.6317877"><ele>444.0</ele><time>2026-04-06T16:24:13.594Z</time></trkpt><trkpt lat="43.7404195" lon="12.6318238"><ele>445.25</ele><time>2026-04-06T16:24:14.593Z</time></trkpt><trkpt lat="43.7405629" lon="12.6318569"><ele>446.5</ele><time>2026-04-06T16:24:15.595Z</time></trkpt><trkpt lat="43.7407086" lon="12.6318882"><ele>447.75</ele><time>2026-04-06T16:24:16.597Z</time></trkpt><trkpt lat="43.7408552" lon="12.6319141"><ele>449.0</ele><time>2026-04-06T16:24:17.595Z</time></trkpt><trkpt lat="43.7409985" lon="12.6319429"><ele>450.25</ele><time>2026-04-06T16:24:18.597Z</time></trkpt><trkpt lat="43.7411406" lon="12.6319728"><ele>451.5</ele><time>2026-04-06T16:24:19.597Z</time></trkpt><trkpt lat="43.7412785" lon="12.6319902"><ele>452.75</ele><time>2026-04-06T16:24:20.596Z</time></trkpt><trkpt lat="43.7414102" lon="12.6320081"><ele>454.0</ele><time>2026-04-06T16:24:21.596Z</time></trkpt><trkpt lat="43.7415371" lon="12.632027"><ele>450.75</ele><time>2026-04-06T16:24:22.608Z</time></trkpt><trkpt lat="43.7416587" lon="12.6320415"><ele>447.5</ele><time>2026-04-06T16:24:23.596Z</time></trkpt><trkpt lat="43.7417783" lon="12.6320556"><ele>444.25</ele><time>2026-04-06T16:24:24.594Z</time></trkpt><trkpt lat="43.7418951" lon="12.6320639"><ele>441.0</ele><time>2026-04-06T16:24:25.594Z</time></trkpt><trkpt lat="43.7420071" lon="12.6320884"><ele>439.75</ele><time>2026-04-06T16:24:26.593Z</time></trkpt><trkpt lat="43.7421175" lon="12.6321388"><ele>438.5</ele><time>2026-04-06T16:24:27.596Z</time></trkpt><trkpt lat="43.7422158" lon="12.632224"><ele>437.25</ele><time>2026-04-06T16:24:28.595Z</time></trkpt><trkpt lat="43.742288" lon="12.6323471"><ele>436.0</ele><time>2026-04-06T16:24:29.597Z</time></trkpt><trkpt lat="43.7423473" lon="12.6324896"><ele>436.0</ele><time>2026-04-06T16:24:30.595Z</time></trkpt><trkpt lat="43.7423995" lon="12.6326423"><ele>436.0</ele><time>2026-04-06T16:24:31.6Z</time></trkpt><trkpt lat="43.7424457" lon="12.6328005"><ele>436.0</ele><time>2026-04-06T16:24:32.595Z</time></trkpt><trkpt lat="43.7424907" lon="12.6329634"><ele>436.0</ele><time>2026-04-06T16:24:33.596Z</time></trkpt><trkpt lat="43.7425323" lon="12.6331293"><ele>436.5</ele><time>2026-04-06T16:24:34.597Z</time></trkpt><trkpt lat="43.7425717" lon="12.6332978"><ele>437.0</ele><time>2026-04-06T16:24:35.597Z</time></trkpt><trkpt lat="43.7426143" lon="12.6334608"><ele>437.5</ele><time>2026-04-06T16:24:36.595Z</time></trkpt><trkpt lat="43.7426588" lon="12.6336129"><ele>438.0</ele><time>2026-04-06T16:24:37.596Z</time></trkpt><trkpt lat="43.7427067" lon="12.6337538"><ele>438.4</ele><time>2026-04-06T16:24:38.595Z</time></trkpt><trkpt lat="43.7427684" lon="12.6338762"><ele>438.79999999999995</ele><time>2026-04-06T16:24:39.596Z</time></trkpt><trkpt lat="43.7428378" lon="12.6339876"><ele>439.2</ele><time>2026-04-06T16:24:40.595Z</time></trkpt><trkpt lat="43.7429098" lon="12.6340945"><ele>439.6</ele><time>2026-04-06T16:24:41.597Z</time></trkpt><trkpt lat="43.7429882" lon="12.6341955"><ele>440.0</ele><time>2026-04-06T16:24:42.594Z</time></trkpt><trkpt lat="43.743074" lon="12.634297"><ele>440.0</ele><time>2026-04-06T16:24:43.596Z</time></trkpt><trkpt lat="43.7431643" lon="12.6344042"><ele>440.0</ele><time>2026-04-06T16:24:44.595Z</time></trkpt><trkpt lat="43.7432563" lon="12.6345114"><ele>440.0</ele><time>2026-04-06T16:24:45.596Z</time></trkpt><trkpt lat="43.743346" lon="12.6346192"><ele>440.0</ele><time>2026-04-06T16:24:46.597Z</time></trkpt><trkpt lat="43.7434338" lon="12.6347247"><ele>438.25</ele><time>2026-04-06T16:24:47.597Z</time></trkpt><trkpt lat="43.7435237" lon="12.6348316"><ele>436.5</ele><time>2026-04-06T16:24:48.595Z</time></trkpt><trkpt lat="43.7436153" lon="12.6349396"><ele>434.75</ele><time>2026-04-06T16:24:49.596Z</time></trkpt><trkpt lat="43.7437092" lon="12.6350482"><ele>433.0</ele><time>2026-04-06T16:24:50.595Z</time></trkpt><trkpt lat="43.7438019" lon="12.635162"><ele>433.0</ele><time>2026-04-06T16:24:51.595Z</time></trkpt><trkpt lat="43.7439014" lon="12.6352813"><ele>433.0</ele><time>2026-04-06T16:24:52.596Z</time></trkpt><trkpt lat="43.7440114" lon="12.6354071"><ele>433.0</ele><time>2026-04-06T16:24:53.596Z</time></trkpt><trkpt lat="43.7441261" lon="12.635537"><ele>433.0</ele><time>2026-04-06T16:24:54.596Z</time></trkpt><trkpt lat="43.7442436" lon="12.6356738"><ele>430.75</ele><time>2026-04-06T16:24:55.597Z</time></trkpt><trkpt lat="43.7443546" lon="12.6358054"><ele>428.5</ele><time>2026-04-06T16:24:56.595Z</time></trkpt><trkpt lat="43.7444623" lon="12.6359333"><ele>426.25</ele><time>2026-04-06T16:24:57.594Z</time></trkpt><trkpt lat="43.7445674" lon="12.6360637"><ele>424.0</ele><time>2026-04-06T16:24:58.596Z</time></trkpt><trkpt lat="43.7446691" lon="12.6361871"><ele>423.5</ele><time>2026-04-06T16:24:59.595Z</time></trkpt><trkpt lat="43.7447678" lon="12.6363084"><ele>423.0</ele><time>2026-04-06T16:25:00.595Z</time></trkpt><trkpt lat="43.7448633" lon="12.6364259"><ele>422.5</ele><time>2026-04-06T16:25:01.597Z</time></trkpt><trkpt lat="43.7449584" lon="12.6365411"><ele>422.0</ele><time>2026-04-06T16:25:02.596Z</time></trkpt><trkpt lat="43.7450567" lon="12.6366495"><ele>422.0</ele><time>2026-04-06T16:25:03.596Z</time></trkpt><trkpt lat="43.7451622" lon="12.6367516"><ele>422.0</ele><time>2026-04-06T16:25:04.595Z</time></trkpt><trkpt lat="43.745274" lon="12.6368394"><ele>422.0</ele><time>2026-04-06T16:25:05.595Z</time></trkpt><trkpt lat="43.7453925" lon="12.636911"><ele>422.0</ele><time>2026-04-06T16:25:06.594Z</time></trkpt><trkpt lat="43.7455272" lon="12.6369615"><ele>419.75</ele><time>2026-04-06T16:25:07.595Z</time></trkpt><trkpt lat="43.7456676" lon="12.6370079"><ele>417.5</ele><time>2026-04-06T16:25:08.597Z</time></trkpt><trkpt lat="43.7458078" lon="12.6370591"><ele>415.25</ele><time>2026-04-06T16:25:09.596Z</time></trkpt><trkpt lat="43.745939" lon="12.6371146"><ele>413.0</ele><time>2026-04-06T16:25:10.594Z</time></trkpt><trkpt lat="43.7460674" lon="12.6371785"><ele>413.0</ele><time>2026-04-06T16:25:11.596Z</time></trkpt><trkpt lat="43.7461878" lon="12.6372596"><ele>413.0</ele><time>2026-04-06T16:25:12.594Z</time></trkpt><trkpt lat="43.7463056" lon="12.6373486"><ele>413.0</ele><time>2026-04-06T16:25:13.597Z</time></trkpt><trkpt lat="43.7464172" lon="12.6374434"><ele>413.0</ele><time>2026-04-06T16:25:14.594Z</time></trkpt><trkpt lat="43.7465285" lon="12.6375388"><ele>413.0</ele><time>2026-04-06T16:25:15.593Z</time></trkpt><trkpt lat="43.7466428" lon="12.6376318"><ele>413.0</ele><time>2026-04-06T16:25:16.594Z</time></trkpt><trkpt lat="43.7467617" lon="12.6377267"><ele>413.0</ele><time>2026-04-06T16:25:17.594Z</time></trkpt><trkpt lat="43.7468792" lon="12.6378125"><ele>413.0</ele><time>2026-04-06T16:25:18.596Z</time></trkpt><trkpt lat="43.7469996" lon="12.6378925"><ele>411.25</ele><time>2026-04-06T16:25:19.594Z</time></trkpt><trkpt lat="43.7471184" lon="12.6379619"><ele>409.5</ele><time>2026-04-06T16:25:20.594Z</time></trkpt><trkpt lat="43.7472382" lon="12.6380264"><ele>407.75</ele><time>2026-04-06T16:25:21.594Z</time></trkpt><trkpt lat="43.7473636" lon="12.6380816"><ele>406.0</ele><time>2026-04-06T16:25:22.594Z</time></trkpt><trkpt lat="43.7474894" lon="12.6381327"><ele>406.0</ele><time>2026-04-06T16:25:23.594Z</time></trkpt><trkpt lat="43.7476209" lon="12.6381609"><ele>406.0</ele><time>2026-04-06T16:25:24.594Z</time></trkpt><trkpt lat="43.7477541" lon="12.638143"><ele>406.0</ele><time>2026-04-06T16:25:25.595Z</time></trkpt><trkpt lat="43.7478893" lon="12.6381037"><ele>406.0</ele><time>2026-04-06T16:25:26.593Z</time></trkpt><trkpt lat="43.7480247" lon="12.6380611"><ele>405.25</ele><time>2026-04-06T16:25:27.593Z</time></trkpt><trkpt lat="43.7481627" lon="12.6380303"><ele>404.5</ele><time>2026-04-06T16:25:28.596Z</time></trkpt><trkpt lat="43.7482985" lon="12.6380277"><ele>403.75</ele><time>2026-04-06T16:25:29.594Z</time></trkpt><trkpt lat="43.748435" lon="12.6380492"><ele>403.0</ele><time>2026-04-06T16:25:30.593Z</time></trkpt><trkpt lat="43.748565" lon="12.6381055"><ele>403.0</ele><time>2026-04-06T16:25:31.593Z</time></trkpt><trkpt lat="43.748687" lon="12.6381913"><ele>403.0</ele><time>2026-04-06T16:25:32.593Z</time></trkpt><trkpt lat="43.7488025" lon="12.6382869"><ele>403.0</ele><time>2026-04-06T16:25:33.593Z</time></trkpt><trkpt lat="43.7489095" lon="12.6383818"><ele>403.0</ele><time>2026-04-06T16:25:34.594Z</time></trkpt><trkpt lat="43.7490209" lon="12.6384551"><ele>403.0</ele><time>2026-04-06T16:25:35.594Z</time></trkpt><trkpt lat="43.7491346" lon="12.6385086"><ele>403.0</ele><time>2026-04-06T16:25:36.594Z</time></trkpt><trkpt lat="43.7492454" lon="12.6385293"><ele>403.0</ele><time>2026-04-06T16:25:37.594Z</time></trkpt><trkpt lat="43.7493592" lon="12.6385102"><ele>403.0</ele><time>2026-04-06T16:25:38.594Z</time></trkpt><trkpt lat="43.7494775" lon="12.6384613"><ele>401.0</ele><time>2026-04-06T16:25:39.592Z</time></trkpt><trkpt lat="43.7495965" lon="12.6384"><ele>399.0</ele><time>2026-04-06T16:25:40.593Z</time></trkpt><trkpt lat="43.7497217" lon="12.6383514"><ele>397.0</ele><time>2026-04-06T16:25:41.596Z</time></trkpt><trkpt lat="43.7498542" lon="12.6383477"><ele>395.0</ele><time>2026-04-06T16:25:42.593Z</time></trkpt><trkpt lat="43.7499922" lon="12.6383909"><ele>395.0</ele><time>2026-04-06T16:25:43.594Z</time></trkpt><trkpt lat="43.7501233" lon="12.6384692"><ele>395.0</ele><time>2026-04-06T16:25:44.592Z</time></trkpt><trkpt lat="43.7502468" lon="12.6385729"><ele>395.0</ele><time>2026-04-06T16:25:45.592Z</time></trkpt><trkpt lat="43.7503656" lon="12.6386813"><ele>395.0</ele><time>2026-04-06T16:25:46.593Z</time></trkpt><trkpt lat="43.7504819" lon="12.6387874"><ele>393.75</ele><time>2026-04-06T16:25:47.592Z</time></trkpt><trkpt lat="43.7505932" lon="12.6388874"><ele>392.5</ele><time>2026-04-06T16:25:48.593Z</time></trkpt><trkpt lat="43.7506988" lon="12.6389798"><ele>391.25</ele><time>2026-04-06T16:25:49.594Z</time></trkpt><trkpt lat="43.7508014" lon="12.6390658"><ele>390.0</ele><time>2026-04-06T16:25:50.593Z</time></trkpt><trkpt lat="43.7509024" lon="12.6391443"><ele>390.0</ele><time>2026-04-06T16:25:51.592Z</time></trkpt><trkpt lat="43.7510022" lon="12.63922"><ele>390.0</ele><time>2026-04-06T16:25:52.592Z</time></trkpt><trkpt lat="43.7511009" lon="12.6392831"><ele>390.0</ele><time>2026-04-06T16:25:53.594Z</time></trkpt><trkpt lat="43.7512091" lon="12.6393424"><ele>390.0</ele><time>2026-04-06T16:25:54.594Z</time></trkpt><trkpt lat="43.7513211" lon="12.6393921"><ele>389.75</ele><time>2026-04-06T16:25:55.594Z</time></trkpt><trkpt lat="43.7514429" lon="12.6394289"><ele>389.5</ele><time>2026-04-06T16:25:56.594Z</time></trkpt><trkpt lat="43.7515747" lon="12.6394681"><ele>389.25</ele><time>2026-04-06T16:25:57.593Z</time></trkpt><trkpt lat="43.751704" lon="12.6394999"><ele>389.0</ele><time>2026-04-06T16:25:58.593Z</time></trkpt><trkpt lat="43.7518309" lon="12.6395334"><ele>389.0</ele><time>2026-04-06T16:25:59.594Z</time></trkpt><trkpt lat="43.7519573" lon="12.6395606"><ele>389.0</ele><time>2026-04-06T16:26:00.594Z</time></trkpt><trkpt lat="43.7520854" lon="12.6395892"><ele>389.0</ele><time>2026-04-06T16:26:01.594Z</time></trkpt><trkpt lat="43.7522154" lon="12.6396184"><ele>389.0</ele><time>2026-04-06T16:26:02.593Z</time></trkpt><trkpt lat="43.752338" lon="12.639646"><ele>389.0</ele><time>2026-04-06T16:26:03.592Z</time></trkpt><trkpt lat="43.752453" lon="12.6396767"><ele>389.0</ele><time>2026-04-06T16:26:04.593Z</time></trkpt><trkpt lat="43.7525617" lon="12.6397118"><ele>389.0</ele><time>2026-04-06T16:26:05.596Z</time></trkpt><trkpt lat="43.7526634" lon="12.6397408"><ele>389.0</ele><time>2026-04-06T16:26:06.595Z</time></trkpt><trkpt lat="43.7527614" lon="12.6397722"><ele>389.0</ele><time>2026-04-06T16:26:07.593Z</time></trkpt><trkpt lat="43.7528594" lon="12.6398189"><ele>390.2</ele><time>2026-04-06T16:26:08.593Z</time></trkpt><trkpt lat="43.7529582" lon="12.6398832"><ele>391.4</ele><time>2026-04-06T16:26:09.592Z</time></trkpt><trkpt lat="43.7530546" lon="12.6399547"><ele>392.6</ele><time>2026-04-06T16:26:10.593Z</time></trkpt><trkpt lat="43.75315" lon="12.6400352"><ele>393.8</ele><time>2026-04-06T16:26:11.594Z</time></trkpt><trkpt lat="43.7532442" lon="12.6401272"><ele>395.0</ele><time>2026-04-06T16:26:12.593Z</time></trkpt><trkpt lat="43.7533407" lon="12.6402277"><ele>394.8</ele><time>2026-04-06T16:26:13.593Z</time></trkpt><trkpt lat="43.7534352" lon="12.6403239"><ele>394.6</ele><time>2026-04-06T16:26:14.593Z</time></trkpt><trkpt lat="43.7535236" lon="12.6404079"><ele>394.4</ele><time>2026-04-06T16:26:15.593Z</time></trkpt><trkpt lat="43.7536141" lon="12.6404918"><ele>394.2</ele><time>2026-04-06T16:26:16.593Z</time></trkpt><trkpt lat="43.7537043" lon="12.640566"><ele>394.0</ele><time>2026-04-06T16:26:17.593Z</time></trkpt><trkpt lat="43.7537931" lon="12.6406504"><ele>394.0</ele><time>2026-04-06T16:26:18.592Z</time></trkpt><trkpt lat="43.7538842" lon="12.6407317"><ele>394.0</ele><time>2026-04-06T16:26:19.595Z</time></trkpt><trkpt lat="43.7539773" lon="12.6408137"><ele>394.0</ele><time>2026-04-06T16:26:20.595Z</time></trkpt><trkpt lat="43.7540675" lon="12.6409031"><ele>394.0</ele><time>2026-04-06T16:26:21.596Z</time></trkpt><trkpt lat="43.7541655" lon="12.640992"><ele>394.0</ele><time>2026-04-06T16:26:22.595Z</time></trkpt><trkpt lat="43.7542679" lon="12.6410738"><ele>395.25</ele><time>2026-04-06T16:26:23.595Z</time></trkpt><trkpt lat="43.7543739" lon="12.6411509"><ele>396.5</ele><time>2026-04-06T16:26:24.595Z</time></trkpt><trkpt lat="43.7544893" lon="12.6412132"><ele>397.75</ele><time>2026-04-06T16:26:25.594Z</time></trkpt><trkpt lat="43.7546079" lon="12.6412673"><ele>399.0</ele><time>2026-04-06T16:26:26.593Z</time></trkpt><trkpt lat="43.7547284" lon="12.641308"><ele>399.0</ele><time>2026-04-06T16:26:27.595Z</time></trkpt><trkpt lat="43.7548498" lon="12.6413452"><ele>399.0</ele><time>2026-04-06T16:26:28.594Z</time></trkpt><trkpt lat="43.7549716" lon="12.6413797"><ele>399.0</ele><time>2026-04-06T16:26:29.592Z</time></trkpt><trkpt lat="43.7550895" lon="12.6414132"><ele>399.0</ele><time>2026-04-06T16:26:30.592Z</time></trkpt><trkpt lat="43.7552052" lon="12.6414516"><ele>397.5</ele><time>2026-04-06T16:26:31.596Z</time></trkpt><trkpt lat="43.7553225" lon="12.6414953"><ele>396.0</ele><time>2026-04-06T16:26:32.595Z</time></trkpt><trkpt lat="43.755434" lon="12.6415461"><ele>394.5</ele><time>2026-04-06T16:26:33.595Z</time></trkpt><trkpt lat="43.7555447" lon="12.6416187"><ele>393.0</ele><time>2026-04-06T16:26:34.594Z</time></trkpt><trkpt lat="43.7556529" lon="12.6417059"><ele>393.0</ele><time>2026-04-06T16:26:35.592Z</time></trkpt><trkpt lat="43.7557626" lon="12.641803"><ele>393.0</ele><time>2026-04-06T16:26:36.594Z</time></trkpt><trkpt lat="43.7558713" lon="12.641891"><ele>393.0</ele><time>2026-04-06T16:26:37.594Z</time></trkpt><trkpt lat="43.7559784" lon="12.6419716"><ele>393.0</ele><time>2026-04-06T16:26:38.593Z</time></trkpt><trkpt lat="43.7560869" lon="12.6420437"><ele>393.25</ele><time>2026-04-06T16:26:39.594Z</time></trkpt><trkpt lat="43.7561968" lon="12.6421236"><ele>393.5</ele><time>2026-04-06T16:26:40.593Z</time></trkpt><trkpt lat="43.7563096" lon="12.6422035"><ele>393.75</ele><time>2026-04-06T16:26:41.592Z</time></trkpt><trkpt lat="43.756423" lon="12.6422861"><ele>394.0</ele><time>2026-04-06T16:26:42.594Z</time></trkpt><trkpt lat="43.7565389" lon="12.6423615"><ele>394.0</ele><time>2026-04-06T16:26:43.592Z</time></trkpt><trkpt lat="43.7566568" lon="12.6424374"><ele>394.0</ele><time>2026-04-06T16:26:44.594Z</time></trkpt><trkpt lat="43.7567714" lon="12.6425153"><ele>394.0</ele><time>2026-04-06T16:26:45.592Z</time></trkpt><trkpt lat="43.7568834" lon="12.6425912"><ele>394.0</ele><time>2026-04-06T16:26:46.594Z</time></trkpt><trkpt lat="43.7569962" lon="12.6426571"><ele>393.5</ele><time>2026-04-06T16:26:47.593Z</time></trkpt><trkpt lat="43.7571131" lon="12.6427358"><ele>393.0</ele><time>2026-04-06T16:26:48.595Z</time></trkpt><trkpt lat="43.7572277" lon="12.6428146"><ele>392.5</ele><time>2026-04-06T16:26:49.595Z</time></trkpt><trkpt lat="43.7573438" lon="12.6428872"><ele>392.0</ele><time>2026-04-06T16:26:50.593Z</time></trkpt><trkpt lat="43.7574603" lon="12.6429521"><ele>395.0</ele><time>2026-04-06T16:26:51.593Z</time></trkpt><trkpt lat="43.757572" lon="12.6430105"><ele>398.0</ele><time>2026-04-06T16:26:52.593Z</time></trkpt><trkpt lat="43.7576836" lon="12.6430671"><ele>401.0</ele><time>2026-04-06T16:26:53.598Z</time></trkpt><trkpt lat="43.757796" lon="12.6431193"><ele>404.0</ele><time>2026-04-06T16:26:54.594Z</time></trkpt><trkpt lat="43.7579002" lon="12.6431699"><ele>404.0</ele><time>2026-04-06T16:26:55.593Z</time></trkpt><trkpt lat="43.7579995" lon="12.643237"><ele>404.0</ele><time>2026-04-06T16:26:56.594Z</time></trkpt><trkpt lat="43.7580938" lon="12.6433166"><ele>404.0</ele><time>2026-04-06T16:26:57.593Z</time></trkpt><trkpt lat="43.7581868" lon="12.643406"><ele>404.0</ele><time>2026-04-06T16:26:58.594Z</time></trkpt><trkpt lat="43.7582785" lon="12.643513"><ele>404.0</ele><time>2026-04-06T16:26:59.593Z</time></trkpt><trkpt lat="43.7583708" lon="12.6436302"><ele>404.0</ele><time>2026-04-06T16:27:00.593Z</time></trkpt><trkpt lat="43.7584652" lon="12.6437513"><ele>404.0</ele><time>2026-04-06T16:27:01.594Z</time></trkpt><trkpt lat="43.7585642" lon="12.6438737"><ele>404.0</ele><time>2026-04-06T16:27:02.594Z</time></trkpt><trkpt lat="43.758666" lon="12.6439972"><ele>402.25</ele><time>2026-04-06T16:27:03.592Z</time></trkpt><trkpt lat="43.7587672" lon="12.6441183"><ele>400.5</ele><time>2026-04-06T16:27:04.593Z</time></trkpt><trkpt lat="43.7588732" lon="12.6442343"><ele>398.75</ele><time>2026-04-06T16:27:05.594Z</time></trkpt><trkpt lat="43.7589865" lon="12.6443399"><ele>397.0</ele><time>2026-04-06T16:27:06.593Z</time></trkpt><trkpt lat="43.7591078" lon="12.6444336"><ele>394.75</ele><time>2026-04-06T16:27:07.594Z</time></trkpt><trkpt lat="43.7592262" lon="12.6445189"><ele>392.5</ele><time>2026-04-06T16:27:08.593Z</time></trkpt><trkpt lat="43.7593476" lon="12.6445889"><ele>390.25</ele><time>2026-04-06T16:27:09.592Z</time></trkpt><trkpt lat="43.7594695" lon="12.6446509"><ele>388.0</ele><time>2026-04-06T16:27:10.593Z</time></trkpt><trkpt lat="43.7595905" lon="12.6447115"><ele>388.0</ele><time>2026-04-06T16:27:11.593Z</time></trkpt><trkpt lat="43.759706" lon="12.6447817"><ele>388.0</ele><time>2026-04-06T16:27:12.593Z</time></trkpt><trkpt lat="43.7598223" lon="12.6448592"><ele>388.0</ele><time>2026-04-06T16:27:13.592Z</time></trkpt><trkpt lat="43.7599363" lon="12.6449415"><ele>388.0</ele><time>2026-04-06T16:27:14.594Z</time></trkpt><trkpt lat="43.7600481" lon="12.6450241"><ele>388.0</ele><time>2026-04-06T16:27:15.594Z</time></trkpt><trkpt lat="43.7601606" lon="12.6451103"><ele>388.0</ele><time>2026-04-06T16:27:16.592Z</time></trkpt><trkpt lat="43.7602722" lon="12.6452"><ele>388.0</ele><time>2026-04-06T16:27:17.594Z</time></trkpt><trkpt lat="43.7603794" lon="12.6452937"><ele>388.0</ele><time>2026-04-06T16:27:18.592Z</time></trkpt><trkpt lat="43.7604828" lon="12.6453918"><ele>386.75</ele><time>2026-04-06T16:27:19.593Z</time></trkpt><trkpt lat="43.7605813" lon="12.6454962"><ele>385.5</ele><time>2026-04-06T16:27:20.592Z</time></trkpt><trkpt lat="43.7606774" lon="12.6456054"><ele>384.25</ele><time>2026-04-06T16:27:21.593Z</time></trkpt><trkpt lat="43.7607719" lon="12.6457151"><ele>383.0</ele><time>2026-04-06T16:27:22.593Z</time></trkpt><trkpt lat="43.7608651" lon="12.6458364"><ele>383.0</ele><time>2026-04-06T16:27:23.594Z</time></trkpt><trkpt lat="43.7609556" lon="12.6459562"><ele>383.0</ele><time>2026-04-06T16:27:24.592Z</time></trkpt><trkpt lat="43.7610343" lon="12.6460875"><ele>383.0</ele><time>2026-04-06T16:27:25.593Z</time></trkpt><trkpt lat="43.7611038" lon="12.6462315"><ele>383.0</ele><time>2026-04-06T16:27:26.592Z</time></trkpt><trkpt lat="43.7611681" lon="12.6463817"><ele>382.25</ele><time>2026-04-06T16:27:27.593Z</time></trkpt><trkpt lat="43.761228" lon="12.646531"><ele>381.5</ele><time>2026-04-06T16:27:28.593Z</time></trkpt><trkpt lat="43.7612836" lon="12.6466831"><ele>380.75</ele><time>2026-04-06T16:27:29.592Z</time></trkpt><trkpt lat="43.7613395" lon="12.6468383"><ele>380.0</ele><time>2026-04-06T16:27:30.594Z</time></trkpt><trkpt lat="43.7613973" lon="12.6469912"><ele>382.5</ele><time>2026-04-06T16:27:31.593Z</time></trkpt><trkpt lat="43.7614564" lon="12.6471372"><ele>385.0</ele><time>2026-04-06T16:27:32.593Z</time></trkpt><trkpt lat="43.7615182" lon="12.6472806"><ele>387.5</ele><time>2026-04-06T16:27:33.593Z</time></trkpt><trkpt lat="43.7615774" lon="12.6474246"><ele>390.0</ele><time>2026-04-06T16:27:34.593Z</time></trkpt><trkpt lat="43.761636" lon="12.647568"><ele>390.0</ele><time>2026-04-06T16:27:35.594Z</time></trkpt><trkpt lat="43.7616919" lon="12.6477127"><ele>390.0</ele><time>2026-04-06T16:27:36.595Z</time></trkpt><trkpt lat="43.7617432" lon="12.647857"><ele>390.0</ele><time>2026-04-06T16:27:37.594Z</time></trkpt><trkpt lat="43.7617827" lon="12.648003"><ele>390.0</ele><time>2026-04-06T16:27:38.592Z</time></trkpt><trkpt lat="43.7617866" lon="12.6481631"><ele>390.0</ele><time>2026-04-06T16:27:39.592Z</time></trkpt><trkpt lat="43.7617679" lon="12.6483298"><ele>390.0</ele><time>2026-04-06T16:27:40.592Z</time></trkpt><trkpt lat="43.7617363" lon="12.6484982"><ele>390.0</ele><time>2026-04-06T16:27:41.592Z</time></trkpt><trkpt lat="43.7616937" lon="12.6486637"><ele>390.0</ele><time>2026-04-06T16:27:42.592Z</time></trkpt><trkpt lat="43.761644" lon="12.6488246"><ele>387.5</ele><time>2026-04-06T16:27:43.593Z</time></trkpt><trkpt lat="43.761586" lon="12.6489794"><ele>385.0</ele><time>2026-04-06T16:27:44.593Z</time></trkpt><trkpt lat="43.7615248" lon="12.6491291"><ele>382.5</ele><time>2026-04-06T16:27:45.593Z</time></trkpt><trkpt lat="43.7614657" lon="12.6492752"><ele>380.0</ele><time>2026-04-06T16:27:46.592Z</time></trkpt><trkpt lat="43.7614087" lon="12.6494184"><ele>376.25</ele><time>2026-04-06T16:27:47.593Z</time></trkpt><trkpt lat="43.7613566" lon="12.6495637"><ele>372.5</ele><time>2026-04-06T16:27:48.592Z</time></trkpt><trkpt lat="43.7613036" lon="12.6497086"><ele>368.75</ele><time>2026-04-06T16:27:49.594Z</time></trkpt><trkpt lat="43.761247" lon="12.6498611"><ele>365.0</ele><time>2026-04-06T16:27:50.593Z</time></trkpt><trkpt lat="43.7611915" lon="12.6500156"><ele>365.0</ele><time>2026-04-06T16:27:51.592Z</time></trkpt><trkpt lat="43.7611373" lon="12.6501678"><ele>365.0</ele><time>2026-04-06T16:27:52.594Z</time></trkpt><trkpt lat="43.7610824" lon="12.6503137"><ele>365.0</ele><time>2026-04-06T16:27:53.594Z</time></trkpt><trkpt lat="43.7610274" lon="12.6504561"><ele>365.0</ele><time>2026-04-06T16:27:54.593Z</time></trkpt><trkpt lat="43.7609831" lon="12.6506042"><ele>367.75</ele><time>2026-04-06T16:27:55.595Z</time></trkpt><trkpt lat="43.7609523" lon="12.6507639"><ele>370.5</ele><time>2026-04-06T16:27:56.596Z</time></trkpt><trkpt lat="43.7609333" lon="12.6509333"><ele>373.25</ele><time>2026-04-06T16:27:57.596Z</time></trkpt><trkpt lat="43.760925" lon="12.6511083"><ele>376.0</ele><time>2026-04-06T16:27:58.594Z</time></trkpt><trkpt lat="43.7609183" lon="12.6512883"><ele>376.5</ele><time>2026-04-06T16:27:59.594Z</time></trkpt><trkpt lat="43.7609167" lon="12.6514717"><ele>377.0</ele><time>2026-04-06T16:28:00.593Z</time></trkpt><trkpt lat="43.7609183" lon="12.6516533"><ele>377.5</ele><time>2026-04-06T16:28:01.593Z</time></trkpt><trkpt lat="43.76091" lon="12.65183"><ele>378.0</ele><time>2026-04-06T16:28:02.592Z</time></trkpt><trkpt lat="43.760905" lon="12.6519967"><ele>377.2</ele><time>2026-04-06T16:28:03.592Z</time></trkpt><trkpt lat="43.7609067" lon="12.65216"><ele>376.4</ele><time>2026-04-06T16:28:04.592Z</time></trkpt><trkpt lat="43.7609167" lon="12.6523133"><ele>375.59999999999997</ele><time>2026-04-06T16:28:05.594Z</time></trkpt><trkpt lat="43.7609383" lon="12.6524617"><ele>374.79999999999995</ele><time>2026-04-06T16:28:06.592Z</time></trkpt><trkpt lat="43.7609533" lon="12.6526083"><ele>374.0</ele><time>2026-04-06T16:28:07.594Z</time></trkpt><trkpt lat="43.7609667" lon="12.6527533"><ele>373.0</ele><time>2026-04-06T16:28:08.593Z</time></trkpt><trkpt lat="43.7609817" lon="12.6528983"><ele>372.0</ele><time>2026-04-06T16:28:09.593Z</time></trkpt><trkpt lat="43.761" lon="12.6530433"><ele>371.0</ele><time>2026-04-06T16:28:10.593Z</time></trkpt><trkpt lat="43.761015" lon="12.6531883"><ele>370.0</ele><time>2026-04-06T16:28:11.592Z</time></trkpt><trkpt lat="43.76101" lon="12.6533333"><ele>369.0</ele><time>2026-04-06T16:28:12.592Z</time></trkpt><trkpt lat="43.7609883" lon="12.6534833"><ele>369.0</ele><time>2026-04-06T16:28:13.593Z</time></trkpt><trkpt lat="43.7609317" lon="12.65362"><ele>369.0</ele><time>2026-04-06T16:28:14.592Z</time></trkpt><trkpt lat="43.7608567" lon="12.6537467"><ele>369.0</ele><time>2026-04-06T16:28:15.592Z</time></trkpt><trkpt lat="43.7607733" lon="12.653865"><ele>369.0</ele><time>2026-04-06T16:28:16.593Z</time></trkpt><trkpt lat="43.7606917" lon="12.6539833"><ele>370.0</ele><time>2026-04-06T16:28:17.596Z</time></trkpt><trkpt lat="43.7606083" lon="12.654095"><ele>371.0</ele><time>2026-04-06T16:28:18.593Z</time></trkpt><trkpt lat="43.7605267" lon="12.6542"><ele>372.0</ele><time>2026-04-06T16:28:19.595Z</time></trkpt><trkpt lat="43.7604483" lon="12.6542983"><ele>373.0</ele><time>2026-04-06T16:28:20.595Z</time></trkpt><trkpt lat="43.7603833" lon="12.654395"><ele>374.0</ele><time>2026-04-06T16:28:21.596Z</time></trkpt><trkpt lat="43.7603183" lon="12.6544883"><ele>374.2</ele><time>2026-04-06T16:28:22.594Z</time></trkpt><trkpt lat="43.76026" lon="12.6545817"><ele>374.4</ele><time>2026-04-06T16:28:23.595Z</time></trkpt><trkpt lat="43.7602133" lon="12.654695"><ele>374.6</ele><time>2026-04-06T16:28:24.596Z</time></trkpt><trkpt lat="43.7601767" lon="12.6548083"><ele>374.8</ele><time>2026-04-06T16:28:25.595Z</time></trkpt><trkpt lat="43.760135" lon="12.6549283"><ele>375.0</ele><time>2026-04-06T16:28:26.594Z</time></trkpt><trkpt lat="43.7600983" lon="12.655045"><ele>373.2</ele><time>2026-04-06T16:28:27.594Z</time></trkpt><trkpt lat="43.7600717" lon="12.6551717"><ele>371.4</ele><time>2026-04-06T16:28:28.592Z</time></trkpt><trkpt lat="43.7600633" lon="12.6553033"><ele>369.6</ele><time>2026-04-06T16:28:29.592Z</time></trkpt><trkpt lat="43.7600767" lon="12.6554333"><ele>367.8</ele><time>2026-04-06T16:28:30.593Z</time></trkpt><trkpt lat="43.760115" lon="12.655565"><ele>366.0</ele><time>2026-04-06T16:28:31.593Z</time></trkpt><trkpt lat="43.7601519" lon="12.6557057"><ele>364.8</ele><time>2026-04-06T16:28:32.592Z</time></trkpt><trkpt lat="43.7601937" lon="12.655844"><ele>363.6</ele><time>2026-04-06T16:28:33.592Z</time></trkpt><trkpt lat="43.7602309" lon="12.6559743"><ele>362.4</ele><time>2026-04-06T16:28:34.593Z</time></trkpt><trkpt lat="43.7602718" lon="12.6561058"><ele>361.2</ele><time>2026-04-06T16:28:35.592Z</time></trkpt><trkpt lat="43.7603154" lon="12.6562303"><ele>360.0</ele><time>2026-04-06T16:28:36.593Z</time></trkpt><trkpt lat="43.7603701" lon="12.656341"><ele>357.4</ele><time>2026-04-06T16:28:37.593Z</time></trkpt><trkpt lat="43.7604329" lon="12.6564313"><ele>354.8</ele><time>2026-04-06T16:28:38.593Z</time></trkpt><trkpt lat="43.7605157" lon="12.6564815"><ele>352.20000000000005</ele><time>2026-04-06T16:28:39.593Z</time></trkpt><trkpt lat="43.7606126" lon="12.6564943"><ele>349.6</ele><time>2026-04-06T16:28:40.593Z</time></trkpt><trkpt lat="43.7607129" lon="12.6564896"><ele>347.0</ele><time>2026-04-06T16:28:41.593Z</time></trkpt><trkpt lat="43.7608128" lon="12.6564822"><ele>347.0</ele><time>2026-04-06T16:28:42.593Z</time></trkpt><trkpt lat="43.7609183" lon="12.6564774"><ele>347.0</ele><time>2026-04-06T16:28:43.593Z</time></trkpt><trkpt lat="43.7610253" lon="12.6564729"><ele>347.0</ele><time>2026-04-06T16:28:44.592Z</time></trkpt><trkpt lat="43.761136" lon="12.6564676"><ele>347.0</ele><time>2026-04-06T16:28:45.593Z</time></trkpt><trkpt lat="43.7612452" lon="12.6564605"><ele>347.0</ele><time>2026-04-06T16:28:46.592Z</time></trkpt><trkpt lat="43.7613554" lon="12.6564637"><ele>345.40000000000003</ele><time>2026-04-06T16:28:47.593Z</time></trkpt><trkpt lat="43.7614648" lon="12.6564689"><ele>343.8</ele><time>2026-04-06T16:28:48.593Z</time></trkpt><trkpt lat="43.7615729" lon="12.6564672"><ele>342.2</ele><time>2026-04-06T16:28:49.595Z</time></trkpt><trkpt lat="43.7616821" lon="12.6564721"><ele>340.6</ele><time>2026-04-06T16:28:50.592Z</time></trkpt><trkpt lat="43.7617904" lon="12.6564772"><ele>339.0</ele><time>2026-04-06T16:28:51.593Z</time></trkpt><trkpt lat="43.7618968" lon="12.6564866"><ele>336.4</ele><time>2026-04-06T16:28:52.592Z</time></trkpt><trkpt lat="43.7620005" lon="12.6564886"><ele>333.79999999999995</ele><time>2026-04-06T16:28:53.593Z</time></trkpt><trkpt lat="43.7621012" lon="12.656488"><ele>331.20000000000005</ele><time>2026-04-06T16:28:54.593Z</time></trkpt><trkpt lat="43.7622015" lon="12.6564859"><ele>328.6</ele><time>2026-04-06T16:28:55.594Z</time></trkpt><trkpt lat="43.762303" lon="12.6564707"><ele>326.0</ele><time>2026-04-06T16:28:56.592Z</time></trkpt><trkpt lat="43.762405" lon="12.6564456"><ele>326.0</ele><time>2026-04-06T16:28:57.593Z</time></trkpt><trkpt lat="43.7625091" lon="12.6564097"><ele>326.0</ele><time>2026-04-06T16:28:58.593Z</time></trkpt><trkpt lat="43.7626103" lon="12.6563677"><ele>326.0</ele><time>2026-04-06T16:28:59.592Z</time></trkpt><trkpt lat="43.7627118" lon="12.6563296"><ele>326.0</ele><time>2026-04-06T16:29:00.591Z</time></trkpt><trkpt lat="43.7628148" lon="12.6562819"><ele>326.0</ele><time>2026-04-06T16:29:01.591Z</time></trkpt><trkpt lat="43.7629116" lon="12.6562286"><ele>325.4</ele><time>2026-04-06T16:29:02.591Z</time></trkpt><trkpt lat="43.7630023" lon="12.6561653"><ele>324.8</ele><time>2026-04-06T16:29:03.591Z</time></trkpt><trkpt lat="43.7630862" lon="12.6560857"><ele>324.2</ele><time>2026-04-06T16:29:04.591Z</time></trkpt><trkpt lat="43.7631712" lon="12.6560017"><ele>323.59999999999997</ele><time>2026-04-06T16:29:05.591Z</time></trkpt><trkpt lat="43.7632542" lon="12.6559139"><ele>323.0</ele><time>2026-04-06T16:29:06.591Z</time></trkpt><trkpt lat="43.7633286" lon="12.6558221"><ele>323.0</ele><time>2026-04-06T16:29:07.592Z</time></trkpt><trkpt lat="43.7634034" lon="12.6557418"><ele>323.0</ele><time>2026-04-06T16:29:08.592Z</time></trkpt><trkpt lat="43.763476" lon="12.6556798"><ele>323.0</ele><time>2026-04-06T16:29:09.592Z</time></trkpt><trkpt lat="43.7635376" lon="12.6556221"><ele>323.0</ele><time>2026-04-06T16:29:10.592Z</time></trkpt><trkpt lat="43.7636401" lon="12.6555447"><ele>323.0</ele><time>2026-04-06T16:29:12.591Z</time></trkpt><trkpt lat="43.7637513" lon="12.6555851"><ele>319.6666666666667</ele><time>2026-04-06T16:29:14.592Z</time></trkpt><trkpt lat="43.7637922" lon="12.6556535"><ele>316.33333333333337</ele><time>2026-04-06T16:29:15.591Z</time></trkpt><trkpt lat="43.7638202" lon="12.6557456"><ele>313.0</ele><time>2026-04-06T16:29:16.592Z</time></trkpt><trkpt lat="43.7638425" lon="12.6558507"><ele>309.6666666666667</ele><time>2026-04-06T16:29:17.591Z</time></trkpt><trkpt lat="43.7638497" lon="12.6559738"><ele>306.3333333333333</ele><time>2026-04-06T16:29:18.591Z</time></trkpt><trkpt lat="43.7638558" lon="12.6560991"><ele>303.0</ele><time>2026-04-06T16:29:19.591Z</time></trkpt><trkpt lat="43.763864" lon="12.6562249"><ele>302.0</ele><time>2026-04-06T16:29:20.591Z</time></trkpt><trkpt lat="43.7638642" lon="12.6563531"><ele>301.0</ele><time>2026-04-06T16:29:21.592Z</time></trkpt><trkpt lat="43.7638653" lon="12.6564751"><ele>300.0</ele><time>2026-04-06T16:29:22.592Z</time></trkpt><trkpt lat="43.7638675" lon="12.6565936"><ele>299.0</ele><time>2026-04-06T16:29:23.592Z</time></trkpt><trkpt lat="43.7638775" lon="12.6567267"><ele>298.0</ele><time>2026-04-06T16:29:24.59Z</time></trkpt><trkpt lat="43.7638831" lon="12.6568523"><ele>296.5</ele><time>2026-04-06T16:29:25.591Z</time></trkpt><trkpt lat="43.7638898" lon="12.6569716"><ele>295.0</ele><time>2026-04-06T16:29:26.592Z</time></trkpt><trkpt lat="43.7638975" lon="12.657089"><ele>293.5</ele><time>2026-04-06T16:29:27.595Z</time></trkpt><trkpt lat="43.7639061" lon="12.6572046"><ele>292.0</ele><time>2026-04-06T16:29:28.59Z</time></trkpt><trkpt lat="43.7639214" lon="12.6573231"><ele>290.5</ele><time>2026-04-06T16:29:29.591Z</time></trkpt><trkpt lat="43.7639441" lon="12.657432"><ele>289.0</ele><time>2026-04-06T16:29:30.591Z</time></trkpt><trkpt lat="43.7639896" lon="12.657525"><ele>289.0</ele><time>2026-04-06T16:29:31.592Z</time></trkpt><trkpt lat="43.7640556" lon="12.6576041"><ele>289.0</ele><time>2026-04-06T16:29:32.592Z</time></trkpt><trkpt lat="43.7641324" lon="12.6576635"><ele>289.0</ele><time>2026-04-06T16:29:33.59Z</time></trkpt><trkpt lat="43.7642191" lon="12.6576991"><ele>289.0</ele><time>2026-04-06T16:29:34.592Z</time></trkpt><trkpt lat="43.7643134" lon="12.6577122"><ele>289.0</ele><time>2026-04-06T16:29:35.592Z</time></trkpt><trkpt lat="43.7644135" lon="12.6577229"><ele>286.4</ele><time>2026-04-06T16:29:36.591Z</time></trkpt><trkpt lat="43.7645145" lon="12.6577356"><ele>283.79999999999995</ele><time>2026-04-06T16:29:37.592Z</time></trkpt><trkpt lat="43.7646105" lon="12.6577397"><ele>281.20000000000005</ele><time>2026-04-06T16:29:38.592Z</time></trkpt><trkpt lat="43.7647077" lon="12.6577478"><ele>278.6</ele><time>2026-04-06T16:29:39.591Z</time></trkpt><trkpt lat="43.7648101" lon="12.6577651"><ele>276.0</ele><time>2026-04-06T16:29:40.592Z</time></trkpt><trkpt lat="43.7649132" lon="12.6577822"><ele>275.40000000000003</ele><time>2026-04-06T16:29:41.591Z</time></trkpt><trkpt lat="43.7650142" lon="12.6578066"><ele>274.8</ele><time>2026-04-06T16:29:42.591Z</time></trkpt><trkpt lat="43.7651131" lon="12.6578491"><ele>274.20000000000005</ele><time>2026-04-06T16:29:43.592Z</time></trkpt><trkpt lat="43.7652075" lon="12.6578997"><ele>273.6</ele><time>2026-04-06T16:29:44.591Z</time></trkpt><trkpt lat="43.765291" lon="12.657958"><ele>273.0</ele><time>2026-04-06T16:29:45.59Z</time></trkpt><trkpt lat="43.765369" lon="12.6580258"><ele>272.4</ele><time>2026-04-06T16:29:46.591Z</time></trkpt><trkpt lat="43.7654387" lon="12.6580934"><ele>271.8</ele><time>2026-04-06T16:29:47.592Z</time></trkpt><trkpt lat="43.765497" lon="12.6581874"><ele>271.2</ele><time>2026-04-06T16:29:48.592Z</time></trkpt><trkpt lat="43.7655491" lon="12.6582929"><ele>270.6</ele><time>2026-04-06T16:29:49.591Z</time></trkpt><trkpt lat="43.765592" lon="12.6584173"><ele>270.0</ele><time>2026-04-06T16:29:50.593Z</time></trkpt><trkpt lat="43.7656277" lon="12.6585531"><ele>269.8</ele><time>2026-04-06T16:29:51.591Z</time></trkpt><trkpt lat="43.7656659" lon="12.6586878"><ele>269.6</ele><time>2026-04-06T16:29:52.593Z</time></trkpt><trkpt lat="43.7657052" lon="12.6588181"><ele>269.4</ele><time>2026-04-06T16:29:53.592Z</time></trkpt><trkpt lat="43.7657519" lon="12.6589396"><ele>269.2</ele><time>2026-04-06T16:29:54.591Z</time></trkpt><trkpt lat="43.7657945" lon="12.6590596"><ele>269.0</ele><time>2026-04-06T16:29:55.591Z</time></trkpt><trkpt lat="43.7658415" lon="12.6591739"><ele>269.0</ele><time>2026-04-06T16:29:56.592Z</time></trkpt><trkpt lat="43.7658792" lon="12.659295"><ele>269.0</ele><time>2026-04-06T16:29:57.591Z</time></trkpt><trkpt lat="43.7659213" lon="12.6594136"><ele>269.0</ele><time>2026-04-06T16:29:58.591Z</time></trkpt><trkpt lat="43.7659645" lon="12.6595304"><ele>269.0</ele><time>2026-04-06T16:29:59.592Z</time></trkpt><trkpt lat="43.7660068" lon="12.659648"><ele>269.0</ele><time>2026-04-06T16:30:00.592Z</time></trkpt><trkpt lat="43.7660518" lon="12.659762"><ele>267.4</ele><time>2026-04-06T16:30:01.592Z</time></trkpt><trkpt lat="43.7661068" lon="12.6598655"><ele>265.79999999999995</ele><time>2026-04-06T16:30:02.591Z</time></trkpt><trkpt lat="43.7661706" lon="12.6599599"><ele>264.20000000000005</ele><time>2026-04-06T16:30:03.594Z</time></trkpt><trkpt lat="43.766245" lon="12.6600411"><ele>262.6</ele><time>2026-04-06T16:30:04.592Z</time></trkpt><trkpt lat="43.7663321" lon="12.6601155"><ele>261.0</ele><time>2026-04-06T16:30:05.594Z</time></trkpt><trkpt lat="43.7664271" lon="12.6601834"><ele>261.0</ele><time>2026-04-06T16:30:06.592Z</time></trkpt><trkpt lat="43.7665243" lon="12.6602478"><ele>261.0</ele><time>2026-04-06T16:30:07.592Z</time></trkpt><trkpt lat="43.7666204" lon="12.6603114"><ele>261.0</ele><time>2026-04-06T16:30:08.592Z</time></trkpt><trkpt lat="43.7667176" lon="12.6603703"><ele>261.0</ele><time>2026-04-06T16:30:09.598Z</time></trkpt><trkpt lat="43.7668147" lon="12.6604294"><ele>261.0</ele><time>2026-04-06T16:30:10.594Z</time></trkpt><trkpt lat="43.7669146" lon="12.6604881"><ele>258.0</ele><time>2026-04-06T16:30:11.593Z</time></trkpt><trkpt lat="43.7670202" lon="12.6605534"><ele>255.0</ele><time>2026-04-06T16:30:12.593Z</time></trkpt><trkpt lat="43.7671272" lon="12.6606219"><ele>252.0</ele><time>2026-04-06T16:30:13.594Z</time></trkpt><trkpt lat="43.7672356" lon="12.6606936"><ele>249.0</ele><time>2026-04-06T16:30:14.593Z</time></trkpt><trkpt lat="43.7673416" lon="12.6607702"><ele>249.0</ele><time>2026-04-06T16:30:15.596Z</time></trkpt><trkpt lat="43.7674427" lon="12.6608512"><ele>249.0</ele><time>2026-04-06T16:30:16.591Z</time></trkpt><trkpt lat="43.7675426" lon="12.660939"><ele>249.0</ele><time>2026-04-06T16:30:17.593Z</time></trkpt><trkpt lat="43.7676357" lon="12.6610392"><ele>249.0</ele><time>2026-04-06T16:30:18.59Z</time></trkpt><trkpt lat="43.76773" lon="12.6611304"><ele>249.0</ele><time>2026-04-06T16:30:19.593Z</time></trkpt><trkpt lat="43.7678338" lon="12.6612066"><ele>249.0</ele><time>2026-04-06T16:30:20.592Z</time></trkpt><trkpt lat="43.7679447" lon="12.6612678"><ele>249.0</ele><time>2026-04-06T16:30:21.591Z</time></trkpt><trkpt lat="43.7680642" lon="12.6613022"><ele>249.0</ele><time>2026-04-06T16:30:22.591Z</time></trkpt><trkpt lat="43.76818" lon="12.6613373"><ele>249.0</ele><time>2026-04-06T16:30:23.591Z</time></trkpt><trkpt lat="43.7683009" lon="12.6613538"><ele>249.0</ele><time>2026-04-06T16:30:24.592Z</time></trkpt><trkpt lat="43.7684262" lon="12.661363"><ele>249.0</ele><time>2026-04-06T16:30:25.592Z</time></trkpt><trkpt lat="43.768547" lon="12.6613861"><ele>249.0</ele><time>2026-04-06T16:30:26.594Z</time></trkpt><trkpt lat="43.7686688" lon="12.6614318"><ele>250.5</ele><time>2026-04-06T16:30:27.592Z</time></trkpt><trkpt lat="43.7687908" lon="12.6614845"><ele>252.0</ele><time>2026-04-06T16:30:28.593Z</time></trkpt><trkpt lat="43.7689125" lon="12.6615382"><ele>253.5</ele><time>2026-04-06T16:30:29.592Z</time></trkpt><trkpt lat="43.7690319" lon="12.6616007"><ele>255.0</ele><time>2026-04-06T16:30:30.594Z</time></trkpt><trkpt lat="43.7691513" lon="12.6616653"><ele>255.0</ele><time>2026-04-06T16:30:31.594Z</time></trkpt><trkpt lat="43.7692681" lon="12.6617328"><ele>255.0</ele><time>2026-04-06T16:30:32.593Z</time></trkpt><trkpt lat="43.7693794" lon="12.6618105"><ele>255.0</ele><time>2026-04-06T16:30:33.593Z</time></trkpt><trkpt lat="43.7694876" lon="12.661906"><ele>255.0</ele><time>2026-04-06T16:30:34.592Z</time></trkpt><trkpt lat="43.7695929" lon="12.6620079"><ele>255.25</ele><time>2026-04-06T16:30:35.593Z</time></trkpt><trkpt lat="43.7696977" lon="12.6621143"><ele>255.5</ele><time>2026-04-06T16:30:36.592Z</time></trkpt><trkpt lat="43.7698097" lon="12.6622358"><ele>255.75</ele><time>2026-04-06T16:30:37.594Z</time></trkpt><trkpt lat="43.7699368" lon="12.6623727"><ele>256.0</ele><time>2026-04-06T16:30:38.597Z</time></trkpt><trkpt lat="43.7700655" lon="12.662516"><ele>256.0</ele><time>2026-04-06T16:30:39.595Z</time></trkpt><trkpt lat="43.7701867" lon="12.662651"><ele>256.0</ele><time>2026-04-06T16:30:40.591Z</time></trkpt><trkpt lat="43.7702965" lon="12.6627759"><ele>256.0</ele><time>2026-04-06T16:30:41.592Z</time></trkpt><trkpt lat="43.7704005" lon="12.6628924"><ele>256.0</ele><time>2026-04-06T16:30:42.591Z</time></trkpt><trkpt lat="43.7705061" lon="12.6630048"><ele>255.25</ele><time>2026-04-06T16:30:43.593Z</time></trkpt><trkpt lat="43.7706145" lon="12.6631096"><ele>254.5</ele><time>2026-04-06T16:30:44.593Z</time></trkpt><trkpt lat="43.7707211" lon="12.663216"><ele>253.75</ele><time>2026-04-06T16:30:45.591Z</time></trkpt><trkpt lat="43.7708264" lon="12.6633307"><ele>253.0</ele><time>2026-04-06T16:30:46.591Z</time></trkpt><trkpt lat="43.7709266" lon="12.6634557"><ele>254.0</ele><time>2026-04-06T16:30:47.592Z</time></trkpt><trkpt lat="43.7710268" lon="12.6635732"><ele>255.0</ele><time>2026-04-06T16:30:48.59Z</time></trkpt><trkpt lat="43.7711238" lon="12.6636754"><ele>256.0</ele><time>2026-04-06T16:30:49.591Z</time></trkpt><trkpt lat="43.7712157" lon="12.6637771"><ele>257.0</ele><time>2026-04-06T16:30:50.592Z</time></trkpt><trkpt lat="43.7713192" lon="12.6638736"><ele>257.0</ele><time>2026-04-06T16:30:51.591Z</time></trkpt><trkpt lat="43.7714308" lon="12.6639526"><ele>257.0</ele><time>2026-04-06T16:30:52.591Z</time></trkpt><trkpt lat="43.771551" lon="12.6640037"><ele>257.0</ele><time>2026-04-06T16:30:53.592Z</time></trkpt><trkpt lat="43.7716821" lon="12.6640245"><ele>257.0</ele><time>2026-04-06T16:30:54.592Z</time></trkpt><trkpt lat="43.7718185" lon="12.6640056"><ele>255.0</ele><time>2026-04-06T16:30:55.592Z</time></trkpt><trkpt lat="43.7719629" lon="12.6639532"><ele>253.0</ele><time>2026-04-06T16:30:56.593Z</time></trkpt><trkpt lat="43.7722677" lon="12.6638395"><ele>253.0</ele><time>2026-04-06T16:30:58.592Z</time></trkpt><trkpt lat="43.7724281" lon="12.6637975"><ele>253.0</ele><time>2026-04-06T16:30:59.593Z</time></trkpt><trkpt lat="43.7725882" lon="12.6637483"><ele>253.0</ele><time>2026-04-06T16:31:00.599Z</time></trkpt><trkpt lat="43.7727456" lon="12.6636962"><ele>253.0</ele><time>2026-04-06T16:31:01.593Z</time></trkpt><trkpt lat="43.772901" lon="12.6636376"><ele>253.0</ele><time>2026-04-06T16:31:02.591Z</time></trkpt><trkpt lat="43.7730494" lon="12.6635806"><ele>253.0</ele><time>2026-04-06T16:31:03.591Z</time></trkpt><trkpt lat="43.7731948" lon="12.6635291"><ele>252.66666666666666</ele><time>2026-04-06T16:31:04.592Z</time></trkpt><trkpt lat="43.7733411" lon="12.6634784"><ele>252.33333333333331</ele><time>2026-04-06T16:31:05.592Z</time></trkpt><trkpt lat="43.7734903" lon="12.6634371"><ele>252.0</ele><time>2026-04-06T16:31:06.591Z</time></trkpt><trkpt lat="43.7736424" lon="12.6634128"><ele>253.0</ele><time>2026-04-06T16:31:07.591Z</time></trkpt><trkpt lat="43.7737957" lon="12.6634032"><ele>254.0</ele><time>2026-04-06T16:31:08.592Z</time></trkpt><trkpt lat="43.7739505" lon="12.663418"><ele>255.0</ele><time>2026-04-06T16:31:09.593Z</time></trkpt><trkpt lat="43.7741068" lon="12.6634364"><ele>255.0</ele><time>2026-04-06T16:31:10.593Z</time></trkpt><trkpt lat="43.7742627" lon="12.6634497"><ele>255.0</ele><time>2026-04-06T16:31:11.591Z</time></trkpt><trkpt lat="43.7744223" lon="12.6634615"><ele>255.0</ele><time>2026-04-06T16:31:12.59Z</time></trkpt><trkpt lat="43.7745856" lon="12.6634725"><ele>253.66666666666669</ele><time>2026-04-06T16:31:13.591Z</time></trkpt><trkpt lat="43.7747486" lon="12.6634803"><ele>252.33333333333334</ele><time>2026-04-06T16:31:14.59Z</time></trkpt><trkpt lat="43.7749026" lon="12.6634925"><ele>251.0</ele><time>2026-04-06T16:31:15.592Z</time></trkpt><trkpt lat="43.7750543" lon="12.6635104"><ele>249.25</ele><time>2026-04-06T16:31:16.593Z</time></trkpt><trkpt lat="43.7751992" lon="12.663527"><ele>247.5</ele><time>2026-04-06T16:31:17.591Z</time></trkpt><trkpt lat="43.7753409" lon="12.6635383"><ele>245.75</ele><time>2026-04-06T16:31:18.592Z</time></trkpt><trkpt lat="43.7754801" lon="12.6635521"><ele>244.0</ele><time>2026-04-06T16:31:19.592Z</time></trkpt><trkpt lat="43.7756132" lon="12.6635624"><ele>244.0</ele><time>2026-04-06T16:31:20.592Z</time></trkpt><trkpt lat="43.775747" lon="12.6635794"><ele>244.0</ele><time>2026-04-06T16:31:21.592Z</time></trkpt><trkpt lat="43.7758783" lon="12.663596"><ele>244.0</ele><time>2026-04-06T16:31:22.59Z</time></trkpt><trkpt lat="43.7760083" lon="12.663616"><ele>244.0</ele><time>2026-04-06T16:31:23.592Z</time></trkpt><trkpt lat="43.7761336" lon="12.6636496"><ele>241.25</ele><time>2026-04-06T16:31:24.591Z</time></trkpt><trkpt lat="43.7762603" lon="12.6636892"><ele>238.5</ele><time>2026-04-06T16:31:25.592Z</time></trkpt><trkpt lat="43.7763868" lon="12.663734"><ele>235.75</ele><time>2026-04-06T16:31:26.592Z</time></trkpt><trkpt lat="43.7765136" lon="12.6637818"><ele>233.0</ele><time>2026-04-06T16:31:27.598Z</time></trkpt><trkpt lat="43.7766331" lon="12.6638202"><ele>233.0</ele><time>2026-04-06T16:31:28.592Z</time></trkpt><trkpt lat="43.7767495" lon="12.6638543"><ele>233.0</ele><time>2026-04-06T16:31:29.592Z</time></trkpt><trkpt lat="43.7768634" lon="12.6638931"><ele>233.0</ele><time>2026-04-06T16:31:30.591Z</time></trkpt><trkpt lat="43.7769811" lon="12.6639425"><ele>233.0</ele><time>2026-04-06T16:31:31.592Z</time></trkpt><trkpt lat="43.7771032" lon="12.6639929"><ele>232.25</ele><time>2026-04-06T16:31:32.592Z</time></trkpt><trkpt lat="43.7772264" lon="12.6640341"><ele>231.5</ele><time>2026-04-06T16:31:33.591Z</time></trkpt><trkpt lat="43.7773512" lon="12.6640719"><ele>230.75</ele><time>2026-04-06T16:31:34.59Z</time></trkpt><trkpt lat="43.7774765" lon="12.6641171"><ele>230.0</ele><time>2026-04-06T16:31:35.592Z</time></trkpt><trkpt lat="43.7776041" lon="12.6641608"><ele>231.0</ele><time>2026-04-06T16:31:36.592Z</time></trkpt><trkpt lat="43.7777317" lon="12.6642054"><ele>232.0</ele><time>2026-04-06T16:31:37.591Z</time></trkpt><trkpt lat="43.7778558" lon="12.6642505"><ele>233.0</ele><time>2026-04-06T16:31:38.591Z</time></trkpt><trkpt lat="43.7779753" lon="12.6642951"><ele>234.0</ele><time>2026-04-06T16:31:39.591Z</time></trkpt><trkpt lat="43.7780924" lon="12.6643326"><ele>234.0</ele><time>2026-04-06T16:31:40.591Z</time></trkpt><trkpt lat="43.7782058" lon="12.6643809"><ele>234.0</ele><time>2026-04-06T16:31:41.591Z</time></trkpt><trkpt lat="43.7783163" lon="12.6644269"><ele>234.0</ele><time>2026-04-06T16:31:42.591Z</time></trkpt><trkpt lat="43.7784259" lon="12.6644742"><ele>234.0</ele><time>2026-04-06T16:31:43.591Z</time></trkpt><trkpt lat="43.7785344" lon="12.6645317"><ele>235.0</ele><time>2026-04-06T16:31:44.592Z</time></trkpt><trkpt lat="43.7786452" lon="12.6645907"><ele>236.0</ele><time>2026-04-06T16:31:45.591Z</time></trkpt><trkpt lat="43.778758" lon="12.6646466"><ele>237.0</ele><time>2026-04-06T16:31:46.591Z</time></trkpt><trkpt lat="43.7788731" lon="12.6647067"><ele>238.0</ele><time>2026-04-06T16:31:47.592Z</time></trkpt><trkpt lat="43.7789909" lon="12.664763"><ele>238.0</ele><time>2026-04-06T16:31:48.591Z</time></trkpt><trkpt lat="43.7791109" lon="12.6648255"><ele>238.0</ele><time>2026-04-06T16:31:49.591Z</time></trkpt><trkpt lat="43.7792342" lon="12.6648951"><ele>238.0</ele><time>2026-04-06T16:31:50.591Z</time></trkpt><trkpt lat="43.7793577" lon="12.6649693"><ele>238.0</ele><time>2026-04-06T16:31:51.591Z</time></trkpt><trkpt lat="43.7794813" lon="12.6650449"><ele>237.75</ele><time>2026-04-06T16:31:52.59Z</time></trkpt><trkpt lat="43.7795992" lon="12.6651303"><ele>237.5</ele><time>2026-04-06T16:31:53.591Z</time></trkpt><trkpt lat="43.7797073" lon="12.6652376"><ele>237.25</ele><time>2026-04-06T16:31:54.591Z</time></trkpt><trkpt lat="43.7798074" lon="12.665363"><ele>237.0</ele><time>2026-04-06T16:31:55.592Z</time></trkpt><trkpt lat="43.7798939" lon="12.6655018"><ele>238.25</ele><time>2026-04-06T16:31:56.592Z</time></trkpt><trkpt lat="43.7799696" lon="12.665652"><ele>239.5</ele><time>2026-04-06T16:31:57.591Z</time></trkpt><trkpt lat="43.7800411" lon="12.6658054"><ele>240.75</ele><time>2026-04-06T16:31:58.591Z</time></trkpt><trkpt lat="43.7801181" lon="12.6659586"><ele>242.0</ele><time>2026-04-06T16:31:59.59Z</time></trkpt><trkpt lat="43.7801972" lon="12.6661111"><ele>243.0</ele><time>2026-04-06T16:32:00.591Z</time></trkpt><trkpt lat="43.78028" lon="12.6662565"><ele>244.0</ele><time>2026-04-06T16:32:01.591Z</time></trkpt><trkpt lat="43.7803686" lon="12.6663976"><ele>245.0</ele><time>2026-04-06T16:32:02.591Z</time></trkpt><trkpt lat="43.7804575" lon="12.6665401"><ele>246.0</ele><time>2026-04-06T16:32:03.593Z</time></trkpt><trkpt lat="43.7805493" lon="12.6666811"><ele>246.0</ele><time>2026-04-06T16:32:04.591Z</time></trkpt><trkpt lat="43.7806451" lon="12.6668173"><ele>246.0</ele><time>2026-04-06T16:32:05.592Z</time></trkpt><trkpt lat="43.7807382" lon="12.666952"><ele>246.0</ele><time>2026-04-06T16:32:06.592Z</time></trkpt><trkpt lat="43.7808329" lon="12.6670878"><ele>246.0</ele><time>2026-04-06T16:32:07.592Z</time></trkpt><trkpt lat="43.7809295" lon="12.6672201"><ele>246.75</ele><time>2026-04-06T16:32:08.591Z</time></trkpt><trkpt lat="43.7810338" lon="12.6673448"><ele>247.5</ele><time>2026-04-06T16:32:09.594Z</time></trkpt><trkpt lat="43.7811418" lon="12.6674605"><ele>248.25</ele><time>2026-04-06T16:32:10.59Z</time></trkpt><trkpt lat="43.7812547" lon="12.6675689"><ele>249.0</ele><time>2026-04-06T16:32:11.593Z</time></trkpt><trkpt lat="43.7813672" lon="12.6676786"><ele>252.5</ele><time>2026-04-06T16:32:12.592Z</time></trkpt><trkpt lat="43.7814807" lon="12.6677866"><ele>256.0</ele><time>2026-04-06T16:32:13.593Z</time></trkpt><trkpt lat="43.7815929" lon="12.6678904"><ele>259.5</ele><time>2026-04-06T16:32:14.593Z</time></trkpt><trkpt lat="43.7817035" lon="12.6679963"><ele>263.0</ele><time>2026-04-06T16:32:15.593Z</time></trkpt><trkpt lat="43.7818138" lon="12.6680994"><ele>263.5</ele><time>2026-04-06T16:32:16.591Z</time></trkpt><trkpt lat="43.7819269" lon="12.6681869"><ele>264.0</ele><time>2026-04-06T16:32:17.591Z</time></trkpt><trkpt lat="43.7820443" lon="12.6682504"><ele>264.5</ele><time>2026-04-06T16:32:18.59Z</time></trkpt><trkpt lat="43.7821678" lon="12.6682865"><ele>265.0</ele><time>2026-04-06T16:32:19.59Z</time></trkpt><trkpt lat="43.7822917" lon="12.668297"><ele>265.0</ele><time>2026-04-06T16:32:20.59Z</time></trkpt><trkpt lat="43.7824178" lon="12.6683028"><ele>265.0</ele><time>2026-04-06T16:32:21.591Z</time></trkpt><trkpt lat="43.7825441" lon="12.668308"><ele>265.0</ele><time>2026-04-06T16:32:22.592Z</time></trkpt><trkpt lat="43.7826668" lon="12.668317"><ele>265.0</ele><time>2026-04-06T16:32:23.59Z</time></trkpt><trkpt lat="43.7827853" lon="12.668336"><ele>264.25</ele><time>2026-04-06T16:32:24.591Z</time></trkpt><trkpt lat="43.7829023" lon="12.6683795"><ele>263.5</ele><time>2026-04-06T16:32:25.591Z</time></trkpt><trkpt lat="43.783009" lon="12.6684625"><ele>262.75</ele><time>2026-04-06T16:32:26.59Z</time></trkpt><trkpt lat="43.7830993" lon="12.6685834"><ele>262.0</ele><time>2026-04-06T16:32:27.59Z</time></trkpt><trkpt lat="43.7831693" lon="12.6687367"><ele>264.75</ele><time>2026-04-06T16:32:28.591Z</time></trkpt><trkpt lat="43.7832281" lon="12.6689026"><ele>267.5</ele><time>2026-04-06T16:32:29.592Z</time></trkpt><trkpt lat="43.7832966" lon="12.6690626"><ele>270.25</ele><time>2026-04-06T16:32:30.591Z</time></trkpt><trkpt lat="43.7833938" lon="12.6691967"><ele>273.0</ele><time>2026-04-06T16:32:31.591Z</time></trkpt><trkpt lat="43.78351" lon="12.6693018"><ele>274.25</ele><time>2026-04-06T16:32:32.591Z</time></trkpt><trkpt lat="43.7836234" lon="12.6694021"><ele>275.5</ele><time>2026-04-06T16:32:33.59Z</time></trkpt><trkpt lat="43.7837375" lon="12.6694932"><ele>276.75</ele><time>2026-04-06T16:32:34.591Z</time></trkpt><trkpt lat="43.7838502" lon="12.6695824"><ele>278.0</ele><time>2026-04-06T16:32:35.592Z</time></trkpt><trkpt lat="43.7839617" lon="12.669665"><ele>278.0</ele><time>2026-04-06T16:32:36.592Z</time></trkpt><trkpt lat="43.7840733" lon="12.6697415"><ele>278.0</ele><time>2026-04-06T16:32:37.59Z</time></trkpt><trkpt lat="43.7841849" lon="12.6698125"><ele>278.0</ele><time>2026-04-06T16:32:38.59Z</time></trkpt><trkpt lat="43.7842927" lon="12.6698925"><ele>278.0</ele><time>2026-04-06T16:32:39.592Z</time></trkpt><trkpt lat="43.7843993" lon="12.6699776"><ele>276.75</ele><time>2026-04-06T16:32:40.589Z</time></trkpt><trkpt lat="43.7845072" lon="12.670071"><ele>275.5</ele><time>2026-04-06T16:32:41.59Z</time></trkpt><trkpt lat="43.7846164" lon="12.670164"><ele>274.25</ele><time>2026-04-06T16:32:42.589Z</time></trkpt><trkpt lat="43.7847222" lon="12.6702553"><ele>273.0</ele><time>2026-04-06T16:32:43.59Z</time></trkpt><trkpt lat="43.7848286" lon="12.6703403"><ele>273.0</ele><time>2026-04-06T16:32:44.589Z</time></trkpt><trkpt lat="43.7849342" lon="12.6704277"><ele>273.0</ele><time>2026-04-06T16:32:45.59Z</time></trkpt><trkpt lat="43.7850364" lon="12.6705197"><ele>273.0</ele><time>2026-04-06T16:32:46.591Z</time></trkpt><trkpt lat="43.7851378" lon="12.6706088"><ele>273.0</ele><time>2026-04-06T16:32:47.589Z</time></trkpt><trkpt lat="43.7852352" lon="12.6706999"><ele>270.5</ele><time>2026-04-06T16:32:48.59Z</time></trkpt><trkpt lat="43.7853341" lon="12.6707853"><ele>268.0</ele><time>2026-04-06T16:32:49.59Z</time></trkpt><trkpt lat="43.7854394" lon="12.6708495"><ele>265.5</ele><time>2026-04-06T16:32:50.59Z</time></trkpt><trkpt lat="43.7855518" lon="12.6708934"><ele>263.0</ele><time>2026-04-06T16:32:51.59Z</time></trkpt><trkpt lat="43.7856673" lon="12.6709338"><ele>263.0</ele><time>2026-04-06T16:32:52.589Z</time></trkpt><trkpt lat="43.7857844" lon="12.670964"><ele>263.0</ele><time>2026-04-06T16:32:53.59Z</time></trkpt><trkpt lat="43.7859002" lon="12.6709741"><ele>263.0</ele><time>2026-04-06T16:32:54.589Z</time></trkpt><trkpt lat="43.7860136" lon="12.6709735"><ele>263.0</ele><time>2026-04-06T16:32:55.589Z</time></trkpt><trkpt lat="43.7861301" lon="12.6709706"><ele>262.6</ele><time>2026-04-06T16:32:56.589Z</time></trkpt><trkpt lat="43.7862429" lon="12.6709842"><ele>262.20000000000005</ele><time>2026-04-06T16:32:57.59Z</time></trkpt><trkpt lat="43.7863479" lon="12.6710278"><ele>261.8</ele><time>2026-04-06T16:32:58.589Z</time></trkpt><trkpt lat="43.7864457" lon="12.6711026"><ele>261.40000000000003</ele><time>2026-04-06T16:32:59.589Z</time></trkpt><trkpt lat="43.7865367" lon="12.6711869"><ele>261.0</ele><time>2026-04-06T16:33:00.589Z</time></trkpt><trkpt lat="43.7866224" lon="12.6712966"><ele>261.0</ele><time>2026-04-06T16:33:01.591Z</time></trkpt><trkpt lat="43.7867084" lon="12.6714233"><ele>261.0</ele><time>2026-04-06T16:33:02.591Z</time></trkpt><trkpt lat="43.7867998" lon="12.671554"><ele>261.0</ele><time>2026-04-06T16:33:03.591Z</time></trkpt><trkpt lat="43.786891" lon="12.6716889"><ele>261.0</ele><time>2026-04-06T16:33:04.592Z</time></trkpt><trkpt lat="43.7869798" lon="12.6718186"><ele>259.0</ele><time>2026-04-06T16:33:05.591Z</time></trkpt><trkpt lat="43.7870703" lon="12.6719385"><ele>257.0</ele><time>2026-04-06T16:33:06.591Z</time></trkpt><trkpt lat="43.7871587" lon="12.6720514"><ele>255.0</ele><time>2026-04-06T16:33:07.591Z</time></trkpt><trkpt lat="43.7872469" lon="12.6721548"><ele>253.0</ele><time>2026-04-06T16:33:08.592Z</time></trkpt><trkpt lat="43.7873391" lon="12.6722411"><ele>253.0</ele><time>2026-04-06T16:33:09.591Z</time></trkpt><trkpt lat="43.787436" lon="12.6722973"><ele>253.0</ele><time>2026-04-06T16:33:10.589Z</time></trkpt><trkpt lat="43.7875378" lon="12.6723374"><ele>253.0</ele><time>2026-04-06T16:33:11.59Z</time></trkpt><trkpt lat="43.7876574" lon="12.6723832"><ele>253.0</ele><time>2026-04-06T16:33:12.591Z</time></trkpt><trkpt lat="43.7877786" lon="12.6724412"><ele>251.0</ele><time>2026-04-06T16:33:13.592Z</time></trkpt><trkpt lat="43.7879045" lon="12.6724956"><ele>249.0</ele><time>2026-04-06T16:33:14.592Z</time></trkpt><trkpt lat="43.7880374" lon="12.6725603"><ele>247.0</ele><time>2026-04-06T16:33:15.589Z</time></trkpt><trkpt lat="43.7881727" lon="12.6726276"><ele>245.0</ele><time>2026-04-06T16:33:16.589Z</time></trkpt><trkpt lat="43.7883098" lon="12.6726945"><ele>245.0</ele><time>2026-04-06T16:33:17.589Z</time></trkpt><trkpt lat="43.7884473" lon="12.6727619"><ele>245.0</ele><time>2026-04-06T16:33:18.589Z</time></trkpt><trkpt lat="43.7885831" lon="12.6728212"><ele>245.0</ele><time>2026-04-06T16:33:19.591Z</time></trkpt><trkpt lat="43.788715" lon="12.6728806"><ele>245.0</ele><time>2026-04-06T16:33:20.589Z</time></trkpt><trkpt lat="43.7888556" lon="12.6729405"><ele>244.75</ele><time>2026-04-06T16:33:21.591Z</time></trkpt><trkpt lat="43.7889935" lon="12.6729977"><ele>244.5</ele><time>2026-04-06T16:33:22.59Z</time></trkpt><trkpt lat="43.7891255" lon="12.6730509"><ele>244.25</ele><time>2026-04-06T16:33:23.589Z</time></trkpt><trkpt lat="43.7892573" lon="12.6731028"><ele>244.0</ele><time>2026-04-06T16:33:24.589Z</time></trkpt><trkpt lat="43.789389" lon="12.6731584"><ele>244.75</ele><time>2026-04-06T16:33:25.589Z</time></trkpt><trkpt lat="43.7895163" lon="12.6732247"><ele>245.5</ele><time>2026-04-06T16:33:26.59Z</time></trkpt><trkpt lat="43.7896404" lon="12.6732912"><ele>246.25</ele><time>2026-04-06T16:33:27.59Z</time></trkpt><trkpt lat="43.7897621" lon="12.6733708"><ele>247.0</ele><time>2026-04-06T16:33:28.59Z</time></trkpt><trkpt lat="43.7898819" lon="12.6734577"><ele>247.0</ele><time>2026-04-06T16:33:29.59Z</time></trkpt><trkpt lat="43.7899996" lon="12.6735578"><ele>247.0</ele><time>2026-04-06T16:33:30.59Z</time></trkpt><trkpt lat="43.7901115" lon="12.673667"><ele>247.0</ele><time>2026-04-06T16:33:31.59Z</time></trkpt><trkpt lat="43.7902205" lon="12.6737759"><ele>247.0</ele><time>2026-04-06T16:33:32.59Z</time></trkpt><trkpt lat="43.7903257" lon="12.6738828"><ele>248.75</ele><time>2026-04-06T16:33:33.589Z</time></trkpt><trkpt lat="43.7904264" lon="12.6739914"><ele>250.5</ele><time>2026-04-06T16:33:34.59Z</time></trkpt><trkpt lat="43.790526" lon="12.6740988"><ele>252.25</ele><time>2026-04-06T16:33:35.589Z</time></trkpt><trkpt lat="43.790627" lon="12.6742068"><ele>254.0</ele><time>2026-04-06T16:33:36.59Z</time></trkpt><trkpt lat="43.7907287" lon="12.6743091"><ele>254.0</ele><time>2026-04-06T16:33:37.589Z</time></trkpt><trkpt lat="43.7908317" lon="12.6744063"><ele>254.0</ele><time>2026-04-06T16:33:38.589Z</time></trkpt><trkpt lat="43.7909324" lon="12.6745037"><ele>254.0</ele><time>2026-04-06T16:33:39.589Z</time></trkpt><trkpt lat="43.7910326" lon="12.674603"><ele>254.0</ele><time>2026-04-06T16:33:40.59Z</time></trkpt><trkpt lat="43.7911353" lon="12.6747022"><ele>255.25</ele><time>2026-04-06T16:33:41.59Z</time></trkpt><trkpt lat="43.7912411" lon="12.6747936"><ele>256.5</ele><time>2026-04-06T16:33:42.591Z</time></trkpt><trkpt lat="43.791348" lon="12.6748789"><ele>257.75</ele><time>2026-04-06T16:33:43.59Z</time></trkpt><trkpt lat="43.7914587" lon="12.6749662"><ele>259.0</ele><time>2026-04-06T16:33:44.592Z</time></trkpt><trkpt lat="43.7915661" lon="12.6750541"><ele>259.0</ele><time>2026-04-06T16:33:45.589Z</time></trkpt><trkpt lat="43.7916714" lon="12.6751462"><ele>259.0</ele><time>2026-04-06T16:33:46.589Z</time></trkpt><trkpt lat="43.7917773" lon="12.6752405"><ele>259.0</ele><time>2026-04-06T16:33:47.59Z</time></trkpt><trkpt lat="43.7918779" lon="12.675347"><ele>259.0</ele><time>2026-04-06T16:33:48.589Z</time></trkpt><trkpt lat="43.791972" lon="12.6754618"><ele>259.0</ele><time>2026-04-06T16:33:49.591Z</time></trkpt><trkpt lat="43.79206" lon="12.6755876"><ele>259.0</ele><time>2026-04-06T16:33:50.589Z</time></trkpt><trkpt lat="43.7921394" lon="12.6757219"><ele>259.0</ele><time>2026-04-06T16:33:51.589Z</time></trkpt><trkpt lat="43.7922154" lon="12.6758566"><ele>259.0</ele><time>2026-04-06T16:33:52.589Z</time></trkpt><trkpt lat="43.7922862" lon="12.675994"><ele>257.75</ele><time>2026-04-06T16:33:53.59Z</time></trkpt><trkpt lat="43.7923598" lon="12.6761365"><ele>256.5</ele><time>2026-04-06T16:33:54.593Z</time></trkpt><trkpt lat="43.7924342" lon="12.6762747"><ele>255.25</ele><time>2026-04-06T16:33:55.589Z</time></trkpt><trkpt lat="43.7925106" lon="12.6764123"><ele>254.0</ele><time>2026-04-06T16:33:56.589Z</time></trkpt><trkpt lat="43.7925875" lon="12.6765532"><ele>254.0</ele><time>2026-04-06T16:33:57.59Z</time></trkpt><trkpt lat="43.7926696" lon="12.6766907"><ele>254.0</ele><time>2026-04-06T16:33:58.592Z</time></trkpt><trkpt lat="43.7927515" lon="12.6768336"><ele>254.0</ele><time>2026-04-06T16:33:59.589Z</time></trkpt><trkpt lat="43.7928318" lon="12.676978"><ele>254.0</ele><time>2026-04-06T16:34:00.59Z</time></trkpt><trkpt lat="43.7929079" lon="12.6771195"><ele>253.25</ele><time>2026-04-06T16:34:01.59Z</time></trkpt><trkpt lat="43.7929853" lon="12.6772692"><ele>252.5</ele><time>2026-04-06T16:34:02.591Z</time></trkpt><trkpt lat="43.7930606" lon="12.6774208"><ele>251.75</ele><time>2026-04-06T16:34:03.59Z</time></trkpt><trkpt lat="43.793134" lon="12.6775716"><ele>251.0</ele><time>2026-04-06T16:34:04.592Z</time></trkpt><trkpt lat="43.7932038" lon="12.6777266"><ele>251.5</ele><time>2026-04-06T16:34:05.591Z</time></trkpt><trkpt lat="43.7932709" lon="12.6778793"><ele>252.0</ele><time>2026-04-06T16:34:06.591Z</time></trkpt><trkpt lat="43.7933397" lon="12.6780233"><ele>252.5</ele><time>2026-04-06T16:34:07.593Z</time></trkpt><trkpt lat="43.7934053" lon="12.6781699"><ele>253.0</ele><time>2026-04-06T16:34:08.591Z</time></trkpt><trkpt lat="43.7934718" lon="12.6783192"><ele>253.25</ele><time>2026-04-06T16:34:09.592Z</time></trkpt><trkpt lat="43.7935412" lon="12.6784666"><ele>253.5</ele><time>2026-04-06T16:34:10.598Z</time></trkpt><trkpt lat="43.7936097" lon="12.6786104"><ele>253.75</ele><time>2026-04-06T16:34:11.591Z</time></trkpt><trkpt lat="43.7936775" lon="12.6787554"><ele>254.0</ele><time>2026-04-06T16:34:12.592Z</time></trkpt><trkpt lat="43.7937517" lon="12.6788942"><ele>254.0</ele><time>2026-04-06T16:34:13.591Z</time></trkpt><trkpt lat="43.7938351" lon="12.679024"><ele>254.0</ele><time>2026-04-06T16:34:14.591Z</time></trkpt><trkpt lat="43.7939283" lon="12.6791448"><ele>254.0</ele><time>2026-04-06T16:34:15.592Z</time></trkpt><trkpt lat="43.7940326" lon="12.6792478"><ele>254.0</ele><time>2026-04-06T16:34:16.59Z</time></trkpt><trkpt lat="43.7941417" lon="12.679342"><ele>254.75</ele><time>2026-04-06T16:34:17.59Z</time></trkpt><trkpt lat="43.7942526" lon="12.6794358"><ele>255.5</ele><time>2026-04-06T16:34:18.59Z</time></trkpt><trkpt lat="43.7943647" lon="12.6795309"><ele>256.25</ele><time>2026-04-06T16:34:19.589Z</time></trkpt><trkpt lat="43.7944789" lon="12.6796302"><ele>257.0</ele><time>2026-04-06T16:34:20.589Z</time></trkpt><trkpt lat="43.7945925" lon="12.6797279"><ele>258.25</ele><time>2026-04-06T16:34:21.59Z</time></trkpt><trkpt lat="43.7947036" lon="12.6798259"><ele>259.5</ele><time>2026-04-06T16:34:22.589Z</time></trkpt><trkpt lat="43.7948153" lon="12.6799298"><ele>260.75</ele><time>2026-04-06T16:34:23.591Z</time></trkpt><trkpt lat="43.7949268" lon="12.6800325"><ele>262.0</ele><time>2026-04-06T16:34:24.589Z</time></trkpt><trkpt lat="43.7950396" lon="12.6801366"><ele>262.0</ele><time>2026-04-06T16:34:25.593Z</time></trkpt><trkpt lat="43.7951517" lon="12.6802381"><ele>262.0</ele><time>2026-04-06T16:34:26.59Z</time></trkpt><trkpt lat="43.7952623" lon="12.6803395"><ele>262.0</ele><time>2026-04-06T16:34:27.591Z</time></trkpt><trkpt lat="43.7953742" lon="12.6804375"><ele>262.0</ele><time>2026-04-06T16:34:28.589Z</time></trkpt><trkpt lat="43.7954834" lon="12.6805302"><ele>261.5</ele><time>2026-04-06T16:34:29.589Z</time></trkpt><trkpt lat="43.7955955" lon="12.6806261"><ele>261.0</ele><time>2026-04-06T16:34:30.589Z</time></trkpt><trkpt lat="43.7957074" lon="12.6807259"><ele>260.5</ele><time>2026-04-06T16:34:31.589Z</time></trkpt><trkpt lat="43.7958228" lon="12.6808285"><ele>260.0</ele><time>2026-04-06T16:34:32.595Z</time></trkpt><trkpt lat="43.7959424" lon="12.6809204"><ele>258.75</ele><time>2026-04-06T16:34:33.589Z</time></trkpt><trkpt lat="43.7960659" lon="12.6809921"><ele>257.5</ele><time>2026-04-06T16:34:34.592Z</time></trkpt><trkpt lat="43.7961963" lon="12.6810439"><ele>256.25</ele><time>2026-04-06T16:34:35.591Z</time></trkpt><trkpt lat="43.7963277" lon="12.6810829"><ele>255.0</ele><time>2026-04-06T16:34:36.59Z</time></trkpt><trkpt lat="43.796465" lon="12.681112"><ele>260.0</ele><time>2026-04-06T16:34:37.589Z</time></trkpt><trkpt lat="43.7966041" lon="12.681139"><ele>265.0</ele><time>2026-04-06T16:34:38.59Z</time></trkpt><trkpt lat="43.7967465" lon="12.6811592"><ele>270.0</ele><time>2026-04-06T16:34:39.59Z</time></trkpt><trkpt lat="43.7968869" lon="12.6811719"><ele>275.0</ele><time>2026-04-06T16:34:40.589Z</time></trkpt><trkpt lat="43.7970232" lon="12.6811828"><ele>275.25</ele><time>2026-04-06T16:34:41.589Z</time></trkpt><trkpt lat="43.7971538" lon="12.6811932"><ele>275.5</ele><time>2026-04-06T16:34:42.589Z</time></trkpt><trkpt lat="43.7972797" lon="12.6812042"><ele>275.75</ele><time>2026-04-06T16:34:43.591Z</time></trkpt><trkpt lat="43.7974055" lon="12.6812132"><ele>276.0</ele><time>2026-04-06T16:34:44.589Z</time></trkpt><trkpt lat="43.7975316" lon="12.6812165"><ele>276.0</ele><time>2026-04-06T16:34:45.589Z</time></trkpt><trkpt lat="43.7976567" lon="12.6812107"><ele>276.0</ele><time>2026-04-06T16:34:46.59Z</time></trkpt><trkpt lat="43.7977844" lon="12.6812044"><ele>276.0</ele><time>2026-04-06T16:34:47.589Z</time></trkpt><trkpt lat="43.7979113" lon="12.6811971"><ele>276.0</ele><time>2026-04-06T16:34:48.591Z</time></trkpt><trkpt lat="43.7980349" lon="12.6811882"><ele>274.75</ele><time>2026-04-06T16:34:49.59Z</time></trkpt><trkpt lat="43.7981538" lon="12.6811813"><ele>273.5</ele><time>2026-04-06T16:34:50.592Z</time></trkpt><trkpt lat="43.7982702" lon="12.6811708"><ele>272.25</ele><time>2026-04-06T16:34:51.592Z</time></trkpt><trkpt lat="43.7983836" lon="12.681162"><ele>271.0</ele><time>2026-04-06T16:34:52.591Z</time></trkpt><trkpt lat="43.7984952" lon="12.6811493"><ele>268.8</ele><time>2026-04-06T16:34:53.592Z</time></trkpt><trkpt lat="43.7986049" lon="12.6811401"><ele>266.6</ele><time>2026-04-06T16:34:54.588Z</time></trkpt><trkpt lat="43.7987122" lon="12.6811265"><ele>264.4</ele><time>2026-04-06T16:34:55.589Z</time></trkpt><trkpt lat="43.7988201" lon="12.6811079"><ele>262.2</ele><time>2026-04-06T16:34:56.59Z</time></trkpt><trkpt lat="43.7989285" lon="12.6810932"><ele>260.0</ele><time>2026-04-06T16:34:57.592Z</time></trkpt><trkpt lat="43.799037" lon="12.6810819"><ele>258.6</ele><time>2026-04-06T16:34:58.592Z</time></trkpt><trkpt lat="43.7991451" lon="12.6810685"><ele>257.2</ele><time>2026-04-06T16:34:59.591Z</time></trkpt><trkpt lat="43.7992506" lon="12.681045"><ele>255.8</ele><time>2026-04-06T16:35:00.591Z</time></trkpt><trkpt lat="43.7993541" lon="12.6810081"><ele>254.4</ele><time>2026-04-06T16:35:01.591Z</time></trkpt><trkpt lat="43.7994545" lon="12.6809603"><ele>253.0</ele><time>2026-04-06T16:35:02.592Z</time></trkpt><trkpt lat="43.7995531" lon="12.6808985"><ele>251.25</ele><time>2026-04-06T16:35:03.591Z</time></trkpt><trkpt lat="43.7996526" lon="12.6808295"><ele>249.5</ele><time>2026-04-06T16:35:04.59Z</time></trkpt><trkpt lat="43.7997561" lon="12.6807552"><ele>247.75</ele><time>2026-04-06T16:35:05.59Z</time></trkpt><trkpt lat="43.7998597" lon="12.6806791"><ele>246.0</ele><time>2026-04-06T16:35:06.589Z</time></trkpt><trkpt lat="43.799963" lon="12.6806092"><ele>246.0</ele><time>2026-04-06T16:35:07.59Z</time></trkpt><trkpt lat="43.8000624" lon="12.6805408"><ele>246.00000000000003</ele><time>2026-04-06T16:35:08.589Z</time></trkpt><trkpt lat="43.8001577" lon="12.6804751"><ele>246.00000000000003</ele><time>2026-04-06T16:35:09.59Z</time></trkpt><trkpt lat="43.8002511" lon="12.6804044"><ele>246.0</ele><time>2026-04-06T16:35:10.588Z</time></trkpt><trkpt lat="43.8003434" lon="12.6803455"><ele>246.0</ele><time>2026-04-06T16:35:11.588Z</time></trkpt><trkpt lat="43.8004405" lon="12.6803069"><ele>243.4</ele><time>2026-04-06T16:35:12.59Z</time></trkpt><trkpt lat="43.8005412" lon="12.6802955"><ele>240.8</ele><time>2026-04-06T16:35:13.59Z</time></trkpt><trkpt lat="43.8006489" lon="12.6802996"><ele>238.20000000000002</ele><time>2026-04-06T16:35:14.588Z</time></trkpt><trkpt lat="43.8007601" lon="12.6803177"><ele>235.60000000000002</ele><time>2026-04-06T16:35:15.59Z</time></trkpt><trkpt lat="43.8008737" lon="12.6803385"><ele>233.0</ele><time>2026-04-06T16:35:16.593Z</time></trkpt><trkpt lat="43.8009879" lon="12.6803531"><ele>231.25</ele><time>2026-04-06T16:35:17.591Z</time></trkpt><trkpt lat="43.8011021" lon="12.6803707"><ele>229.5</ele><time>2026-04-06T16:35:18.59Z</time></trkpt><trkpt lat="43.8012174" lon="12.6803845"><ele>227.75</ele><time>2026-04-06T16:35:19.596Z</time></trkpt><trkpt lat="43.8013338" lon="12.6804057"><ele>226.0</ele><time>2026-04-06T16:35:20.59Z</time></trkpt><trkpt lat="43.8014483" lon="12.6804375"><ele>226.0</ele><time>2026-04-06T16:35:21.591Z</time></trkpt><trkpt lat="43.8015606" lon="12.6804809"><ele>226.0</ele><time>2026-04-06T16:35:22.591Z</time></trkpt><trkpt lat="43.8016733" lon="12.680535"><ele>226.0</ele><time>2026-04-06T16:35:23.592Z</time></trkpt><trkpt lat="43.8017849" lon="12.6806031"><ele>226.0</ele><time>2026-04-06T16:35:24.592Z</time></trkpt><trkpt lat="43.8018949" lon="12.6806823"><ele>223.75</ele><time>2026-04-06T16:35:25.589Z</time></trkpt><trkpt lat="43.8020049" lon="12.6807641"><ele>221.5</ele><time>2026-04-06T16:35:26.589Z</time></trkpt><trkpt lat="43.802115" lon="12.6808465"><ele>219.25</ele><time>2026-04-06T16:35:27.589Z</time></trkpt><trkpt lat="43.8022266" lon="12.6809282"><ele>217.0</ele><time>2026-04-06T16:35:28.589Z</time></trkpt><trkpt lat="43.8023382" lon="12.6810003"><ele>217.0</ele><time>2026-04-06T16:35:29.588Z</time></trkpt><trkpt lat="43.8024498" lon="12.6810632"><ele>217.0</ele><time>2026-04-06T16:35:30.588Z</time></trkpt><trkpt lat="43.8025605" lon="12.6811177"><ele>217.0</ele><time>2026-04-06T16:35:31.591Z</time></trkpt><trkpt lat="43.8026733" lon="12.6811605"><ele>217.0</ele><time>2026-04-06T16:35:32.592Z</time></trkpt><trkpt lat="43.8027894" lon="12.6812013"><ele>216.25</ele><time>2026-04-06T16:35:33.59Z</time></trkpt><trkpt lat="43.802905" lon="12.6812441"><ele>215.5</ele><time>2026-04-06T16:35:34.59Z</time></trkpt><trkpt lat="43.8030186" lon="12.681297"><ele>214.75</ele><time>2026-04-06T16:35:35.59Z</time></trkpt><trkpt lat="43.803128" lon="12.6813563"><ele>214.0</ele><time>2026-04-06T16:35:36.59Z</time></trkpt><trkpt lat="43.803235" lon="12.6814116"><ele>214.0</ele><time>2026-04-06T16:35:37.595Z</time></trkpt><trkpt lat="43.8033411" lon="12.6814677"><ele>214.0</ele><time>2026-04-06T16:35:38.59Z</time></trkpt><trkpt lat="43.8034511" lon="12.6815259"><ele>214.0</ele><time>2026-04-06T16:35:39.59Z</time></trkpt><trkpt lat="43.8035554" lon="12.6815908"><ele>214.0</ele><time>2026-04-06T16:35:40.599Z</time></trkpt><trkpt lat="43.8036591" lon="12.6816617"><ele>214.25</ele><time>2026-04-06T16:35:41.589Z</time></trkpt><trkpt lat="43.8037563" lon="12.6817406"><ele>214.5</ele><time>2026-04-06T16:35:42.589Z</time></trkpt><trkpt lat="43.8038553" lon="12.6818251"><ele>214.75</ele><time>2026-04-06T16:35:43.59Z</time></trkpt><trkpt lat="43.8039572" lon="12.6819179"><ele>215.0</ele><time>2026-04-06T16:35:44.59Z</time></trkpt><trkpt lat="43.804055" lon="12.6820067"><ele>214.25</ele><time>2026-04-06T16:35:45.59Z</time></trkpt><trkpt lat="43.8041533" lon="12.6820967"><ele>213.5</ele><time>2026-04-06T16:35:46.59Z</time></trkpt><trkpt lat="43.80425" lon="12.682185"><ele>212.75</ele><time>2026-04-06T16:35:47.589Z</time></trkpt><trkpt lat="43.8043433" lon="12.6822767"><ele>212.0</ele><time>2026-04-06T16:35:48.589Z</time></trkpt><trkpt lat="43.8044383" lon="12.682375"><ele>212.0</ele><time>2026-04-06T16:35:49.589Z</time></trkpt><trkpt lat="43.8045283" lon="12.6824767"><ele>212.0</ele><time>2026-04-06T16:35:50.591Z</time></trkpt><trkpt lat="43.8046217" lon="12.6825833"><ele>212.0</ele><time>2026-04-06T16:35:51.592Z</time></trkpt><trkpt lat="43.8047133" lon="12.6826883"><ele>212.0</ele><time>2026-04-06T16:35:52.591Z</time></trkpt><trkpt lat="43.804805" lon="12.6827983"><ele>211.5</ele><time>2026-04-06T16:35:53.589Z</time></trkpt><trkpt lat="43.8049" lon="12.6829083"><ele>211.0</ele><time>2026-04-06T16:35:54.589Z</time></trkpt><trkpt lat="43.8049933" lon="12.6830217"><ele>210.5</ele><time>2026-04-06T16:35:55.59Z</time></trkpt><trkpt lat="43.805085" lon="12.6831383"><ele>210.0</ele><time>2026-04-06T16:35:56.589Z</time></trkpt><trkpt lat="43.8051733" lon="12.6832567"><ele>210.0</ele><time>2026-04-06T16:35:57.589Z</time></trkpt><trkpt lat="43.80526" lon="12.6833767"><ele>210.0</ele><time>2026-04-06T16:35:58.588Z</time></trkpt><trkpt lat="43.8053483" lon="12.6835"><ele>210.0</ele><time>2026-04-06T16:35:59.591Z</time></trkpt><trkpt lat="43.80543" lon="12.6836267"><ele>210.0</ele><time>2026-04-06T16:36:00.589Z</time></trkpt><trkpt lat="43.8055167" lon="12.68375"><ele>210.0</ele><time>2026-04-06T16:36:01.589Z</time></trkpt><trkpt lat="43.805605" lon="12.6838683"><ele>210.0</ele><time>2026-04-06T16:36:02.59Z</time></trkpt><trkpt lat="43.8056883" lon="12.6839867"><ele>210.0</ele><time>2026-04-06T16:36:03.59Z</time></trkpt><trkpt lat="43.8057683" lon="12.6841017"><ele>210.0</ele><time>2026-04-06T16:36:04.589Z</time></trkpt><trkpt lat="43.8058567" lon="12.68421"><ele>210.0</ele><time>2026-04-06T16:36:05.588Z</time></trkpt><trkpt lat="43.8059467" lon="12.6843133"><ele>210.0</ele><time>2026-04-06T16:36:06.589Z</time></trkpt><trkpt lat="43.8060383" lon="12.68441"><ele>210.0</ele><time>2026-04-06T16:36:07.591Z</time></trkpt><trkpt lat="43.806135" lon="12.6845067"><ele>210.0</ele><time>2026-04-06T16:36:08.589Z</time></trkpt><trkpt lat="43.80623" lon="12.6846017"><ele>212.5</ele><time>2026-04-06T16:36:09.59Z</time></trkpt><trkpt lat="43.806325" lon="12.6847017"><ele>215.0</ele><time>2026-04-06T16:36:10.59Z</time></trkpt><trkpt lat="43.806415" lon="12.6848033"><ele>217.5</ele><time>2026-04-06T16:36:11.59Z</time></trkpt><trkpt lat="43.8065133" lon="12.684895"><ele>220.0</ele><time>2026-04-06T16:36:12.589Z</time></trkpt><trkpt lat="43.8066" lon="12.6850033"><ele>220.0</ele><time>2026-04-06T16:36:13.598Z</time></trkpt><trkpt lat="43.8066883" lon="12.6851117"><ele>220.0</ele><time>2026-04-06T16:36:14.597Z</time></trkpt><trkpt lat="43.8067717" lon="12.685215"><ele>220.0</ele><time>2026-04-06T16:36:15.591Z</time></trkpt><trkpt lat="43.8068533" lon="12.685315"><ele>220.0</ele><time>2026-04-06T16:36:16.591Z</time></trkpt><trkpt lat="43.80693" lon="12.68541"><ele>220.0</ele><time>2026-04-06T16:36:17.589Z</time></trkpt><trkpt lat="43.80701" lon="12.6855017"><ele>222.4</ele><time>2026-04-06T16:36:18.592Z</time></trkpt><trkpt lat="43.8070883" lon="12.6855867"><ele>224.8</ele><time>2026-04-06T16:36:19.59Z</time></trkpt><trkpt lat="43.8071633" lon="12.6856633"><ele>227.2</ele><time>2026-04-06T16:36:20.589Z</time></trkpt><trkpt lat="43.807245" lon="12.6857467"><ele>229.6</ele><time>2026-04-06T16:36:21.59Z</time></trkpt><trkpt lat="43.8073317" lon="12.6858333"><ele>232.0</ele><time>2026-04-06T16:36:22.59Z</time></trkpt><trkpt lat="43.8074167" lon="12.6859283"><ele>232.0</ele><time>2026-04-06T16:36:23.588Z</time></trkpt><trkpt lat="43.8075017" lon="12.686035"><ele>232.0</ele><time>2026-04-06T16:36:24.587Z</time></trkpt><trkpt lat="43.80758" lon="12.6861533"><ele>232.0</ele><time>2026-04-06T16:36:25.588Z</time></trkpt><trkpt lat="43.8076483" lon="12.68628"><ele>232.0</ele><time>2026-04-06T16:36:26.589Z</time></trkpt><trkpt lat="43.80771" lon="12.686415"><ele>231.0</ele><time>2026-04-06T16:36:27.59Z</time></trkpt><trkpt lat="43.8077633" lon="12.68656"><ele>230.0</ele><time>2026-04-06T16:36:28.589Z</time></trkpt><trkpt lat="43.807805" lon="12.6867083"><ele>229.0</ele><time>2026-04-06T16:36:29.589Z</time></trkpt><trkpt lat="43.8078433" lon="12.6868583"><ele>228.0</ele><time>2026-04-06T16:36:30.588Z</time></trkpt><trkpt lat="43.807875" lon="12.6870117"><ele>228.0</ele><time>2026-04-06T16:36:31.588Z</time></trkpt><trkpt lat="43.80791" lon="12.687165"><ele>228.0</ele><time>2026-04-06T16:36:32.589Z</time></trkpt><trkpt lat="43.80794" lon="12.687315"><ele>228.0</ele><time>2026-04-06T16:36:33.589Z</time></trkpt><trkpt lat="43.8079717" lon="12.6874583"><ele>228.0</ele><time>2026-04-06T16:36:34.589Z</time></trkpt><trkpt lat="43.8080083" lon="12.6875967"><ele>228.0</ele><time>2026-04-06T16:36:35.591Z</time></trkpt><trkpt lat="43.808035" lon="12.6877317"><ele>228.60000000000002</ele><time>2026-04-06T16:36:36.588Z</time></trkpt><trkpt lat="43.8080633" lon="12.68786"><ele>229.20000000000002</ele><time>2026-04-06T16:36:37.588Z</time></trkpt><trkpt lat="43.8081033" lon="12.6879783"><ele>229.8</ele><time>2026-04-06T16:36:38.589Z</time></trkpt><trkpt lat="43.8081333" lon="12.688095"><ele>230.4</ele><time>2026-04-06T16:36:39.59Z</time></trkpt><trkpt lat="43.8081733" lon="12.68821"><ele>231.0</ele><time>2026-04-06T16:36:40.588Z</time></trkpt><trkpt lat="43.8082183" lon="12.6883267"><ele>231.0</ele><time>2026-04-06T16:36:41.588Z</time></trkpt><trkpt lat="43.8082617" lon="12.68845"><ele>231.00000000000003</ele><time>2026-04-06T16:36:42.588Z</time></trkpt><trkpt lat="43.808305" lon="12.6885833"><ele>231.00000000000003</ele><time>2026-04-06T16:36:43.591Z</time></trkpt><trkpt lat="43.808345" lon="12.6887133"><ele>231.0</ele><time>2026-04-06T16:36:44.589Z</time></trkpt><trkpt lat="43.8083867" lon="12.6888367"><ele>231.0</ele><time>2026-04-06T16:36:45.588Z</time></trkpt><trkpt lat="43.80843" lon="12.6889633"><ele>231.0</ele><time>2026-04-06T16:36:46.588Z</time></trkpt><trkpt lat="43.8084683" lon="12.689085"><ele>231.00000000000003</ele><time>2026-04-06T16:36:47.589Z</time></trkpt><trkpt lat="43.8085017" lon="12.6892117"><ele>231.00000000000003</ele><time>2026-04-06T16:36:48.588Z</time></trkpt><trkpt lat="43.80854" lon="12.6893433"><ele>231.0</ele><time>2026-04-06T16:36:49.589Z</time></trkpt><trkpt lat="43.8085783" lon="12.6894717"><ele>231.0</ele><time>2026-04-06T16:36:50.591Z</time></trkpt><trkpt lat="43.8086117" lon="12.689605"><ele>231.0</ele><time>2026-04-06T16:36:51.589Z</time></trkpt><trkpt lat="43.80864" lon="12.68974"><ele>231.00000000000003</ele><time>2026-04-06T16:36:52.592Z</time></trkpt><trkpt lat="43.8086667" lon="12.6898767"><ele>231.00000000000003</ele><time>2026-04-06T16:36:53.59Z</time></trkpt><trkpt lat="43.80869" lon="12.6900083"><ele>231.0</ele><time>2026-04-06T16:36:54.591Z</time></trkpt><trkpt lat="43.8087133" lon="12.6901383"><ele>231.0</ele><time>2026-04-06T16:36:55.59Z</time></trkpt><trkpt lat="43.8087333" lon="12.6902667"><ele>231.0</ele><time>2026-04-06T16:36:56.59Z</time></trkpt><trkpt lat="43.808755" lon="12.690385"><ele>231.0</ele><time>2026-04-06T16:36:57.592Z</time></trkpt><trkpt lat="43.8087783" lon="12.6904967"><ele>231.0</ele><time>2026-04-06T16:36:58.589Z</time></trkpt><trkpt lat="43.8087933" lon="12.6906017"><ele>231.0</ele><time>2026-04-06T16:36:59.59Z</time></trkpt><trkpt lat="43.8088133" lon="12.6906967"><ele>231.0</ele><time>2026-04-06T16:37:00.59Z</time></trkpt><trkpt lat="43.8088567" lon="12.6907633"><ele>231.0</ele><time>2026-04-06T16:37:01.59Z</time></trkpt><trkpt lat="43.8089167" lon="12.6907917"><ele>231.0</ele><time>2026-04-06T16:37:02.59Z</time></trkpt><trkpt lat="43.8090367" lon="12.69077"><ele>231.0</ele><time>2026-04-06T16:37:04.59Z</time></trkpt><trkpt lat="43.8091067" lon="12.6907583"><ele>231.0</ele><time>2026-04-06T16:37:05.59Z</time></trkpt><trkpt lat="43.8091833" lon="12.6907583"><ele>231.0</ele><time>2026-04-06T16:37:06.589Z</time></trkpt><trkpt lat="43.8092617" lon="12.690755"><ele>231.0</ele><time>2026-04-06T16:37:07.589Z</time></trkpt><trkpt lat="43.8093417" lon="12.690755"><ele>231.0</ele><time>2026-04-06T16:37:08.59Z</time></trkpt><trkpt lat="43.80942" lon="12.6907467"><ele>231.0</ele><time>2026-04-06T16:37:09.59Z</time></trkpt><trkpt lat="43.8095033" lon="12.6907417"><ele>228.83333333333334</ele><time>2026-04-06T16:37:10.591Z</time></trkpt><trkpt lat="43.809585" lon="12.6907467"><ele>226.66666666666669</ele><time>2026-04-06T16:37:11.591Z</time></trkpt><trkpt lat="43.8096633" lon="12.6907533"><ele>224.5</ele><time>2026-04-06T16:37:12.589Z</time></trkpt><trkpt lat="43.8097467" lon="12.6907683"><ele>222.33333333333334</ele><time>2026-04-06T16:37:13.59Z</time></trkpt><trkpt lat="43.8098217" lon="12.6908167"><ele>220.16666666666669</ele><time>2026-04-06T16:37:14.588Z</time></trkpt><trkpt lat="43.8098717" lon="12.6909017"><ele>218.0</ele><time>2026-04-06T16:37:15.587Z</time></trkpt><trkpt lat="43.8099" lon="12.69101"><ele>218.8</ele><time>2026-04-06T16:37:16.588Z</time></trkpt><trkpt lat="43.8099317" lon="12.6911267"><ele>219.60000000000002</ele><time>2026-04-06T16:37:17.589Z</time></trkpt><trkpt lat="43.809965" lon="12.69125"><ele>220.39999999999998</ele><time>2026-04-06T16:37:18.588Z</time></trkpt><trkpt lat="43.8100067" lon="12.6913717"><ele>221.2</ele><time>2026-04-06T16:37:19.589Z</time></trkpt><trkpt lat="43.8100567" lon="12.691485"><ele>222.0</ele><time>2026-04-06T16:37:20.589Z</time></trkpt><trkpt lat="43.81013" lon="12.6915733"><ele>220.0</ele><time>2026-04-06T16:37:21.588Z</time></trkpt><trkpt lat="43.8102117" lon="12.6916483"><ele>218.0</ele><time>2026-04-06T16:37:22.589Z</time></trkpt><trkpt lat="43.8102967" lon="12.6917083"><ele>216.0</ele><time>2026-04-06T16:37:23.588Z</time></trkpt><trkpt lat="43.810385" lon="12.6917467"><ele>214.0</ele><time>2026-04-06T16:37:24.587Z</time></trkpt><trkpt lat="43.8104767" lon="12.691775"><ele>212.0</ele><time>2026-04-06T16:37:25.588Z</time></trkpt><trkpt lat="43.8105683" lon="12.6918083"><ele>212.0</ele><time>2026-04-06T16:37:26.588Z</time></trkpt><trkpt lat="43.8106583" lon="12.6918417"><ele>212.0</ele><time>2026-04-06T16:37:27.588Z</time></trkpt><trkpt lat="43.81075" lon="12.6918683"><ele>212.0</ele><time>2026-04-06T16:37:28.588Z</time></trkpt><trkpt lat="43.81084" lon="12.69189"><ele>212.0</ele><time>2026-04-06T16:37:29.589Z</time></trkpt><trkpt lat="43.81093" lon="12.69192"><ele>212.0</ele><time>2026-04-06T16:37:30.592Z</time></trkpt><trkpt lat="43.8110217" lon="12.6919483"><ele>211.0</ele><time>2026-04-06T16:37:31.587Z</time></trkpt><trkpt lat="43.8111117" lon="12.6919733"><ele>210.0</ele><time>2026-04-06T16:37:32.588Z</time></trkpt><trkpt lat="43.8112067" lon="12.691985"><ele>209.0</ele><time>2026-04-06T16:37:33.589Z</time></trkpt><trkpt lat="43.8113033" lon="12.6919717"><ele>208.0</ele><time>2026-04-06T16:37:34.587Z</time></trkpt><trkpt lat="43.8113983" lon="12.6919417"><ele>207.0</ele><time>2026-04-06T16:37:35.589Z</time></trkpt><trkpt lat="43.8114983" lon="12.691895"><ele>207.0</ele><time>2026-04-06T16:37:36.587Z</time></trkpt><trkpt lat="43.8115917" lon="12.6918333"><ele>207.0</ele><time>2026-04-06T16:37:37.59Z</time></trkpt><trkpt lat="43.8116817" lon="12.6917633"><ele>207.0</ele><time>2026-04-06T16:37:38.59Z</time></trkpt><trkpt lat="43.81177" lon="12.6916967"><ele>207.0</ele><time>2026-04-06T16:37:39.598Z</time></trkpt><trkpt lat="43.8118617" lon="12.6916233"><ele>207.0</ele><time>2026-04-06T16:37:40.587Z</time></trkpt><trkpt lat="43.8119533" lon="12.6915633"><ele>206.2</ele><time>2026-04-06T16:37:41.588Z</time></trkpt><trkpt lat="43.812055" lon="12.6915333"><ele>205.39999999999998</ele><time>2026-04-06T16:37:42.588Z</time></trkpt><trkpt lat="43.81216" lon="12.6915383"><ele>204.60000000000002</ele><time>2026-04-06T16:37:43.594Z</time></trkpt><trkpt lat="43.81226" lon="12.6915583"><ele>203.8</ele><time>2026-04-06T16:37:44.588Z</time></trkpt><trkpt lat="43.8123633" lon="12.6915717"><ele>203.0</ele><time>2026-04-06T16:37:45.595Z</time></trkpt><trkpt lat="43.8124667" lon="12.6915617"><ele>203.0</ele><time>2026-04-06T16:37:46.589Z</time></trkpt><trkpt lat="43.812565" lon="12.6915183"><ele>203.0</ele><time>2026-04-06T16:37:47.588Z</time></trkpt><trkpt lat="43.8126517" lon="12.6914483"><ele>203.0</ele><time>2026-04-06T16:37:48.587Z</time></trkpt><trkpt lat="43.8127283" lon="12.691355"><ele>203.0</ele><time>2026-04-06T16:37:49.589Z</time></trkpt><trkpt lat="43.812795" lon="12.69125"><ele>203.0</ele><time>2026-04-06T16:37:50.589Z</time></trkpt><trkpt lat="43.8128633" lon="12.6911517"><ele>203.60000000000002</ele><time>2026-04-06T16:37:51.587Z</time></trkpt><trkpt lat="43.8129267" lon="12.69105"><ele>204.20000000000002</ele><time>2026-04-06T16:37:52.588Z</time></trkpt><trkpt lat="43.8129817" lon="12.690945"><ele>204.8</ele><time>2026-04-06T16:37:53.588Z</time></trkpt><trkpt lat="43.8130267" lon="12.6908317"><ele>205.4</ele><time>2026-04-06T16:37:54.587Z</time></trkpt><trkpt lat="43.8130567" lon="12.6907217"><ele>206.0</ele><time>2026-04-06T16:37:55.59Z</time></trkpt><trkpt lat="43.8130817" lon="12.690605"><ele>206.00000000000003</ele><time>2026-04-06T16:37:56.588Z</time></trkpt><trkpt lat="43.8131" lon="12.69049"><ele>206.0</ele><time>2026-04-06T16:37:57.587Z</time></trkpt><trkpt lat="43.8131167" lon="12.690375"><ele>206.0</ele><time>2026-04-06T16:37:58.591Z</time></trkpt><trkpt lat="43.8131317" lon="12.6902683"><ele>206.0</ele><time>2026-04-06T16:37:59.587Z</time></trkpt><trkpt lat="43.81315" lon="12.6901617"><ele>206.00000000000003</ele><time>2026-04-06T16:38:00.588Z</time></trkpt><trkpt lat="43.8131683" lon="12.6900567"><ele>206.0</ele><time>2026-04-06T16:38:01.588Z</time></trkpt><trkpt lat="43.8131867" lon="12.6899417"><ele>204.66666666666669</ele><time>2026-04-06T16:38:02.587Z</time></trkpt><trkpt lat="43.813195" lon="12.6898283"><ele>203.33333333333334</ele><time>2026-04-06T16:38:03.588Z</time></trkpt><trkpt lat="43.8132067" lon="12.6897183"><ele>202.0</ele><time>2026-04-06T16:38:04.588Z</time></trkpt><trkpt lat="43.8132267" lon="12.6896233"><ele>200.66666666666669</ele><time>2026-04-06T16:38:05.589Z</time></trkpt><trkpt lat="43.81326" lon="12.6895267"><ele>199.33333333333334</ele><time>2026-04-06T16:38:06.589Z</time></trkpt><trkpt lat="43.8133017" lon="12.68943"><ele>198.0</ele><time>2026-04-06T16:38:07.588Z</time></trkpt><trkpt lat="43.81335" lon="12.689345"><ele>197.5</ele><time>2026-04-06T16:38:08.593Z</time></trkpt><trkpt lat="43.8134" lon="12.6892517"><ele>197.0</ele><time>2026-04-06T16:38:09.587Z</time></trkpt><trkpt lat="43.8134517" lon="12.6891667"><ele>196.5</ele><time>2026-04-06T16:38:10.588Z</time></trkpt><trkpt lat="43.81351" lon="12.68909"><ele>196.0</ele><time>2026-04-06T16:38:11.587Z</time></trkpt><trkpt lat="43.8135733" lon="12.6890167"><ele>195.5</ele><time>2026-04-06T16:38:12.587Z</time></trkpt><trkpt lat="43.813635" lon="12.688945"><ele>195.0</ele><time>2026-04-06T16:38:13.588Z</time></trkpt><trkpt lat="43.8137017" lon="12.68888"><ele>195.0</ele><time>2026-04-06T16:38:14.587Z</time></trkpt><trkpt lat="43.8137617" lon="12.6888117"><ele>195.0</ele><time>2026-04-06T16:38:15.589Z</time></trkpt><trkpt lat="43.8138083" lon="12.688745"><ele>195.0</ele><time>2026-04-06T16:38:16.59Z</time></trkpt><trkpt lat="43.8138583" lon="12.6886867"><ele>195.0</ele><time>2026-04-06T16:38:17.588Z</time></trkpt><trkpt lat="43.8139783" lon="12.6886367"><ele>195.0</ele><time>2026-04-06T16:38:19.589Z</time></trkpt><trkpt lat="43.81405" lon="12.6886217"><ele>195.0</ele><time>2026-04-06T16:38:20.588Z</time></trkpt><trkpt lat="43.8141183" lon="12.6885817"><ele>196.0</ele><time>2026-04-06T16:38:21.589Z</time></trkpt><trkpt lat="43.8141933" lon="12.6885217"><ele>197.0</ele><time>2026-04-06T16:38:22.587Z</time></trkpt><trkpt lat="43.81427" lon="12.68845"><ele>198.0</ele><time>2026-04-06T16:38:23.587Z</time></trkpt><trkpt lat="43.81435" lon="12.688375"><ele>199.0</ele><time>2026-04-06T16:38:24.588Z</time></trkpt><trkpt lat="43.814435" lon="12.68832"><ele>200.0</ele><time>2026-04-06T16:38:25.589Z</time></trkpt><trkpt lat="43.81452" lon="12.6882767"><ele>200.0</ele><time>2026-04-06T16:38:26.587Z</time></trkpt><trkpt lat="43.81461" lon="12.6882317"><ele>200.0</ele><time>2026-04-06T16:38:27.588Z</time></trkpt><trkpt lat="43.8146917" lon="12.68819"><ele>200.0</ele><time>2026-04-06T16:38:28.588Z</time></trkpt><trkpt lat="43.8147717" lon="12.6881383"><ele>200.0</ele><time>2026-04-06T16:38:29.589Z</time></trkpt><trkpt lat="43.8148567" lon="12.68809"><ele>200.0</ele><time>2026-04-06T16:38:30.588Z</time></trkpt><trkpt lat="43.8149383" lon="12.6880417"><ele>200.0</ele><time>2026-04-06T16:38:31.588Z</time></trkpt><trkpt lat="43.8150183" lon="12.6880117"><ele>200.0</ele><time>2026-04-06T16:38:32.587Z</time></trkpt><trkpt lat="43.8150867" lon="12.6879817"><ele>200.0</ele><time>2026-04-06T16:38:33.588Z</time></trkpt><trkpt lat="43.815185" lon="12.6879183"><ele>200.0</ele><time>2026-04-06T16:38:35.588Z</time></trkpt><trkpt lat="43.8152967" lon="12.68793"><ele>200.0</ele><time>2026-04-06T16:38:37.589Z</time></trkpt><trkpt lat="43.8153683" lon="12.68799"><ele>200.0</ele><time>2026-04-06T16:38:39.594Z</time></trkpt><trkpt lat="43.8153467" lon="12.68815"><ele>200.0</ele><time>2026-04-06T16:38:41.589Z</time></trkpt><trkpt lat="43.8151683" lon="12.6883967"><ele>200.0</ele><time>2026-04-06T16:38:44.589Z</time></trkpt><trkpt lat="43.8150983" lon="12.6885083"><ele>202.4</ele><time>2026-04-06T16:38:45.587Z</time></trkpt><trkpt lat="43.8150383" lon="12.6886217"><ele>204.8</ele><time>2026-04-06T16:38:46.588Z</time></trkpt><trkpt lat="43.8150067" lon="12.6887367"><ele>207.2</ele><time>2026-04-06T16:38:47.588Z</time></trkpt><trkpt lat="43.8150133" lon="12.68886"><ele>209.6</ele><time>2026-04-06T16:38:48.587Z</time></trkpt><trkpt lat="43.815055" lon="12.6889783"><ele>212.0</ele><time>2026-04-06T16:38:49.591Z</time></trkpt><trkpt lat="43.8151183" lon="12.689095"><ele>212.0</ele><time>2026-04-06T16:38:50.588Z</time></trkpt><trkpt lat="43.8151967" lon="12.6892217"><ele>212.0</ele><time>2026-04-06T16:38:51.588Z</time></trkpt><trkpt lat="43.8152567" lon="12.68935"><ele>212.0</ele><time>2026-04-06T16:38:52.587Z</time></trkpt><trkpt lat="43.8152817" lon="12.6894683"><ele>212.0</ele><time>2026-04-06T16:38:53.588Z</time></trkpt><trkpt lat="43.8153" lon="12.68958"><ele>212.0</ele><time>2026-04-06T16:38:54.6Z</time></trkpt><trkpt lat="43.8153" lon="12.689695"><ele>212.0</ele><time>2026-04-06T16:38:55.588Z</time></trkpt><trkpt lat="43.8153033" lon="12.6898133"><ele>212.0</ele><time>2026-04-06T16:38:56.587Z</time></trkpt><trkpt lat="43.8153033" lon="12.6899483"><ele>212.0</ele><time>2026-04-06T16:38:57.589Z</time></trkpt><trkpt lat="43.8152933" lon="12.6900967"><ele>212.0</ele><time>2026-04-06T16:38:58.589Z</time></trkpt><trkpt lat="43.8152717" lon="12.6902517"><ele>212.0</ele><time>2026-04-06T16:38:59.589Z</time></trkpt><trkpt lat="43.8152567" lon="12.690405"><ele>215.0</ele><time>2026-04-06T16:39:00.588Z</time></trkpt><trkpt lat="43.8152167" lon="12.6905467"><ele>218.0</ele><time>2026-04-06T16:39:01.587Z</time></trkpt><trkpt lat="43.8151467" lon="12.6906533"><ele>221.0</ele><time>2026-04-06T16:39:02.592Z</time></trkpt><trkpt lat="43.8150483" lon="12.690735"><ele>224.0</ele><time>2026-04-06T16:39:03.587Z</time></trkpt><trkpt lat="43.8149433" lon="12.6908067"><ele>227.0</ele><time>2026-04-06T16:39:04.593Z</time></trkpt><trkpt lat="43.8148383" lon="12.6908783"><ele>229.50000000000003</ele><time>2026-04-06T16:39:05.589Z</time></trkpt><trkpt lat="43.8147357" lon="12.6909149"><ele>232.0</ele><time>2026-04-06T16:39:06.589Z</time></trkpt><trkpt lat="43.8146444" lon="12.6909354"><ele>234.5</ele><time>2026-04-06T16:39:07.588Z</time></trkpt><trkpt lat="43.8145661" lon="12.6909593"><ele>237.0</ele><time>2026-04-06T16:39:08.588Z</time></trkpt><trkpt lat="43.8144962" lon="12.6909795"><ele>239.50000000000003</ele><time>2026-04-06T16:39:09.589Z</time></trkpt><trkpt lat="43.8144304" lon="12.6910107"><ele>242.0</ele><time>2026-04-06T16:39:10.589Z</time></trkpt><trkpt lat="43.8143646" lon="12.6910508"><ele>241.2</ele><time>2026-04-06T16:39:11.588Z</time></trkpt><trkpt lat="43.8143149" lon="12.6911082"><ele>240.39999999999998</ele><time>2026-04-06T16:39:12.588Z</time></trkpt><trkpt lat="43.8143034" lon="12.6911987"><ele>239.60000000000002</ele><time>2026-04-06T16:39:13.588Z</time></trkpt><trkpt lat="43.8143314" lon="12.6913119"><ele>238.8</ele><time>2026-04-06T16:39:14.587Z</time></trkpt><trkpt lat="43.8143867" lon="12.6914387"><ele>238.0</ele><time>2026-04-06T16:39:15.587Z</time></trkpt><trkpt lat="43.8144881" lon="12.6915744"><ele>242.0</ele><time>2026-04-06T16:39:16.59Z</time></trkpt><trkpt lat="43.8146091" lon="12.6916981"><ele>246.0</ele><time>2026-04-06T16:39:17.589Z</time></trkpt><trkpt lat="43.8147074" lon="12.6918227"><ele>250.0</ele><time>2026-04-06T16:39:18.591Z</time></trkpt><trkpt lat="43.8147697" lon="12.6919477"><ele>254.0</ele><time>2026-04-06T16:39:19.589Z</time></trkpt><trkpt lat="43.8148221" lon="12.6920485"><ele>254.79999999999998</ele><time>2026-04-06T16:39:20.589Z</time></trkpt><trkpt lat="43.8148587" lon="12.6921519"><ele>255.59999999999997</ele><time>2026-04-06T16:39:21.59Z</time></trkpt><trkpt lat="43.8149091" lon="12.692265"><ele>256.4</ele><time>2026-04-06T16:39:22.59Z</time></trkpt><trkpt lat="43.8149662" lon="12.6923971"><ele>257.2</ele><time>2026-04-06T16:39:23.59Z</time></trkpt><trkpt lat="43.8150201" lon="12.6925528"><ele>258.0</ele><time>2026-04-06T16:39:24.59Z</time></trkpt><trkpt lat="43.8150593" lon="12.6927036"><ele>258.1666666666667</ele><time>2026-04-06T16:39:25.591Z</time></trkpt><trkpt lat="43.815097" lon="12.6928457"><ele>258.3333333333333</ele><time>2026-04-06T16:39:26.589Z</time></trkpt><trkpt lat="43.8151259" lon="12.6929738"><ele>258.5</ele><time>2026-04-06T16:39:27.589Z</time></trkpt><trkpt lat="43.8151542" lon="12.6930877"><ele>258.66666666666663</ele><time>2026-04-06T16:39:28.588Z</time></trkpt><trkpt lat="43.8151742" lon="12.6931935"><ele>258.8333333333333</ele><time>2026-04-06T16:39:29.589Z</time></trkpt><trkpt lat="43.8151854" lon="12.6932866"><ele>259.0</ele><time>2026-04-06T16:39:30.589Z</time></trkpt><trkpt lat="43.8152057" lon="12.6933767"><ele>259.0</ele><time>2026-04-06T16:39:31.588Z</time></trkpt><trkpt lat="43.8152495" lon="12.6935173"><ele>259.0</ele><time>2026-04-06T16:39:33.588Z</time></trkpt><trkpt lat="43.8152624" lon="12.6936259"><ele>259.0</ele><time>2026-04-06T16:39:35.588Z</time></trkpt><trkpt lat="43.8152113" lon="12.6937265"><ele>259.0</ele><time>2026-04-06T16:39:37.587Z</time></trkpt><trkpt lat="43.8150931" lon="12.6937774"><ele>259.0</ele><time>2026-04-06T16:39:39.587Z</time></trkpt><trkpt lat="43.814986" lon="12.6938377"><ele>255.83333333333331</ele><time>2026-04-06T16:39:41.586Z</time></trkpt><trkpt lat="43.8149268" lon="12.6938726"><ele>252.66666666666666</ele><time>2026-04-06T16:39:42.586Z</time></trkpt><trkpt lat="43.8148612" lon="12.6939104"><ele>249.5</ele><time>2026-04-06T16:39:43.587Z</time></trkpt><trkpt lat="43.814793" lon="12.6939476"><ele>246.33333333333331</ele><time>2026-04-06T16:39:44.587Z</time></trkpt><trkpt lat="43.8147292" lon="12.693978"><ele>243.16666666666666</ele><time>2026-04-06T16:39:45.587Z</time></trkpt><trkpt lat="43.8146088" lon="12.6940424"><ele>240.0</ele><time>2026-04-06T16:39:47.586Z</time></trkpt><trkpt lat="43.8145475" lon="12.694073"><ele>240.0</ele><time>2026-04-06T16:39:48.587Z</time></trkpt><trkpt lat="43.8144355" lon="12.6941302"><ele>240.0</ele><time>2026-04-06T16:39:50.587Z</time></trkpt><trkpt lat="43.8143701" lon="12.6941529"><ele>240.0</ele><time>2026-04-06T16:39:51.586Z</time></trkpt><trkpt lat="43.8143072" lon="12.6941958"><ele>240.0</ele><time>2026-04-06T16:39:52.587Z</time></trkpt><trkpt lat="43.8142443" lon="12.6942426"><ele>240.0</ele><time>2026-04-06T16:39:53.586Z</time></trkpt><trkpt lat="43.8141862" lon="12.6942898"><ele>240.0</ele><time>2026-04-06T16:39:54.589Z</time></trkpt><trkpt lat="43.8141281" lon="12.6943333"><ele>240.57142857142858</ele><time>2026-04-06T16:39:55.592Z</time></trkpt><trkpt lat="43.8140594" lon="12.6943735"><ele>241.1428571428571</ele><time>2026-04-06T16:39:56.589Z</time></trkpt><trkpt lat="43.8139892" lon="12.6944179"><ele>241.7142857142857</ele><time>2026-04-06T16:39:57.588Z</time></trkpt><trkpt lat="43.8139176" lon="12.6944702"><ele>242.28571428571428</ele><time>2026-04-06T16:39:58.594Z</time></trkpt><trkpt lat="43.813851" lon="12.6945082"><ele>242.85714285714283</ele><time>2026-04-06T16:39:59.588Z</time></trkpt><trkpt lat="43.8137883" lon="12.6945415"><ele>243.4285714285714</ele><time>2026-04-06T16:40:00.586Z</time></trkpt><trkpt lat="43.8137266" lon="12.6945785"><ele>243.99999999999997</ele><time>2026-04-06T16:40:01.586Z</time></trkpt><trkpt lat="43.8136693" lon="12.6946212"><ele>244.0</ele><time>2026-04-06T16:40:02.587Z</time></trkpt><trkpt lat="43.8135696" lon="12.6947006"><ele>244.0</ele><time>2026-04-06T16:40:04.586Z</time></trkpt><trkpt lat="43.813471" lon="12.6947895"><ele>244.0</ele><time>2026-04-06T16:40:06.586Z</time></trkpt><trkpt lat="43.8133666" lon="12.6948786"><ele>244.0</ele><time>2026-04-06T16:40:08.588Z</time></trkpt><trkpt lat="43.8132622" lon="12.6949738"><ele>245.57142857142856</ele><time>2026-04-06T16:40:10.587Z</time></trkpt><trkpt lat="43.8132029" lon="12.6950258"><ele>247.14285714285714</ele><time>2026-04-06T16:40:11.588Z</time></trkpt><trkpt lat="43.8131454" lon="12.6950727"><ele>248.71428571428572</ele><time>2026-04-06T16:40:12.587Z</time></trkpt><trkpt lat="43.813086" lon="12.6951231"><ele>250.28571428571428</ele><time>2026-04-06T16:40:13.586Z</time></trkpt><trkpt lat="43.8130272" lon="12.6951745"><ele>251.8571428571429</ele><time>2026-04-06T16:40:14.586Z</time></trkpt><trkpt lat="43.8129703" lon="12.6952272"><ele>253.42857142857144</ele><time>2026-04-06T16:40:15.588Z</time></trkpt><trkpt lat="43.8129168" lon="12.6952882"><ele>255.0</ele><time>2026-04-06T16:40:16.588Z</time></trkpt><trkpt lat="43.8128627" lon="12.6953588"><ele>256.2</ele><time>2026-04-06T16:40:17.587Z</time></trkpt><trkpt lat="43.8128128" lon="12.6954342"><ele>257.4</ele><time>2026-04-06T16:40:18.588Z</time></trkpt><trkpt lat="43.8127629" lon="12.695498"><ele>258.6</ele><time>2026-04-06T16:40:19.597Z</time></trkpt><trkpt lat="43.812704" lon="12.6956527"><ele>259.8</ele><time>2026-04-06T16:40:21.587Z</time></trkpt><trkpt lat="43.8126718" lon="12.6957897"><ele>261.0</ele><time>2026-04-06T16:40:23.589Z</time></trkpt><trkpt lat="43.8126465" lon="12.6959496"><ele>263.6</ele><time>2026-04-06T16:40:25.589Z</time></trkpt><trkpt lat="43.8126019" lon="12.6960873"><ele>266.20000000000005</ele><time>2026-04-06T16:40:27.587Z</time></trkpt><trkpt lat="43.8125605" lon="12.6962132"><ele>268.79999999999995</ele><time>2026-04-06T16:40:29.586Z</time></trkpt><trkpt lat="43.8124856" lon="12.6962906"><ele>271.4</ele><time>2026-04-06T16:40:31.588Z</time></trkpt><trkpt lat="43.8124052" lon="12.6963287"><ele>274.0</ele><time>2026-04-06T16:40:33.588Z</time></trkpt><trkpt lat="43.8123245" lon="12.6963425"><ele>274.0</ele><time>2026-04-06T16:40:35.587Z</time></trkpt><trkpt lat="43.8122571" lon="12.6963443"><ele>274.0</ele><time>2026-04-06T16:40:37.586Z</time></trkpt><trkpt lat="43.8121919" lon="12.6962559"><ele>274.0</ele><time>2026-04-06T16:40:40.587Z</time></trkpt><trkpt lat="43.8121712" lon="12.6961055"><ele>274.0</ele><time>2026-04-06T16:40:42.586Z</time></trkpt><trkpt lat="43.8121396" lon="12.6959159"><ele>274.0</ele><time>2026-04-06T16:40:44.586Z</time></trkpt><trkpt lat="43.812126" lon="12.695788"><ele>273.59999999999997</ele><time>2026-04-06T16:40:45.587Z</time></trkpt><trkpt lat="43.8121076" lon="12.6956534"><ele>273.2</ele><time>2026-04-06T16:40:46.587Z</time></trkpt><trkpt lat="43.8120827" lon="12.6955248"><ele>272.79999999999995</ele><time>2026-04-06T16:40:47.589Z</time></trkpt><trkpt lat="43.8120512" lon="12.6954082"><ele>272.4</ele><time>2026-04-06T16:40:48.588Z</time></trkpt><trkpt lat="43.8120121" lon="12.6953027"><ele>272.0</ele><time>2026-04-06T16:40:49.588Z</time></trkpt><trkpt lat="43.8119625" lon="12.6952079"><ele>271.6666666666667</ele><time>2026-04-06T16:40:50.588Z</time></trkpt><trkpt lat="43.8119002" lon="12.6951375"><ele>271.33333333333337</ele><time>2026-04-06T16:40:51.588Z</time></trkpt><trkpt lat="43.8118229" lon="12.6950963"><ele>271.0</ele><time>2026-04-06T16:40:52.59Z</time></trkpt><trkpt lat="43.8117346" lon="12.6950897"><ele>270.6666666666667</ele><time>2026-04-06T16:40:53.592Z</time></trkpt><trkpt lat="43.8116486" lon="12.6951076"><ele>270.3333333333333</ele><time>2026-04-06T16:40:54.588Z</time></trkpt><trkpt lat="43.8115612" lon="12.6951308"><ele>270.0</ele><time>2026-04-06T16:40:55.588Z</time></trkpt><trkpt lat="43.8114758" lon="12.6951651"><ele>269.3333333333333</ele><time>2026-04-06T16:40:56.588Z</time></trkpt><trkpt lat="43.8113892" lon="12.6951943"><ele>268.6666666666667</ele><time>2026-04-06T16:40:57.588Z</time></trkpt><trkpt lat="43.8113047" lon="12.6952173"><ele>268.0</ele><time>2026-04-06T16:40:58.587Z</time></trkpt><trkpt lat="43.8112184" lon="12.6952445"><ele>267.33333333333337</ele><time>2026-04-06T16:40:59.588Z</time></trkpt><trkpt lat="43.8111391" lon="12.6952702"><ele>266.6666666666667</ele><time>2026-04-06T16:41:00.586Z</time></trkpt><trkpt lat="43.8110593" lon="12.6952907"><ele>266.0</ele><time>2026-04-06T16:41:01.586Z</time></trkpt><trkpt lat="43.81098" lon="12.6953054"><ele>264.0</ele><time>2026-04-06T16:41:02.586Z</time></trkpt><trkpt lat="43.810895" lon="12.6953009"><ele>262.0</ele><time>2026-04-06T16:41:03.59Z</time></trkpt><trkpt lat="43.8108128" lon="12.6952665"><ele>260.0</ele><time>2026-04-06T16:41:04.586Z</time></trkpt><trkpt lat="43.8107376" lon="12.6952084"><ele>258.0</ele><time>2026-04-06T16:41:05.588Z</time></trkpt><trkpt lat="43.8106828" lon="12.6951232"><ele>256.0</ele><time>2026-04-06T16:41:06.586Z</time></trkpt><trkpt lat="43.8106387" lon="12.6950182"><ele>254.0</ele><time>2026-04-06T16:41:07.588Z</time></trkpt><trkpt lat="43.8106077" lon="12.6949092"><ele>254.00000000000003</ele><time>2026-04-06T16:41:08.586Z</time></trkpt><trkpt lat="43.8105848" lon="12.6947947"><ele>254.0</ele><time>2026-04-06T16:41:09.586Z</time></trkpt><trkpt lat="43.8105524" lon="12.6946882"><ele>254.0</ele><time>2026-04-06T16:41:10.586Z</time></trkpt><trkpt lat="43.8105172" lon="12.6945857"><ele>254.0</ele><time>2026-04-06T16:41:11.587Z</time></trkpt><trkpt lat="43.8104846" lon="12.6944774"><ele>254.00000000000003</ele><time>2026-04-06T16:41:12.586Z</time></trkpt><trkpt lat="43.8104459" lon="12.6943587"><ele>254.0</ele><time>2026-04-06T16:41:13.587Z</time></trkpt><trkpt lat="43.8104073" lon="12.6942267"><ele>252.75</ele><time>2026-04-06T16:41:14.586Z</time></trkpt><trkpt lat="43.8103703" lon="12.6940883"><ele>251.5</ele><time>2026-04-06T16:41:15.586Z</time></trkpt><trkpt lat="43.8103302" lon="12.6939419"><ele>250.25</ele><time>2026-04-06T16:41:16.586Z</time></trkpt><trkpt lat="43.8102844" lon="12.6937874"><ele>249.0</ele><time>2026-04-06T16:41:17.587Z</time></trkpt><trkpt lat="43.8102362" lon="12.693633"><ele>246.0</ele><time>2026-04-06T16:41:18.587Z</time></trkpt><trkpt lat="43.8101821" lon="12.6934781"><ele>243.0</ele><time>2026-04-06T16:41:19.591Z</time></trkpt><trkpt lat="43.8101253" lon="12.6933141"><ele>240.0</ele><time>2026-04-06T16:41:20.587Z</time></trkpt><trkpt lat="43.8100656" lon="12.6931417"><ele>237.0</ele><time>2026-04-06T16:41:21.588Z</time></trkpt><trkpt lat="43.8100027" lon="12.6929579"><ele>236.66666666666669</ele><time>2026-04-06T16:41:22.592Z</time></trkpt><trkpt lat="43.8099399" lon="12.6927589"><ele>236.33333333333334</ele><time>2026-04-06T16:41:23.587Z</time></trkpt><trkpt lat="43.8098646" lon="12.6925658"><ele>236.0</ele><time>2026-04-06T16:41:24.588Z</time></trkpt><trkpt lat="43.8097605" lon="12.6923963"><ele>234.0</ele><time>2026-04-06T16:41:25.587Z</time></trkpt><trkpt lat="43.8096423" lon="12.6922474"><ele>232.0</ele><time>2026-04-06T16:41:26.597Z</time></trkpt><trkpt lat="43.8095201" lon="12.6921077"><ele>230.0</ele><time>2026-04-06T16:41:27.587Z</time></trkpt><trkpt lat="43.8094008" lon="12.6919664"><ele>230.0</ele><time>2026-04-06T16:41:28.587Z</time></trkpt><trkpt lat="43.8092932" lon="12.6918151"><ele>230.0</ele><time>2026-04-06T16:41:29.587Z</time></trkpt><trkpt lat="43.8092004" lon="12.6916606"><ele>230.0</ele><time>2026-04-06T16:41:30.588Z</time></trkpt><trkpt lat="43.809121" lon="12.6915134"><ele>230.0</ele><time>2026-04-06T16:41:31.587Z</time></trkpt><trkpt lat="43.8090535" lon="12.691373"><ele>230.0</ele><time>2026-04-06T16:41:32.586Z</time></trkpt><trkpt lat="43.8089942" lon="12.6912473"><ele>230.0</ele><time>2026-04-06T16:41:33.586Z</time></trkpt><trkpt lat="43.8089461" lon="12.6911373"><ele>230.0</ele><time>2026-04-06T16:41:34.588Z</time></trkpt><trkpt lat="43.8089123" lon="12.6910369"><ele>230.0</ele><time>2026-04-06T16:41:35.589Z</time></trkpt><trkpt lat="43.8088843" lon="12.6909472"><ele>230.0</ele><time>2026-04-06T16:41:36.587Z</time></trkpt><trkpt lat="43.8088675" lon="12.6907909"><ele>230.25</ele><time>2026-04-06T16:41:38.587Z</time></trkpt><trkpt lat="43.8089257" lon="12.6907482"><ele>230.5</ele><time>2026-04-06T16:41:39.588Z</time></trkpt><trkpt lat="43.80903" lon="12.6907371"><ele>230.75</ele><time>2026-04-06T16:41:40.589Z</time></trkpt><trkpt lat="43.8091834" lon="12.690737"><ele>231.0</ele><time>2026-04-06T16:41:41.588Z</time></trkpt><trkpt lat="43.8093382" lon="12.6907368"><ele>227.75</ele><time>2026-04-06T16:41:42.589Z</time></trkpt><trkpt lat="43.8094804" lon="12.6907322"><ele>224.5</ele><time>2026-04-06T16:41:43.586Z</time></trkpt><trkpt lat="43.809605" lon="12.6907306"><ele>221.25</ele><time>2026-04-06T16:41:44.587Z</time></trkpt><trkpt lat="43.8097109" lon="12.690745"><ele>218.0</ele><time>2026-04-06T16:41:45.587Z</time></trkpt><trkpt lat="43.8098032" lon="12.6907898"><ele>218.0</ele><time>2026-04-06T16:41:46.587Z</time></trkpt><trkpt lat="43.8098713" lon="12.6908938"><ele>218.0</ele><time>2026-04-06T16:41:47.587Z</time></trkpt><trkpt lat="43.8099192" lon="12.6910614"><ele>218.0</ele><time>2026-04-06T16:41:48.587Z</time></trkpt><trkpt lat="43.809961" lon="12.691244"><ele>218.0</ele><time>2026-04-06T16:41:49.59Z</time></trkpt><trkpt lat="43.8100097" lon="12.6914111"><ele>219.0</ele><time>2026-04-06T16:41:50.586Z</time></trkpt><trkpt lat="43.8100762" lon="12.6915528"><ele>220.0</ele><time>2026-04-06T16:41:51.587Z</time></trkpt><trkpt lat="43.8101698" lon="12.6916621"><ele>221.0</ele><time>2026-04-06T16:41:52.588Z</time></trkpt><trkpt lat="43.8102947" lon="12.6917293"><ele>222.0</ele><time>2026-04-06T16:41:53.586Z</time></trkpt><trkpt lat="43.8104405" lon="12.6917789"><ele>222.66666666666669</ele><time>2026-04-06T16:41:54.587Z</time></trkpt><trkpt lat="43.8105954" lon="12.6918271"><ele>223.33333333333334</ele><time>2026-04-06T16:41:55.587Z</time></trkpt><trkpt lat="43.8107475" lon="12.6918797"><ele>224.0</ele><time>2026-04-06T16:41:56.586Z</time></trkpt><trkpt lat="43.8108949" lon="12.6919286"><ele>224.75</ele><time>2026-04-06T16:41:57.586Z</time></trkpt><trkpt lat="43.8110308" lon="12.691968"><ele>225.5</ele><time>2026-04-06T16:41:58.586Z</time></trkpt><trkpt lat="43.8111618" lon="12.6920079"><ele>226.25</ele><time>2026-04-06T16:41:59.587Z</time></trkpt><trkpt lat="43.8112853" lon="12.6920161"><ele>227.0</ele><time>2026-04-06T16:42:00.589Z</time></trkpt><trkpt lat="43.8114092" lon="12.691977"><ele>222.0</ele><time>2026-04-06T16:42:01.587Z</time></trkpt><trkpt lat="43.8115345" lon="12.6918989"><ele>217.0</ele><time>2026-04-06T16:42:02.586Z</time></trkpt><trkpt lat="43.8116569" lon="12.6917996"><ele>212.0</ele><time>2026-04-06T16:42:03.586Z</time></trkpt><trkpt lat="43.811774" lon="12.6917006"><ele>207.0</ele><time>2026-04-06T16:42:04.586Z</time></trkpt><trkpt lat="43.8118877" lon="12.6916088"><ele>206.0</ele><time>2026-04-06T16:42:05.588Z</time></trkpt><trkpt lat="43.8119994" lon="12.6915444"><ele>205.0</ele><time>2026-04-06T16:42:06.589Z</time></trkpt><trkpt lat="43.8121211" lon="12.6915197"><ele>204.0</ele><time>2026-04-06T16:42:07.588Z</time></trkpt><trkpt lat="43.812252" lon="12.6915291"><ele>203.0</ele><time>2026-04-06T16:42:08.587Z</time></trkpt><trkpt lat="43.8123812" lon="12.6915472"><ele>203.0</ele><time>2026-04-06T16:42:09.586Z</time></trkpt><trkpt lat="43.8125087" lon="12.69153"><ele>203.0</ele><time>2026-04-06T16:42:10.588Z</time></trkpt><trkpt lat="43.8126362" lon="12.6914515"><ele>203.0</ele><time>2026-04-06T16:42:11.587Z</time></trkpt><trkpt lat="43.8127574" lon="12.6913242"><ele>203.0</ele><time>2026-04-06T16:42:12.586Z</time></trkpt><trkpt lat="43.8128715" lon="12.6911573"><ele>204.0</ele><time>2026-04-06T16:42:13.587Z</time></trkpt><trkpt lat="43.8129738" lon="12.6909794"><ele>205.0</ele><time>2026-04-06T16:42:14.586Z</time></trkpt><trkpt lat="43.8130459" lon="12.6907828"><ele>206.0</ele><time>2026-04-06T16:42:15.586Z</time></trkpt><trkpt lat="43.8130993" lon="12.6905786"><ele>206.0</ele><time>2026-04-06T16:42:16.588Z</time></trkpt><trkpt lat="43.8131333" lon="12.6903653"><ele>206.0</ele><time>2026-04-06T16:42:17.586Z</time></trkpt><trkpt lat="43.8131617" lon="12.69016"><ele>206.0</ele><time>2026-04-06T16:42:18.585Z</time></trkpt><trkpt lat="43.8131854" lon="12.6899652"><ele>204.0</ele><time>2026-04-06T16:42:19.586Z</time></trkpt><trkpt lat="43.8132076" lon="12.6897858"><ele>202.0</ele><time>2026-04-06T16:42:20.585Z</time></trkpt><trkpt lat="43.8132367" lon="12.6896172"><ele>200.0</ele><time>2026-04-06T16:42:21.586Z</time></trkpt><trkpt lat="43.8132766" lon="12.6894656"><ele>198.0</ele><time>2026-04-06T16:42:22.586Z</time></trkpt><trkpt lat="43.8133317" lon="12.6893178"><ele>197.25</ele><time>2026-04-06T16:42:23.586Z</time></trkpt><trkpt lat="43.8134043" lon="12.6891746"><ele>196.5</ele><time>2026-04-06T16:42:24.586Z</time></trkpt><trkpt lat="43.8134919" lon="12.6890531"><ele>195.75</ele><time>2026-04-06T16:42:25.594Z</time></trkpt><trkpt lat="43.813589" lon="12.6889505"><ele>195.0</ele><time>2026-04-06T16:42:26.585Z</time></trkpt><trkpt lat="43.8136875" lon="12.6888538"><ele>195.0</ele><time>2026-04-06T16:42:27.586Z</time></trkpt><trkpt lat="43.8137861" lon="12.6887474"><ele>195.0</ele><time>2026-04-06T16:42:28.586Z</time></trkpt><trkpt lat="43.8138863" lon="12.688629"><ele>195.0</ele><time>2026-04-06T16:42:29.586Z</time></trkpt><trkpt lat="43.8139868" lon="12.688493"><ele>195.0</ele><time>2026-04-06T16:42:30.588Z</time></trkpt><trkpt lat="43.8140875" lon="12.688351"><ele>196.25</ele><time>2026-04-06T16:42:31.586Z</time></trkpt><trkpt lat="43.8141866" lon="12.6882137"><ele>197.5</ele><time>2026-04-06T16:42:32.588Z</time></trkpt><trkpt lat="43.8142848" lon="12.688081"><ele>198.75</ele><time>2026-04-06T16:42:33.587Z</time></trkpt><trkpt lat="43.8143812" lon="12.6879585"><ele>200.0</ele><time>2026-04-06T16:42:34.587Z</time></trkpt><trkpt lat="43.8144748" lon="12.6878369"><ele>195.75</ele><time>2026-04-06T16:42:35.587Z</time></trkpt><trkpt lat="43.814563" lon="12.6877083"><ele>191.5</ele><time>2026-04-06T16:42:36.586Z</time></trkpt><trkpt lat="43.8146503" lon="12.687566"><ele>187.25</ele><time>2026-04-06T16:42:37.587Z</time></trkpt><trkpt lat="43.814732" lon="12.6874072"><ele>183.0</ele><time>2026-04-06T16:42:38.586Z</time></trkpt><trkpt lat="43.8148004" lon="12.6872299"><ele>183.0</ele><time>2026-04-06T16:42:39.586Z</time></trkpt><trkpt lat="43.8148571" lon="12.6870358"><ele>183.0</ele><time>2026-04-06T16:42:40.586Z</time></trkpt><trkpt lat="43.8149102" lon="12.686842"><ele>183.0</ele><time>2026-04-06T16:42:41.586Z</time></trkpt><trkpt lat="43.8149688" lon="12.6866631"><ele>183.0</ele><time>2026-04-06T16:42:42.586Z</time></trkpt><trkpt lat="43.8150286" lon="12.6864962"><ele>179.0</ele><time>2026-04-06T16:42:43.586Z</time></trkpt><trkpt lat="43.8150913" lon="12.6863429"><ele>175.0</ele><time>2026-04-06T16:42:44.586Z</time></trkpt><trkpt lat="43.8151494" lon="12.6861991"><ele>171.0</ele><time>2026-04-06T16:42:45.587Z</time></trkpt><trkpt lat="43.8151985" lon="12.6860496"><ele>167.0</ele><time>2026-04-06T16:42:46.587Z</time></trkpt><trkpt lat="43.8152327" lon="12.6858933"><ele>164.6</ele><time>2026-04-06T16:42:47.586Z</time></trkpt><trkpt lat="43.8152568" lon="12.6857397"><ele>162.2</ele><time>2026-04-06T16:42:48.588Z</time></trkpt><trkpt lat="43.8152755" lon="12.68559"><ele>159.8</ele><time>2026-04-06T16:42:49.587Z</time></trkpt><trkpt lat="43.8153043" lon="12.6854656"><ele>157.4</ele><time>2026-04-06T16:42:50.587Z</time></trkpt><trkpt lat="43.8153534" lon="12.6853717"><ele>155.0</ele><time>2026-04-06T16:42:51.586Z</time></trkpt><trkpt lat="43.8154162" lon="12.685311"><ele>155.0</ele><time>2026-04-06T16:42:52.585Z</time></trkpt><trkpt lat="43.8154894" lon="12.6852785"><ele>155.0</ele><time>2026-04-06T16:42:53.586Z</time></trkpt><trkpt lat="43.8155749" lon="12.6853391"><ele>155.0</ele><time>2026-04-06T16:42:54.587Z</time></trkpt><trkpt lat="43.8156591" lon="12.6854614"><ele>155.0</ele><time>2026-04-06T16:42:55.586Z</time></trkpt><trkpt lat="43.8157307" lon="12.6856437"><ele>155.0</ele><time>2026-04-06T16:42:56.586Z</time></trkpt><trkpt lat="43.8158087" lon="12.6858259"><ele>155.0</ele><time>2026-04-06T16:42:57.587Z</time></trkpt><trkpt lat="43.8159128" lon="12.6859626"><ele>155.0</ele><time>2026-04-06T16:42:58.585Z</time></trkpt><trkpt lat="43.8160439" lon="12.6860431"><ele>155.0</ele><time>2026-04-06T16:42:59.585Z</time></trkpt><trkpt lat="43.8161932" lon="12.6860681"><ele>155.0</ele><time>2026-04-06T16:43:00.587Z</time></trkpt><trkpt lat="43.8163455" lon="12.6860414"><ele>152.5</ele><time>2026-04-06T16:43:01.586Z</time></trkpt><trkpt lat="43.8164858" lon="12.6859992"><ele>150.0</ele><time>2026-04-06T16:43:02.586Z</time></trkpt><trkpt lat="43.816612" lon="12.6859573"><ele>147.5</ele><time>2026-04-06T16:43:03.587Z</time></trkpt><trkpt lat="43.8167205" lon="12.6859187"><ele>145.0</ele><time>2026-04-06T16:43:04.587Z</time></trkpt><trkpt lat="43.8168156" lon="12.6858773"><ele>145.4</ele><time>2026-04-06T16:43:05.586Z</time></trkpt><trkpt lat="43.8169022" lon="12.6858277"><ele>145.8</ele><time>2026-04-06T16:43:06.587Z</time></trkpt><trkpt lat="43.8169708" lon="12.6857535"><ele>146.2</ele><time>2026-04-06T16:43:07.586Z</time></trkpt><trkpt lat="43.8170122" lon="12.6856468"><ele>146.6</ele><time>2026-04-06T16:43:08.585Z</time></trkpt><trkpt lat="43.8169994" lon="12.6855077"><ele>147.0</ele><time>2026-04-06T16:43:09.585Z</time></trkpt><trkpt lat="43.8169257" lon="12.6853744"><ele>142.66666666666666</ele><time>2026-04-06T16:43:10.584Z</time></trkpt><trkpt lat="43.8168198" lon="12.6852618"><ele>138.33333333333331</ele><time>2026-04-06T16:43:11.584Z</time></trkpt><trkpt lat="43.8166761" lon="12.6851739"><ele>134.0</ele><time>2026-04-06T16:43:12.584Z</time></trkpt><trkpt lat="43.8165265" lon="12.6850831"><ele>134.0</ele><time>2026-04-06T16:43:13.585Z</time></trkpt><trkpt lat="43.8163954" lon="12.6849893"><ele>134.0</ele><time>2026-04-06T16:43:14.584Z</time></trkpt><trkpt lat="43.8162809" lon="12.6848948"><ele>134.0</ele><time>2026-04-06T16:43:15.584Z</time></trkpt><trkpt lat="43.8161768" lon="12.6847959"><ele>134.0</ele><time>2026-04-06T16:43:16.585Z</time></trkpt><trkpt lat="43.8160913" lon="12.684684"><ele>134.0</ele><time>2026-04-06T16:43:17.584Z</time></trkpt><trkpt lat="43.8160193" lon="12.6845681"><ele>134.0</ele><time>2026-04-06T16:43:18.585Z</time></trkpt><trkpt lat="43.8159605" lon="12.6844494"><ele>134.0</ele><time>2026-04-06T16:43:19.587Z</time></trkpt><trkpt lat="43.8159208" lon="12.6843194"><ele>134.0</ele><time>2026-04-06T16:43:20.585Z</time></trkpt><trkpt lat="43.8158987" lon="12.6841856"><ele>134.0</ele><time>2026-04-06T16:43:21.584Z</time></trkpt><trkpt lat="43.815904" lon="12.6840432"><ele>133.0</ele><time>2026-04-06T16:43:22.585Z</time></trkpt><trkpt lat="43.8159251" lon="12.6838937"><ele>132.0</ele><time>2026-04-06T16:43:23.585Z</time></trkpt><trkpt lat="43.8159722" lon="12.6837484"><ele>131.0</ele><time>2026-04-06T16:43:24.584Z</time></trkpt><trkpt lat="43.8160333" lon="12.6836088"><ele>130.0</ele><time>2026-04-06T16:43:25.585Z</time></trkpt><trkpt lat="43.8161036" lon="12.6834827"><ele>128.0</ele><time>2026-04-06T16:43:26.586Z</time></trkpt><trkpt lat="43.8161844" lon="12.6833834"><ele>126.0</ele><time>2026-04-06T16:43:27.584Z</time></trkpt><trkpt lat="43.8162804" lon="12.6833094"><ele>124.0</ele><time>2026-04-06T16:43:28.584Z</time></trkpt><trkpt lat="43.8163932" lon="12.6832805"><ele>122.0</ele><time>2026-04-06T16:43:29.584Z</time></trkpt><trkpt lat="43.8165118" lon="12.683284"><ele>122.0</ele><time>2026-04-06T16:43:30.584Z</time></trkpt><trkpt lat="43.8166303" lon="12.6833382"><ele>122.0</ele><time>2026-04-06T16:43:31.586Z</time></trkpt><trkpt lat="43.8167419" lon="12.6834212"><ele>122.0</ele><time>2026-04-06T16:43:32.584Z</time></trkpt><trkpt lat="43.8168587" lon="12.6835266"><ele>122.0</ele><time>2026-04-06T16:43:33.586Z</time></trkpt><trkpt lat="43.8169748" lon="12.6836273"><ele>122.25</ele><time>2026-04-06T16:43:34.585Z</time></trkpt><trkpt lat="43.8170899" lon="12.6837143"><ele>122.5</ele><time>2026-04-06T16:43:35.584Z</time></trkpt><trkpt lat="43.8171955" lon="12.6837922"><ele>122.75</ele><time>2026-04-06T16:43:36.584Z</time></trkpt><trkpt lat="43.8172942" lon="12.6838691"><ele>123.0</ele><time>2026-04-06T16:43:37.585Z</time></trkpt><trkpt lat="43.8173893" lon="12.6839502"><ele>123.0</ele><time>2026-04-06T16:43:38.584Z</time></trkpt><trkpt lat="43.8174869" lon="12.6840351"><ele>123.0</ele><time>2026-04-06T16:43:39.585Z</time></trkpt><trkpt lat="43.817588" lon="12.6841203"><ele>123.0</ele><time>2026-04-06T16:43:40.584Z</time></trkpt><trkpt lat="43.8176928" lon="12.6841958"><ele>123.0</ele><time>2026-04-06T16:43:41.584Z</time></trkpt><trkpt lat="43.8178022" lon="12.6842422"><ele>121.25</ele><time>2026-04-06T16:43:42.585Z</time></trkpt><trkpt lat="43.8179099" lon="12.6842455"><ele>119.5</ele><time>2026-04-06T16:43:43.585Z</time></trkpt><trkpt lat="43.8180168" lon="12.6842076"><ele>117.75</ele><time>2026-04-06T16:43:44.586Z</time></trkpt><trkpt lat="43.8181191" lon="12.6841166"><ele>116.0</ele><time>2026-04-06T16:43:45.584Z</time></trkpt><trkpt lat="43.8182076" lon="12.6839886"><ele>116.0</ele><time>2026-04-06T16:43:46.585Z</time></trkpt><trkpt lat="43.8182843" lon="12.6838394"><ele>116.0</ele><time>2026-04-06T16:43:47.586Z</time></trkpt><trkpt lat="43.8183567" lon="12.6836912"><ele>116.0</ele><time>2026-04-06T16:43:48.584Z</time></trkpt><trkpt lat="43.818429" lon="12.6835489"><ele>116.0</ele><time>2026-04-06T16:43:49.585Z</time></trkpt><trkpt lat="43.8185004" lon="12.6834161"><ele>113.4</ele><time>2026-04-06T16:43:50.584Z</time></trkpt><trkpt lat="43.8185706" lon="12.6832885"><ele>110.8</ele><time>2026-04-06T16:43:51.585Z</time></trkpt><trkpt lat="43.8186458" lon="12.6831697"><ele>108.2</ele><time>2026-04-06T16:43:52.584Z</time></trkpt><trkpt lat="43.8187278" lon="12.6830629"><ele>105.60000000000001</ele><time>2026-04-06T16:43:53.585Z</time></trkpt><trkpt lat="43.8188154" lon="12.6829883"><ele>103.0</ele><time>2026-04-06T16:43:54.584Z</time></trkpt><trkpt lat="43.8189146" lon="12.6829497"><ele>103.0</ele><time>2026-04-06T16:43:55.585Z</time></trkpt><trkpt lat="43.8190263" lon="12.6829651"><ele>103.0</ele><time>2026-04-06T16:43:56.586Z</time></trkpt><trkpt lat="43.819141" lon="12.6830119"><ele>103.0</ele><time>2026-04-06T16:43:57.584Z</time></trkpt><trkpt lat="43.819256" lon="12.6830995"><ele>103.0</ele><time>2026-04-06T16:43:58.585Z</time></trkpt><trkpt lat="43.8193704" lon="12.6831959"><ele>101.0</ele><time>2026-04-06T16:43:59.585Z</time></trkpt><trkpt lat="43.819482" lon="12.6832875"><ele>99.0</ele><time>2026-04-06T16:44:00.586Z</time></trkpt><trkpt lat="43.8195951" lon="12.6833676"><ele>97.0</ele><time>2026-04-06T16:44:01.585Z</time></trkpt><trkpt lat="43.8197055" lon="12.6834372"><ele>95.0</ele><time>2026-04-06T16:44:02.585Z</time></trkpt><trkpt lat="43.8198206" lon="12.6834802"><ele>95.0</ele><time>2026-04-06T16:44:03.587Z</time></trkpt><trkpt lat="43.8199344" lon="12.683523"><ele>95.0</ele><time>2026-04-06T16:44:04.588Z</time></trkpt><trkpt lat="43.8200466" lon="12.6835568"><ele>95.0</ele><time>2026-04-06T16:44:05.585Z</time></trkpt><trkpt lat="43.820161" lon="12.6835761"><ele>95.0</ele><time>2026-04-06T16:44:06.585Z</time></trkpt><trkpt lat="43.820276" lon="12.6835664"><ele>94.25</ele><time>2026-04-06T16:44:07.586Z</time></trkpt><trkpt lat="43.820385" lon="12.6835267"><ele>93.5</ele><time>2026-04-06T16:44:08.585Z</time></trkpt><trkpt lat="43.8204863" lon="12.6834415"><ele>92.75</ele><time>2026-04-06T16:44:09.585Z</time></trkpt><trkpt lat="43.8205785" lon="12.6833156"><ele>92.0</ele><time>2026-04-06T16:44:10.584Z</time></trkpt><trkpt lat="43.8206689" lon="12.6831843"><ele>92.0</ele><time>2026-04-06T16:44:11.585Z</time></trkpt><trkpt lat="43.8207589" lon="12.6830553"><ele>92.0</ele><time>2026-04-06T16:44:12.586Z</time></trkpt><trkpt lat="43.82084" lon="12.6829066"><ele>92.0</ele><time>2026-04-06T16:44:13.586Z</time></trkpt><trkpt lat="43.8209117" lon="12.6827512"><ele>92.0</ele><time>2026-04-06T16:44:14.585Z</time></trkpt><trkpt lat="43.8209811" lon="12.6826016"><ele>89.5</ele><time>2026-04-06T16:44:15.584Z</time></trkpt><trkpt lat="43.8210461" lon="12.6824622"><ele>87.0</ele><time>2026-04-06T16:44:16.585Z</time></trkpt><trkpt lat="43.8211102" lon="12.6823302"><ele>84.5</ele><time>2026-04-06T16:44:17.585Z</time></trkpt><trkpt lat="43.8211746" lon="12.6821991"><ele>82.0</ele><time>2026-04-06T16:44:18.585Z</time></trkpt><trkpt lat="43.821241" lon="12.6820779"><ele>82.0</ele><time>2026-04-06T16:44:19.586Z</time></trkpt><trkpt lat="43.8213147" lon="12.6819729"><ele>82.0</ele><time>2026-04-06T16:44:20.584Z</time></trkpt><trkpt lat="43.8213958" lon="12.681891"><ele>82.0</ele><time>2026-04-06T16:44:21.586Z</time></trkpt><trkpt lat="43.8214867" lon="12.6818374"><ele>82.0</ele><time>2026-04-06T16:44:22.585Z</time></trkpt><trkpt lat="43.821586" lon="12.6818101"><ele>82.0</ele><time>2026-04-06T16:44:23.586Z</time></trkpt><trkpt lat="43.8216932" lon="12.6818089"><ele>81.39999999999999</ele><time>2026-04-06T16:44:24.586Z</time></trkpt><trkpt lat="43.821803" lon="12.6818237"><ele>80.8</ele><time>2026-04-06T16:44:25.586Z</time></trkpt><trkpt lat="43.8219115" lon="12.6818505"><ele>80.2</ele><time>2026-04-06T16:44:26.584Z</time></trkpt><trkpt lat="43.8220122" lon="12.6818853"><ele>79.6</ele><time>2026-04-06T16:44:27.586Z</time></trkpt><trkpt lat="43.8221036" lon="12.6819334"><ele>79.0</ele><time>2026-04-06T16:44:28.586Z</time></trkpt><trkpt lat="43.8221885" lon="12.6819891"><ele>79.0</ele><time>2026-04-06T16:44:29.585Z</time></trkpt><trkpt lat="43.8222682" lon="12.6820529"><ele>79.0</ele><time>2026-04-06T16:44:30.586Z</time></trkpt><trkpt lat="43.8223449" lon="12.6821306"><ele>79.0</ele><time>2026-04-06T16:44:31.585Z</time></trkpt><trkpt lat="43.822415" lon="12.6822237"><ele>79.0</ele><time>2026-04-06T16:44:32.584Z</time></trkpt><trkpt lat="43.8224773" lon="12.682322"><ele>79.0</ele><time>2026-04-06T16:44:33.584Z</time></trkpt><trkpt lat="43.8225354" lon="12.6824148"><ele>79.0</ele><time>2026-04-06T16:44:34.584Z</time></trkpt><trkpt lat="43.822596" lon="12.6824946"><ele>79.0</ele><time>2026-04-06T16:44:35.584Z</time></trkpt><trkpt lat="43.8226614" lon="12.6825567"><ele>79.0</ele><time>2026-04-06T16:44:36.585Z</time></trkpt><trkpt lat="43.8227319" lon="12.6826002"><ele>79.0</ele><time>2026-04-06T16:44:37.585Z</time></trkpt><trkpt lat="43.8227991" lon="12.6826437"><ele>79.0</ele><time>2026-04-06T16:44:38.584Z</time></trkpt><trkpt lat="43.8228627" lon="12.6827045"><ele>79.0</ele><time>2026-04-06T16:44:39.586Z</time></trkpt><trkpt lat="43.8229184" lon="12.6827866"><ele>77.83333333333333</ele><time>2026-04-06T16:44:40.584Z</time></trkpt><trkpt lat="43.8229576" lon="12.6828881"><ele>76.66666666666666</ele><time>2026-04-06T16:44:41.585Z</time></trkpt><trkpt lat="43.8229986" lon="12.6829903"><ele>75.5</ele><time>2026-04-06T16:44:42.586Z</time></trkpt><trkpt lat="43.8230405" lon="12.683094"><ele>74.33333333333333</ele><time>2026-04-06T16:44:43.584Z</time></trkpt><trkpt lat="43.8230813" lon="12.6831968"><ele>73.16666666666667</ele><time>2026-04-06T16:44:44.584Z</time></trkpt><trkpt lat="43.8231232" lon="12.6833032"><ele>72.0</ele><time>2026-04-06T16:44:45.586Z</time></trkpt><trkpt lat="43.8231597" lon="12.6834143"><ele>72.0</ele><time>2026-04-06T16:44:46.585Z</time></trkpt><trkpt lat="43.8232015" lon="12.6835258"><ele>72.0</ele><time>2026-04-06T16:44:47.585Z</time></trkpt><trkpt lat="43.8232498" lon="12.6836368"><ele>72.0</ele><time>2026-04-06T16:44:48.585Z</time></trkpt><trkpt lat="43.8233015" lon="12.6837441"><ele>72.0</ele><time>2026-04-06T16:44:49.586Z</time></trkpt><trkpt lat="43.8233594" lon="12.683848"><ele>72.0</ele><time>2026-04-06T16:44:50.585Z</time></trkpt><trkpt lat="43.8234202" lon="12.6839546"><ele>71.8</ele><time>2026-04-06T16:44:51.584Z</time></trkpt><trkpt lat="43.823477" lon="12.6840529"><ele>71.6</ele><time>2026-04-06T16:44:52.586Z</time></trkpt><trkpt lat="43.8235372" lon="12.6841407"><ele>71.39999999999999</ele><time>2026-04-06T16:44:53.585Z</time></trkpt><trkpt lat="43.8235984" lon="12.684229"><ele>71.2</ele><time>2026-04-06T16:44:54.585Z</time></trkpt><trkpt lat="43.8236561" lon="12.6843342"><ele>71.0</ele><time>2026-04-06T16:44:55.584Z</time></trkpt><trkpt lat="43.8237211" lon="12.6844431"><ele>72.39999999999999</ele><time>2026-04-06T16:44:56.585Z</time></trkpt><trkpt lat="43.823789" lon="12.6845589"><ele>73.8</ele><time>2026-04-06T16:44:57.585Z</time></trkpt><trkpt lat="43.8238553" lon="12.6846794"><ele>75.19999999999999</ele><time>2026-04-06T16:44:58.585Z</time></trkpt><trkpt lat="43.823922" lon="12.6847931"><ele>76.6</ele><time>2026-04-06T16:44:59.587Z</time></trkpt><trkpt lat="43.8239899" lon="12.6849063"><ele>78.0</ele><time>2026-04-06T16:45:00.586Z</time></trkpt><trkpt lat="43.8240606" lon="12.685019"><ele>78.0</ele><time>2026-04-06T16:45:01.586Z</time></trkpt><trkpt lat="43.8241253" lon="12.685135"><ele>78.0</ele><time>2026-04-06T16:45:02.584Z</time></trkpt><trkpt lat="43.8241878" lon="12.685257"><ele>78.0</ele><time>2026-04-06T16:45:03.584Z</time></trkpt><trkpt lat="43.8242511" lon="12.6853803"><ele>78.0</ele><time>2026-04-06T16:45:04.585Z</time></trkpt><trkpt lat="43.8243142" lon="12.6855015"><ele>78.0</ele><time>2026-04-06T16:45:05.587Z</time></trkpt><trkpt lat="43.8243813" lon="12.6856232"><ele>77.75</ele><time>2026-04-06T16:45:06.586Z</time></trkpt><trkpt lat="43.8244482" lon="12.6857515"><ele>77.5</ele><time>2026-04-06T16:45:07.585Z</time></trkpt><trkpt lat="43.8245135" lon="12.6858813"><ele>77.25</ele><time>2026-04-06T16:45:08.584Z</time></trkpt><trkpt lat="43.8245773" lon="12.6860112"><ele>77.0</ele><time>2026-04-06T16:45:09.585Z</time></trkpt><trkpt lat="43.8246396" lon="12.6861433"><ele>77.0</ele><time>2026-04-06T16:45:10.586Z</time></trkpt><trkpt lat="43.8247034" lon="12.6862717"><ele>77.0</ele><time>2026-04-06T16:45:11.586Z</time></trkpt><trkpt lat="43.8247629" lon="12.6864017"><ele>77.0</ele><time>2026-04-06T16:45:12.584Z</time></trkpt><trkpt lat="43.8248253" lon="12.6865322"><ele>77.0</ele><time>2026-04-06T16:45:13.587Z</time></trkpt><trkpt lat="43.8248899" lon="12.6866625"><ele>77.0</ele><time>2026-04-06T16:45:14.586Z</time></trkpt><trkpt lat="43.824955" lon="12.6867933"><ele>77.0</ele><time>2026-04-06T16:45:15.586Z</time></trkpt><trkpt lat="43.8250189" lon="12.6869145"><ele>77.0</ele><time>2026-04-06T16:45:16.587Z</time></trkpt><trkpt lat="43.8250805" lon="12.6870348"><ele>77.0</ele><time>2026-04-06T16:45:17.588Z</time></trkpt><trkpt lat="43.8251407" lon="12.6871609"><ele>77.0</ele><time>2026-04-06T16:45:18.586Z</time></trkpt><trkpt lat="43.8252031" lon="12.687289"><ele>76.25</ele><time>2026-04-06T16:45:19.588Z</time></trkpt><trkpt lat="43.8252634" lon="12.6874245"><ele>75.5</ele><time>2026-04-06T16:45:20.586Z</time></trkpt><trkpt lat="43.825322" lon="12.6875651"><ele>74.75</ele><time>2026-04-06T16:45:21.587Z</time></trkpt><trkpt lat="43.8253737" lon="12.6877103"><ele>74.0</ele><time>2026-04-06T16:45:22.586Z</time></trkpt><trkpt lat="43.8254262" lon="12.6878536"><ele>74.0</ele><time>2026-04-06T16:45:23.586Z</time></trkpt><trkpt lat="43.8254792" lon="12.6880022"><ele>74.0</ele><time>2026-04-06T16:45:24.587Z</time></trkpt><trkpt lat="43.8255351" lon="12.6881498"><ele>74.0</ele><time>2026-04-06T16:45:25.586Z</time></trkpt><trkpt lat="43.8255967" lon="12.6883012"><ele>74.0</ele><time>2026-04-06T16:45:26.586Z</time></trkpt><trkpt lat="43.825656" lon="12.6884378"><ele>74.0</ele><time>2026-04-06T16:45:27.586Z</time></trkpt><trkpt lat="43.8257146" lon="12.6885679"><ele>74.0</ele><time>2026-04-06T16:45:28.589Z</time></trkpt><trkpt lat="43.8257733" lon="12.6886967"><ele>74.0</ele><time>2026-04-06T16:45:29.587Z</time></trkpt><trkpt lat="43.8258388" lon="12.6888176"><ele>74.0</ele><time>2026-04-06T16:45:30.586Z</time></trkpt><trkpt lat="43.8259112" lon="12.688932"><ele>74.0</ele><time>2026-04-06T16:45:31.587Z</time></trkpt><trkpt lat="43.8259851" lon="12.6890412"><ele>74.2</ele><time>2026-04-06T16:45:32.586Z</time></trkpt><trkpt lat="43.8260577" lon="12.6891418"><ele>74.4</ele><time>2026-04-06T16:45:33.585Z</time></trkpt><trkpt lat="43.8261311" lon="12.689243"><ele>74.6</ele><time>2026-04-06T16:45:34.587Z</time></trkpt><trkpt lat="43.8262044" lon="12.6893505"><ele>74.8</ele><time>2026-04-06T16:45:35.585Z</time></trkpt><trkpt lat="43.8262816" lon="12.6894537"><ele>75.0</ele><time>2026-04-06T16:45:36.586Z</time></trkpt><trkpt lat="43.8263555" lon="12.6895556"><ele>77.4</ele><time>2026-04-06T16:45:37.585Z</time></trkpt><trkpt lat="43.8264122" lon="12.689665"><ele>79.8</ele><time>2026-04-06T16:45:38.584Z</time></trkpt><trkpt lat="43.8264699" lon="12.6897748"><ele>82.19999999999999</ele><time>2026-04-06T16:45:39.585Z</time></trkpt><trkpt lat="43.8265191" lon="12.6898953"><ele>84.6</ele><time>2026-04-06T16:45:40.584Z</time></trkpt><trkpt lat="43.8265387" lon="12.6900254"><ele>87.0</ele><time>2026-04-06T16:45:41.585Z</time></trkpt><trkpt lat="43.8265458" lon="12.690163"><ele>88.8</ele><time>2026-04-06T16:45:42.587Z</time></trkpt><trkpt lat="43.8265629" lon="12.6902978"><ele>90.6</ele><time>2026-04-06T16:45:43.585Z</time></trkpt><trkpt lat="43.8265941" lon="12.6904183"><ele>92.39999999999999</ele><time>2026-04-06T16:45:44.585Z</time></trkpt><trkpt lat="43.8266443" lon="12.6905259"><ele>94.19999999999999</ele><time>2026-04-06T16:45:45.584Z</time></trkpt><trkpt lat="43.8267096" lon="12.6906282"><ele>96.0</ele><time>2026-04-06T16:45:46.586Z</time></trkpt><trkpt lat="43.8267891" lon="12.6907019"><ele>95.83333333333333</ele><time>2026-04-06T16:45:47.586Z</time></trkpt><trkpt lat="43.8268785" lon="12.6907581"><ele>95.66666666666667</ele><time>2026-04-06T16:45:48.592Z</time></trkpt><trkpt lat="43.8269719" lon="12.6908172"><ele>95.5</ele><time>2026-04-06T16:45:49.585Z</time></trkpt><trkpt lat="43.8270519" lon="12.6908657"><ele>95.33333333333334</ele><time>2026-04-06T16:45:50.586Z</time></trkpt><trkpt lat="43.8271124" lon="12.6909364"><ele>95.16666666666667</ele><time>2026-04-06T16:45:51.586Z</time></trkpt><trkpt lat="43.827149" lon="12.6910232"><ele>95.0</ele><time>2026-04-06T16:45:52.585Z</time></trkpt><trkpt lat="43.8271614" lon="12.6911224"><ele>95.0</ele><time>2026-04-06T16:45:53.584Z</time></trkpt><trkpt lat="43.8271357" lon="12.6912386"><ele>95.0</ele><time>2026-04-06T16:45:54.586Z</time></trkpt><trkpt lat="43.8271036" lon="12.6913614"><ele>95.0</ele><time>2026-04-06T16:45:55.585Z</time></trkpt><trkpt lat="43.827037" lon="12.6914916"><ele>95.0</ele><time>2026-04-06T16:45:56.585Z</time></trkpt><trkpt lat="43.8269563" lon="12.6916105"><ele>95.0</ele><time>2026-04-06T16:45:57.584Z</time></trkpt><trkpt lat="43.826872" lon="12.6917286"><ele>96.0</ele><time>2026-04-06T16:45:58.585Z</time></trkpt><trkpt lat="43.82679" lon="12.6918459"><ele>97.0</ele><time>2026-04-06T16:45:59.585Z</time></trkpt><trkpt lat="43.826709" lon="12.6919605"><ele>98.0</ele><time>2026-04-06T16:46:00.587Z</time></trkpt><trkpt lat="43.8266298" lon="12.692078"><ele>99.0</ele><time>2026-04-06T16:46:01.587Z</time></trkpt><trkpt lat="43.82655" lon="12.6921976"><ele>99.6</ele><time>2026-04-06T16:46:02.593Z</time></trkpt><trkpt lat="43.8264702" lon="12.692308"><ele>100.2</ele><time>2026-04-06T16:46:03.588Z</time></trkpt><trkpt lat="43.8263981" lon="12.6924087"><ele>100.8</ele><time>2026-04-06T16:46:04.587Z</time></trkpt><trkpt lat="43.826346" lon="12.6925079"><ele>101.39999999999999</ele><time>2026-04-06T16:46:05.585Z</time></trkpt><trkpt lat="43.8263096" lon="12.6926091"><ele>102.0</ele><time>2026-04-06T16:46:06.587Z</time></trkpt><trkpt lat="43.8262983" lon="12.6927267"><ele>102.19999999999999</ele><time>2026-04-06T16:46:07.587Z</time></trkpt><trkpt lat="43.826305" lon="12.6928518"><ele>102.4</ele><time>2026-04-06T16:46:08.584Z</time></trkpt><trkpt lat="43.8263229" lon="12.6929757"><ele>102.6</ele><time>2026-04-06T16:46:09.586Z</time></trkpt><trkpt lat="43.8263643" lon="12.693095"><ele>102.80000000000001</ele><time>2026-04-06T16:46:10.584Z</time></trkpt><trkpt lat="43.8264106" lon="12.693213"><ele>103.0</ele><time>2026-04-06T16:46:11.584Z</time></trkpt><trkpt lat="43.8264681" lon="12.6933372"><ele>103.0</ele><time>2026-04-06T16:46:12.585Z</time></trkpt><trkpt lat="43.8265401" lon="12.6934666"><ele>103.0</ele><time>2026-04-06T16:46:13.585Z</time></trkpt><trkpt lat="43.8266207" lon="12.6936037"><ele>103.0</ele><time>2026-04-06T16:46:14.585Z</time></trkpt><trkpt lat="43.8267078" lon="12.693745"><ele>103.0</ele><time>2026-04-06T16:46:15.585Z</time></trkpt><trkpt lat="43.8268025" lon="12.6938922"><ele>102.0</ele><time>2026-04-06T16:46:16.585Z</time></trkpt><trkpt lat="43.8269056" lon="12.6940316"><ele>101.0</ele><time>2026-04-06T16:46:17.585Z</time></trkpt><trkpt lat="43.8270279" lon="12.6941478"><ele>100.0</ele><time>2026-04-06T16:46:18.585Z</time></trkpt><trkpt lat="43.8271546" lon="12.6942495"><ele>99.0</ele><time>2026-04-06T16:46:19.587Z</time></trkpt><trkpt lat="43.8272685" lon="12.6943422"><ele>98.5</ele><time>2026-04-06T16:46:20.584Z</time></trkpt><trkpt lat="43.8273728" lon="12.6944326"><ele>98.0</ele><time>2026-04-06T16:46:21.584Z</time></trkpt><trkpt lat="43.8274722" lon="12.6945197"><ele>97.5</ele><time>2026-04-06T16:46:22.585Z</time></trkpt><trkpt lat="43.8275666" lon="12.6946178"><ele>97.0</ele><time>2026-04-06T16:46:23.585Z</time></trkpt><trkpt lat="43.8276613" lon="12.6947311"><ele>97.0</ele><time>2026-04-06T16:46:24.584Z</time></trkpt><trkpt lat="43.827755" lon="12.6948403"><ele>97.0</ele><time>2026-04-06T16:46:25.586Z</time></trkpt><trkpt lat="43.8278392" lon="12.6949638"><ele>97.0</ele><time>2026-04-06T16:46:26.584Z</time></trkpt><trkpt lat="43.8279161" lon="12.6950691"><ele>97.0</ele><time>2026-04-06T16:46:27.584Z</time></trkpt><trkpt lat="43.8279905" lon="12.6951807"><ele>97.5</ele><time>2026-04-06T16:46:28.585Z</time></trkpt><trkpt lat="43.8280603" lon="12.695312"><ele>98.0</ele><time>2026-04-06T16:46:29.586Z</time></trkpt><trkpt lat="43.8281271" lon="12.6954557"><ele>98.5</ele><time>2026-04-06T16:46:30.585Z</time></trkpt><trkpt lat="43.8281946" lon="12.6956012"><ele>99.0</ele><time>2026-04-06T16:46:31.587Z</time></trkpt><trkpt lat="43.8282633" lon="12.6957505"><ele>99.0</ele><time>2026-04-06T16:46:32.584Z</time></trkpt><trkpt lat="43.8283309" lon="12.6959064"><ele>99.0</ele><time>2026-04-06T16:46:33.585Z</time></trkpt><trkpt lat="43.8283981" lon="12.6960614"><ele>99.0</ele><time>2026-04-06T16:46:34.586Z</time></trkpt><trkpt lat="43.8284695" lon="12.6962049"><ele>99.0</ele><time>2026-04-06T16:46:35.585Z</time></trkpt><trkpt lat="43.8285358" lon="12.696354"><ele>98.25</ele><time>2026-04-06T16:46:36.586Z</time></trkpt><trkpt lat="43.8285984" lon="12.6965121"><ele>97.5</ele><time>2026-04-06T16:46:37.585Z</time></trkpt><trkpt lat="43.8286683" lon="12.6966653"><ele>96.75</ele><time>2026-04-06T16:46:38.584Z</time></trkpt><trkpt lat="43.8287366" lon="12.6968216"><ele>96.0</ele><time>2026-04-06T16:46:39.584Z</time></trkpt><trkpt lat="43.8288059" lon="12.6969707"><ele>96.0</ele><time>2026-04-06T16:46:40.584Z</time></trkpt><trkpt lat="43.8288773" lon="12.6971146"><ele>96.0</ele><time>2026-04-06T16:46:41.585Z</time></trkpt><trkpt lat="43.8289468" lon="12.6972546"><ele>96.0</ele><time>2026-04-06T16:46:42.585Z</time></trkpt><trkpt lat="43.8290162" lon="12.697399"><ele>96.0</ele><time>2026-04-06T16:46:43.586Z</time></trkpt><trkpt lat="43.8290824" lon="12.6975406"><ele>96.0</ele><time>2026-04-06T16:46:44.585Z</time></trkpt><trkpt lat="43.8291506" lon="12.6976802"><ele>96.0</ele><time>2026-04-06T16:46:45.584Z</time></trkpt><trkpt lat="43.8292126" lon="12.6978236"><ele>96.0</ele><time>2026-04-06T16:46:46.584Z</time></trkpt><trkpt lat="43.8292747" lon="12.6979672"><ele>96.0</ele><time>2026-04-06T16:46:47.585Z</time></trkpt><trkpt lat="43.829341" lon="12.6981061"><ele>96.25</ele><time>2026-04-06T16:46:48.586Z</time></trkpt><trkpt lat="43.829405" lon="12.6982374"><ele>96.5</ele><time>2026-04-06T16:46:49.585Z</time></trkpt><trkpt lat="43.8294665" lon="12.6983777"><ele>96.75</ele><time>2026-04-06T16:46:50.584Z</time></trkpt><trkpt lat="43.8295273" lon="12.698532"><ele>97.0</ele><time>2026-04-06T16:46:51.584Z</time></trkpt><trkpt lat="43.829584" lon="12.6986879"><ele>97.0</ele><time>2026-04-06T16:46:52.587Z</time></trkpt><trkpt lat="43.8296404" lon="12.6988481"><ele>97.0</ele><time>2026-04-06T16:46:53.585Z</time></trkpt><trkpt lat="43.8297017" lon="12.6990072"><ele>97.0</ele><time>2026-04-06T16:46:54.586Z</time></trkpt><trkpt lat="43.8297608" lon="12.6991727"><ele>97.0</ele><time>2026-04-06T16:46:55.584Z</time></trkpt><trkpt lat="43.8298225" lon="12.6993484"><ele>98.0</ele><time>2026-04-06T16:46:56.584Z</time></trkpt><trkpt lat="43.8298825" lon="12.6995248"><ele>99.0</ele><time>2026-04-06T16:46:57.585Z</time></trkpt><trkpt lat="43.8299476" lon="12.6996977"><ele>100.0</ele><time>2026-04-06T16:46:58.585Z</time></trkpt><trkpt lat="43.8300088" lon="12.6998748"><ele>101.0</ele><time>2026-04-06T16:46:59.585Z</time></trkpt><trkpt lat="43.8300656" lon="12.7000393"><ele>101.0</ele><time>2026-04-06T16:47:00.584Z</time></trkpt><trkpt lat="43.8301163" lon="12.7001832"><ele>101.0</ele><time>2026-04-06T16:47:01.585Z</time></trkpt><trkpt lat="43.8301696" lon="12.7003183"><ele>101.0</ele><time>2026-04-06T16:47:02.584Z</time></trkpt><trkpt lat="43.8302205" lon="12.7004526"><ele>101.0</ele><time>2026-04-06T16:47:03.585Z</time></trkpt><trkpt lat="43.8302712" lon="12.7005893"><ele>101.0</ele><time>2026-04-06T16:47:04.584Z</time></trkpt><trkpt lat="43.8303223" lon="12.7007282"><ele>100.8</ele><time>2026-04-06T16:47:05.586Z</time></trkpt><trkpt lat="43.8303726" lon="12.7008646"><ele>100.6</ele><time>2026-04-06T16:47:06.585Z</time></trkpt><trkpt lat="43.8304182" lon="12.701001"><ele>100.4</ele><time>2026-04-06T16:47:07.588Z</time></trkpt><trkpt lat="43.8304602" lon="12.7011326"><ele>100.2</ele><time>2026-04-06T16:47:08.584Z</time></trkpt><trkpt lat="43.8305011" lon="12.7012647"><ele>100.0</ele><time>2026-04-06T16:47:09.584Z</time></trkpt><trkpt lat="43.830542" lon="12.7013981"><ele>100.6</ele><time>2026-04-06T16:47:10.585Z</time></trkpt><trkpt lat="43.8305856" lon="12.7015314"><ele>101.2</ele><time>2026-04-06T16:47:11.586Z</time></trkpt><trkpt lat="43.830627" lon="12.7016706"><ele>101.80000000000001</ele><time>2026-04-06T16:47:12.587Z</time></trkpt><trkpt lat="43.8306548" lon="12.7018154"><ele>102.4</ele><time>2026-04-06T16:47:13.584Z</time></trkpt><trkpt lat="43.8306664" lon="12.7019655"><ele>103.0</ele><time>2026-04-06T16:47:14.583Z</time></trkpt><trkpt lat="43.83068" lon="12.7021144"><ele>103.25</ele><time>2026-04-06T16:47:15.584Z</time></trkpt><trkpt lat="43.8306968" lon="12.7022645"><ele>103.5</ele><time>2026-04-06T16:47:16.585Z</time></trkpt><trkpt lat="43.830712" lon="12.7024174"><ele>103.75</ele><time>2026-04-06T16:47:17.584Z</time></trkpt><trkpt lat="43.8307223" lon="12.7025747"><ele>104.0</ele><time>2026-04-06T16:47:18.587Z</time></trkpt><trkpt lat="43.8307217" lon="12.7027388"><ele>104.75</ele><time>2026-04-06T16:47:19.584Z</time></trkpt><trkpt lat="43.8307268" lon="12.702899"><ele>105.5</ele><time>2026-04-06T16:47:20.584Z</time></trkpt><trkpt lat="43.8307407" lon="12.7030605"><ele>106.25</ele><time>2026-04-06T16:47:21.583Z</time></trkpt><trkpt lat="43.8307582" lon="12.7032211"><ele>107.0</ele><time>2026-04-06T16:47:22.584Z</time></trkpt><trkpt lat="43.8307724" lon="12.7033787"><ele>107.0</ele><time>2026-04-06T16:47:23.585Z</time></trkpt><trkpt lat="43.830786" lon="12.7035393"><ele>107.0</ele><time>2026-04-06T16:47:24.582Z</time></trkpt><trkpt lat="43.8307987" lon="12.703707"><ele>107.0</ele><time>2026-04-06T16:47:25.584Z</time></trkpt><trkpt lat="43.830795" lon="12.7038746"><ele>107.0</ele><time>2026-04-06T16:47:26.583Z</time></trkpt><trkpt lat="43.8307831" lon="12.7040379"><ele>107.0</ele><time>2026-04-06T16:47:27.582Z</time></trkpt><trkpt lat="43.8307719" lon="12.7042001"><ele>107.0</ele><time>2026-04-06T16:47:28.584Z</time></trkpt><trkpt lat="43.8307576" lon="12.7043607"><ele>107.0</ele><time>2026-04-06T16:47:29.583Z</time></trkpt><trkpt lat="43.8307502" lon="12.7045234"><ele>107.0</ele><time>2026-04-06T16:47:30.583Z</time></trkpt><trkpt lat="43.8307423" lon="12.7046866"><ele>106.8</ele><time>2026-04-06T16:47:31.584Z</time></trkpt><trkpt lat="43.8307382" lon="12.7048429"><ele>106.6</ele><time>2026-04-06T16:47:32.585Z</time></trkpt><trkpt lat="43.8307405" lon="12.7049896"><ele>106.39999999999999</ele><time>2026-04-06T16:47:33.584Z</time></trkpt><trkpt lat="43.8307404" lon="12.7051402"><ele>106.19999999999999</ele><time>2026-04-06T16:47:34.583Z</time></trkpt><trkpt lat="43.830735" lon="12.7053041"><ele>106.0</ele><time>2026-04-06T16:47:35.584Z</time></trkpt><trkpt lat="43.8307193" lon="12.705486"><ele>106.5</ele><time>2026-04-06T16:47:36.584Z</time></trkpt><trkpt lat="43.8306878" lon="12.7056672"><ele>107.0</ele><time>2026-04-06T16:47:37.586Z</time></trkpt><trkpt lat="43.8306507" lon="12.7058446"><ele>107.5</ele><time>2026-04-06T16:47:38.586Z</time></trkpt><trkpt lat="43.8306137" lon="12.7060193"><ele>108.0</ele><time>2026-04-06T16:47:39.583Z</time></trkpt><trkpt lat="43.8305834" lon="12.7061931"><ele>108.0</ele><time>2026-04-06T16:47:40.583Z</time></trkpt><trkpt lat="43.8305581" lon="12.706364"><ele>108.0</ele><time>2026-04-06T16:47:41.584Z</time></trkpt><trkpt lat="43.8305303" lon="12.7065329"><ele>108.0</ele><time>2026-04-06T16:47:42.584Z</time></trkpt><trkpt lat="43.8305023" lon="12.7067008"><ele>108.0</ele><time>2026-04-06T16:47:43.584Z</time></trkpt><trkpt lat="43.8304823" lon="12.7068577"><ele>108.0</ele><time>2026-04-06T16:47:44.583Z</time></trkpt><trkpt lat="43.8304626" lon="12.7070062"><ele>108.00000000000001</ele><time>2026-04-06T16:47:45.583Z</time></trkpt><trkpt lat="43.8304357" lon="12.7071501"><ele>108.00000000000001</ele><time>2026-04-06T16:47:46.587Z</time></trkpt><trkpt lat="43.8303964" lon="12.7072886"><ele>108.0</ele><time>2026-04-06T16:47:47.584Z</time></trkpt><trkpt lat="43.8303326" lon="12.7073844"><ele>108.0</ele><time>2026-04-06T16:47:48.585Z</time></trkpt><trkpt lat="43.8302372" lon="12.7074113"><ele>110.0</ele><time>2026-04-06T16:47:49.584Z</time></trkpt><trkpt lat="43.8301116" lon="12.7074144"><ele>112.0</ele><time>2026-04-06T16:47:50.583Z</time></trkpt><trkpt lat="43.8299711" lon="12.7074119"><ele>114.0</ele><time>2026-04-06T16:47:51.583Z</time></trkpt><trkpt lat="43.8298292" lon="12.7074076"><ele>116.0</ele><time>2026-04-06T16:47:52.583Z</time></trkpt><trkpt lat="43.8296878" lon="12.7073999"><ele>116.0</ele><time>2026-04-06T16:47:53.583Z</time></trkpt><trkpt lat="43.8295552" lon="12.7073826"><ele>116.0</ele><time>2026-04-06T16:47:54.584Z</time></trkpt><trkpt lat="43.8294311" lon="12.7073643"><ele>116.0</ele><time>2026-04-06T16:47:55.583Z</time></trkpt><trkpt lat="43.8293119" lon="12.707352"><ele>116.0</ele><time>2026-04-06T16:47:56.583Z</time></trkpt><trkpt lat="43.8292016" lon="12.7073567"><ele>116.8</ele><time>2026-04-06T16:47:57.584Z</time></trkpt><trkpt lat="43.8291017" lon="12.707397"><ele>117.6</ele><time>2026-04-06T16:47:58.584Z</time></trkpt><trkpt lat="43.8290202" lon="12.7074769"><ele>118.4</ele><time>2026-04-06T16:47:59.583Z</time></trkpt><trkpt lat="43.8289642" lon="12.7075865"><ele>119.2</ele><time>2026-04-06T16:48:00.584Z</time></trkpt><trkpt lat="43.8289513" lon="12.7077294"><ele>120.0</ele><time>2026-04-06T16:48:01.583Z</time></trkpt><trkpt lat="43.8289536" lon="12.7078867"><ele>120.0</ele><time>2026-04-06T16:48:02.583Z</time></trkpt><trkpt lat="43.8289468" lon="12.7080367"><ele>120.0</ele><time>2026-04-06T16:48:03.584Z</time></trkpt><trkpt lat="43.8289195" lon="12.7081651"><ele>120.0</ele><time>2026-04-06T16:48:04.583Z</time></trkpt><trkpt lat="43.8288758" lon="12.7082837"><ele>120.0</ele><time>2026-04-06T16:48:05.583Z</time></trkpt><trkpt lat="43.8287872" lon="12.7083744"><ele>120.0</ele><time>2026-04-06T16:48:06.584Z</time></trkpt><trkpt lat="43.8286641" lon="12.7084713"><ele>120.0</ele><time>2026-04-06T16:48:07.584Z</time></trkpt><trkpt lat="43.828535" lon="12.7085718"><ele>120.0</ele><time>2026-04-06T16:48:08.583Z</time></trkpt><trkpt lat="43.8284101" lon="12.7086735"><ele>120.0</ele><time>2026-04-06T16:48:09.583Z</time></trkpt><trkpt lat="43.8282963" lon="12.7087541"><ele>120.0</ele><time>2026-04-06T16:48:10.583Z</time></trkpt><trkpt lat="43.8281894" lon="12.7088005"><ele>117.75</ele><time>2026-04-06T16:48:11.583Z</time></trkpt><trkpt lat="43.8280734" lon="12.7088157"><ele>115.5</ele><time>2026-04-06T16:48:12.583Z</time></trkpt><trkpt lat="43.8279274" lon="12.708816"><ele>113.25</ele><time>2026-04-06T16:48:13.585Z</time></trkpt><trkpt lat="43.8277711" lon="12.7088281"><ele>111.0</ele><time>2026-04-06T16:48:14.583Z</time></trkpt><trkpt lat="43.8276243" lon="12.7088502"><ele>111.0</ele><time>2026-04-06T16:48:15.584Z</time></trkpt><trkpt lat="43.8274898" lon="12.7088607"><ele>111.0</ele><time>2026-04-06T16:48:16.584Z</time></trkpt><trkpt lat="43.827364" lon="12.7088583"><ele>111.0</ele><time>2026-04-06T16:48:17.584Z</time></trkpt><trkpt lat="43.8272569" lon="12.7088402"><ele>111.0</ele><time>2026-04-06T16:48:18.585Z</time></trkpt><trkpt lat="43.8271623" lon="12.7088218"><ele>111.0</ele><time>2026-04-06T16:48:19.584Z</time></trkpt><trkpt lat="43.8270783" lon="12.7088064"><ele>111.0</ele><time>2026-04-06T16:48:20.584Z</time></trkpt><trkpt lat="43.8270094" lon="12.7088065"><ele>111.0</ele><time>2026-04-06T16:48:21.585Z</time></trkpt><trkpt lat="43.8269084" lon="12.7088664"><ele>111.0</ele><time>2026-04-06T16:48:23.585Z</time></trkpt><trkpt lat="43.82697" lon="12.7090263"><ele>111.0</ele><time>2026-04-06T16:48:25.583Z</time></trkpt><trkpt lat="43.8270447" lon="12.7090874"><ele>111.0</ele><time>2026-04-06T16:48:26.584Z</time></trkpt><trkpt lat="43.8271624" lon="12.70917"><ele>111.0</ele><time>2026-04-06T16:48:27.585Z</time></trkpt><trkpt lat="43.8272714" lon="12.7092688"><ele>111.0</ele><time>2026-04-06T16:48:28.584Z</time></trkpt><trkpt lat="43.8273652" lon="12.7093718"><ele>111.0</ele><time>2026-04-06T16:48:29.585Z</time></trkpt><trkpt lat="43.827435" lon="12.7094584"><ele>111.33333333333333</ele><time>2026-04-06T16:48:30.585Z</time></trkpt><trkpt lat="43.8274723" lon="12.7095532"><ele>111.66666666666666</ele><time>2026-04-06T16:48:31.585Z</time></trkpt><trkpt lat="43.8274928" lon="12.709657"><ele>112.0</ele><time>2026-04-06T16:48:32.585Z</time></trkpt><trkpt lat="43.8274826" lon="12.7097494"><ele>112.33333333333333</ele><time>2026-04-06T16:48:33.585Z</time></trkpt><trkpt lat="43.8274218" lon="12.7098185"><ele>112.66666666666666</ele><time>2026-04-06T16:48:34.588Z</time></trkpt><trkpt lat="43.8273589" lon="12.7098724"><ele>113.0</ele><time>2026-04-06T16:48:35.584Z</time></trkpt><trkpt lat="43.8272883" lon="12.7099361"><ele>113.0</ele><time>2026-04-06T16:48:36.586Z</time></trkpt><trkpt lat="43.8272381" lon="12.7100286"><ele>113.00000000000001</ele><time>2026-04-06T16:48:37.585Z</time></trkpt><trkpt lat="43.8272178" lon="12.7101342"><ele>113.00000000000001</ele><time>2026-04-06T16:48:38.585Z</time></trkpt><trkpt lat="43.8272683" lon="12.7102736"><ele>113.0</ele><time>2026-04-06T16:48:40.585Z</time></trkpt><trkpt lat="43.82737" lon="12.71026"><ele>113.0</ele><time>2026-04-06T16:48:41.585Z</time></trkpt><trkpt lat="43.8275035" lon="12.7101988"><ele>113.33333333333333</ele><time>2026-04-06T16:48:42.584Z</time></trkpt><trkpt lat="43.8276633" lon="12.7100836"><ele>113.66666666666666</ele><time>2026-04-06T16:48:43.584Z</time></trkpt><trkpt lat="43.8278314" lon="12.7099549"><ele>114.0</ele><time>2026-04-06T16:48:44.584Z</time></trkpt><trkpt lat="43.8279971" lon="12.7098406"><ele>114.0</ele><time>2026-04-06T16:48:45.583Z</time></trkpt><trkpt lat="43.8281394" lon="12.7097821"><ele>114.0</ele><time>2026-04-06T16:48:46.583Z</time></trkpt><trkpt lat="43.8282584" lon="12.7097604"><ele>114.0</ele><time>2026-04-06T16:48:47.585Z</time></trkpt><trkpt lat="43.8283693" lon="12.7097796"><ele>114.0</ele><time>2026-04-06T16:48:48.583Z</time></trkpt><trkpt lat="43.8284812" lon="12.7098603"><ele>111.33333333333334</ele><time>2026-04-06T16:48:49.584Z</time></trkpt><trkpt lat="43.828611" lon="12.7099805"><ele>108.66666666666667</ele><time>2026-04-06T16:48:50.584Z</time></trkpt><trkpt lat="43.8287482" lon="12.7100968"><ele>106.0</ele><time>2026-04-06T16:48:51.584Z</time></trkpt><trkpt lat="43.8288735" lon="12.710207"><ele>110.0</ele><time>2026-04-06T16:48:52.583Z</time></trkpt><trkpt lat="43.828977" lon="12.7103084"><ele>114.0</ele><time>2026-04-06T16:48:53.59Z</time></trkpt><trkpt lat="43.8290538" lon="12.710418"><ele>118.0</ele><time>2026-04-06T16:48:54.585Z</time></trkpt><trkpt lat="43.829114" lon="12.7105276"><ele>122.0</ele><time>2026-04-06T16:48:55.585Z</time></trkpt><trkpt lat="43.8291914" lon="12.7105937"><ele>126.0</ele><time>2026-04-06T16:48:56.583Z</time></trkpt><trkpt lat="43.8292891" lon="12.7105825"><ele>123.4</ele><time>2026-04-06T16:48:57.584Z</time></trkpt><trkpt lat="43.8293974" lon="12.7105524"><ele>120.8</ele><time>2026-04-06T16:48:58.585Z</time></trkpt><trkpt lat="43.8295041" lon="12.7105311"><ele>118.20000000000002</ele><time>2026-04-06T16:48:59.583Z</time></trkpt><trkpt lat="43.8295984" lon="12.7105553"><ele>115.60000000000001</ele><time>2026-04-06T16:49:00.583Z</time></trkpt><trkpt lat="43.8296732" lon="12.7106146"><ele>113.0</ele><time>2026-04-06T16:49:01.584Z</time></trkpt><trkpt lat="43.8297306" lon="12.710681"><ele>112.99999999999999</ele><time>2026-04-06T16:49:02.583Z</time></trkpt><trkpt lat="43.8297755" lon="12.7107428"><ele>113.0</ele><time>2026-04-06T16:49:03.584Z</time></trkpt><trkpt lat="43.8298374" lon="12.7108237"><ele>113.0</ele><time>2026-04-06T16:49:04.585Z</time></trkpt><trkpt lat="43.8299052" lon="12.7109112"><ele>113.0</ele><time>2026-04-06T16:49:05.586Z</time></trkpt><trkpt lat="43.8299581" lon="12.7110116"><ele>112.99999999999999</ele><time>2026-04-06T16:49:06.584Z</time></trkpt><trkpt lat="43.8300049" lon="12.7111286"><ele>113.0</ele><time>2026-04-06T16:49:07.584Z</time></trkpt><trkpt lat="43.8300472" lon="12.711256"><ele>113.75</ele><time>2026-04-06T16:49:08.586Z</time></trkpt><trkpt lat="43.8300948" lon="12.7113935"><ele>114.5</ele><time>2026-04-06T16:49:09.583Z</time></trkpt><trkpt lat="43.8301463" lon="12.7115431"><ele>115.25</ele><time>2026-04-06T16:49:10.583Z</time></trkpt><trkpt lat="43.8302044" lon="12.7117001"><ele>116.0</ele><time>2026-04-06T16:49:11.583Z</time></trkpt><trkpt lat="43.8302658" lon="12.7118616"><ele>112.5</ele><time>2026-04-06T16:49:12.583Z</time></trkpt><trkpt lat="43.8303319" lon="12.7120366"><ele>109.0</ele><time>2026-04-06T16:49:13.582Z</time></trkpt><trkpt lat="43.8303982" lon="12.7122173"><ele>105.5</ele><time>2026-04-06T16:49:14.584Z</time></trkpt><trkpt lat="43.8304692" lon="12.7124015"><ele>102.0</ele><time>2026-04-06T16:49:15.584Z</time></trkpt><trkpt lat="43.8305426" lon="12.7125919"><ele>101.66666666666666</ele><time>2026-04-06T16:49:16.584Z</time></trkpt><trkpt lat="43.8306123" lon="12.7127884"><ele>101.33333333333333</ele><time>2026-04-06T16:49:17.584Z</time></trkpt><trkpt lat="43.8306775" lon="12.7129959"><ele>101.0</ele><time>2026-04-06T16:49:18.585Z</time></trkpt><trkpt lat="43.8307367" lon="12.7132093"><ele>101.0</ele><time>2026-04-06T16:49:19.586Z</time></trkpt><trkpt lat="43.8307942" lon="12.7134248"><ele>101.0</ele><time>2026-04-06T16:49:20.585Z</time></trkpt><trkpt lat="43.8308493" lon="12.7136346"><ele>101.0</ele><time>2026-04-06T16:49:21.588Z</time></trkpt><trkpt lat="43.8309038" lon="12.7138362"><ele>101.5</ele><time>2026-04-06T16:49:22.584Z</time></trkpt><trkpt lat="43.8309556" lon="12.714028"><ele>102.0</ele><time>2026-04-06T16:49:23.586Z</time></trkpt><trkpt lat="43.8310057" lon="12.7142108"><ele>102.5</ele><time>2026-04-06T16:49:24.583Z</time></trkpt><trkpt lat="43.831053" lon="12.7143877"><ele>103.0</ele><time>2026-04-06T16:49:25.583Z</time></trkpt><trkpt lat="43.8311" lon="12.7145583"><ele>100.5</ele><time>2026-04-06T16:49:26.583Z</time></trkpt><trkpt lat="43.8311628" lon="12.7147223"><ele>98.0</ele><time>2026-04-06T16:49:27.583Z</time></trkpt><trkpt lat="43.8312533" lon="12.7148637"><ele>95.5</ele><time>2026-04-06T16:49:28.583Z</time></trkpt><trkpt lat="43.8313794" lon="12.7149626"><ele>93.0</ele><time>2026-04-06T16:49:29.584Z</time></trkpt><trkpt lat="43.8315199" lon="12.7150406"><ele>93.0</ele><time>2026-04-06T16:49:30.584Z</time></trkpt><trkpt lat="43.8316634" lon="12.715115"><ele>93.0</ele><time>2026-04-06T16:49:31.584Z</time></trkpt><trkpt lat="43.8318027" lon="12.7151904"><ele>93.0</ele><time>2026-04-06T16:49:32.583Z</time></trkpt><trkpt lat="43.8319417" lon="12.7152678"><ele>92.0</ele><time>2026-04-06T16:49:33.583Z</time></trkpt><trkpt lat="43.8320821" lon="12.7153484"><ele>91.0</ele><time>2026-04-06T16:49:34.583Z</time></trkpt><trkpt lat="43.8322243" lon="12.7154324"><ele>90.0</ele><time>2026-04-06T16:49:35.583Z</time></trkpt><trkpt lat="43.8323719" lon="12.7155123"><ele>90.0</ele><time>2026-04-06T16:49:36.584Z</time></trkpt><trkpt lat="43.832518" lon="12.7155895"><ele>90.0</ele><time>2026-04-06T16:49:37.583Z</time></trkpt><trkpt lat="43.8326633" lon="12.7156738"><ele>90.0</ele><time>2026-04-06T16:49:38.584Z</time></trkpt><trkpt lat="43.8328112" lon="12.7157632"><ele>89.33333333333333</ele><time>2026-04-06T16:49:39.584Z</time></trkpt><trkpt lat="43.8329597" lon="12.7158535"><ele>88.66666666666666</ele><time>2026-04-06T16:49:40.585Z</time></trkpt><trkpt lat="43.8331056" lon="12.7159422"><ele>88.0</ele><time>2026-04-06T16:49:41.584Z</time></trkpt><trkpt lat="43.8332487" lon="12.7160307"><ele>87.75</ele><time>2026-04-06T16:49:42.585Z</time></trkpt><trkpt lat="43.8333831" lon="12.7161148"><ele>87.5</ele><time>2026-04-06T16:49:43.584Z</time></trkpt><trkpt lat="43.833513" lon="12.716192"><ele>87.25</ele><time>2026-04-06T16:49:44.582Z</time></trkpt><trkpt lat="43.8336395" lon="12.71626"><ele>87.0</ele><time>2026-04-06T16:49:45.587Z</time></trkpt><trkpt lat="43.8337623" lon="12.7163304"><ele>86.0</ele><time>2026-04-06T16:49:46.585Z</time></trkpt><trkpt lat="43.8338782" lon="12.7163958"><ele>85.0</ele><time>2026-04-06T16:49:47.591Z</time></trkpt><trkpt lat="43.8339905" lon="12.7164576"><ele>84.0</ele><time>2026-04-06T16:49:48.583Z</time></trkpt><trkpt lat="43.834097" lon="12.7165247"><ele>83.0</ele><time>2026-04-06T16:49:49.588Z</time></trkpt><trkpt lat="43.8342031" lon="12.7165823"><ele>82.2</ele><time>2026-04-06T16:49:50.583Z</time></trkpt><trkpt lat="43.8343065" lon="12.7166369"><ele>81.4</ele><time>2026-04-06T16:49:51.584Z</time></trkpt><trkpt lat="43.834407" lon="12.7166965"><ele>80.60000000000001</ele><time>2026-04-06T16:49:52.584Z</time></trkpt><trkpt lat="43.8345097" lon="12.7167616"><ele>79.80000000000001</ele><time>2026-04-06T16:49:53.588Z</time></trkpt><trkpt lat="43.8346147" lon="12.7168259"><ele>79.0</ele><time>2026-04-06T16:49:54.584Z</time></trkpt><trkpt lat="43.8347206" lon="12.7168867"><ele>78.60000000000001</ele><time>2026-04-06T16:49:55.584Z</time></trkpt><trkpt lat="43.8348235" lon="12.7169448"><ele>78.2</ele><time>2026-04-06T16:49:56.585Z</time></trkpt><trkpt lat="43.8349238" lon="12.7170009"><ele>77.80000000000001</ele><time>2026-04-06T16:49:57.583Z</time></trkpt><trkpt lat="43.8350193" lon="12.7170607"><ele>77.4</ele><time>2026-04-06T16:49:58.589Z</time></trkpt><trkpt lat="43.8351104" lon="12.7171243"><ele>77.0</ele><time>2026-04-06T16:49:59.584Z</time></trkpt><trkpt lat="43.8351928" lon="12.717187"><ele>76.5</ele><time>2026-04-06T16:50:00.582Z</time></trkpt><trkpt lat="43.8352678" lon="12.7172561"><ele>76.0</ele><time>2026-04-06T16:50:01.585Z</time></trkpt><trkpt lat="43.8353335" lon="12.7173355"><ele>75.5</ele><time>2026-04-06T16:50:02.584Z</time></trkpt><trkpt lat="43.835384" lon="12.7174268"><ele>75.0</ele><time>2026-04-06T16:50:03.582Z</time></trkpt><trkpt lat="43.8354259" lon="12.7175144"><ele>74.5</ele><time>2026-04-06T16:50:04.584Z</time></trkpt><trkpt lat="43.8354816" lon="12.7175713"><ele>74.0</ele><time>2026-04-06T16:50:05.582Z</time></trkpt><trkpt lat="43.8355483" lon="12.7175869"><ele>74.0</ele><time>2026-04-06T16:50:06.583Z</time></trkpt><trkpt lat="43.8356168" lon="12.7175605"><ele>74.0</ele><time>2026-04-06T16:50:07.583Z</time></trkpt><trkpt lat="43.8357021" lon="12.717502"><ele>74.0</ele><time>2026-04-06T16:50:08.585Z</time></trkpt><trkpt lat="43.8358081" lon="12.7174368"><ele>74.0</ele><time>2026-04-06T16:50:09.588Z</time></trkpt><trkpt lat="43.8359358" lon="12.7173957"><ele>74.0</ele><time>2026-04-06T16:50:10.583Z</time></trkpt><trkpt lat="43.8360664" lon="12.7173868"><ele>73.5</ele><time>2026-04-06T16:50:11.582Z</time></trkpt><trkpt lat="43.8362053" lon="12.717393"><ele>73.0</ele><time>2026-04-06T16:50:12.596Z</time></trkpt><trkpt lat="43.8363438" lon="12.7174049"><ele>72.5</ele><time>2026-04-06T16:50:13.583Z</time></trkpt><trkpt lat="43.8364892" lon="12.7174185"><ele>72.0</ele><time>2026-04-06T16:50:14.583Z</time></trkpt><trkpt lat="43.8366322" lon="12.7174398"><ele>72.0</ele><time>2026-04-06T16:50:15.583Z</time></trkpt><trkpt lat="43.8367768" lon="12.7174622"><ele>72.0</ele><time>2026-04-06T16:50:16.671Z</time></trkpt><trkpt lat="43.8369132" lon="12.7174766"><ele>72.0</ele><time>2026-04-06T16:50:17.584Z</time></trkpt><trkpt lat="43.8370616" lon="12.7174852"><ele>72.0</ele><time>2026-04-06T16:50:18.583Z</time></trkpt><trkpt lat="43.8372149" lon="12.7174986"><ele>71.0</ele><time>2026-04-06T16:50:19.584Z</time></trkpt><trkpt lat="43.8373701" lon="12.7175136"><ele>70.0</ele><time>2026-04-06T16:50:20.583Z</time></trkpt><trkpt lat="43.837528" lon="12.7175313"><ele>69.0</ele><time>2026-04-06T16:50:21.582Z</time></trkpt><trkpt lat="43.8376854" lon="12.7175387"><ele>68.66666666666667</ele><time>2026-04-06T16:50:22.583Z</time></trkpt><trkpt lat="43.8378451" lon="12.7175541"><ele>68.33333333333334</ele><time>2026-04-06T16:50:23.582Z</time></trkpt><trkpt lat="43.8380054" lon="12.7175752"><ele>68.0</ele><time>2026-04-06T16:50:24.584Z</time></trkpt><trkpt lat="43.8381657" lon="12.7175949"><ele>68.0</ele><time>2026-04-06T16:50:25.588Z</time></trkpt><trkpt lat="43.8383205" lon="12.7176205"><ele>68.0</ele><time>2026-04-06T16:50:26.584Z</time></trkpt><trkpt lat="43.8384791" lon="12.7176485"><ele>68.0</ele><time>2026-04-06T16:50:27.583Z</time></trkpt><trkpt lat="43.8386327" lon="12.7176857"><ele>67.66666666666667</ele><time>2026-04-06T16:50:28.583Z</time></trkpt><trkpt lat="43.838782" lon="12.7177364"><ele>67.33333333333333</ele><time>2026-04-06T16:50:29.584Z</time></trkpt><trkpt lat="43.8389286" lon="12.7178012"><ele>67.0</ele><time>2026-04-06T16:50:30.583Z</time></trkpt><trkpt lat="43.8390745" lon="12.7178748"><ele>67.0</ele><time>2026-04-06T16:50:31.584Z</time></trkpt><trkpt lat="43.8393685" lon="12.7180385"><ele>67.0</ele><time>2026-04-06T16:50:33.583Z</time></trkpt><trkpt lat="43.8395184" lon="12.7181276"><ele>67.0</ele><time>2026-04-06T16:50:34.587Z</time></trkpt><trkpt lat="43.839664" lon="12.7182091"><ele>67.0</ele><time>2026-04-06T16:50:35.584Z</time></trkpt><trkpt lat="43.8398069" lon="12.7182863"><ele>67.0</ele><time>2026-04-06T16:50:36.582Z</time></trkpt><trkpt lat="43.8399508" lon="12.7183663"><ele>67.0</ele><time>2026-04-06T16:50:37.586Z</time></trkpt><trkpt lat="43.8400871" lon="12.7184365"><ele>67.0</ele><time>2026-04-06T16:50:38.582Z</time></trkpt><trkpt lat="43.8403475" lon="12.7185738"><ele>67.0</ele><time>2026-04-06T16:50:40.586Z</time></trkpt><trkpt lat="43.8404744" lon="12.7186458"><ele>67.0</ele><time>2026-04-06T16:50:41.583Z</time></trkpt><trkpt lat="43.8406059" lon="12.7187202"><ele>67.0</ele><time>2026-04-06T16:50:42.611Z</time></trkpt><trkpt lat="43.8407342" lon="12.7187937"><ele>67.0</ele><time>2026-04-06T16:50:43.582Z</time></trkpt><trkpt lat="43.8408664" lon="12.718868"><ele>67.0</ele><time>2026-04-06T16:50:44.583Z</time></trkpt><trkpt lat="43.8409982" lon="12.7189429"><ele>66.75</ele><time>2026-04-06T16:50:45.583Z</time></trkpt><trkpt lat="43.8411301" lon="12.7190224"><ele>66.5</ele><time>2026-04-06T16:50:46.582Z</time></trkpt><trkpt lat="43.8412607" lon="12.7190989"><ele>66.25</ele><time>2026-04-06T16:50:47.583Z</time></trkpt><trkpt lat="43.841393" lon="12.7191718"><ele>66.0</ele><time>2026-04-06T16:50:48.583Z</time></trkpt><trkpt lat="43.8415265" lon="12.7192443"><ele>66.0</ele><time>2026-04-06T16:50:49.583Z</time></trkpt><trkpt lat="43.8416603" lon="12.7193117"><ele>66.0</ele><time>2026-04-06T16:50:50.583Z</time></trkpt><trkpt lat="43.8417994" lon="12.7193733"><ele>66.0</ele><time>2026-04-06T16:50:51.583Z</time></trkpt><trkpt lat="43.8419427" lon="12.7194278"><ele>66.0</ele><time>2026-04-06T16:50:52.586Z</time></trkpt><trkpt lat="43.8420877" lon="12.7194781"><ele>65.25</ele><time>2026-04-06T16:50:53.586Z</time></trkpt><trkpt lat="43.8422328" lon="12.7195259"><ele>64.5</ele><time>2026-04-06T16:50:54.584Z</time></trkpt><trkpt lat="43.8423759" lon="12.719573"><ele>63.75</ele><time>2026-04-06T16:50:55.584Z</time></trkpt><trkpt lat="43.8425178" lon="12.7196165"><ele>63.0</ele><time>2026-04-06T16:50:56.582Z</time></trkpt><trkpt lat="43.8426576" lon="12.7196596"><ele>62.25</ele><time>2026-04-06T16:50:57.582Z</time></trkpt><trkpt lat="43.8427959" lon="12.7197023"><ele>61.5</ele><time>2026-04-06T16:50:58.584Z</time></trkpt><trkpt lat="43.8429382" lon="12.719746"><ele>60.75</ele><time>2026-04-06T16:50:59.582Z</time></trkpt><trkpt lat="43.8430832" lon="12.7197885"><ele>60.0</ele><time>2026-04-06T16:51:00.584Z</time></trkpt><trkpt lat="43.8432266" lon="12.7198324"><ele>60.0</ele><time>2026-04-06T16:51:01.583Z</time></trkpt><trkpt lat="43.8433715" lon="12.7198807"><ele>60.0</ele><time>2026-04-06T16:51:02.583Z</time></trkpt><trkpt lat="43.8435178" lon="12.7199257"><ele>60.0</ele><time>2026-04-06T16:51:03.583Z</time></trkpt><trkpt lat="43.8436645" lon="12.7199731"><ele>60.0</ele><time>2026-04-06T16:51:04.582Z</time></trkpt><trkpt lat="43.8438064" lon="12.7200197"><ele>60.25</ele><time>2026-04-06T16:51:05.583Z</time></trkpt><trkpt lat="43.843949" lon="12.7200664"><ele>60.5</ele><time>2026-04-06T16:51:06.583Z</time></trkpt><trkpt lat="43.8440895" lon="12.720113"><ele>60.75</ele><time>2026-04-06T16:51:07.584Z</time></trkpt><trkpt lat="43.8442292" lon="12.7201606"><ele>61.0</ele><time>2026-04-06T16:51:08.583Z</time></trkpt><trkpt lat="43.8443701" lon="12.7202071"><ele>61.0</ele><time>2026-04-06T16:51:09.584Z</time></trkpt><trkpt lat="43.8445102" lon="12.7202541"><ele>61.0</ele><time>2026-04-06T16:51:10.584Z</time></trkpt><trkpt lat="43.8446502" lon="12.7202997"><ele>61.0</ele><time>2026-04-06T16:51:11.583Z</time></trkpt><trkpt lat="43.8447915" lon="12.7203436"><ele>61.0</ele><time>2026-04-06T16:51:12.583Z</time></trkpt><trkpt lat="43.8449317" lon="12.7203888"><ele>61.0</ele><time>2026-04-06T16:51:13.582Z</time></trkpt><trkpt lat="43.8450703" lon="12.720429"><ele>61.0</ele><time>2026-04-06T16:51:14.581Z</time></trkpt><trkpt lat="43.8452072" lon="12.7204645"><ele>61.0</ele><time>2026-04-06T16:51:15.581Z</time></trkpt><trkpt lat="43.8453392" lon="12.720497"><ele>61.0</ele><time>2026-04-06T16:51:16.581Z</time></trkpt><trkpt lat="43.8454676" lon="12.7205273"><ele>61.0</ele><time>2026-04-06T16:51:17.582Z</time></trkpt><trkpt lat="43.8455914" lon="12.7205587"><ele>61.0</ele><time>2026-04-06T16:51:18.583Z</time></trkpt><trkpt lat="43.8457114" lon="12.7205845"><ele>61.0</ele><time>2026-04-06T16:51:19.581Z</time></trkpt><trkpt lat="43.845828" lon="12.7206082"><ele>61.0</ele><time>2026-04-06T16:51:20.582Z</time></trkpt><trkpt lat="43.8459429" lon="12.7206337"><ele>59.4</ele><time>2026-04-06T16:51:21.584Z</time></trkpt><trkpt lat="43.8460545" lon="12.7206517"><ele>57.8</ele><time>2026-04-06T16:51:22.585Z</time></trkpt><trkpt lat="43.846163" lon="12.7206622"><ele>56.199999999999996</ele><time>2026-04-06T16:51:23.583Z</time></trkpt><trkpt lat="43.8462698" lon="12.7206565"><ele>54.599999999999994</ele><time>2026-04-06T16:51:24.588Z</time></trkpt><trkpt lat="43.8463699" lon="12.7206536"><ele>53.0</ele><time>2026-04-06T16:51:25.582Z</time></trkpt><trkpt lat="43.8464763" lon="12.7206379"><ele>53.0</ele><time>2026-04-06T16:51:26.686Z</time></trkpt><trkpt lat="43.8466895" lon="12.7205807"><ele>53.0</ele><time>2026-04-06T16:51:28.582Z</time></trkpt><trkpt lat="43.8467968" lon="12.7205611"><ele>53.0</ele><time>2026-04-06T16:51:29.582Z</time></trkpt><trkpt lat="43.8469018" lon="12.7205494"><ele>53.0</ele><time>2026-04-06T16:51:30.581Z</time></trkpt><trkpt lat="43.8470011" lon="12.7205473"><ele>53.0</ele><time>2026-04-06T16:51:31.584Z</time></trkpt><trkpt lat="43.8470919" lon="12.7205569"><ele>53.0</ele><time>2026-04-06T16:51:32.581Z</time></trkpt><trkpt lat="43.8472523" lon="12.720574"><ele>53.0</ele><time>2026-04-06T16:51:34.583Z</time></trkpt><trkpt lat="43.8473282" lon="12.7205544"><ele>53.0</ele><time>2026-04-06T16:51:35.582Z</time></trkpt><trkpt lat="43.847382" lon="12.7204831"><ele>53.0</ele><time>2026-04-06T16:51:36.583Z</time></trkpt><trkpt lat="43.8474147" lon="12.7203783"><ele>53.5</ele><time>2026-04-06T16:51:37.586Z</time></trkpt><trkpt lat="43.8474246" lon="12.7199065"><ele>54.0</ele><time>2026-04-06T16:51:40.585Z</time></trkpt><trkpt lat="43.8474105" lon="12.7197131"><ele>54.33333333333333</ele><time>2026-04-06T16:51:41.772Z</time></trkpt><trkpt lat="43.8473526" lon="12.7193424"><ele>54.666666666666664</ele><time>2026-04-06T16:51:43.599Z</time></trkpt><trkpt lat="43.8473178" lon="12.7191464"><ele>55.0</ele><time>2026-04-06T16:51:44.581Z</time></trkpt><trkpt lat="43.8472822" lon="12.7189503"><ele>55.0</ele><time>2026-04-06T16:51:45.588Z</time></trkpt><trkpt lat="43.8472489" lon="12.7187509"><ele>55.0</ele><time>2026-04-06T16:51:46.586Z</time></trkpt><trkpt lat="43.8472152" lon="12.7185468"><ele>55.0</ele><time>2026-04-06T16:51:47.737Z</time></trkpt><trkpt lat="43.8471484" lon="12.7181844"><ele>54.75</ele><time>2026-04-06T16:51:49.583Z</time></trkpt><trkpt lat="43.8471141" lon="12.7180015"><ele>54.5</ele><time>2026-04-06T16:51:50.588Z</time></trkpt><trkpt lat="43.8470831" lon="12.7178222"><ele>54.25</ele><time>2026-04-06T16:51:51.588Z</time></trkpt><trkpt lat="43.8470509" lon="12.7176406"><ele>54.0</ele><time>2026-04-06T16:51:52.584Z</time></trkpt><trkpt lat="43.8470193" lon="12.717458"><ele>54.0</ele><time>2026-04-06T16:51:53.583Z</time></trkpt><trkpt lat="43.8469853" lon="12.7172723"><ele>54.0</ele><time>2026-04-06T16:51:54.586Z</time></trkpt><trkpt lat="43.8469466" lon="12.7170897"><ele>54.0</ele><time>2026-04-06T16:51:55.584Z</time></trkpt><trkpt lat="43.8469156" lon="12.7169053"><ele>54.0</ele><time>2026-04-06T16:51:56.59Z</time></trkpt><trkpt lat="43.8468793" lon="12.7167162"><ele>54.0</ele><time>2026-04-06T16:51:57.592Z</time></trkpt><trkpt lat="43.8468468" lon="12.7165262"><ele>54.0</ele><time>2026-04-06T16:51:58.584Z</time></trkpt><trkpt lat="43.8468099" lon="12.7163287"><ele>54.0</ele><time>2026-04-06T16:51:59.582Z</time></trkpt><trkpt lat="43.8467731" lon="12.7161245"><ele>54.0</ele><time>2026-04-06T16:52:00.583Z</time></trkpt><trkpt lat="43.8467241" lon="12.7159188"><ele>54.33333333333333</ele><time>2026-04-06T16:52:01.582Z</time></trkpt><trkpt lat="43.8466566" lon="12.7157137"><ele>54.666666666666664</ele><time>2026-04-06T16:52:02.586Z</time></trkpt><trkpt lat="43.8465717" lon="12.7155079"><ele>55.0</ele><time>2026-04-06T16:52:03.582Z</time></trkpt><trkpt lat="43.8464766" lon="12.7153067"><ele>54.33333333333333</ele><time>2026-04-06T16:52:04.586Z</time></trkpt><trkpt lat="43.8463755" lon="12.7151146"><ele>53.66666666666667</ele><time>2026-04-06T16:52:05.582Z</time></trkpt><trkpt lat="43.8462711" lon="12.7149194"><ele>53.0</ele><time>2026-04-06T16:52:06.585Z</time></trkpt><trkpt lat="43.8461641" lon="12.7147225"><ele>53.0</ele><time>2026-04-06T16:52:07.585Z</time></trkpt><trkpt lat="43.8460526" lon="12.7145227"><ele>53.0</ele><time>2026-04-06T16:52:08.581Z</time></trkpt><trkpt lat="43.8459395" lon="12.7143198"><ele>53.0</ele><time>2026-04-06T16:52:09.582Z</time></trkpt><trkpt lat="43.8458284" lon="12.7141161"><ele>53.66666666666667</ele><time>2026-04-06T16:52:10.581Z</time></trkpt><trkpt lat="43.8457135" lon="12.7139118"><ele>54.33333333333333</ele><time>2026-04-06T16:52:11.594Z</time></trkpt><trkpt lat="43.8455988" lon="12.7137072"><ele>55.0</ele><time>2026-04-06T16:52:12.582Z</time></trkpt><trkpt lat="43.8454744" lon="12.7135022"><ele>55.0</ele><time>2026-04-06T16:52:13.581Z</time></trkpt><trkpt lat="43.8453543" lon="12.7132928"><ele>55.0</ele><time>2026-04-06T16:52:14.584Z</time></trkpt><trkpt lat="43.8451232" lon="12.7128603"><ele>56.0</ele><time>2026-04-06T16:52:16.595Z</time></trkpt><trkpt lat="43.8448946" lon="12.712428"><ele>57.0</ele><time>2026-04-06T16:52:18.583Z</time></trkpt><trkpt lat="43.8447739" lon="12.7122125"><ele>57.0</ele><time>2026-04-06T16:52:19.584Z</time></trkpt><trkpt lat="43.8446571" lon="12.7119964"><ele>57.0</ele><time>2026-04-06T16:52:20.582Z</time></trkpt><trkpt lat="43.8445391" lon="12.711781"><ele>57.0</ele><time>2026-04-06T16:52:21.583Z</time></trkpt><trkpt lat="43.8444212" lon="12.7115644"><ele>57.33333333333333</ele><time>2026-04-06T16:52:22.583Z</time></trkpt><trkpt lat="43.8443069" lon="12.7113479"><ele>57.666666666666664</ele><time>2026-04-06T16:52:23.583Z</time></trkpt><trkpt lat="43.8441911" lon="12.711134"><ele>58.0</ele><time>2026-04-06T16:52:24.583Z</time></trkpt><trkpt lat="43.8440759" lon="12.7109247"><ele>58.0</ele><time>2026-04-06T16:52:25.583Z</time></trkpt><trkpt lat="43.8439612" lon="12.7107179"><ele>58.0</ele><time>2026-04-06T16:52:26.583Z</time></trkpt><trkpt lat="43.8438439" lon="12.7105147"><ele>58.0</ele><time>2026-04-06T16:52:27.585Z</time></trkpt><trkpt lat="43.8437266" lon="12.7103154"><ele>58.33333333333333</ele><time>2026-04-06T16:52:28.583Z</time></trkpt><trkpt lat="43.8436008" lon="12.710129"><ele>58.66666666666667</ele><time>2026-04-06T16:52:29.584Z</time></trkpt><trkpt lat="43.8434539" lon="12.7099657"><ele>59.0</ele><time>2026-04-06T16:52:30.583Z</time></trkpt><trkpt lat="43.843277" lon="12.7098162"><ele>59.0</ele><time>2026-04-06T16:52:31.585Z</time></trkpt><trkpt lat="43.8430841" lon="12.7096776"><ele>59.0</ele><time>2026-04-06T16:52:32.583Z</time></trkpt><trkpt lat="43.8428918" lon="12.7095386"><ele>59.0</ele><time>2026-04-06T16:52:33.585Z</time></trkpt><trkpt lat="43.8427041" lon="12.7094014"><ele>60.66666666666667</ele><time>2026-04-06T16:52:34.583Z</time></trkpt><trkpt lat="43.842525" lon="12.7092714"><ele>62.33333333333333</ele><time>2026-04-06T16:52:35.584Z</time></trkpt><trkpt lat="43.8423556" lon="12.7091483"><ele>64.0</ele><time>2026-04-06T16:52:36.584Z</time></trkpt><trkpt lat="43.8421984" lon="12.7090311"><ele>64.0</ele><time>2026-04-06T16:52:37.586Z</time></trkpt><trkpt lat="43.8420475" lon="12.7089108"><ele>64.0</ele><time>2026-04-06T16:52:38.586Z</time></trkpt><trkpt lat="43.8419025" lon="12.7087808"><ele>64.0</ele><time>2026-04-06T16:52:39.584Z</time></trkpt><trkpt lat="43.841766" lon="12.7086299"><ele>65.0</ele><time>2026-04-06T16:52:40.585Z</time></trkpt><trkpt lat="43.8416432" lon="12.7084476"><ele>66.0</ele><time>2026-04-06T16:52:41.583Z</time></trkpt><trkpt lat="43.8415281" lon="12.7082403"><ele>67.0</ele><time>2026-04-06T16:52:42.586Z</time></trkpt><trkpt lat="43.8414128" lon="12.7080207"><ele>67.0</ele><time>2026-04-06T16:52:43.583Z</time></trkpt><trkpt lat="43.8412969" lon="12.7077857"><ele>67.0</ele><time>2026-04-06T16:52:44.584Z</time></trkpt><trkpt lat="43.8411859" lon="12.7075407"><ele>67.0</ele><time>2026-04-06T16:52:45.581Z</time></trkpt><trkpt lat="43.8410756" lon="12.7072904"><ele>66.33333333333333</ele><time>2026-04-06T16:52:46.582Z</time></trkpt><trkpt lat="43.8409614" lon="12.7070395"><ele>65.66666666666667</ele><time>2026-04-06T16:52:47.586Z</time></trkpt><trkpt lat="43.8408417" lon="12.7067959"><ele>65.0</ele><time>2026-04-06T16:52:48.583Z</time></trkpt><trkpt lat="43.8407252" lon="12.7065535"><ele>66.33333333333334</ele><time>2026-04-06T16:52:49.584Z</time></trkpt><trkpt lat="43.840608" lon="12.7063157"><ele>67.66666666666667</ele><time>2026-04-06T16:52:50.582Z</time></trkpt><trkpt lat="43.8404943" lon="12.706083"><ele>69.0</ele><time>2026-04-06T16:52:51.582Z</time></trkpt><trkpt lat="43.8403858" lon="12.7058637"><ele>69.33333333333333</ele><time>2026-04-06T16:52:52.584Z</time></trkpt><trkpt lat="43.8402864" lon="12.7056623"><ele>69.66666666666666</ele><time>2026-04-06T16:52:53.582Z</time></trkpt><trkpt lat="43.8401942" lon="12.7054747"><ele>70.0</ele><time>2026-04-06T16:52:54.584Z</time></trkpt><trkpt lat="43.8401064" lon="12.7053008"><ele>70.25</ele><time>2026-04-06T16:52:55.583Z</time></trkpt><trkpt lat="43.8400259" lon="12.7051374"><ele>70.5</ele><time>2026-04-06T16:52:56.583Z</time></trkpt><trkpt lat="43.8399547" lon="12.704982"><ele>70.75</ele><time>2026-04-06T16:52:57.582Z</time></trkpt><trkpt lat="43.8398844" lon="12.7048397"><ele>71.0</ele><time>2026-04-06T16:52:58.582Z</time></trkpt><trkpt lat="43.839813" lon="12.7047083"><ele>71.0</ele><time>2026-04-06T16:52:59.583Z</time></trkpt><trkpt lat="43.8397495" lon="12.7045719"><ele>71.0</ele><time>2026-04-06T16:53:00.581Z</time></trkpt><trkpt lat="43.8396837" lon="12.7044349"><ele>71.0</ele><time>2026-04-06T16:53:01.582Z</time></trkpt><trkpt lat="43.8396122" lon="12.7042987"><ele>71.0</ele><time>2026-04-06T16:53:02.582Z</time></trkpt><trkpt lat="43.8395384" lon="12.7041511"><ele>72.0</ele><time>2026-04-06T16:53:03.581Z</time></trkpt><trkpt lat="43.8394704" lon="12.7039919"><ele>73.0</ele><time>2026-04-06T16:53:04.583Z</time></trkpt><trkpt lat="43.8394082" lon="12.7038206"><ele>74.0</ele><time>2026-04-06T16:53:05.583Z</time></trkpt><trkpt lat="43.8393584" lon="12.7036343"><ele>75.0</ele><time>2026-04-06T16:53:06.582Z</time></trkpt><trkpt lat="43.8393205" lon="12.7034352"><ele>75.0</ele><time>2026-04-06T16:53:07.582Z</time></trkpt><trkpt lat="43.8392911" lon="12.7032414"><ele>75.0</ele><time>2026-04-06T16:53:08.581Z</time></trkpt><trkpt lat="43.8392819" lon="12.7030417"><ele>75.0</ele><time>2026-04-06T16:53:09.582Z</time></trkpt><trkpt lat="43.8392826" lon="12.7028392"><ele>75.0</ele><time>2026-04-06T16:53:10.582Z</time></trkpt><trkpt lat="43.839291" lon="12.7026309"><ele>75.33333333333333</ele><time>2026-04-06T16:53:11.581Z</time></trkpt><trkpt lat="43.8393037" lon="12.7024121"><ele>75.66666666666666</ele><time>2026-04-06T16:53:12.582Z</time></trkpt><trkpt lat="43.8393027" lon="12.702177"><ele>76.0</ele><time>2026-04-06T16:53:13.582Z</time></trkpt><trkpt lat="43.8393001" lon="12.7019066"><ele>77.66666666666666</ele><time>2026-04-06T16:53:14.582Z</time></trkpt><trkpt lat="43.8393028" lon="12.7016268"><ele>79.33333333333333</ele><time>2026-04-06T16:53:15.582Z</time></trkpt><trkpt lat="43.839313" lon="12.7013429"><ele>81.0</ele><time>2026-04-06T16:53:16.582Z</time></trkpt><trkpt lat="43.8393213" lon="12.7010551"><ele>81.0</ele><time>2026-04-06T16:53:17.582Z</time></trkpt><trkpt lat="43.8393184" lon="12.7007685"><ele>81.0</ele><time>2026-04-06T16:53:18.582Z</time></trkpt><trkpt lat="43.8393031" lon="12.700486"><ele>81.0</ele><time>2026-04-06T16:53:19.582Z</time></trkpt><trkpt lat="43.839272" lon="12.700208"><ele>80.66666666666667</ele><time>2026-04-06T16:53:20.582Z</time></trkpt><trkpt lat="43.8392199" lon="12.6999362"><ele>80.33333333333334</ele><time>2026-04-06T16:53:21.581Z</time></trkpt><trkpt lat="43.8391517" lon="12.6996665"><ele>80.0</ele><time>2026-04-06T16:53:22.583Z</time></trkpt><trkpt lat="43.8390633" lon="12.6994051"><ele>80.66666666666667</ele><time>2026-04-06T16:53:23.582Z</time></trkpt><trkpt lat="43.8389601" lon="12.6991477"><ele>81.33333333333333</ele><time>2026-04-06T16:53:24.583Z</time></trkpt><trkpt lat="43.8388489" lon="12.6988883"><ele>82.0</ele><time>2026-04-06T16:53:25.584Z</time></trkpt><trkpt lat="43.8387366" lon="12.6986218"><ele>83.0</ele><time>2026-04-06T16:53:26.583Z</time></trkpt><trkpt lat="43.8386237" lon="12.6983467"><ele>84.0</ele><time>2026-04-06T16:53:27.585Z</time></trkpt><trkpt lat="43.8385131" lon="12.6980688"><ele>83.33333333333333</ele><time>2026-04-06T16:53:28.583Z</time></trkpt><trkpt lat="43.8384068" lon="12.6977946"><ele>82.66666666666666</ele><time>2026-04-06T16:53:29.582Z</time></trkpt><trkpt lat="43.8382992" lon="12.6975274"><ele>82.0</ele><time>2026-04-06T16:53:30.582Z</time></trkpt><trkpt lat="43.8381973" lon="12.6972666"><ele>82.0</ele><time>2026-04-06T16:53:31.582Z</time></trkpt><trkpt lat="43.838091" lon="12.6970144"><ele>82.0</ele><time>2026-04-06T16:53:32.581Z</time></trkpt><trkpt lat="43.8379897" lon="12.6967619"><ele>82.0</ele><time>2026-04-06T16:53:33.582Z</time></trkpt><trkpt lat="43.8378884" lon="12.6965118"><ele>82.33333333333333</ele><time>2026-04-06T16:53:34.581Z</time></trkpt><trkpt lat="43.8377871" lon="12.69626"><ele>82.66666666666667</ele><time>2026-04-06T16:53:35.582Z</time></trkpt><trkpt lat="43.837686" lon="12.696011"><ele>83.0</ele><time>2026-04-06T16:53:36.581Z</time></trkpt><trkpt lat="43.837587" lon="12.6957615"><ele>82.0</ele><time>2026-04-06T16:53:37.581Z</time></trkpt><trkpt lat="43.8374886" lon="12.6955159"><ele>81.0</ele><time>2026-04-06T16:53:38.582Z</time></trkpt><trkpt lat="43.8373894" lon="12.6952709"><ele>80.0</ele><time>2026-04-06T16:53:39.582Z</time></trkpt><trkpt lat="43.8372911" lon="12.695025"><ele>80.0</ele><time>2026-04-06T16:53:40.581Z</time></trkpt><trkpt lat="43.8371915" lon="12.6947837"><ele>80.0</ele><time>2026-04-06T16:53:41.581Z</time></trkpt><trkpt lat="43.837094" lon="12.6945415"><ele>80.0</ele><time>2026-04-06T16:53:42.582Z</time></trkpt><trkpt lat="43.8369959" lon="12.6943"><ele>79.66666666666667</ele><time>2026-04-06T16:53:43.581Z</time></trkpt><trkpt lat="43.8368963" lon="12.6940602"><ele>79.33333333333333</ele><time>2026-04-06T16:53:44.582Z</time></trkpt><trkpt lat="43.8367961" lon="12.6938243"><ele>79.0</ele><time>2026-04-06T16:53:45.582Z</time></trkpt><trkpt lat="43.8366949" lon="12.693587"><ele>80.33333333333333</ele><time>2026-04-06T16:53:46.581Z</time></trkpt><trkpt lat="43.8365944" lon="12.6933561"><ele>81.66666666666667</ele><time>2026-04-06T16:53:47.582Z</time></trkpt><trkpt lat="43.8364969" lon="12.6931195"><ele>83.0</ele><time>2026-04-06T16:53:48.583Z</time></trkpt><trkpt lat="43.8363991" lon="12.6928805"><ele>84.0</ele><time>2026-04-06T16:53:49.583Z</time></trkpt><trkpt lat="43.836304" lon="12.6926433"><ele>85.0</ele><time>2026-04-06T16:53:50.584Z</time></trkpt><trkpt lat="43.8362128" lon="12.6924054"><ele>86.0</ele><time>2026-04-06T16:53:51.586Z</time></trkpt><trkpt lat="43.8361223" lon="12.6921721"><ele>86.0</ele><time>2026-04-06T16:53:52.583Z</time></trkpt><trkpt lat="43.8360399" lon="12.6919293"><ele>86.0</ele><time>2026-04-06T16:53:53.583Z</time></trkpt><trkpt lat="43.8359689" lon="12.6916776"><ele>86.0</ele><time>2026-04-06T16:53:54.587Z</time></trkpt><trkpt lat="43.8359029" lon="12.6914264"><ele>86.0</ele><time>2026-04-06T16:53:55.583Z</time></trkpt><trkpt lat="43.835841" lon="12.691173"><ele>86.0</ele><time>2026-04-06T16:53:56.582Z</time></trkpt><trkpt lat="43.8357796" lon="12.6909194"><ele>86.0</ele><time>2026-04-06T16:53:57.58Z</time></trkpt><trkpt lat="43.8357177" lon="12.6906608"><ele>85.66666666666667</ele><time>2026-04-06T16:53:58.582Z</time></trkpt><trkpt lat="43.8356559" lon="12.6903979"><ele>85.33333333333333</ele><time>2026-04-06T16:53:59.582Z</time></trkpt><trkpt lat="43.8355938" lon="12.6901369"><ele>85.0</ele><time>2026-04-06T16:54:00.581Z</time></trkpt><trkpt lat="43.8355356" lon="12.6898733"><ele>85.66666666666666</ele><time>2026-04-06T16:54:01.584Z</time></trkpt><trkpt lat="43.8354791" lon="12.6896057"><ele>86.33333333333333</ele><time>2026-04-06T16:54:02.582Z</time></trkpt><trkpt lat="43.8354172" lon="12.6893429"><ele>87.0</ele><time>2026-04-06T16:54:03.582Z</time></trkpt><trkpt lat="43.8353542" lon="12.6890808"><ele>87.33333333333333</ele><time>2026-04-06T16:54:04.585Z</time></trkpt><trkpt lat="43.8352928" lon="12.6888167"><ele>87.66666666666666</ele><time>2026-04-06T16:54:05.583Z</time></trkpt><trkpt lat="43.8352272" lon="12.6885535"><ele>88.0</ele><time>2026-04-06T16:54:06.582Z</time></trkpt><trkpt lat="43.8351642" lon="12.6882933"><ele>88.0</ele><time>2026-04-06T16:54:07.583Z</time></trkpt><trkpt lat="43.8351034" lon="12.6880364"><ele>88.0</ele><time>2026-04-06T16:54:08.583Z</time></trkpt><trkpt lat="43.8350385" lon="12.6877812"><ele>88.0</ele><time>2026-04-06T16:54:09.582Z</time></trkpt><trkpt lat="43.834966" lon="12.6875314"><ele>88.0</ele><time>2026-04-06T16:54:10.582Z</time></trkpt><trkpt lat="43.8348703" lon="12.6873"><ele>88.0</ele><time>2026-04-06T16:54:11.582Z</time></trkpt><trkpt lat="43.8347478" lon="12.6870906"><ele>88.0</ele><time>2026-04-06T16:54:12.584Z</time></trkpt><trkpt lat="43.8346034" lon="12.686907"><ele>88.33333333333333</ele><time>2026-04-06T16:54:13.583Z</time></trkpt><trkpt lat="43.8344404" lon="12.6867462"><ele>88.66666666666667</ele><time>2026-04-06T16:54:14.582Z</time></trkpt><trkpt lat="43.834268" lon="12.686596"><ele>89.0</ele><time>2026-04-06T16:54:15.581Z</time></trkpt><trkpt lat="43.8340993" lon="12.6864548"><ele>87.66666666666667</ele><time>2026-04-06T16:54:16.581Z</time></trkpt><trkpt lat="43.8339424" lon="12.6863199"><ele>86.33333333333333</ele><time>2026-04-06T16:54:17.582Z</time></trkpt><trkpt lat="43.8337923" lon="12.6861874"><ele>85.0</ele><time>2026-04-06T16:54:18.582Z</time></trkpt><trkpt lat="43.8336578" lon="12.6860641"><ele>85.0</ele><time>2026-04-06T16:54:19.582Z</time></trkpt><trkpt lat="43.8335295" lon="12.6859458"><ele>85.0</ele><time>2026-04-06T16:54:20.582Z</time></trkpt><trkpt lat="43.8334054" lon="12.685826"><ele>85.0</ele><time>2026-04-06T16:54:21.582Z</time></trkpt><trkpt lat="43.8332785" lon="12.6857085"><ele>84.66666666666666</ele><time>2026-04-06T16:54:22.581Z</time></trkpt><trkpt lat="43.8331479" lon="12.68559"><ele>84.33333333333333</ele><time>2026-04-06T16:54:23.582Z</time></trkpt><trkpt lat="43.8330166" lon="12.6854727"><ele>84.0</ele><time>2026-04-06T16:54:24.582Z</time></trkpt><trkpt lat="43.832885" lon="12.6853537"><ele>83.75</ele><time>2026-04-06T16:54:25.581Z</time></trkpt><trkpt lat="43.8327569" lon="12.6852341"><ele>83.5</ele><time>2026-04-06T16:54:26.581Z</time></trkpt><trkpt lat="43.8326318" lon="12.6851216"><ele>83.25</ele><time>2026-04-06T16:54:27.582Z</time></trkpt><trkpt lat="43.8325104" lon="12.6850132"><ele>83.0</ele><time>2026-04-06T16:54:28.582Z</time></trkpt><trkpt lat="43.8323971" lon="12.6849038"><ele>82.25</ele><time>2026-04-06T16:54:29.582Z</time></trkpt><trkpt lat="43.8322799" lon="12.6848089"><ele>81.5</ele><time>2026-04-06T16:54:30.581Z</time></trkpt><trkpt lat="43.8321736" lon="12.684707"><ele>80.75</ele><time>2026-04-06T16:54:31.582Z</time></trkpt><trkpt lat="43.8320781" lon="12.6846038"><ele>80.0</ele><time>2026-04-06T16:54:32.581Z</time></trkpt><trkpt lat="43.8319803" lon="12.6845207"><ele>80.0</ele><time>2026-04-06T16:54:33.58Z</time></trkpt><trkpt lat="43.8318874" lon="12.6844472"><ele>80.0</ele><time>2026-04-06T16:54:34.582Z</time></trkpt><trkpt lat="43.8318086" lon="12.6843743"><ele>80.0</ele><time>2026-04-06T16:54:35.581Z</time></trkpt><trkpt lat="43.8317393" lon="12.6843194"><ele>80.0</ele><time>2026-04-06T16:54:36.581Z</time></trkpt><trkpt lat="43.8316312" lon="12.6842827"><ele>80.0</ele><time>2026-04-06T16:54:38.581Z</time></trkpt><trkpt lat="43.831535" lon="12.6843718"><ele>80.16666666666667</ele><time>2026-04-06T16:54:40.581Z</time></trkpt><trkpt lat="43.8314998" lon="12.6844676"><ele>80.33333333333334</ele><time>2026-04-06T16:54:41.583Z</time></trkpt><trkpt lat="43.8314641" lon="12.684576"><ele>80.5</ele><time>2026-04-06T16:54:42.582Z</time></trkpt><trkpt lat="43.8314239" lon="12.6846829"><ele>80.66666666666667</ele><time>2026-04-06T16:54:43.583Z</time></trkpt><trkpt lat="43.831375" lon="12.6847924"><ele>80.83333333333333</ele><time>2026-04-06T16:54:44.581Z</time></trkpt><trkpt lat="43.8313222" lon="12.6849099"><ele>81.0</ele><time>2026-04-06T16:54:45.581Z</time></trkpt><trkpt lat="43.8312652" lon="12.6850216"><ele>81.0</ele><time>2026-04-06T16:54:46.581Z</time></trkpt><trkpt lat="43.8312107" lon="12.6851239"><ele>81.0</ele><time>2026-04-06T16:54:47.583Z</time></trkpt><trkpt lat="43.8311554" lon="12.6852059"><ele>81.0</ele><time>2026-04-06T16:54:48.584Z</time></trkpt><trkpt lat="43.8310992" lon="12.6852818"><ele>81.0</ele><time>2026-04-06T16:54:49.582Z</time></trkpt><trkpt lat="43.8310449" lon="12.6853451"><ele>81.0</ele><time>2026-04-06T16:54:50.581Z</time></trkpt><trkpt lat="43.8309823" lon="12.6853698"><ele>81.0</ele><time>2026-04-06T16:54:51.581Z</time></trkpt><trkpt lat="43.8308696" lon="12.685359"><ele>81.0</ele><time>2026-04-06T16:54:53.581Z</time></trkpt><trkpt lat="43.8307971" lon="12.6852528"><ele>81.0</ele><time>2026-04-06T16:54:55.58Z</time></trkpt><trkpt lat="43.8308032" lon="12.6851427"><ele>81.0</ele><time>2026-04-06T16:54:57.58Z</time></trkpt><trkpt lat="43.8308507" lon="12.6850503"><ele>81.0</ele><time>2026-04-06T16:54:59.58Z</time></trkpt><trkpt lat="43.8308827" lon="12.684974"><ele>81.0</ele><time>2026-04-06T16:55:01.58Z</time></trkpt><trkpt lat="43.8308013" lon="12.6848776"><ele>81.0</ele><time>2026-04-06T16:55:03.581Z</time></trkpt><trkpt lat="43.8307517" lon="12.6848056"><ele>81.0</ele><time>2026-04-06T16:55:04.582Z</time></trkpt><trkpt lat="43.8306672" lon="12.6847249"><ele>81.0</ele><time>2026-04-06T16:55:06.581Z</time></trkpt></trkseg></trk></gpx>